<?xml version="1.0" encoding="UTF-8" standalone="no" ?>
<gpx xmlns="http://www.topografix.com/GPX/1/1" xmlns:xsi="http://www.w3.org/2001/XMLSchema-instance" xsi:schemaLocation="http://www.topografix.com/GPX/1/1 http://www.topografix.com/GPX/1/1/gpx.xsd" version="1.1" creator="VisuGPX - https://www.visugpx.com">
  <metadata>
    <name>rec'O aqueduc n°1</name>
    <desc><![CDATA[reconnaissance n°1 du tracé de l'aqueduc des Monts d'Or]]></desc>
  </metadata>
  <trk>
    <name><![CDATA[2011-12-18T08:48:53Z]]></name>
    <trkseg>
      <trkpt lat="45.82801" lon="4.81273">
        <ele>413</ele>
        <time>2011-12-18T08:48:53Z</time>
      </trkpt>
      <trkpt lat="45.82802" lon="4.81269">
        <ele>413</ele>
        <time>2011-12-18T08:48:56Z</time>
      </trkpt>
      <trkpt lat="45.82804" lon="4.81265">
        <ele>413</ele>
        <time>2011-12-18T08:48:58Z</time>
      </trkpt>
      <trkpt lat="45.82805" lon="4.8126">
        <ele>413</ele>
        <time>2011-12-18T08:49:00Z</time>
      </trkpt>
      <trkpt lat="45.82808" lon="4.81253">
        <ele>412</ele>
        <time>2011-12-18T08:49:02Z</time>
      </trkpt>
      <trkpt lat="45.82809" lon="4.8125">
        <ele>411</ele>
        <time>2011-12-18T08:49:03Z</time>
      </trkpt>
      <trkpt lat="45.8281" lon="4.81242">
        <ele>411</ele>
        <time>2011-12-18T08:49:05Z</time>
      </trkpt>
      <trkpt lat="45.82813" lon="4.81232">
        <ele>411</ele>
        <time>2011-12-18T08:49:08Z</time>
      </trkpt>
      <trkpt lat="45.82815" lon="4.81229">
        <ele>411</ele>
        <time>2011-12-18T08:49:09Z</time>
      </trkpt>
      <trkpt lat="45.82816" lon="4.81226">
        <ele>411</ele>
        <time>2011-12-18T08:49:10Z</time>
      </trkpt>
      <trkpt lat="45.82819" lon="4.81219">
        <ele>411</ele>
        <time>2011-12-18T08:49:12Z</time>
      </trkpt>
      <trkpt lat="45.82824" lon="4.81202">
        <ele>411</ele>
        <time>2011-12-18T08:49:17Z</time>
      </trkpt>
      <trkpt lat="45.8283" lon="4.81186">
        <ele>410</ele>
        <time>2011-12-18T08:49:22Z</time>
      </trkpt>
      <trkpt lat="45.82833" lon="4.81177">
        <ele>410</ele>
        <time>2011-12-18T08:49:25Z</time>
      </trkpt>
      <trkpt lat="45.82837" lon="4.81172">
        <ele>409</ele>
        <time>2011-12-18T08:49:27Z</time>
      </trkpt>
      <trkpt lat="45.82842" lon="4.81155">
        <ele>409</ele>
        <time>2011-12-18T08:49:32Z</time>
      </trkpt>
      <trkpt lat="45.82843" lon="4.81152">
        <ele>409</ele>
        <time>2011-12-18T08:49:33Z</time>
      </trkpt>
      <trkpt lat="45.82845" lon="4.81139">
        <ele>408</ele>
        <time>2011-12-18T08:49:37Z</time>
      </trkpt>
      <trkpt lat="45.82844" lon="4.81129">
        <ele>408</ele>
        <time>2011-12-18T08:49:40Z</time>
      </trkpt>
      <trkpt lat="45.82845" lon="4.81126">
        <ele>408</ele>
        <time>2011-12-18T08:49:41Z</time>
      </trkpt>
      <trkpt lat="45.8285" lon="4.81118">
        <ele>407</ele>
        <time>2011-12-18T08:49:44Z</time>
      </trkpt>
      <trkpt lat="45.82852" lon="4.81116">
        <ele>407</ele>
        <time>2011-12-18T08:49:45Z</time>
      </trkpt>
      <trkpt lat="45.82856" lon="4.81112">
        <ele>407</ele>
        <time>2011-12-18T08:49:47Z</time>
      </trkpt>
      <trkpt lat="45.82865" lon="4.81101">
        <ele>407</ele>
        <time>2011-12-18T08:49:51Z</time>
      </trkpt>
      <trkpt lat="45.82872" lon="4.81094">
        <ele>407</ele>
        <time>2011-12-18T08:49:54Z</time>
      </trkpt>
      <trkpt lat="45.8288" lon="4.81087">
        <ele>408</ele>
        <time>2011-12-18T08:49:57Z</time>
      </trkpt>
      <trkpt lat="45.82888" lon="4.81077">
        <ele>407</ele>
        <time>2011-12-18T08:50:01Z</time>
      </trkpt>
      <trkpt lat="45.82892" lon="4.81072">
        <ele>407</ele>
        <time>2011-12-18T08:50:03Z</time>
      </trkpt>
      <trkpt lat="45.82903" lon="4.81061">
        <ele>407</ele>
        <time>2011-12-18T08:50:09Z</time>
      </trkpt>
      <trkpt lat="45.82915" lon="4.81051">
        <ele>407</ele>
        <time>2011-12-18T08:50:15Z</time>
      </trkpt>
      <trkpt lat="45.82919" lon="4.81047">
        <ele>409</ele>
        <time>2011-12-18T08:50:17Z</time>
      </trkpt>
      <trkpt lat="45.82925" lon="4.81042">
        <ele>409</ele>
        <time>2011-12-18T08:50:20Z</time>
      </trkpt>
      <trkpt lat="45.82934" lon="4.81032">
        <ele>409</ele>
        <time>2011-12-18T08:50:25Z</time>
      </trkpt>
      <trkpt lat="45.82948" lon="4.8102">
        <ele>410</ele>
        <time>2011-12-18T08:50:32Z</time>
      </trkpt>
      <trkpt lat="45.82951" lon="4.81019">
        <ele>410</ele>
        <time>2011-12-18T08:50:33Z</time>
      </trkpt>
      <trkpt lat="45.8296" lon="4.81013">
        <ele>411</ele>
        <time>2011-12-18T08:50:37Z</time>
      </trkpt>
      <trkpt lat="45.8297" lon="4.81007">
        <ele>411</ele>
        <time>2011-12-18T08:50:41Z</time>
      </trkpt>
      <trkpt lat="45.82973" lon="4.81006">
        <ele>411</ele>
        <time>2011-12-18T08:50:42Z</time>
      </trkpt>
      <trkpt lat="45.82987" lon="4.81">
        <ele>414</ele>
        <time>2011-12-18T08:50:47Z</time>
      </trkpt>
      <trkpt lat="45.82995" lon="4.80989">
        <ele>414</ele>
        <time>2011-12-18T08:50:51Z</time>
      </trkpt>
      <trkpt lat="45.83002" lon="4.80984">
        <ele>415</ele>
        <time>2011-12-18T08:50:54Z</time>
      </trkpt>
      <trkpt lat="45.83008" lon="4.8098">
        <ele>414</ele>
        <time>2011-12-18T08:50:57Z</time>
      </trkpt>
      <trkpt lat="45.83018" lon="4.80966">
        <ele>414</ele>
        <time>2011-12-18T08:51:03Z</time>
      </trkpt>
      <trkpt lat="45.83029" lon="4.80953">
        <ele>414</ele>
        <time>2011-12-18T08:51:09Z</time>
      </trkpt>
      <trkpt lat="45.83032" lon="4.80948">
        <ele>414</ele>
        <time>2011-12-18T08:51:11Z</time>
      </trkpt>
      <trkpt lat="45.83041" lon="4.80936">
        <ele>414</ele>
        <time>2011-12-18T08:51:16Z</time>
      </trkpt>
      <trkpt lat="45.83047" lon="4.80931">
        <ele>415</ele>
        <time>2011-12-18T08:51:19Z</time>
      </trkpt>
      <trkpt lat="45.83052" lon="4.80925">
        <ele>415</ele>
        <time>2011-12-18T08:51:22Z</time>
      </trkpt>
      <trkpt lat="45.83061" lon="4.80916">
        <ele>418</ele>
        <time>2011-12-18T08:51:27Z</time>
      </trkpt>
      <trkpt lat="45.83072" lon="4.80906">
        <ele>419</ele>
        <time>2011-12-18T08:51:32Z</time>
      </trkpt>
      <trkpt lat="45.83077" lon="4.80899">
        <ele>419</ele>
        <time>2011-12-18T08:51:35Z</time>
      </trkpt>
      <trkpt lat="45.83081" lon="4.80895">
        <ele>419</ele>
        <time>2011-12-18T08:51:37Z</time>
      </trkpt>
      <trkpt lat="45.83091" lon="4.80886">
        <ele>418</ele>
        <time>2011-12-18T08:51:42Z</time>
      </trkpt>
      <trkpt lat="45.83094" lon="4.80883">
        <ele>418</ele>
        <time>2011-12-18T08:51:43Z</time>
      </trkpt>
      <trkpt lat="45.83102" lon="4.80877">
        <ele>418</ele>
        <time>2011-12-18T08:51:47Z</time>
      </trkpt>
      <trkpt lat="45.83109" lon="4.80869">
        <ele>418</ele>
        <time>2011-12-18T08:51:51Z</time>
      </trkpt>
      <trkpt lat="45.83112" lon="4.80865">
        <ele>418</ele>
        <time>2011-12-18T08:51:53Z</time>
      </trkpt>
      <trkpt lat="45.8312" lon="4.80854">
        <ele>418</ele>
        <time>2011-12-18T08:51:58Z</time>
      </trkpt>
      <trkpt lat="45.83122" lon="4.80848">
        <ele>418</ele>
        <time>2011-12-18T08:52:00Z</time>
      </trkpt>
      <trkpt lat="45.8313" lon="4.80835">
        <ele>418</ele>
        <time>2011-12-18T08:52:05Z</time>
      </trkpt>
      <trkpt lat="45.83135" lon="4.80827">
        <ele>421</ele>
        <time>2011-12-18T08:52:08Z</time>
      </trkpt>
      <trkpt lat="45.83139" lon="4.80818">
        <ele>421</ele>
        <time>2011-12-18T08:52:11Z</time>
      </trkpt>
      <trkpt lat="45.83144" lon="4.80802">
        <ele>421</ele>
        <time>2011-12-18T08:52:16Z</time>
      </trkpt>
      <trkpt lat="45.83145" lon="4.80799">
        <ele>421</ele>
        <time>2011-12-18T08:52:17Z</time>
      </trkpt>
      <trkpt lat="45.8315" lon="4.80776">
        <ele>422</ele>
        <time>2011-12-18T08:52:23Z</time>
      </trkpt>
      <trkpt lat="45.83153" lon="4.80755">
        <ele>422</ele>
        <time>2011-12-18T08:52:29Z</time>
      </trkpt>
      <trkpt lat="45.83153" lon="4.80747">
        <ele>423</ele>
        <time>2011-12-18T08:52:31Z</time>
      </trkpt>
      <trkpt lat="45.83154" lon="4.80738">
        <ele>423</ele>
        <time>2011-12-18T08:52:34Z</time>
      </trkpt>
      <trkpt lat="45.83152" lon="4.80719">
        <ele>424</ele>
        <time>2011-12-18T08:52:38Z</time>
      </trkpt>
      <trkpt lat="45.83151" lon="4.80716">
        <ele>424</ele>
        <time>2011-12-18T08:52:39Z</time>
      </trkpt>
      <trkpt lat="45.8315" lon="4.80698">
        <ele>425</ele>
        <time>2011-12-18T08:52:44Z</time>
      </trkpt>
      <trkpt lat="45.83149" lon="4.8069">
        <ele>425</ele>
        <time>2011-12-18T08:52:46Z</time>
      </trkpt>
      <trkpt lat="45.83147" lon="4.80679">
        <ele>425</ele>
        <time>2011-12-18T08:52:49Z</time>
      </trkpt>
      <trkpt lat="45.83148" lon="4.80663">
        <ele>427</ele>
        <time>2011-12-18T08:52:54Z</time>
      </trkpt>
      <trkpt lat="45.83153" lon="4.80651">
        <ele>427</ele>
        <time>2011-12-18T08:52:58Z</time>
      </trkpt>
      <trkpt lat="45.8316" lon="4.80641">
        <ele>428</ele>
        <time>2011-12-18T08:53:02Z</time>
      </trkpt>
      <trkpt lat="45.83161" lon="4.80638">
        <ele>428</ele>
        <time>2011-12-18T08:53:03Z</time>
      </trkpt>
      <trkpt lat="45.8317" lon="4.80622">
        <ele>426</ele>
        <time>2011-12-18T08:53:09Z</time>
      </trkpt>
      <trkpt lat="45.83171" lon="4.80619">
        <ele>426</ele>
        <time>2011-12-18T08:53:10Z</time>
      </trkpt>
      <trkpt lat="45.83178" lon="4.8061">
        <ele>426</ele>
        <time>2011-12-18T08:53:14Z</time>
      </trkpt>
      <trkpt lat="45.83186" lon="4.80601">
        <ele>427</ele>
        <time>2011-12-18T08:53:18Z</time>
      </trkpt>
      <trkpt lat="45.83189" lon="4.80598">
        <ele>427</ele>
        <time>2011-12-18T08:53:20Z</time>
      </trkpt>
      <trkpt lat="45.83204" lon="4.80592">
        <ele>426</ele>
        <time>2011-12-18T08:53:26Z</time>
      </trkpt>
      <trkpt lat="45.83214" lon="4.80586">
        <ele>426</ele>
        <time>2011-12-18T08:53:31Z</time>
      </trkpt>
      <trkpt lat="45.83221" lon="4.80582">
        <ele>430</ele>
        <time>2011-12-18T08:53:34Z</time>
      </trkpt>
      <trkpt lat="45.83224" lon="4.80582">
        <ele>430</ele>
        <time>2011-12-18T08:53:35Z</time>
      </trkpt>
      <trkpt lat="45.83241" lon="4.80579">
        <ele>428</ele>
        <time>2011-12-18T08:53:41Z</time>
      </trkpt>
      <trkpt lat="45.83245" lon="4.80575">
        <ele>427</ele>
        <time>2011-12-18T08:53:43Z</time>
      </trkpt>
      <trkpt lat="45.83249" lon="4.80573">
        <ele>428</ele>
        <time>2011-12-18T08:53:45Z</time>
      </trkpt>
      <trkpt lat="45.83256" lon="4.80568">
        <ele>429</ele>
        <time>2011-12-18T08:53:48Z</time>
      </trkpt>
      <trkpt lat="45.83259" lon="4.80567">
        <ele>429</ele>
        <time>2011-12-18T08:53:49Z</time>
      </trkpt>
      <trkpt lat="45.83268" lon="4.80556">
        <ele>431</ele>
        <time>2011-12-18T08:53:54Z</time>
      </trkpt>
      <trkpt lat="45.83271" lon="4.80545">
        <ele>432</ele>
        <time>2011-12-18T08:53:57Z</time>
      </trkpt>
      <trkpt lat="45.83275" lon="4.80544">
        <ele>432</ele>
        <time>2011-12-18T08:53:59Z</time>
      </trkpt>
      <trkpt lat="45.83288" lon="4.80547">
        <ele>432</ele>
        <time>2011-12-18T08:54:05Z</time>
      </trkpt>
      <trkpt lat="45.83291" lon="4.80549">
        <ele>432</ele>
        <time>2011-12-18T08:54:06Z</time>
      </trkpt>
      <trkpt lat="45.83303" lon="4.80554">
        <ele>432</ele>
        <time>2011-12-18T08:54:12Z</time>
      </trkpt>
      <trkpt lat="45.8331" lon="4.80558">
        <ele>432</ele>
        <time>2011-12-18T08:54:15Z</time>
      </trkpt>
      <trkpt lat="45.83316" lon="4.8056">
        <ele>432</ele>
        <time>2011-12-18T08:54:18Z</time>
      </trkpt>
      <trkpt lat="45.83326" lon="4.80563">
        <ele>432</ele>
        <time>2011-12-18T08:54:23Z</time>
      </trkpt>
      <trkpt lat="45.83328" lon="4.80564">
        <ele>432</ele>
        <time>2011-12-18T08:54:24Z</time>
      </trkpt>
      <trkpt lat="45.83337" lon="4.80566">
        <ele>435</ele>
        <time>2011-12-18T08:54:28Z</time>
      </trkpt>
      <trkpt lat="45.83347" lon="4.80567">
        <ele>436</ele>
        <time>2011-12-18T08:54:32Z</time>
      </trkpt>
      <trkpt lat="45.8335" lon="4.80567">
        <ele>436</ele>
        <time>2011-12-18T08:54:33Z</time>
      </trkpt>
      <trkpt lat="45.83361" lon="4.80566">
        <ele>438</ele>
        <time>2011-12-18T08:54:37Z</time>
      </trkpt>
      <trkpt lat="45.83367" lon="4.80564">
        <ele>439</ele>
        <time>2011-12-18T08:54:40Z</time>
      </trkpt>
      <trkpt lat="45.83371" lon="4.80563">
        <ele>439</ele>
        <time>2011-12-18T08:54:42Z</time>
      </trkpt>
      <trkpt lat="45.83373" lon="4.80562">
        <ele>439</ele>
        <time>2011-12-18T08:54:44Z</time>
      </trkpt>
      <trkpt lat="45.83377" lon="4.80558">
        <ele>440</ele>
        <time>2011-12-18T08:54:47Z</time>
      </trkpt>
      <trkpt lat="45.83378" lon="4.80558">
        <ele>440</ele>
        <time>2011-12-18T08:54:48Z</time>
      </trkpt>
      <trkpt lat="45.83385" lon="4.80554">
        <ele>440</ele>
        <time>2011-12-18T08:54:53Z</time>
      </trkpt>
      <trkpt lat="45.8339" lon="4.80552">
        <ele>441</ele>
        <time>2011-12-18T08:54:56Z</time>
      </trkpt>
      <trkpt lat="45.834" lon="4.80552">
        <ele>441</ele>
        <time>2011-12-18T08:55:01Z</time>
      </trkpt>
      <trkpt lat="45.83404" lon="4.80551">
        <ele>442</ele>
        <time>2011-12-18T08:55:04Z</time>
      </trkpt>
      <trkpt lat="45.83407" lon="4.80548">
        <ele>442</ele>
        <time>2011-12-18T08:55:07Z</time>
      </trkpt>
      <trkpt lat="45.83408" lon="4.80548">
        <ele>442</ele>
        <time>2011-12-18T08:55:08Z</time>
      </trkpt>
      <trkpt lat="45.83413" lon="4.80547">
        <ele>442</ele>
        <time>2011-12-18T08:55:11Z</time>
      </trkpt>
      <trkpt lat="45.83414" lon="4.80546">
        <ele>442</ele>
        <time>2011-12-18T08:55:12Z</time>
      </trkpt>
      <trkpt lat="45.83421" lon="4.8054">
        <ele>450</ele>
        <time>2011-12-18T08:55:16Z</time>
      </trkpt>
      <trkpt lat="45.83423" lon="4.8054">
        <ele>450</ele>
        <time>2011-12-18T08:55:17Z</time>
      </trkpt>
      <trkpt lat="45.83427" lon="4.80538">
        <ele>450</ele>
        <time>2011-12-18T08:55:20Z</time>
      </trkpt>
      <trkpt lat="45.83433" lon="4.80533">
        <ele>451</ele>
        <time>2011-12-18T08:55:25Z</time>
      </trkpt>
      <trkpt lat="45.8344" lon="4.80531">
        <ele>451</ele>
        <time>2011-12-18T08:55:30Z</time>
      </trkpt>
      <trkpt lat="45.83448" lon="4.80531">
        <ele>452</ele>
        <time>2011-12-18T08:55:35Z</time>
      </trkpt>
      <trkpt lat="45.83449" lon="4.8053">
        <ele>452</ele>
        <time>2011-12-18T08:55:36Z</time>
      </trkpt>
      <trkpt lat="45.83452" lon="4.80529">
        <ele>452</ele>
        <time>2011-12-18T08:55:38Z</time>
      </trkpt>
      <trkpt lat="45.83452" lon="4.80528">
        <ele>452</ele>
        <time>2011-12-18T08:55:39Z</time>
      </trkpt>
      <trkpt lat="45.83454" lon="4.80528">
        <ele>452</ele>
        <time>2011-12-18T08:55:40Z</time>
      </trkpt>
      <trkpt lat="45.83458" lon="4.80527">
        <ele>452</ele>
        <time>2011-12-18T08:55:42Z</time>
      </trkpt>
      <trkpt lat="45.8346" lon="4.80528">
        <ele>453</ele>
        <time>2011-12-18T08:55:43Z</time>
      </trkpt>
      <trkpt lat="45.83461" lon="4.80527">
        <ele>453</ele>
        <time>2011-12-18T08:55:44Z</time>
      </trkpt>
      <trkpt lat="45.83465" lon="4.80528">
        <ele>453</ele>
        <time>2011-12-18T08:55:46Z</time>
      </trkpt>
      <trkpt lat="45.83469" lon="4.80525">
        <ele>453</ele>
        <time>2011-12-18T08:55:49Z</time>
      </trkpt>
      <trkpt lat="45.83476" lon="4.80519">
        <ele>454</ele>
        <time>2011-12-18T08:55:54Z</time>
      </trkpt>
      <trkpt lat="45.83478" lon="4.80518">
        <ele>454</ele>
        <time>2011-12-18T08:55:56Z</time>
      </trkpt>
      <trkpt lat="45.83482" lon="4.80515">
        <ele>455</ele>
        <time>2011-12-18T08:55:59Z</time>
      </trkpt>
      <trkpt lat="45.83488" lon="4.80506">
        <ele>457</ele>
        <time>2011-12-18T08:56:04Z</time>
      </trkpt>
      <trkpt lat="45.8349" lon="4.80505">
        <ele>457</ele>
        <time>2011-12-18T08:56:05Z</time>
      </trkpt>
      <trkpt lat="45.83495" lon="4.805">
        <ele>460</ele>
        <time>2011-12-18T08:56:09Z</time>
      </trkpt>
      <trkpt lat="45.83496" lon="4.80499">
        <ele>460</ele>
        <time>2011-12-18T08:56:10Z</time>
      </trkpt>
      <trkpt lat="45.83502" lon="4.80495">
        <ele>461</ele>
        <time>2011-12-18T08:56:15Z</time>
      </trkpt>
      <trkpt lat="45.83506" lon="4.80494">
        <ele>462</ele>
        <time>2011-12-18T08:56:17Z</time>
      </trkpt>
      <trkpt lat="45.83511" lon="4.80489">
        <ele>463</ele>
        <time>2011-12-18T08:56:21Z</time>
      </trkpt>
      <trkpt lat="45.83519" lon="4.80481">
        <ele>464</ele>
        <time>2011-12-18T08:56:27Z</time>
      </trkpt>
      <trkpt lat="45.83526" lon="4.80471">
        <ele>465</ele>
        <time>2011-12-18T08:56:32Z</time>
      </trkpt>
      <trkpt lat="45.83528" lon="4.8047">
        <ele>465</ele>
        <time>2011-12-18T08:56:33Z</time>
      </trkpt>
      <trkpt lat="45.83531" lon="4.80468">
        <ele>465</ele>
        <time>2011-12-18T08:56:35Z</time>
      </trkpt>
      <trkpt lat="45.83535" lon="4.80464">
        <ele>465</ele>
        <time>2011-12-18T08:56:38Z</time>
      </trkpt>
      <trkpt lat="45.83537" lon="4.80463">
        <ele>465</ele>
        <time>2011-12-18T08:56:39Z</time>
      </trkpt>
      <trkpt lat="45.83541" lon="4.80462">
        <ele>465</ele>
        <time>2011-12-18T08:56:42Z</time>
      </trkpt>
      <trkpt lat="45.83543" lon="4.80462">
        <ele>465</ele>
        <time>2011-12-18T08:56:43Z</time>
      </trkpt>
      <trkpt lat="45.83546" lon="4.80462">
        <ele>466</ele>
        <time>2011-12-18T08:56:45Z</time>
      </trkpt>
      <trkpt lat="45.83552" lon="4.80461">
        <ele>466</ele>
        <time>2011-12-18T08:56:48Z</time>
      </trkpt>
      <trkpt lat="45.83556" lon="4.80456">
        <ele>466</ele>
        <time>2011-12-18T08:56:53Z</time>
      </trkpt>
      <trkpt lat="45.83559" lon="4.80454">
        <ele>466</ele>
        <time>2011-12-18T08:56:56Z</time>
      </trkpt>
      <trkpt lat="45.8356" lon="4.80452">
        <ele>466</ele>
        <time>2011-12-18T08:56:57Z</time>
      </trkpt>
      <trkpt lat="45.83561" lon="4.80451">
        <ele>466</ele>
        <time>2011-12-18T08:56:58Z</time>
      </trkpt>
      <trkpt lat="45.83571" lon="4.80446">
        <ele>467</ele>
        <time>2011-12-18T08:57:04Z</time>
      </trkpt>
      <trkpt lat="45.83578" lon="4.80445">
        <ele>467</ele>
        <time>2011-12-18T08:57:07Z</time>
      </trkpt>
      <trkpt lat="45.83587" lon="4.80446">
        <ele>467</ele>
        <time>2011-12-18T08:57:11Z</time>
      </trkpt>
      <trkpt lat="45.83597" lon="4.80446">
        <ele>467</ele>
        <time>2011-12-18T08:57:15Z</time>
      </trkpt>
      <trkpt lat="45.83601" lon="4.80446">
        <ele>467</ele>
        <time>2011-12-18T08:57:17Z</time>
      </trkpt>
      <trkpt lat="45.83603" lon="4.80445">
        <ele>466</ele>
        <time>2011-12-18T08:57:18Z</time>
      </trkpt>
      <trkpt lat="45.83609" lon="4.80443">
        <ele>466</ele>
        <time>2011-12-18T08:57:22Z</time>
      </trkpt>
      <trkpt lat="45.8361" lon="4.80442">
        <ele>466</ele>
        <time>2011-12-18T08:57:23Z</time>
      </trkpt>
      <trkpt lat="45.8361" lon="4.8044">
        <ele>466</ele>
        <time>2011-12-18T08:57:26Z</time>
      </trkpt>
      <trkpt lat="45.8361" lon="4.80436">
        <ele>467</ele>
        <time>2011-12-18T08:57:28Z</time>
      </trkpt>
      <trkpt lat="45.83608" lon="4.80431">
        <ele>467</ele>
        <time>2011-12-18T08:57:31Z</time>
      </trkpt>
      <trkpt lat="45.83607" lon="4.80429">
        <ele>467</ele>
        <time>2011-12-18T08:57:32Z</time>
      </trkpt>
      <trkpt lat="45.83605" lon="4.80421">
        <ele>467</ele>
        <time>2011-12-18T08:57:36Z</time>
      </trkpt>
      <trkpt lat="45.83603" lon="4.80417">
        <ele>468</ele>
        <time>2011-12-18T08:57:37Z</time>
      </trkpt>
      <trkpt lat="45.836" lon="4.80406">
        <ele>470</ele>
        <time>2011-12-18T08:57:41Z</time>
      </trkpt>
      <trkpt lat="45.83594" lon="4.8039">
        <ele>471</ele>
        <time>2011-12-18T08:57:46Z</time>
      </trkpt>
      <trkpt lat="45.8359" lon="4.80382">
        <ele>471</ele>
        <time>2011-12-18T08:57:50Z</time>
      </trkpt>
      <trkpt lat="45.83586" lon="4.8038">
        <ele>471</ele>
        <time>2011-12-18T08:57:53Z</time>
      </trkpt>
      <trkpt lat="45.83579" lon="4.80377">
        <ele>471</ele>
        <time>2011-12-18T08:57:58Z</time>
      </trkpt>
      <trkpt lat="45.83575" lon="4.80376">
        <ele>471</ele>
        <time>2011-12-18T08:58:01Z</time>
      </trkpt>
      <trkpt lat="45.83572" lon="4.80374">
        <ele>471</ele>
        <time>2011-12-18T08:58:04Z</time>
      </trkpt>
      <trkpt lat="45.83569" lon="4.80371">
        <ele>471</ele>
        <time>2011-12-18T08:58:06Z</time>
      </trkpt>
      <trkpt lat="45.83564" lon="4.80367">
        <ele>472</ele>
        <time>2011-12-18T08:58:10Z</time>
      </trkpt>
      <trkpt lat="45.83557" lon="4.80359">
        <ele>472</ele>
        <time>2011-12-18T08:58:15Z</time>
      </trkpt>
      <trkpt lat="45.83556" lon="4.80357">
        <ele>472</ele>
        <time>2011-12-18T08:58:16Z</time>
      </trkpt>
      <trkpt lat="45.8355" lon="4.80347">
        <ele>472</ele>
        <time>2011-12-18T08:58:21Z</time>
      </trkpt>
      <trkpt lat="45.83546" lon="4.80339">
        <ele>472</ele>
        <time>2011-12-18T08:58:24Z</time>
      </trkpt>
      <trkpt lat="45.83545" lon="4.80337">
        <ele>472</ele>
        <time>2011-12-18T08:58:26Z</time>
      </trkpt>
      <trkpt lat="45.83542" lon="4.80331">
        <ele>475</ele>
        <time>2011-12-18T08:58:30Z</time>
      </trkpt>
      <trkpt lat="45.8354" lon="4.80328">
        <ele>475</ele>
        <time>2011-12-18T08:58:32Z</time>
      </trkpt>
      <trkpt lat="45.83534" lon="4.80317">
        <ele>475</ele>
        <time>2011-12-18T08:58:36Z</time>
      </trkpt>
      <trkpt lat="45.83532" lon="4.80312">
        <ele>475</ele>
        <time>2011-12-18T08:58:38Z</time>
      </trkpt>
      <trkpt lat="45.83524" lon="4.80296">
        <ele>476</ele>
        <time>2011-12-18T08:58:45Z</time>
      </trkpt>
      <trkpt lat="45.83518" lon="4.80286">
        <ele>476</ele>
        <time>2011-12-18T08:58:50Z</time>
      </trkpt>
      <trkpt lat="45.83512" lon="4.80274">
        <ele>476</ele>
        <time>2011-12-18T08:58:55Z</time>
      </trkpt>
      <trkpt lat="45.83511" lon="4.80273">
        <ele>477</ele>
        <time>2011-12-18T08:58:56Z</time>
      </trkpt>
      <trkpt lat="45.83508" lon="4.80259">
        <ele>477</ele>
        <time>2011-12-18T08:59:02Z</time>
      </trkpt>
      <trkpt lat="45.83508" lon="4.80258">
        <ele>477</ele>
        <time>2011-12-18T08:59:03Z</time>
      </trkpt>
      <trkpt lat="45.83509" lon="4.80253">
        <ele>477</ele>
        <time>2011-12-18T08:59:06Z</time>
      </trkpt>
      <trkpt lat="45.83509" lon="4.80251">
        <ele>477</ele>
        <time>2011-12-18T08:59:07Z</time>
      </trkpt>
      <trkpt lat="45.83507" lon="4.80245">
        <ele>479</ele>
        <time>2011-12-18T08:59:10Z</time>
      </trkpt>
      <trkpt lat="45.83506" lon="4.80239">
        <ele>480</ele>
        <time>2011-12-18T08:59:12Z</time>
      </trkpt>
      <trkpt lat="45.83505" lon="4.80236">
        <ele>480</ele>
        <time>2011-12-18T08:59:13Z</time>
      </trkpt>
      <trkpt lat="45.83502" lon="4.80224">
        <ele>481</ele>
        <time>2011-12-18T08:59:16Z</time>
      </trkpt>
      <trkpt lat="45.83501" lon="4.8022">
        <ele>481</ele>
        <time>2011-12-18T08:59:18Z</time>
      </trkpt>
      <trkpt lat="45.835" lon="4.80215">
        <ele>481</ele>
        <time>2011-12-18T08:59:20Z</time>
      </trkpt>
      <trkpt lat="45.83501" lon="4.80205">
        <ele>482</ele>
        <time>2011-12-18T08:59:24Z</time>
      </trkpt>
      <trkpt lat="45.83502" lon="4.80203">
        <ele>482</ele>
        <time>2011-12-18T08:59:25Z</time>
      </trkpt>
      <trkpt lat="45.83504" lon="4.802">
        <ele>482</ele>
        <time>2011-12-18T08:59:27Z</time>
      </trkpt>
      <trkpt lat="45.83506" lon="4.80198">
        <ele>482</ele>
        <time>2011-12-18T08:59:29Z</time>
      </trkpt>
      <trkpt lat="45.83512" lon="4.80185">
        <ele>483</ele>
        <time>2011-12-18T08:59:36Z</time>
      </trkpt>
      <trkpt lat="45.83514" lon="4.80179">
        <ele>483</ele>
        <time>2011-12-18T08:59:39Z</time>
      </trkpt>
      <trkpt lat="45.83518" lon="4.80171">
        <ele>483</ele>
        <time>2011-12-18T08:59:43Z</time>
      </trkpt>
      <trkpt lat="45.83522" lon="4.80161">
        <ele>487</ele>
        <time>2011-12-18T08:59:49Z</time>
      </trkpt>
      <trkpt lat="45.83522" lon="4.80158">
        <ele>487</ele>
        <time>2011-12-18T08:59:50Z</time>
      </trkpt>
      <trkpt lat="45.83523" lon="4.80152">
        <ele>488</ele>
        <time>2011-12-18T08:59:52Z</time>
      </trkpt>
      <trkpt lat="45.83526" lon="4.80146">
        <ele>488</ele>
        <time>2011-12-18T08:59:56Z</time>
      </trkpt>
      <trkpt lat="45.83528" lon="4.80144">
        <ele>488</ele>
        <time>2011-12-18T08:59:58Z</time>
      </trkpt>
      <trkpt lat="45.8353" lon="4.80137">
        <ele>488</ele>
        <time>2011-12-18T09:00:02Z</time>
      </trkpt>
      <trkpt lat="45.83533" lon="4.80134">
        <ele>489</ele>
        <time>2011-12-18T09:00:05Z</time>
      </trkpt>
      <trkpt lat="45.83535" lon="4.80131">
        <ele>489</ele>
        <time>2011-12-18T09:00:07Z</time>
      </trkpt>
      <trkpt lat="45.83536" lon="4.8013">
        <ele>489</ele>
        <time>2011-12-18T09:00:08Z</time>
      </trkpt>
      <trkpt lat="45.83543" lon="4.80118">
        <ele>490</ele>
        <time>2011-12-18T09:00:15Z</time>
      </trkpt>
      <trkpt lat="45.83544" lon="4.80116">
        <ele>490</ele>
        <time>2011-12-18T09:00:17Z</time>
      </trkpt>
      <trkpt lat="45.83548" lon="4.80112">
        <ele>490</ele>
        <time>2011-12-18T09:00:21Z</time>
      </trkpt>
      <trkpt lat="45.83549" lon="4.80111">
        <ele>490</ele>
        <time>2011-12-18T09:00:22Z</time>
      </trkpt>
      <trkpt lat="45.83549" lon="4.80109">
        <ele>490</ele>
        <time>2011-12-18T09:00:23Z</time>
      </trkpt>
      <trkpt lat="45.83554" lon="4.80102">
        <ele>491</ele>
        <time>2011-12-18T09:00:28Z</time>
      </trkpt>
      <trkpt lat="45.8356" lon="4.80093">
        <ele>492</ele>
        <time>2011-12-18T09:00:34Z</time>
      </trkpt>
      <trkpt lat="45.83561" lon="4.80091">
        <ele>492</ele>
        <time>2011-12-18T09:00:35Z</time>
      </trkpt>
      <trkpt lat="45.83562" lon="4.80088">
        <ele>492</ele>
        <time>2011-12-18T09:00:37Z</time>
      </trkpt>
      <trkpt lat="45.83566" lon="4.80081">
        <ele>498</ele>
        <time>2011-12-18T09:00:41Z</time>
      </trkpt>
      <trkpt lat="45.83568" lon="4.80078">
        <ele>498</ele>
        <time>2011-12-18T09:00:44Z</time>
      </trkpt>
      <trkpt lat="45.8357" lon="4.80074">
        <ele>498</ele>
        <time>2011-12-18T09:00:46Z</time>
      </trkpt>
      <trkpt lat="45.83576" lon="4.80069">
        <ele>498</ele>
        <time>2011-12-18T09:00:51Z</time>
      </trkpt>
      <trkpt lat="45.83577" lon="4.80069">
        <ele>498</ele>
        <time>2011-12-18T09:00:52Z</time>
      </trkpt>
      <trkpt lat="45.83584" lon="4.80057">
        <ele>501</ele>
        <time>2011-12-18T09:00:58Z</time>
      </trkpt>
      <trkpt lat="45.8359" lon="4.80055">
        <ele>502</ele>
        <time>2011-12-18T09:01:01Z</time>
      </trkpt>
      <trkpt lat="45.83593" lon="4.80052">
        <ele>502</ele>
        <time>2011-12-18T09:01:03Z</time>
      </trkpt>
      <trkpt lat="45.83595" lon="4.80049">
        <ele>503</ele>
        <time>2011-12-18T09:01:05Z</time>
      </trkpt>
      <trkpt lat="45.83599" lon="4.80044">
        <ele>503</ele>
        <time>2011-12-18T09:01:08Z</time>
      </trkpt>
      <trkpt lat="45.83603" lon="4.80036">
        <ele>504</ele>
        <time>2011-12-18T09:01:12Z</time>
      </trkpt>
      <trkpt lat="45.83604" lon="4.80035">
        <ele>504</ele>
        <time>2011-12-18T09:01:13Z</time>
      </trkpt>
      <trkpt lat="45.8361" lon="4.8002">
        <ele>506</ele>
        <time>2011-12-18T09:01:19Z</time>
      </trkpt>
      <trkpt lat="45.83611" lon="4.80018">
        <ele>506</ele>
        <time>2011-12-18T09:01:20Z</time>
      </trkpt>
      <trkpt lat="45.83613" lon="4.80013">
        <ele>506</ele>
        <time>2011-12-18T09:01:22Z</time>
      </trkpt>
      <trkpt lat="45.83613" lon="4.80011">
        <ele>506</ele>
        <time>2011-12-18T09:01:23Z</time>
      </trkpt>
      <trkpt lat="45.83615" lon="4.80008">
        <ele>506</ele>
        <time>2011-12-18T09:01:25Z</time>
      </trkpt>
      <trkpt lat="45.83617" lon="4.80009">
        <ele>506</ele>
        <time>2011-12-18T09:01:26Z</time>
      </trkpt>
      <trkpt lat="45.83628" lon="4.80007">
        <ele>506</ele>
        <time>2011-12-18T09:01:32Z</time>
      </trkpt>
      <trkpt lat="45.8363" lon="4.80006">
        <ele>506</ele>
        <time>2011-12-18T09:01:33Z</time>
      </trkpt>
      <trkpt lat="45.83632" lon="4.80006">
        <ele>506</ele>
        <time>2011-12-18T09:01:34Z</time>
      </trkpt>
      <trkpt lat="45.83635" lon="4.80002">
        <ele>506</ele>
        <time>2011-12-18T09:01:37Z</time>
      </trkpt>
      <trkpt lat="45.83643" lon="4.79995">
        <ele>512</ele>
        <time>2011-12-18T09:01:44Z</time>
      </trkpt>
      <trkpt lat="45.83645" lon="4.79992">
        <ele>512</ele>
        <time>2011-12-18T09:01:46Z</time>
      </trkpt>
      <trkpt lat="45.83647" lon="4.79989">
        <ele>512</ele>
        <time>2011-12-18T09:01:48Z</time>
      </trkpt>
      <trkpt lat="45.83649" lon="4.79987">
        <ele>512</ele>
        <time>2011-12-18T09:01:50Z</time>
      </trkpt>
      <trkpt lat="45.83658" lon="4.79983">
        <ele>512</ele>
        <time>2011-12-18T09:01:55Z</time>
      </trkpt>
      <trkpt lat="45.83662" lon="4.7998">
        <ele>512</ele>
        <time>2011-12-18T09:01:58Z</time>
      </trkpt>
      <trkpt lat="45.83664" lon="4.79977">
        <ele>512</ele>
        <time>2011-12-18T09:02:00Z</time>
      </trkpt>
      <trkpt lat="45.83671" lon="4.79975">
        <ele>513</ele>
        <time>2011-12-18T09:02:05Z</time>
      </trkpt>
      <trkpt lat="45.83673" lon="4.79973">
        <ele>514</ele>
        <time>2011-12-18T09:02:07Z</time>
      </trkpt>
      <trkpt lat="45.83677" lon="4.79969">
        <ele>514</ele>
        <time>2011-12-18T09:02:11Z</time>
      </trkpt>
      <trkpt lat="45.83679" lon="4.79966">
        <ele>514</ele>
        <time>2011-12-18T09:02:13Z</time>
      </trkpt>
      <trkpt lat="45.83684" lon="4.79962">
        <ele>515</ele>
        <time>2011-12-18T09:02:16Z</time>
      </trkpt>
      <trkpt lat="45.83686" lon="4.79959">
        <ele>515</ele>
        <time>2011-12-18T09:02:17Z</time>
      </trkpt>
      <trkpt lat="45.83695" lon="4.79955">
        <ele>515</ele>
        <time>2011-12-18T09:02:22Z</time>
      </trkpt>
      <trkpt lat="45.83701" lon="4.79951">
        <ele>516</ele>
        <time>2011-12-18T09:02:26Z</time>
      </trkpt>
      <trkpt lat="45.83703" lon="4.79951">
        <ele>516</ele>
        <time>2011-12-18T09:02:27Z</time>
      </trkpt>
      <trkpt lat="45.83706" lon="4.79949">
        <ele>516</ele>
        <time>2011-12-18T09:02:29Z</time>
      </trkpt>
      <trkpt lat="45.83712" lon="4.79948">
        <ele>516</ele>
        <time>2011-12-18T09:02:32Z</time>
      </trkpt>
      <trkpt lat="45.83714" lon="4.79947">
        <ele>516</ele>
        <time>2011-12-18T09:02:33Z</time>
      </trkpt>
      <trkpt lat="45.83722" lon="4.79946">
        <ele>517</ele>
        <time>2011-12-18T09:02:37Z</time>
      </trkpt>
      <trkpt lat="45.83726" lon="4.79945">
        <ele>517</ele>
        <time>2011-12-18T09:02:39Z</time>
      </trkpt>
      <trkpt lat="45.83729" lon="4.79943">
        <ele>517</ele>
        <time>2011-12-18T09:02:42Z</time>
      </trkpt>
      <trkpt lat="45.83732" lon="4.79941">
        <ele>518</ele>
        <time>2011-12-18T09:02:44Z</time>
      </trkpt>
      <trkpt lat="45.83735" lon="4.7994">
        <ele>518</ele>
        <time>2011-12-18T09:02:46Z</time>
      </trkpt>
      <trkpt lat="45.83736" lon="4.79939">
        <ele>518</ele>
        <time>2011-12-18T09:02:47Z</time>
      </trkpt>
      <trkpt lat="45.83737" lon="4.79938">
        <ele>518</ele>
        <time>2011-12-18T09:02:48Z</time>
      </trkpt>
      <trkpt lat="45.83747" lon="4.79932">
        <ele>519</ele>
        <time>2011-12-18T09:02:53Z</time>
      </trkpt>
      <trkpt lat="45.83749" lon="4.79932">
        <ele>520</ele>
        <time>2011-12-18T09:02:54Z</time>
      </trkpt>
      <trkpt lat="45.83755" lon="4.79926">
        <ele>522</ele>
        <time>2011-12-18T09:02:58Z</time>
      </trkpt>
      <trkpt lat="45.83761" lon="4.79922">
        <ele>523</ele>
        <time>2011-12-18T09:03:04Z</time>
      </trkpt>
      <trkpt lat="45.83763" lon="4.79923">
        <ele>522</ele>
        <time>2011-12-18T09:03:05Z</time>
      </trkpt>
      <trkpt lat="45.83764" lon="4.79925">
        <ele>522</ele>
        <time>2011-12-18T09:03:07Z</time>
      </trkpt>
      <trkpt lat="45.83765" lon="4.79925">
        <ele>522</ele>
        <time>2011-12-18T09:03:08Z</time>
      </trkpt>
      <trkpt lat="45.83766" lon="4.79924">
        <ele>522</ele>
        <time>2011-12-18T09:03:10Z</time>
      </trkpt>
      <trkpt lat="45.83774" lon="4.79917">
        <ele>523</ele>
        <time>2011-12-18T09:03:17Z</time>
      </trkpt>
      <trkpt lat="45.83783" lon="4.79917">
        <ele>523</ele>
        <time>2011-12-18T09:03:22Z</time>
      </trkpt>
      <trkpt lat="45.83792" lon="4.79911">
        <ele>526</ele>
        <time>2011-12-18T09:03:30Z</time>
      </trkpt>
      <trkpt lat="45.838" lon="4.79907">
        <ele>526</ele>
        <time>2011-12-18T09:03:37Z</time>
      </trkpt>
      <trkpt lat="45.83806" lon="4.79906">
        <ele>526</ele>
        <time>2011-12-18T09:03:42Z</time>
      </trkpt>
      <trkpt lat="45.83807" lon="4.79906">
        <ele>526</ele>
        <time>2011-12-18T09:03:43Z</time>
      </trkpt>
      <trkpt lat="45.83811" lon="4.79903">
        <ele>527</ele>
        <time>2011-12-18T09:03:47Z</time>
      </trkpt>
      <trkpt lat="45.83813" lon="4.79903">
        <ele>527</ele>
        <time>2011-12-18T09:03:49Z</time>
      </trkpt>
      <trkpt lat="45.83815" lon="4.79902">
        <ele>527</ele>
        <time>2011-12-18T09:03:50Z</time>
      </trkpt>
      <trkpt lat="45.83818" lon="4.79901">
        <ele>527</ele>
        <time>2011-12-18T09:03:52Z</time>
      </trkpt>
      <trkpt lat="45.8382" lon="4.799">
        <ele>527</ele>
        <time>2011-12-18T09:03:54Z</time>
      </trkpt>
      <trkpt lat="45.83833" lon="4.79893">
        <ele>535</ele>
        <time>2011-12-18T09:04:02Z</time>
      </trkpt>
      <trkpt lat="45.83837" lon="4.79891">
        <ele>535</ele>
        <time>2011-12-18T09:04:04Z</time>
      </trkpt>
      <trkpt lat="45.83845" lon="4.79892">
        <ele>536</ele>
        <time>2011-12-18T09:04:08Z</time>
      </trkpt>
      <trkpt lat="45.83856" lon="4.79893">
        <ele>537</ele>
        <time>2011-12-18T09:04:14Z</time>
      </trkpt>
      <trkpt lat="45.83867" lon="4.79894">
        <ele>538</ele>
        <time>2011-12-18T09:04:20Z</time>
      </trkpt>
      <trkpt lat="45.83874" lon="4.79895">
        <ele>539</ele>
        <time>2011-12-18T09:04:24Z</time>
      </trkpt>
      <trkpt lat="45.83882" lon="4.79894">
        <ele>540</ele>
        <time>2011-12-18T09:04:30Z</time>
      </trkpt>
      <trkpt lat="45.83891" lon="4.79897">
        <ele>540</ele>
        <time>2011-12-18T09:04:35Z</time>
      </trkpt>
      <trkpt lat="45.83892" lon="4.79897">
        <ele>541</ele>
        <time>2011-12-18T09:04:36Z</time>
      </trkpt>
      <trkpt lat="45.839" lon="4.79902">
        <ele>541</ele>
        <time>2011-12-18T09:04:41Z</time>
      </trkpt>
      <trkpt lat="45.83907" lon="4.79905">
        <ele>542</ele>
        <time>2011-12-18T09:04:45Z</time>
      </trkpt>
      <trkpt lat="45.8391" lon="4.79908">
        <ele>543</ele>
        <time>2011-12-18T09:04:47Z</time>
      </trkpt>
      <trkpt lat="45.83915" lon="4.79912">
        <ele>543</ele>
        <time>2011-12-18T09:04:50Z</time>
      </trkpt>
      <trkpt lat="45.8392" lon="4.79918">
        <ele>545</ele>
        <time>2011-12-18T09:04:54Z</time>
      </trkpt>
      <trkpt lat="45.83923" lon="4.79922">
        <ele>546</ele>
        <time>2011-12-18T09:04:56Z</time>
      </trkpt>
      <trkpt lat="45.83925" lon="4.79924">
        <ele>546</ele>
        <time>2011-12-18T09:04:57Z</time>
      </trkpt>
      <trkpt lat="45.83931" lon="4.79932">
        <ele>547</ele>
        <time>2011-12-18T09:05:02Z</time>
      </trkpt>
      <trkpt lat="45.83939" lon="4.79944">
        <ele>548</ele>
        <time>2011-12-18T09:05:09Z</time>
      </trkpt>
      <trkpt lat="45.83948" lon="4.79957">
        <ele>549</ele>
        <time>2011-12-18T09:05:16Z</time>
      </trkpt>
      <trkpt lat="45.83953" lon="4.79964">
        <ele>549</ele>
        <time>2011-12-18T09:05:20Z</time>
      </trkpt>
      <trkpt lat="45.83956" lon="4.79968">
        <ele>549</ele>
        <time>2011-12-18T09:05:22Z</time>
      </trkpt>
      <trkpt lat="45.83961" lon="4.79982">
        <ele>549</ele>
        <time>2011-12-18T09:05:28Z</time>
      </trkpt>
      <trkpt lat="45.83962" lon="4.79987">
        <ele>550</ele>
        <time>2011-12-18T09:05:30Z</time>
      </trkpt>
      <trkpt lat="45.83964" lon="4.79994">
        <ele>550</ele>
        <time>2011-12-18T09:05:33Z</time>
      </trkpt>
      <trkpt lat="45.83968" lon="4.80012">
        <ele>548</ele>
        <time>2011-12-18T09:05:40Z</time>
      </trkpt>
      <trkpt lat="45.83971" lon="4.80032">
        <ele>548</ele>
        <time>2011-12-18T09:05:48Z</time>
      </trkpt>
      <trkpt lat="45.83972" lon="4.80036">
        <ele>548</ele>
        <time>2011-12-18T09:05:50Z</time>
      </trkpt>
      <trkpt lat="45.83975" lon="4.80049">
        <ele>548</ele>
        <time>2011-12-18T09:05:55Z</time>
      </trkpt>
      <trkpt lat="45.83979" lon="4.80062">
        <ele>549</ele>
        <time>2011-12-18T09:06:01Z</time>
      </trkpt>
      <trkpt lat="45.8398" lon="4.80064">
        <ele>549</ele>
        <time>2011-12-18T09:06:02Z</time>
      </trkpt>
      <trkpt lat="45.8399" lon="4.80076">
        <ele>550</ele>
        <time>2011-12-18T09:06:09Z</time>
      </trkpt>
      <trkpt lat="45.83994" lon="4.80079">
        <ele>551</ele>
        <time>2011-12-18T09:06:12Z</time>
      </trkpt>
      <trkpt lat="45.83996" lon="4.80081">
        <ele>552</ele>
        <time>2011-12-18T09:06:14Z</time>
      </trkpt>
      <trkpt lat="45.84008" lon="4.80085">
        <ele>552</ele>
        <time>2011-12-18T09:06:21Z</time>
      </trkpt>
      <trkpt lat="45.84011" lon="4.80086">
        <ele>552</ele>
        <time>2011-12-18T09:06:23Z</time>
      </trkpt>
      <trkpt lat="45.84019" lon="4.80086">
        <ele>552</ele>
        <time>2011-12-18T09:06:28Z</time>
      </trkpt>
      <trkpt lat="45.84031" lon="4.80087">
        <ele>552</ele>
        <time>2011-12-18T09:06:34Z</time>
      </trkpt>
      <trkpt lat="45.84032" lon="4.80086">
        <ele>552</ele>
        <time>2011-12-18T09:06:35Z</time>
      </trkpt>
      <trkpt lat="45.84033" lon="4.80086">
        <ele>552</ele>
        <time>2011-12-18T09:06:36Z</time>
      </trkpt>
      <trkpt lat="45.8404" lon="4.80084">
        <ele>553</ele>
        <time>2011-12-18T09:06:41Z</time>
      </trkpt>
      <trkpt lat="45.84049" lon="4.80082">
        <ele>558</ele>
        <time>2011-12-18T09:06:46Z</time>
      </trkpt>
      <trkpt lat="45.84059" lon="4.80079">
        <ele>559</ele>
        <time>2011-12-18T09:06:51Z</time>
      </trkpt>
      <trkpt lat="45.84067" lon="4.80076">
        <ele>559</ele>
        <time>2011-12-18T09:06:56Z</time>
      </trkpt>
      <trkpt lat="45.84076" lon="4.80073">
        <ele>559</ele>
        <time>2011-12-18T09:07:01Z</time>
      </trkpt>
      <trkpt lat="45.84085" lon="4.80069">
        <ele>561</ele>
        <time>2011-12-18T09:07:06Z</time>
      </trkpt>
      <trkpt lat="45.84089" lon="4.80067">
        <ele>562</ele>
        <time>2011-12-18T09:07:08Z</time>
      </trkpt>
      <trkpt lat="45.84097" lon="4.80061">
        <ele>562</ele>
        <time>2011-12-18T09:07:13Z</time>
      </trkpt>
      <trkpt lat="45.84102" lon="4.80058">
        <ele>563</ele>
        <time>2011-12-18T09:07:16Z</time>
      </trkpt>
      <trkpt lat="45.84108" lon="4.80054">
        <ele>563</ele>
        <time>2011-12-18T09:07:20Z</time>
      </trkpt>
      <trkpt lat="45.84118" lon="4.80047">
        <ele>564</ele>
        <time>2011-12-18T09:07:27Z</time>
      </trkpt>
      <trkpt lat="45.8412" lon="4.80046">
        <ele>564</ele>
        <time>2011-12-18T09:07:28Z</time>
      </trkpt>
      <trkpt lat="45.8413" lon="4.80039">
        <ele>564</ele>
        <time>2011-12-18T09:07:35Z</time>
      </trkpt>
      <trkpt lat="45.84137" lon="4.80034">
        <ele>564</ele>
        <time>2011-12-18T09:07:40Z</time>
      </trkpt>
      <trkpt lat="45.84142" lon="4.80032">
        <ele>565</ele>
        <time>2011-12-18T09:07:43Z</time>
      </trkpt>
      <trkpt lat="45.84155" lon="4.80026">
        <ele>565</ele>
        <time>2011-12-18T09:07:50Z</time>
      </trkpt>
      <trkpt lat="45.84156" lon="4.80025">
        <ele>566</ele>
        <time>2011-12-18T09:07:51Z</time>
      </trkpt>
      <trkpt lat="45.84169" lon="4.80018">
        <ele>566</ele>
        <time>2011-12-18T09:07:59Z</time>
      </trkpt>
      <trkpt lat="45.84172" lon="4.80016">
        <ele>566</ele>
        <time>2011-12-18T09:08:01Z</time>
      </trkpt>
      <trkpt lat="45.8418" lon="4.80011">
        <ele>567</ele>
        <time>2011-12-18T09:08:06Z</time>
      </trkpt>
      <trkpt lat="45.84189" lon="4.80005">
        <ele>566</ele>
        <time>2011-12-18T09:08:11Z</time>
      </trkpt>
      <trkpt lat="45.84191" lon="4.80004">
        <ele>566</ele>
        <time>2011-12-18T09:08:12Z</time>
      </trkpt>
      <trkpt lat="45.84202" lon="4.79999">
        <ele>572</ele>
        <time>2011-12-18T09:08:18Z</time>
      </trkpt>
      <trkpt lat="45.84206" lon="4.79997">
        <ele>572</ele>
        <time>2011-12-18T09:08:20Z</time>
      </trkpt>
      <trkpt lat="45.84213" lon="4.79994">
        <ele>572</ele>
        <time>2011-12-18T09:08:24Z</time>
      </trkpt>
      <trkpt lat="45.84224" lon="4.79986">
        <ele>572</ele>
        <time>2011-12-18T09:08:31Z</time>
      </trkpt>
      <trkpt lat="45.84232" lon="4.79977">
        <ele>573</ele>
        <time>2011-12-18T09:08:37Z</time>
      </trkpt>
      <trkpt lat="45.84234" lon="4.79966">
        <ele>574</ele>
        <time>2011-12-18T09:08:42Z</time>
      </trkpt>
      <trkpt lat="45.84234" lon="4.79964">
        <ele>574</ele>
        <time>2011-12-18T09:08:43Z</time>
      </trkpt>
      <trkpt lat="45.84229" lon="4.79946">
        <ele>575</ele>
        <time>2011-12-18T09:08:51Z</time>
      </trkpt>
      <trkpt lat="45.84227" lon="4.79942">
        <ele>575</ele>
        <time>2011-12-18T09:08:53Z</time>
      </trkpt>
      <trkpt lat="45.8422" lon="4.79935">
        <ele>576</ele>
        <time>2011-12-18T09:08:58Z</time>
      </trkpt>
      <trkpt lat="45.84211" lon="4.79928">
        <ele>576</ele>
        <time>2011-12-18T09:09:04Z</time>
      </trkpt>
      <trkpt lat="45.8421" lon="4.79927">
        <ele>576</ele>
        <time>2011-12-18T09:09:05Z</time>
      </trkpt>
      <trkpt lat="45.84199" lon="4.79917">
        <ele>576</ele>
        <time>2011-12-18T09:09:12Z</time>
      </trkpt>
      <trkpt lat="45.84196" lon="4.79913">
        <ele>583</ele>
        <time>2011-12-18T09:09:14Z</time>
      </trkpt>
      <trkpt lat="45.84189" lon="4.79906">
        <ele>583</ele>
        <time>2011-12-18T09:09:18Z</time>
      </trkpt>
      <trkpt lat="45.84183" lon="4.79894">
        <ele>584</ele>
        <time>2011-12-18T09:09:23Z</time>
      </trkpt>
      <trkpt lat="45.84181" lon="4.79892">
        <ele>584</ele>
        <time>2011-12-18T09:09:24Z</time>
      </trkpt>
      <trkpt lat="45.84176" lon="4.79874">
        <ele>586</ele>
        <time>2011-12-18T09:09:31Z</time>
      </trkpt>
      <trkpt lat="45.84175" lon="4.79869">
        <ele>586</ele>
        <time>2011-12-18T09:09:33Z</time>
      </trkpt>
      <trkpt lat="45.84174" lon="4.79858">
        <ele>587</ele>
        <time>2011-12-18T09:09:37Z</time>
      </trkpt>
      <trkpt lat="45.84172" lon="4.79841">
        <ele>590</ele>
        <time>2011-12-18T09:09:43Z</time>
      </trkpt>
      <trkpt lat="45.8417" lon="4.79822">
        <ele>592</ele>
        <time>2011-12-18T09:09:50Z</time>
      </trkpt>
      <trkpt lat="45.84169" lon="4.79815">
        <ele>592</ele>
        <time>2011-12-18T09:09:53Z</time>
      </trkpt>
      <trkpt lat="45.84166" lon="4.79805">
        <ele>593</ele>
        <time>2011-12-18T09:09:57Z</time>
      </trkpt>
      <trkpt lat="45.84162" lon="4.7979">
        <ele>594</ele>
        <time>2011-12-18T09:10:03Z</time>
      </trkpt>
      <trkpt lat="45.84161" lon="4.79785">
        <ele>594</ele>
        <time>2011-12-18T09:10:05Z</time>
      </trkpt>
      <trkpt lat="45.84163" lon="4.79781">
        <ele>595</ele>
        <time>2011-12-18T09:10:07Z</time>
      </trkpt>
      <trkpt lat="45.84173" lon="4.79784">
        <ele>593</ele>
        <time>2011-12-18T09:10:11Z</time>
      </trkpt>
      <trkpt lat="45.84177" lon="4.79786">
        <ele>593</ele>
        <time>2011-12-18T09:10:13Z</time>
      </trkpt>
      <trkpt lat="45.84187" lon="4.7979">
        <ele>593</ele>
        <time>2011-12-18T09:10:17Z</time>
      </trkpt>
      <trkpt lat="45.84191" lon="4.79793">
        <ele>592</ele>
        <time>2011-12-18T09:10:19Z</time>
      </trkpt>
      <trkpt lat="45.84202" lon="4.79796">
        <ele>592</ele>
        <time>2011-12-18T09:10:24Z</time>
      </trkpt>
      <trkpt lat="45.8421" lon="4.79799">
        <ele>592</ele>
        <time>2011-12-18T09:10:28Z</time>
      </trkpt>
      <trkpt lat="45.84215" lon="4.798">
        <ele>591</ele>
        <time>2011-12-18T09:10:32Z</time>
      </trkpt>
      <trkpt lat="45.8422" lon="4.79801">
        <ele>591</ele>
        <time>2011-12-18T09:10:38Z</time>
      </trkpt>
      <trkpt lat="45.84219" lon="4.79805">
        <ele>591</ele>
        <time>2011-12-18T09:10:43Z</time>
      </trkpt>
      <trkpt lat="45.8422" lon="4.79807">
        <ele>591</ele>
        <time>2011-12-18T09:10:48Z</time>
      </trkpt>
      <trkpt lat="45.84221" lon="4.79808">
        <ele>591</ele>
        <time>2011-12-18T09:10:57Z</time>
      </trkpt>
      <trkpt lat="45.84221" lon="4.79807">
        <ele>591</ele>
        <time>2011-12-18T09:11:11Z</time>
      </trkpt>
      <trkpt lat="45.84221" lon="4.79808">
        <ele>591</ele>
        <time>2011-12-18T09:11:18Z</time>
      </trkpt>
      <trkpt lat="45.84221" lon="4.79808">
        <ele>591</ele>
        <time>2011-12-18T09:11:19Z</time>
      </trkpt>
      <trkpt lat="45.84221" lon="4.79808">
        <ele>591</ele>
        <time>2011-12-18T09:11:23Z</time>
      </trkpt>
      <trkpt lat="45.8422" lon="4.79809">
        <ele>591</ele>
        <time>2011-12-18T09:11:34Z</time>
      </trkpt>
      <trkpt lat="45.84221" lon="4.7981">
        <ele>591</ele>
        <time>2011-12-18T09:12:01Z</time>
      </trkpt>
      <trkpt lat="45.84219" lon="4.7981">
        <ele>591</ele>
        <time>2011-12-18T09:12:04Z</time>
      </trkpt>
      <trkpt lat="45.84219" lon="4.79809">
        <ele>591</ele>
        <time>2011-12-18T09:12:05Z</time>
      </trkpt>
      <trkpt lat="45.8422" lon="4.79809">
        <ele>591</ele>
        <time>2011-12-18T09:12:27Z</time>
      </trkpt>
      <trkpt lat="45.84222" lon="4.79809">
        <ele>591</ele>
        <time>2011-12-18T09:12:31Z</time>
      </trkpt>
      <trkpt lat="45.84218" lon="4.79808">
        <ele>591</ele>
        <time>2011-12-18T09:12:43Z</time>
      </trkpt>
      <trkpt lat="45.84222" lon="4.79809">
        <ele>591</ele>
        <time>2011-12-18T09:13:00Z</time>
      </trkpt>
      <trkpt lat="45.84222" lon="4.79808">
        <ele>591</ele>
        <time>2011-12-18T09:13:02Z</time>
      </trkpt>
      <trkpt lat="45.84225" lon="4.7981">
        <ele>591</ele>
        <time>2011-12-18T09:13:07Z</time>
      </trkpt>
      <trkpt lat="45.84228" lon="4.79815">
        <ele>591</ele>
        <time>2011-12-18T09:13:12Z</time>
      </trkpt>
      <trkpt lat="45.84236" lon="4.79821">
        <ele>591</ele>
        <time>2011-12-18T09:13:16Z</time>
      </trkpt>
      <trkpt lat="45.84248" lon="4.79836">
        <ele>589</ele>
        <time>2011-12-18T09:13:21Z</time>
      </trkpt>
      <trkpt lat="45.8425" lon="4.7984">
        <ele>587</ele>
        <time>2011-12-18T09:13:22Z</time>
      </trkpt>
      <trkpt lat="45.84259" lon="4.79856">
        <ele>582</ele>
        <time>2011-12-18T09:13:27Z</time>
      </trkpt>
      <trkpt lat="45.84263" lon="4.79862">
        <ele>581</ele>
        <time>2011-12-18T09:13:29Z</time>
      </trkpt>
      <trkpt lat="45.8427" lon="4.7987">
        <ele>579</ele>
        <time>2011-12-18T09:13:32Z</time>
      </trkpt>
      <trkpt lat="45.84277" lon="4.79878">
        <ele>578</ele>
        <time>2011-12-18T09:13:35Z</time>
      </trkpt>
      <trkpt lat="45.84284" lon="4.79886">
        <ele>577</ele>
        <time>2011-12-18T09:13:38Z</time>
      </trkpt>
      <trkpt lat="45.84293" lon="4.79896">
        <ele>577</ele>
        <time>2011-12-18T09:13:42Z</time>
      </trkpt>
      <trkpt lat="45.84306" lon="4.79912">
        <ele>575</ele>
        <time>2011-12-18T09:13:48Z</time>
      </trkpt>
      <trkpt lat="45.84308" lon="4.79914">
        <ele>575</ele>
        <time>2011-12-18T09:13:49Z</time>
      </trkpt>
      <trkpt lat="45.84316" lon="4.79925">
        <ele>573</ele>
        <time>2011-12-18T09:13:53Z</time>
      </trkpt>
      <trkpt lat="45.84323" lon="4.79933">
        <ele>572</ele>
        <time>2011-12-18T09:13:56Z</time>
      </trkpt>
      <trkpt lat="45.84327" lon="4.79937">
        <ele>572</ele>
        <time>2011-12-18T09:13:58Z</time>
      </trkpt>
      <trkpt lat="45.84329" lon="4.79937">
        <ele>572</ele>
        <time>2011-12-18T09:13:59Z</time>
      </trkpt>
      <trkpt lat="45.84331" lon="4.79934">
        <ele>572</ele>
        <time>2011-12-18T09:14:01Z</time>
      </trkpt>
      <trkpt lat="45.84338" lon="4.79925">
        <ele>569</ele>
        <time>2011-12-18T09:14:05Z</time>
      </trkpt>
      <trkpt lat="45.84344" lon="4.79922">
        <ele>569</ele>
        <time>2011-12-18T09:14:10Z</time>
      </trkpt>
      <trkpt lat="45.84347" lon="4.79924">
        <ele>568</ele>
        <time>2011-12-18T09:14:32Z</time>
      </trkpt>
      <trkpt lat="45.84353" lon="4.79932">
        <ele>567</ele>
        <time>2011-12-18T09:14:37Z</time>
      </trkpt>
      <trkpt lat="45.84355" lon="4.79934">
        <ele>566</ele>
        <time>2011-12-18T09:14:38Z</time>
      </trkpt>
      <trkpt lat="45.84358" lon="4.79936">
        <ele>566</ele>
        <time>2011-12-18T09:14:40Z</time>
      </trkpt>
      <trkpt lat="45.84362" lon="4.79937">
        <ele>565</ele>
        <time>2011-12-18T09:14:42Z</time>
      </trkpt>
      <trkpt lat="45.84368" lon="4.79946">
        <ele>565</ele>
        <time>2011-12-18T09:14:48Z</time>
      </trkpt>
      <trkpt lat="45.84376" lon="4.7995">
        <ele>564</ele>
        <time>2011-12-18T09:14:52Z</time>
      </trkpt>
      <trkpt lat="45.84377" lon="4.79956">
        <ele>564</ele>
        <time>2011-12-18T09:14:54Z</time>
      </trkpt>
      <trkpt lat="45.84379" lon="4.79962">
        <ele>564</ele>
        <time>2011-12-18T09:14:56Z</time>
      </trkpt>
      <trkpt lat="45.84387" lon="4.79971">
        <ele>564</ele>
        <time>2011-12-18T09:15:00Z</time>
      </trkpt>
      <trkpt lat="45.84388" lon="4.79973">
        <ele>564</ele>
        <time>2011-12-18T09:15:01Z</time>
      </trkpt>
      <trkpt lat="45.84394" lon="4.79982">
        <ele>563</ele>
        <time>2011-12-18T09:15:04Z</time>
      </trkpt>
      <trkpt lat="45.84395" lon="4.79985">
        <ele>563</ele>
        <time>2011-12-18T09:15:05Z</time>
      </trkpt>
      <trkpt lat="45.84403" lon="4.79996">
        <ele>562</ele>
        <time>2011-12-18T09:15:09Z</time>
      </trkpt>
      <trkpt lat="45.84407" lon="4.80003">
        <ele>562</ele>
        <time>2011-12-18T09:15:12Z</time>
      </trkpt>
      <trkpt lat="45.84411" lon="4.80009">
        <ele>562</ele>
        <time>2011-12-18T09:15:14Z</time>
      </trkpt>
      <trkpt lat="45.84412" lon="4.80012">
        <ele>562</ele>
        <time>2011-12-18T09:15:15Z</time>
      </trkpt>
      <trkpt lat="45.84421" lon="4.80024">
        <ele>556</ele>
        <time>2011-12-18T09:15:19Z</time>
      </trkpt>
      <trkpt lat="45.84422" lon="4.80026">
        <ele>555</ele>
        <time>2011-12-18T09:15:20Z</time>
      </trkpt>
      <trkpt lat="45.84426" lon="4.80037">
        <ele>555</ele>
        <time>2011-12-18T09:15:24Z</time>
      </trkpt>
      <trkpt lat="45.84429" lon="4.80046">
        <ele>555</ele>
        <time>2011-12-18T09:15:27Z</time>
      </trkpt>
      <trkpt lat="45.84429" lon="4.80048">
        <ele>555</ele>
        <time>2011-12-18T09:15:28Z</time>
      </trkpt>
      <trkpt lat="45.84429" lon="4.80051">
        <ele>555</ele>
        <time>2011-12-18T09:15:29Z</time>
      </trkpt>
      <trkpt lat="45.84433" lon="4.80056">
        <ele>555</ele>
        <time>2011-12-18T09:15:32Z</time>
      </trkpt>
      <trkpt lat="45.84441" lon="4.80066">
        <ele>555</ele>
        <time>2011-12-18T09:15:36Z</time>
      </trkpt>
      <trkpt lat="45.84443" lon="4.80068">
        <ele>555</ele>
        <time>2011-12-18T09:15:37Z</time>
      </trkpt>
      <trkpt lat="45.84448" lon="4.80078">
        <ele>554</ele>
        <time>2011-12-18T09:15:40Z</time>
      </trkpt>
      <trkpt lat="45.84454" lon="4.80093">
        <ele>555</ele>
        <time>2011-12-18T09:15:44Z</time>
      </trkpt>
      <trkpt lat="45.84455" lon="4.80096">
        <ele>555</ele>
        <time>2011-12-18T09:15:45Z</time>
      </trkpt>
      <trkpt lat="45.84465" lon="4.80107">
        <ele>555</ele>
        <time>2011-12-18T09:15:50Z</time>
      </trkpt>
      <trkpt lat="45.8447" lon="4.80105">
        <ele>554</ele>
        <time>2011-12-18T09:15:52Z</time>
      </trkpt>
      <trkpt lat="45.84476" lon="4.80103">
        <ele>554</ele>
        <time>2011-12-18T09:15:54Z</time>
      </trkpt>
      <trkpt lat="45.84482" lon="4.801">
        <ele>554</ele>
        <time>2011-12-18T09:15:56Z</time>
      </trkpt>
      <trkpt lat="45.84486" lon="4.80096">
        <ele>553</ele>
        <time>2011-12-18T09:15:58Z</time>
      </trkpt>
      <trkpt lat="45.84488" lon="4.80094">
        <ele>553</ele>
        <time>2011-12-18T09:15:59Z</time>
      </trkpt>
      <trkpt lat="45.84492" lon="4.80087">
        <ele>552</ele>
        <time>2011-12-18T09:16:03Z</time>
      </trkpt>
      <trkpt lat="45.84491" lon="4.80082">
        <ele>551</ele>
        <time>2011-12-18T09:16:05Z</time>
      </trkpt>
      <trkpt lat="45.84487" lon="4.80071">
        <ele>551</ele>
        <time>2011-12-18T09:16:08Z</time>
      </trkpt>
      <trkpt lat="45.84484" lon="4.80061">
        <ele>551</ele>
        <time>2011-12-18T09:16:11Z</time>
      </trkpt>
      <trkpt lat="45.84481" lon="4.80054">
        <ele>550</ele>
        <time>2011-12-18T09:16:14Z</time>
      </trkpt>
      <trkpt lat="45.8448" lon="4.8005">
        <ele>550</ele>
        <time>2011-12-18T09:16:16Z</time>
      </trkpt>
      <trkpt lat="45.84479" lon="4.80045">
        <ele>550</ele>
        <time>2011-12-18T09:16:18Z</time>
      </trkpt>
      <trkpt lat="45.84475" lon="4.80036">
        <ele>549</ele>
        <time>2011-12-18T09:16:21Z</time>
      </trkpt>
      <trkpt lat="45.84471" lon="4.80025">
        <ele>548</ele>
        <time>2011-12-18T09:16:27Z</time>
      </trkpt>
      <trkpt lat="45.84471" lon="4.80023">
        <ele>548</ele>
        <time>2011-12-18T09:16:28Z</time>
      </trkpt>
      <trkpt lat="45.8447" lon="4.80021">
        <ele>548</ele>
        <time>2011-12-18T09:16:29Z</time>
      </trkpt>
      <trkpt lat="45.84469" lon="4.80017">
        <ele>548</ele>
        <time>2011-12-18T09:16:31Z</time>
      </trkpt>
      <trkpt lat="45.84469" lon="4.80014">
        <ele>548</ele>
        <time>2011-12-18T09:16:32Z</time>
      </trkpt>
      <trkpt lat="45.84468" lon="4.8001">
        <ele>548</ele>
        <time>2011-12-18T09:16:35Z</time>
      </trkpt>
      <trkpt lat="45.84468" lon="4.80009">
        <ele>548</ele>
        <time>2011-12-18T09:16:36Z</time>
      </trkpt>
      <trkpt lat="45.84467" lon="4.80007">
        <ele>548</ele>
        <time>2011-12-18T09:16:37Z</time>
      </trkpt>
      <trkpt lat="45.84466" lon="4.80003">
        <ele>548</ele>
        <time>2011-12-18T09:16:40Z</time>
      </trkpt>
      <trkpt lat="45.84465" lon="4.79998">
        <ele>541</ele>
        <time>2011-12-18T09:16:43Z</time>
      </trkpt>
      <trkpt lat="45.84464" lon="4.79996">
        <ele>542</ele>
        <time>2011-12-18T09:16:44Z</time>
      </trkpt>
      <trkpt lat="45.84459" lon="4.79987">
        <ele>542</ele>
        <time>2011-12-18T09:16:49Z</time>
      </trkpt>
      <trkpt lat="45.84457" lon="4.79977">
        <ele>542</ele>
        <time>2011-12-18T09:16:54Z</time>
      </trkpt>
      <trkpt lat="45.84457" lon="4.79976">
        <ele>542</ele>
        <time>2011-12-18T09:16:55Z</time>
      </trkpt>
      <trkpt lat="45.84457" lon="4.79975">
        <ele>542</ele>
        <time>2011-12-18T09:16:56Z</time>
      </trkpt>
      <trkpt lat="45.8446" lon="4.79974">
        <ele>542</ele>
        <time>2011-12-18T09:16:59Z</time>
      </trkpt>
      <trkpt lat="45.84463" lon="4.79971">
        <ele>541</ele>
        <time>2011-12-18T09:17:02Z</time>
      </trkpt>
      <trkpt lat="45.84463" lon="4.79968">
        <ele>541</ele>
        <time>2011-12-18T09:17:04Z</time>
      </trkpt>
      <trkpt lat="45.84464" lon="4.79964">
        <ele>540</ele>
        <time>2011-12-18T09:17:06Z</time>
      </trkpt>
      <trkpt lat="45.84463" lon="4.79959">
        <ele>540</ele>
        <time>2011-12-18T09:17:08Z</time>
      </trkpt>
      <trkpt lat="45.84463" lon="4.79953">
        <ele>539</ele>
        <time>2011-12-18T09:17:10Z</time>
      </trkpt>
      <trkpt lat="45.84465" lon="4.7995">
        <ele>539</ele>
        <time>2011-12-18T09:17:12Z</time>
      </trkpt>
      <trkpt lat="45.84466" lon="4.7995">
        <ele>538</ele>
        <time>2011-12-18T09:17:14Z</time>
      </trkpt>
      <trkpt lat="45.84468" lon="4.7995">
        <ele>538</ele>
        <time>2011-12-18T09:17:15Z</time>
      </trkpt>
      <trkpt lat="45.84471" lon="4.79952">
        <ele>538</ele>
        <time>2011-12-18T09:17:19Z</time>
      </trkpt>
      <trkpt lat="45.84474" lon="4.79958">
        <ele>538</ele>
        <time>2011-12-18T09:17:22Z</time>
      </trkpt>
      <trkpt lat="45.84476" lon="4.79962">
        <ele>538</ele>
        <time>2011-12-18T09:17:24Z</time>
      </trkpt>
      <trkpt lat="45.84476" lon="4.79965">
        <ele>538</ele>
        <time>2011-12-18T09:17:25Z</time>
      </trkpt>
      <trkpt lat="45.84479" lon="4.79976">
        <ele>538</ele>
        <time>2011-12-18T09:17:29Z</time>
      </trkpt>
      <trkpt lat="45.84485" lon="4.79987">
        <ele>537</ele>
        <time>2011-12-18T09:17:33Z</time>
      </trkpt>
      <trkpt lat="45.84487" lon="4.7999">
        <ele>537</ele>
        <time>2011-12-18T09:17:34Z</time>
      </trkpt>
      <trkpt lat="45.84496" lon="4.80002">
        <ele>536</ele>
        <time>2011-12-18T09:17:39Z</time>
      </trkpt>
      <trkpt lat="45.845" lon="4.80003">
        <ele>533</ele>
        <time>2011-12-18T09:17:41Z</time>
      </trkpt>
      <trkpt lat="45.84507" lon="4.80006">
        <ele>532</ele>
        <time>2011-12-18T09:17:44Z</time>
      </trkpt>
      <trkpt lat="45.84512" lon="4.8001">
        <ele>531</ele>
        <time>2011-12-18T09:17:46Z</time>
      </trkpt>
      <trkpt lat="45.84517" lon="4.80015">
        <ele>531</ele>
        <time>2011-12-18T09:17:48Z</time>
      </trkpt>
      <trkpt lat="45.84519" lon="4.80018">
        <ele>530</ele>
        <time>2011-12-18T09:17:49Z</time>
      </trkpt>
      <trkpt lat="45.84525" lon="4.80025">
        <ele>530</ele>
        <time>2011-12-18T09:17:53Z</time>
      </trkpt>
      <trkpt lat="45.84531" lon="4.80032">
        <ele>530</ele>
        <time>2011-12-18T09:17:57Z</time>
      </trkpt>
      <trkpt lat="45.84533" lon="4.80034">
        <ele>530</ele>
        <time>2011-12-18T09:17:58Z</time>
      </trkpt>
      <trkpt lat="45.84539" lon="4.80042">
        <ele>530</ele>
        <time>2011-12-18T09:18:01Z</time>
      </trkpt>
      <trkpt lat="45.84541" lon="4.80043">
        <ele>529</ele>
        <time>2011-12-18T09:18:02Z</time>
      </trkpt>
      <trkpt lat="45.84543" lon="4.80045">
        <ele>529</ele>
        <time>2011-12-18T09:18:03Z</time>
      </trkpt>
      <trkpt lat="45.84547" lon="4.80049">
        <ele>529</ele>
        <time>2011-12-18T09:18:05Z</time>
      </trkpt>
      <trkpt lat="45.84548" lon="4.80049">
        <ele>529</ele>
        <time>2011-12-18T09:18:06Z</time>
      </trkpt>
      <trkpt lat="45.8455" lon="4.80049">
        <ele>529</ele>
        <time>2011-12-18T09:18:07Z</time>
      </trkpt>
      <trkpt lat="45.84555" lon="4.80052">
        <ele>528</ele>
        <time>2011-12-18T09:18:10Z</time>
      </trkpt>
      <trkpt lat="45.84558" lon="4.80053">
        <ele>528</ele>
        <time>2011-12-18T09:18:12Z</time>
      </trkpt>
      <trkpt lat="45.84561" lon="4.80053">
        <ele>528</ele>
        <time>2011-12-18T09:18:14Z</time>
      </trkpt>
      <trkpt lat="45.84563" lon="4.80058">
        <ele>528</ele>
        <time>2011-12-18T09:18:16Z</time>
      </trkpt>
      <trkpt lat="45.84565" lon="4.8006">
        <ele>528</ele>
        <time>2011-12-18T09:18:17Z</time>
      </trkpt>
      <trkpt lat="45.84567" lon="4.80062">
        <ele>528</ele>
        <time>2011-12-18T09:18:18Z</time>
      </trkpt>
      <trkpt lat="45.84572" lon="4.8006">
        <ele>528</ele>
        <time>2011-12-18T09:18:21Z</time>
      </trkpt>
      <trkpt lat="45.84582" lon="4.80058">
        <ele>527</ele>
        <time>2011-12-18T09:18:25Z</time>
      </trkpt>
      <trkpt lat="45.84585" lon="4.80058">
        <ele>512</ele>
        <time>2011-12-18T09:18:26Z</time>
      </trkpt>
      <trkpt lat="45.8459" lon="4.80064">
        <ele>513</ele>
        <time>2011-12-18T09:18:28Z</time>
      </trkpt>
      <trkpt lat="45.84594" lon="4.80069">
        <ele>514</ele>
        <time>2011-12-18T09:18:30Z</time>
      </trkpt>
      <trkpt lat="45.84598" lon="4.80072">
        <ele>514</ele>
        <time>2011-12-18T09:18:32Z</time>
      </trkpt>
      <trkpt lat="45.84609" lon="4.80082">
        <ele>511</ele>
        <time>2011-12-18T09:18:37Z</time>
      </trkpt>
      <trkpt lat="45.84613" lon="4.80089">
        <ele>520</ele>
        <time>2011-12-18T09:18:39Z</time>
      </trkpt>
      <trkpt lat="45.84616" lon="4.80096">
        <ele>519</ele>
        <time>2011-12-18T09:18:41Z</time>
      </trkpt>
      <trkpt lat="45.8462" lon="4.80108">
        <ele>519</ele>
        <time>2011-12-18T09:18:45Z</time>
      </trkpt>
      <trkpt lat="45.84622" lon="4.80114">
        <ele>519</ele>
        <time>2011-12-18T09:18:47Z</time>
      </trkpt>
      <trkpt lat="45.84624" lon="4.80118">
        <ele>519</ele>
        <time>2011-12-18T09:18:49Z</time>
      </trkpt>
      <trkpt lat="45.84625" lon="4.80121">
        <ele>519</ele>
        <time>2011-12-18T09:18:50Z</time>
      </trkpt>
      <trkpt lat="45.84631" lon="4.80131">
        <ele>519</ele>
        <time>2011-12-18T09:18:55Z</time>
      </trkpt>
      <trkpt lat="45.84633" lon="4.80133">
        <ele>519</ele>
        <time>2011-12-18T09:18:56Z</time>
      </trkpt>
      <trkpt lat="45.84636" lon="4.80137">
        <ele>519</ele>
        <time>2011-12-18T09:18:57Z</time>
      </trkpt>
      <trkpt lat="45.84639" lon="4.80142">
        <ele>519</ele>
        <time>2011-12-18T09:18:59Z</time>
      </trkpt>
      <trkpt lat="45.84642" lon="4.80147">
        <ele>519</ele>
        <time>2011-12-18T09:19:01Z</time>
      </trkpt>
      <trkpt lat="45.84649" lon="4.80157">
        <ele>518</ele>
        <time>2011-12-18T09:19:05Z</time>
      </trkpt>
      <trkpt lat="45.84652" lon="4.80159">
        <ele>518</ele>
        <time>2011-12-18T09:19:06Z</time>
      </trkpt>
      <trkpt lat="45.84662" lon="4.8017">
        <ele>519</ele>
        <time>2011-12-18T09:19:10Z</time>
      </trkpt>
      <trkpt lat="45.84664" lon="4.80173">
        <ele>519</ele>
        <time>2011-12-18T09:19:11Z</time>
      </trkpt>
      <trkpt lat="45.84673" lon="4.80185">
        <ele>509</ele>
        <time>2011-12-18T09:19:15Z</time>
      </trkpt>
      <trkpt lat="45.84677" lon="4.80193">
        <ele>508</ele>
        <time>2011-12-18T09:19:18Z</time>
      </trkpt>
      <trkpt lat="45.84679" lon="4.80196">
        <ele>507</ele>
        <time>2011-12-18T09:19:19Z</time>
      </trkpt>
      <trkpt lat="45.84687" lon="4.80204">
        <ele>507</ele>
        <time>2011-12-18T09:19:22Z</time>
      </trkpt>
      <trkpt lat="45.84689" lon="4.80206">
        <ele>506</ele>
        <time>2011-12-18T09:19:23Z</time>
      </trkpt>
      <trkpt lat="45.84691" lon="4.80209">
        <ele>506</ele>
        <time>2011-12-18T09:19:24Z</time>
      </trkpt>
      <trkpt lat="45.84701" lon="4.80218">
        <ele>505</ele>
        <time>2011-12-18T09:19:28Z</time>
      </trkpt>
      <trkpt lat="45.84705" lon="4.80222">
        <ele>504</ele>
        <time>2011-12-18T09:19:30Z</time>
      </trkpt>
      <trkpt lat="45.84707" lon="4.80224">
        <ele>504</ele>
        <time>2011-12-18T09:19:31Z</time>
      </trkpt>
      <trkpt lat="45.84709" lon="4.80226">
        <ele>504</ele>
        <time>2011-12-18T09:19:32Z</time>
      </trkpt>
      <trkpt lat="45.84711" lon="4.80228">
        <ele>503</ele>
        <time>2011-12-18T09:19:33Z</time>
      </trkpt>
      <trkpt lat="45.84716" lon="4.80234">
        <ele>502</ele>
        <time>2011-12-18T09:19:36Z</time>
      </trkpt>
      <trkpt lat="45.84717" lon="4.80236">
        <ele>502</ele>
        <time>2011-12-18T09:19:37Z</time>
      </trkpt>
      <trkpt lat="45.84722" lon="4.80237">
        <ele>501</ele>
        <time>2011-12-18T09:19:40Z</time>
      </trkpt>
      <trkpt lat="45.84723" lon="4.80237">
        <ele>501</ele>
        <time>2011-12-18T09:19:43Z</time>
      </trkpt>
      <trkpt lat="45.84731" lon="4.80235">
        <ele>499</ele>
        <time>2011-12-18T09:19:53Z</time>
      </trkpt>
      <trkpt lat="45.84732" lon="4.80235">
        <ele>498</ele>
        <time>2011-12-18T09:19:54Z</time>
      </trkpt>
      <trkpt lat="45.84733" lon="4.80236">
        <ele>498</ele>
        <time>2011-12-18T09:19:55Z</time>
      </trkpt>
      <trkpt lat="45.84734" lon="4.80236">
        <ele>498</ele>
        <time>2011-12-18T09:19:58Z</time>
      </trkpt>
      <trkpt lat="45.84736" lon="4.80241">
        <ele>497</ele>
        <time>2011-12-18T09:20:07Z</time>
      </trkpt>
      <trkpt lat="45.84736" lon="4.80242">
        <ele>497</ele>
        <time>2011-12-18T09:20:08Z</time>
      </trkpt>
      <trkpt lat="45.84739" lon="4.8025">
        <ele>501</ele>
        <time>2011-12-18T09:20:14Z</time>
      </trkpt>
      <trkpt lat="45.84743" lon="4.80256">
        <ele>500</ele>
        <time>2011-12-18T09:20:17Z</time>
      </trkpt>
      <trkpt lat="45.84746" lon="4.80261">
        <ele>501</ele>
        <time>2011-12-18T09:20:19Z</time>
      </trkpt>
      <trkpt lat="45.84756" lon="4.80274">
        <ele>488</ele>
        <time>2011-12-18T09:20:24Z</time>
      </trkpt>
      <trkpt lat="45.84758" lon="4.80277">
        <ele>488</ele>
        <time>2011-12-18T09:20:25Z</time>
      </trkpt>
      <trkpt lat="45.84767" lon="4.80286">
        <ele>488</ele>
        <time>2011-12-18T09:20:29Z</time>
      </trkpt>
      <trkpt lat="45.84773" lon="4.80293">
        <ele>488</ele>
        <time>2011-12-18T09:20:32Z</time>
      </trkpt>
      <trkpt lat="45.84781" lon="4.80302">
        <ele>487</ele>
        <time>2011-12-18T09:20:35Z</time>
      </trkpt>
      <trkpt lat="45.84787" lon="4.80311">
        <ele>487</ele>
        <time>2011-12-18T09:20:38Z</time>
      </trkpt>
      <trkpt lat="45.84794" lon="4.8032">
        <ele>486</ele>
        <time>2011-12-18T09:20:41Z</time>
      </trkpt>
      <trkpt lat="45.84801" lon="4.80331">
        <ele>484</ele>
        <time>2011-12-18T09:20:46Z</time>
      </trkpt>
      <trkpt lat="45.84811" lon="4.80345">
        <ele>493</ele>
        <time>2011-12-18T09:20:51Z</time>
      </trkpt>
      <trkpt lat="45.84816" lon="4.80352">
        <ele>493</ele>
        <time>2011-12-18T09:20:53Z</time>
      </trkpt>
      <trkpt lat="45.84821" lon="4.80362">
        <ele>494</ele>
        <time>2011-12-18T09:20:56Z</time>
      </trkpt>
      <trkpt lat="45.84827" lon="4.80377">
        <ele>497</ele>
        <time>2011-12-18T09:21:00Z</time>
      </trkpt>
      <trkpt lat="45.84829" lon="4.80381">
        <ele>498</ele>
        <time>2011-12-18T09:21:01Z</time>
      </trkpt>
      <trkpt lat="45.84838" lon="4.80397">
        <ele>483</ele>
        <time>2011-12-18T09:21:06Z</time>
      </trkpt>
      <trkpt lat="45.8484" lon="4.804">
        <ele>484</ele>
        <time>2011-12-18T09:21:07Z</time>
      </trkpt>
      <trkpt lat="45.84852" lon="4.80411">
        <ele>483</ele>
        <time>2011-12-18T09:21:12Z</time>
      </trkpt>
      <trkpt lat="45.84855" lon="4.80414">
        <ele>482</ele>
        <time>2011-12-18T09:21:13Z</time>
      </trkpt>
      <trkpt lat="45.84868" lon="4.80431">
        <ele>487</ele>
        <time>2011-12-18T09:21:19Z</time>
      </trkpt>
      <trkpt lat="45.8487" lon="4.80434">
        <ele>487</ele>
        <time>2011-12-18T09:21:20Z</time>
      </trkpt>
      <trkpt lat="45.84878" lon="4.80444">
        <ele>486</ele>
        <time>2011-12-18T09:21:23Z</time>
      </trkpt>
      <trkpt lat="45.84884" lon="4.80451">
        <ele>485</ele>
        <time>2011-12-18T09:21:26Z</time>
      </trkpt>
      <trkpt lat="45.84886" lon="4.80454">
        <ele>486</ele>
        <time>2011-12-18T09:21:27Z</time>
      </trkpt>
      <trkpt lat="45.84896" lon="4.80469">
        <ele>486</ele>
        <time>2011-12-18T09:21:33Z</time>
      </trkpt>
      <trkpt lat="45.84898" lon="4.80472">
        <ele>486</ele>
        <time>2011-12-18T09:21:34Z</time>
      </trkpt>
      <trkpt lat="45.84906" lon="4.80476">
        <ele>485</ele>
        <time>2011-12-18T09:21:37Z</time>
      </trkpt>
      <trkpt lat="45.84916" lon="4.80486">
        <ele>485</ele>
        <time>2011-12-18T09:21:41Z</time>
      </trkpt>
      <trkpt lat="45.84917" lon="4.80488">
        <ele>474</ele>
        <time>2011-12-18T09:21:42Z</time>
      </trkpt>
      <trkpt lat="45.84923" lon="4.80503">
        <ele>481</ele>
        <time>2011-12-18T09:21:47Z</time>
      </trkpt>
      <trkpt lat="45.84928" lon="4.8051">
        <ele>478</ele>
        <time>2011-12-18T09:21:49Z</time>
      </trkpt>
      <trkpt lat="45.84934" lon="4.80521">
        <ele>476</ele>
        <time>2011-12-18T09:21:52Z</time>
      </trkpt>
      <trkpt lat="45.84941" lon="4.80527">
        <ele>475</ele>
        <time>2011-12-18T09:21:56Z</time>
      </trkpt>
      <trkpt lat="45.84942" lon="4.80526">
        <ele>475</ele>
        <time>2011-12-18T09:21:57Z</time>
      </trkpt>
      <trkpt lat="45.84946" lon="4.80525">
        <ele>474</ele>
        <time>2011-12-18T09:21:58Z</time>
      </trkpt>
      <trkpt lat="45.84949" lon="4.80514">
        <ele>473</ele>
        <time>2011-12-18T09:22:02Z</time>
      </trkpt>
      <trkpt lat="45.84948" lon="4.80507">
        <ele>473</ele>
        <time>2011-12-18T09:22:04Z</time>
      </trkpt>
      <trkpt lat="45.84946" lon="4.80499">
        <ele>464</ele>
        <time>2011-12-18T09:22:07Z</time>
      </trkpt>
      <trkpt lat="45.84938" lon="4.80481">
        <ele>464</ele>
        <time>2011-12-18T09:22:13Z</time>
      </trkpt>
      <trkpt lat="45.84937" lon="4.80473">
        <ele>463</ele>
        <time>2011-12-18T09:22:15Z</time>
      </trkpt>
      <trkpt lat="45.84932" lon="4.8046">
        <ele>461</ele>
        <time>2011-12-18T09:22:18Z</time>
      </trkpt>
      <trkpt lat="45.84929" lon="4.80448">
        <ele>460</ele>
        <time>2011-12-18T09:22:21Z</time>
      </trkpt>
      <trkpt lat="45.84925" lon="4.80437">
        <ele>460</ele>
        <time>2011-12-18T09:22:24Z</time>
      </trkpt>
      <trkpt lat="45.84921" lon="4.80423">
        <ele>460</ele>
        <time>2011-12-18T09:22:28Z</time>
      </trkpt>
      <trkpt lat="45.8492" lon="4.8042">
        <ele>461</ele>
        <time>2011-12-18T09:22:29Z</time>
      </trkpt>
      <trkpt lat="45.84919" lon="4.80411">
        <ele>457</ele>
        <time>2011-12-18T09:22:33Z</time>
      </trkpt>
      <trkpt lat="45.84921" lon="4.80411">
        <ele>456</ele>
        <time>2011-12-18T09:22:37Z</time>
      </trkpt>
      <trkpt lat="45.84923" lon="4.80416">
        <ele>457</ele>
        <time>2011-12-18T09:22:39Z</time>
      </trkpt>
      <trkpt lat="45.84924" lon="4.80421">
        <ele>460</ele>
        <time>2011-12-18T09:22:41Z</time>
      </trkpt>
      <trkpt lat="45.84926" lon="4.80431">
        <ele>460</ele>
        <time>2011-12-18T09:22:45Z</time>
      </trkpt>
      <trkpt lat="45.84926" lon="4.80433">
        <ele>459</ele>
        <time>2011-12-18T09:22:46Z</time>
      </trkpt>
      <trkpt lat="45.84927" lon="4.80435">
        <ele>459</ele>
        <time>2011-12-18T09:22:47Z</time>
      </trkpt>
      <trkpt lat="45.84932" lon="4.80434">
        <ele>459</ele>
        <time>2011-12-18T09:22:50Z</time>
      </trkpt>
      <trkpt lat="45.84934" lon="4.80431">
        <ele>458</ele>
        <time>2011-12-18T09:22:53Z</time>
      </trkpt>
      <trkpt lat="45.84936" lon="4.8043">
        <ele>458</ele>
        <time>2011-12-18T09:22:56Z</time>
      </trkpt>
      <trkpt lat="45.84936" lon="4.80428">
        <ele>458</ele>
        <time>2011-12-18T09:22:57Z</time>
      </trkpt>
      <trkpt lat="45.84939" lon="4.80424">
        <ele>457</ele>
        <time>2011-12-18T09:23:00Z</time>
      </trkpt>
      <trkpt lat="45.84937" lon="4.80413">
        <ele>450</ele>
        <time>2011-12-18T09:23:04Z</time>
      </trkpt>
      <trkpt lat="45.84938" lon="4.80411">
        <ele>449</ele>
        <time>2011-12-18T09:23:05Z</time>
      </trkpt>
      <trkpt lat="45.84938" lon="4.80409">
        <ele>449</ele>
        <time>2011-12-18T09:23:06Z</time>
      </trkpt>
      <trkpt lat="45.84939" lon="4.80399">
        <ele>447</ele>
        <time>2011-12-18T09:23:09Z</time>
      </trkpt>
      <trkpt lat="45.84939" lon="4.80396">
        <ele>446</ele>
        <time>2011-12-18T09:23:10Z</time>
      </trkpt>
      <trkpt lat="45.8494" lon="4.8038">
        <ele>444</ele>
        <time>2011-12-18T09:23:16Z</time>
      </trkpt>
      <trkpt lat="45.8494" lon="4.80365">
        <ele>442</ele>
        <time>2011-12-18T09:23:22Z</time>
      </trkpt>
      <trkpt lat="45.84946" lon="4.80361">
        <ele>441</ele>
        <time>2011-12-18T09:23:25Z</time>
      </trkpt>
      <trkpt lat="45.84948" lon="4.8036">
        <ele>441</ele>
        <time>2011-12-18T09:23:26Z</time>
      </trkpt>
      <trkpt lat="45.8495" lon="4.80359">
        <ele>441</ele>
        <time>2011-12-18T09:23:27Z</time>
      </trkpt>
      <trkpt lat="45.8496" lon="4.80345">
        <ele>438</ele>
        <time>2011-12-18T09:23:33Z</time>
      </trkpt>
      <trkpt lat="45.84961" lon="4.80343">
        <ele>438</ele>
        <time>2011-12-18T09:23:34Z</time>
      </trkpt>
      <trkpt lat="45.84968" lon="4.80334">
        <ele>436</ele>
        <time>2011-12-18T09:23:38Z</time>
      </trkpt>
      <trkpt lat="45.84976" lon="4.80327">
        <ele>430</ele>
        <time>2011-12-18T09:23:41Z</time>
      </trkpt>
      <trkpt lat="45.8498" lon="4.80322">
        <ele>429</ele>
        <time>2011-12-18T09:23:43Z</time>
      </trkpt>
      <trkpt lat="45.8499" lon="4.80312">
        <ele>429</ele>
        <time>2011-12-18T09:23:47Z</time>
      </trkpt>
      <trkpt lat="45.84999" lon="4.80303">
        <ele>428</ele>
        <time>2011-12-18T09:23:52Z</time>
      </trkpt>
      <trkpt lat="45.84999" lon="4.80302">
        <ele>428</ele>
        <time>2011-12-18T09:23:53Z</time>
      </trkpt>
      <trkpt lat="45.85002" lon="4.80296">
        <ele>419</ele>
        <time>2011-12-18T09:23:57Z</time>
      </trkpt>
      <trkpt lat="45.85004" lon="4.80293">
        <ele>419</ele>
        <time>2011-12-18T09:23:58Z</time>
      </trkpt>
      <trkpt lat="45.85014" lon="4.80277">
        <ele>418</ele>
        <time>2011-12-18T09:24:03Z</time>
      </trkpt>
      <trkpt lat="45.85015" lon="4.80274">
        <ele>418</ele>
        <time>2011-12-18T09:24:04Z</time>
      </trkpt>
      <trkpt lat="45.85017" lon="4.80272">
        <ele>418</ele>
        <time>2011-12-18T09:24:05Z</time>
      </trkpt>
      <trkpt lat="45.85023" lon="4.80266">
        <ele>418</ele>
        <time>2011-12-18T09:24:08Z</time>
      </trkpt>
      <trkpt lat="45.85032" lon="4.80255">
        <ele>417</ele>
        <time>2011-12-18T09:24:13Z</time>
      </trkpt>
      <trkpt lat="45.8504" lon="4.80249">
        <ele>415</ele>
        <time>2011-12-18T09:24:16Z</time>
      </trkpt>
      <trkpt lat="45.85042" lon="4.80247">
        <ele>415</ele>
        <time>2011-12-18T09:24:17Z</time>
      </trkpt>
      <trkpt lat="45.85041" lon="4.80241">
        <ele>415</ele>
        <time>2011-12-18T09:24:20Z</time>
      </trkpt>
      <trkpt lat="45.8504" lon="4.80239">
        <ele>415</ele>
        <time>2011-12-18T09:24:21Z</time>
      </trkpt>
      <trkpt lat="45.85038" lon="4.80237">
        <ele>416</ele>
        <time>2011-12-18T09:24:22Z</time>
      </trkpt>
      <trkpt lat="45.85033" lon="4.80225">
        <ele>416</ele>
        <time>2011-12-18T09:24:27Z</time>
      </trkpt>
      <trkpt lat="45.85028" lon="4.80216">
        <ele>416</ele>
        <time>2011-12-18T09:24:31Z</time>
      </trkpt>
      <trkpt lat="45.85026" lon="4.80214">
        <ele>416</ele>
        <time>2011-12-18T09:24:32Z</time>
      </trkpt>
      <trkpt lat="45.8502" lon="4.80202">
        <ele>417</ele>
        <time>2011-12-18T09:24:37Z</time>
      </trkpt>
      <trkpt lat="45.85015" lon="4.80194">
        <ele>417</ele>
        <time>2011-12-18T09:24:40Z</time>
      </trkpt>
      <trkpt lat="45.85013" lon="4.80188">
        <ele>417</ele>
        <time>2011-12-18T09:24:42Z</time>
      </trkpt>
      <trkpt lat="45.8501" lon="4.80183">
        <ele>418</ele>
        <time>2011-12-18T09:24:45Z</time>
      </trkpt>
      <trkpt lat="45.85011" lon="4.80182">
        <ele>418</ele>
        <time>2011-12-18T09:24:46Z</time>
      </trkpt>
      <trkpt lat="45.85014" lon="4.80178">
        <ele>418</ele>
        <time>2011-12-18T09:24:50Z</time>
      </trkpt>
      <trkpt lat="45.85018" lon="4.80172">
        <ele>418</ele>
        <time>2011-12-18T09:24:54Z</time>
      </trkpt>
      <trkpt lat="45.85018" lon="4.8017">
        <ele>417</ele>
        <time>2011-12-18T09:24:55Z</time>
      </trkpt>
      <trkpt lat="45.85019" lon="4.80169">
        <ele>417</ele>
        <time>2011-12-18T09:24:56Z</time>
      </trkpt>
      <trkpt lat="45.85024" lon="4.80158">
        <ele>417</ele>
        <time>2011-12-18T09:25:02Z</time>
      </trkpt>
      <trkpt lat="45.8503" lon="4.8015">
        <ele>417</ele>
        <time>2011-12-18T09:25:06Z</time>
      </trkpt>
      <trkpt lat="45.85033" lon="4.80147">
        <ele>417</ele>
        <time>2011-12-18T09:25:08Z</time>
      </trkpt>
      <trkpt lat="45.85042" lon="4.80138">
        <ele>416</ele>
        <time>2011-12-18T09:25:12Z</time>
      </trkpt>
      <trkpt lat="45.85044" lon="4.80136">
        <ele>416</ele>
        <time>2011-12-18T09:25:13Z</time>
      </trkpt>
      <trkpt lat="45.8505" lon="4.80132">
        <ele>416</ele>
        <time>2011-12-18T09:25:16Z</time>
      </trkpt>
      <trkpt lat="45.85054" lon="4.80126">
        <ele>416</ele>
        <time>2011-12-18T09:25:19Z</time>
      </trkpt>
      <trkpt lat="45.85055" lon="4.80123">
        <ele>416</ele>
        <time>2011-12-18T09:25:20Z</time>
      </trkpt>
      <trkpt lat="45.85057" lon="4.80122">
        <ele>416</ele>
        <time>2011-12-18T09:25:21Z</time>
      </trkpt>
      <trkpt lat="45.8506" lon="4.80121">
        <ele>416</ele>
        <time>2011-12-18T09:25:22Z</time>
      </trkpt>
      <trkpt lat="45.85065" lon="4.80118">
        <ele>416</ele>
        <time>2011-12-18T09:25:24Z</time>
      </trkpt>
      <trkpt lat="45.85071" lon="4.80113">
        <ele>415</ele>
        <time>2011-12-18T09:25:29Z</time>
      </trkpt>
      <trkpt lat="45.85075" lon="4.80109">
        <ele>415</ele>
        <time>2011-12-18T09:25:33Z</time>
      </trkpt>
      <trkpt lat="45.85076" lon="4.80109">
        <ele>415</ele>
        <time>2011-12-18T09:25:35Z</time>
      </trkpt>
      <trkpt lat="45.85076" lon="4.80107">
        <ele>415</ele>
        <time>2011-12-18T09:25:38Z</time>
      </trkpt>
      <trkpt lat="45.85076" lon="4.80106">
        <ele>415</ele>
        <time>2011-12-18T09:25:39Z</time>
      </trkpt>
      <trkpt lat="45.85078" lon="4.80101">
        <ele>415</ele>
        <time>2011-12-18T09:25:42Z</time>
      </trkpt>
      <trkpt lat="45.85078" lon="4.80098">
        <ele>415</ele>
        <time>2011-12-18T09:25:44Z</time>
      </trkpt>
      <trkpt lat="45.85079" lon="4.80096">
        <ele>415</ele>
        <time>2011-12-18T09:25:47Z</time>
      </trkpt>
      <trkpt lat="45.85076" lon="4.80088">
        <ele>415</ele>
        <time>2011-12-18T09:25:56Z</time>
      </trkpt>
      <trkpt lat="45.85076" lon="4.80085">
        <ele>415</ele>
        <time>2011-12-18T09:26:00Z</time>
      </trkpt>
      <trkpt lat="45.85074" lon="4.80081">
        <ele>417</ele>
        <time>2011-12-18T09:26:05Z</time>
      </trkpt>
      <trkpt lat="45.85074" lon="4.80075">
        <ele>417</ele>
        <time>2011-12-18T09:26:09Z</time>
      </trkpt>
      <trkpt lat="45.85074" lon="4.80073">
        <ele>417</ele>
        <time>2011-12-18T09:26:10Z</time>
      </trkpt>
      <trkpt lat="45.85078" lon="4.80063">
        <ele>418</ele>
        <time>2011-12-18T09:26:14Z</time>
      </trkpt>
      <trkpt lat="45.85081" lon="4.80061">
        <ele>418</ele>
        <time>2011-12-18T09:26:15Z</time>
      </trkpt>
      <trkpt lat="45.85086" lon="4.80057">
        <ele>410</ele>
        <time>2011-12-18T09:26:18Z</time>
      </trkpt>
      <trkpt lat="45.85087" lon="4.80051">
        <ele>410</ele>
        <time>2011-12-18T09:26:24Z</time>
      </trkpt>
      <trkpt lat="45.85087" lon="4.80048">
        <ele>410</ele>
        <time>2011-12-18T09:26:27Z</time>
      </trkpt>
      <trkpt lat="45.85088" lon="4.80048">
        <ele>410</ele>
        <time>2011-12-18T09:26:30Z</time>
      </trkpt>
      <trkpt lat="45.8509" lon="4.80048">
        <ele>410</ele>
        <time>2011-12-18T09:26:35Z</time>
      </trkpt>
      <trkpt lat="45.85091" lon="4.80047">
        <ele>410</ele>
        <time>2011-12-18T09:26:36Z</time>
      </trkpt>
      <trkpt lat="45.85095" lon="4.80045">
        <ele>409</ele>
        <time>2011-12-18T09:26:39Z</time>
      </trkpt>
      <trkpt lat="45.85098" lon="4.80043">
        <ele>409</ele>
        <time>2011-12-18T09:26:40Z</time>
      </trkpt>
      <trkpt lat="45.85103" lon="4.8004">
        <ele>409</ele>
        <time>2011-12-18T09:26:44Z</time>
      </trkpt>
      <trkpt lat="45.85109" lon="4.80035">
        <ele>408</ele>
        <time>2011-12-18T09:26:48Z</time>
      </trkpt>
      <trkpt lat="45.85113" lon="4.80033">
        <ele>408</ele>
        <time>2011-12-18T09:26:50Z</time>
      </trkpt>
      <trkpt lat="45.85115" lon="4.80027">
        <ele>407</ele>
        <time>2011-12-18T09:26:53Z</time>
      </trkpt>
      <trkpt lat="45.85116" lon="4.80023">
        <ele>407</ele>
        <time>2011-12-18T09:26:55Z</time>
      </trkpt>
      <trkpt lat="45.85116" lon="4.80021">
        <ele>408</ele>
        <time>2011-12-18T09:26:56Z</time>
      </trkpt>
      <trkpt lat="45.85116" lon="4.80015">
        <ele>408</ele>
        <time>2011-12-18T09:26:58Z</time>
      </trkpt>
      <trkpt lat="45.85118" lon="4.80008">
        <ele>408</ele>
        <time>2011-12-18T09:27:01Z</time>
      </trkpt>
      <trkpt lat="45.85119" lon="4.80004">
        <ele>408</ele>
        <time>2011-12-18T09:27:03Z</time>
      </trkpt>
      <trkpt lat="45.85124" lon="4.79998">
        <ele>405</ele>
        <time>2011-12-18T09:27:08Z</time>
      </trkpt>
      <trkpt lat="45.85129" lon="4.80007">
        <ele>405</ele>
        <time>2011-12-18T09:27:13Z</time>
      </trkpt>
      <trkpt lat="45.85129" lon="4.8001">
        <ele>405</ele>
        <time>2011-12-18T09:27:14Z</time>
      </trkpt>
      <trkpt lat="45.85131" lon="4.80014">
        <ele>405</ele>
        <time>2011-12-18T09:27:17Z</time>
      </trkpt>
      <trkpt lat="45.85136" lon="4.80015">
        <ele>403</ele>
        <time>2011-12-18T09:27:20Z</time>
      </trkpt>
      <trkpt lat="45.85138" lon="4.80015">
        <ele>403</ele>
        <time>2011-12-18T09:27:21Z</time>
      </trkpt>
      <trkpt lat="45.85145" lon="4.80016">
        <ele>402</ele>
        <time>2011-12-18T09:27:25Z</time>
      </trkpt>
      <trkpt lat="45.85146" lon="4.80014">
        <ele>401</ele>
        <time>2011-12-18T09:27:26Z</time>
      </trkpt>
      <trkpt lat="45.85151" lon="4.80006">
        <ele>399</ele>
        <time>2011-12-18T09:27:30Z</time>
      </trkpt>
      <trkpt lat="45.85152" lon="4.80005">
        <ele>399</ele>
        <time>2011-12-18T09:27:31Z</time>
      </trkpt>
      <trkpt lat="45.85161" lon="4.80001">
        <ele>396</ele>
        <time>2011-12-18T09:27:34Z</time>
      </trkpt>
      <trkpt lat="45.85164" lon="4.79999">
        <ele>394</ele>
        <time>2011-12-18T09:27:36Z</time>
      </trkpt>
      <trkpt lat="45.85167" lon="4.79997">
        <ele>391</ele>
        <time>2011-12-18T09:27:39Z</time>
      </trkpt>
      <trkpt lat="45.85168" lon="4.79995">
        <ele>389</ele>
        <time>2011-12-18T09:27:40Z</time>
      </trkpt>
      <trkpt lat="45.85172" lon="4.7999">
        <ele>386</ele>
        <time>2011-12-18T09:27:44Z</time>
      </trkpt>
      <trkpt lat="45.85173" lon="4.7999">
        <ele>386</ele>
        <time>2011-12-18T09:27:45Z</time>
      </trkpt>
      <trkpt lat="45.85174" lon="4.79991">
        <ele>386</ele>
        <time>2011-12-18T09:27:53Z</time>
      </trkpt>
      <trkpt lat="45.85176" lon="4.79989">
        <ele>385</ele>
        <time>2011-12-18T09:27:55Z</time>
      </trkpt>
      <trkpt lat="45.8518" lon="4.79991">
        <ele>384</ele>
        <time>2011-12-18T09:27:58Z</time>
      </trkpt>
      <trkpt lat="45.85183" lon="4.79986">
        <ele>382</ele>
        <time>2011-12-18T09:28:02Z</time>
      </trkpt>
      <trkpt lat="45.85189" lon="4.79981">
        <ele>380</ele>
        <time>2011-12-18T09:28:05Z</time>
      </trkpt>
      <trkpt lat="45.8519" lon="4.7998">
        <ele>379</ele>
        <time>2011-12-18T09:28:06Z</time>
      </trkpt>
      <trkpt lat="45.8519" lon="4.79979">
        <ele>379</ele>
        <time>2011-12-18T09:28:08Z</time>
      </trkpt>
      <trkpt lat="45.85184" lon="4.79977">
        <ele>380</ele>
        <time>2011-12-18T09:28:15Z</time>
      </trkpt>
      <trkpt lat="45.85182" lon="4.79977">
        <ele>381</ele>
        <time>2011-12-18T09:28:23Z</time>
      </trkpt>
      <trkpt lat="45.8518" lon="4.79974">
        <ele>381</ele>
        <time>2011-12-18T09:28:26Z</time>
      </trkpt>
      <trkpt lat="45.85179" lon="4.79974">
        <ele>381</ele>
        <time>2011-12-18T09:28:28Z</time>
      </trkpt>
      <trkpt lat="45.85177" lon="4.79974">
        <ele>381</ele>
        <time>2011-12-18T09:28:35Z</time>
      </trkpt>
      <trkpt lat="45.85182" lon="4.79974">
        <ele>380</ele>
        <time>2011-12-18T09:28:47Z</time>
      </trkpt>
      <trkpt lat="45.85181" lon="4.79976">
        <ele>381</ele>
        <time>2011-12-18T09:28:52Z</time>
      </trkpt>
      <trkpt lat="45.8518" lon="4.79977">
        <ele>381</ele>
        <time>2011-12-18T09:28:55Z</time>
      </trkpt>
      <trkpt lat="45.85183" lon="4.79977">
        <ele>381</ele>
        <time>2011-12-18T09:29:15Z</time>
      </trkpt>
      <trkpt lat="45.85181" lon="4.79974">
        <ele>380</ele>
        <time>2011-12-18T09:29:50Z</time>
      </trkpt>
      <trkpt lat="45.85181" lon="4.79973">
        <ele>380</ele>
        <time>2011-12-18T09:30:04Z</time>
      </trkpt>
      <trkpt lat="45.85179" lon="4.79976">
        <ele>381</ele>
        <time>2011-12-18T09:30:18Z</time>
      </trkpt>
      <trkpt lat="45.85181" lon="4.79976">
        <ele>381</ele>
        <time>2011-12-18T09:30:21Z</time>
      </trkpt>
      <trkpt lat="45.85181" lon="4.79977">
        <ele>381</ele>
        <time>2011-12-18T09:30:23Z</time>
      </trkpt>
      <trkpt lat="45.85183" lon="4.79977">
        <ele>380</ele>
        <time>2011-12-18T09:30:30Z</time>
      </trkpt>
      <trkpt lat="45.85186" lon="4.79975">
        <ele>380</ele>
        <time>2011-12-18T09:30:35Z</time>
      </trkpt>
      <trkpt lat="45.85187" lon="4.79973">
        <ele>379</ele>
        <time>2011-12-18T09:30:39Z</time>
      </trkpt>
      <trkpt lat="45.85187" lon="4.79972">
        <ele>379</ele>
        <time>2011-12-18T09:30:41Z</time>
      </trkpt>
      <trkpt lat="45.85188" lon="4.79972">
        <ele>379</ele>
        <time>2011-12-18T09:30:47Z</time>
      </trkpt>
      <trkpt lat="45.8519" lon="4.79975">
        <ele>379</ele>
        <time>2011-12-18T09:30:52Z</time>
      </trkpt>
      <trkpt lat="45.85191" lon="4.79974">
        <ele>378</ele>
        <time>2011-12-18T09:30:57Z</time>
      </trkpt>
      <trkpt lat="45.85192" lon="4.79974">
        <ele>378</ele>
        <time>2011-12-18T09:30:58Z</time>
      </trkpt>
      <trkpt lat="45.85197" lon="4.79976">
        <ele>377</ele>
        <time>2011-12-18T09:31:04Z</time>
      </trkpt>
      <trkpt lat="45.85199" lon="4.79985">
        <ele>378</ele>
        <time>2011-12-18T09:31:08Z</time>
      </trkpt>
      <trkpt lat="45.852" lon="4.79986">
        <ele>377</ele>
        <time>2011-12-18T09:31:09Z</time>
      </trkpt>
      <trkpt lat="45.85202" lon="4.7999">
        <ele>377</ele>
        <time>2011-12-18T09:31:12Z</time>
      </trkpt>
      <trkpt lat="45.85207" lon="4.79986">
        <ele>376</ele>
        <time>2011-12-18T09:31:17Z</time>
      </trkpt>
      <trkpt lat="45.85207" lon="4.79985">
        <ele>376</ele>
        <time>2011-12-18T09:31:18Z</time>
      </trkpt>
      <trkpt lat="45.85208" lon="4.79984">
        <ele>375</ele>
        <time>2011-12-18T09:31:24Z</time>
      </trkpt>
      <trkpt lat="45.85204" lon="4.79986">
        <ele>376</ele>
        <time>2011-12-18T09:31:47Z</time>
      </trkpt>
      <trkpt lat="45.85204" lon="4.7998">
        <ele>376</ele>
        <time>2011-12-18T09:32:08Z</time>
      </trkpt>
      <trkpt lat="45.85204" lon="4.79975">
        <ele>376</ele>
        <time>2011-12-18T09:32:16Z</time>
      </trkpt>
      <trkpt lat="45.85205" lon="4.79969">
        <ele>376</ele>
        <time>2011-12-18T09:32:21Z</time>
      </trkpt>
      <trkpt lat="45.85204" lon="4.79967">
        <ele>376</ele>
        <time>2011-12-18T09:32:23Z</time>
      </trkpt>
      <trkpt lat="45.85203" lon="4.79965">
        <ele>376</ele>
        <time>2011-12-18T09:32:25Z</time>
      </trkpt>
      <trkpt lat="45.85203" lon="4.79965">
        <ele>376</ele>
        <time>2011-12-18T09:32:26Z</time>
      </trkpt>
      <trkpt lat="45.85199" lon="4.79957">
        <ele>376</ele>
        <time>2011-12-18T09:32:33Z</time>
      </trkpt>
      <trkpt lat="45.85196" lon="4.7995">
        <ele>376</ele>
        <time>2011-12-18T09:32:40Z</time>
      </trkpt>
      <trkpt lat="45.85196" lon="4.79948">
        <ele>376</ele>
        <time>2011-12-18T09:32:41Z</time>
      </trkpt>
      <trkpt lat="45.85195" lon="4.79945">
        <ele>376</ele>
        <time>2011-12-18T09:32:43Z</time>
      </trkpt>
      <trkpt lat="45.85194" lon="4.79938">
        <ele>376</ele>
        <time>2011-12-18T09:32:46Z</time>
      </trkpt>
      <trkpt lat="45.8519" lon="4.79925">
        <ele>377</ele>
        <time>2011-12-18T09:32:53Z</time>
      </trkpt>
      <trkpt lat="45.85188" lon="4.7992">
        <ele>378</ele>
        <time>2011-12-18T09:32:56Z</time>
      </trkpt>
      <trkpt lat="45.85188" lon="4.79918">
        <ele>378</ele>
        <time>2011-12-18T09:32:57Z</time>
      </trkpt>
      <trkpt lat="45.85187" lon="4.79915">
        <ele>375</ele>
        <time>2011-12-18T09:32:59Z</time>
      </trkpt>
      <trkpt lat="45.85186" lon="4.79911">
        <ele>375</ele>
        <time>2011-12-18T09:33:02Z</time>
      </trkpt>
      <trkpt lat="45.85186" lon="4.79907">
        <ele>375</ele>
        <time>2011-12-18T09:33:04Z</time>
      </trkpt>
      <trkpt lat="45.85185" lon="4.79904">
        <ele>375</ele>
        <time>2011-12-18T09:33:06Z</time>
      </trkpt>
      <trkpt lat="45.85183" lon="4.79898">
        <ele>374</ele>
        <time>2011-12-18T09:33:10Z</time>
      </trkpt>
      <trkpt lat="45.85184" lon="4.79899">
        <ele>374</ele>
        <time>2011-12-18T09:33:11Z</time>
      </trkpt>
      <trkpt lat="45.85185" lon="4.799">
        <ele>374</ele>
        <time>2011-12-18T09:33:12Z</time>
      </trkpt>
      <trkpt lat="45.85186" lon="4.79905">
        <ele>374</ele>
        <time>2011-12-18T09:33:15Z</time>
      </trkpt>
      <trkpt lat="45.85189" lon="4.79912">
        <ele>374</ele>
        <time>2011-12-18T09:33:21Z</time>
      </trkpt>
      <trkpt lat="45.85197" lon="4.79907">
        <ele>372</ele>
        <time>2011-12-18T09:33:32Z</time>
      </trkpt>
      <trkpt lat="45.85199" lon="4.79906">
        <ele>372</ele>
        <time>2011-12-18T09:33:36Z</time>
      </trkpt>
      <trkpt lat="45.852" lon="4.79906">
        <ele>371</ele>
        <time>2011-12-18T09:33:37Z</time>
      </trkpt>
      <trkpt lat="45.85205" lon="4.79903">
        <ele>370</ele>
        <time>2011-12-18T09:33:42Z</time>
      </trkpt>
      <trkpt lat="45.85208" lon="4.79901">
        <ele>370</ele>
        <time>2011-12-18T09:33:44Z</time>
      </trkpt>
      <trkpt lat="45.85212" lon="4.79897">
        <ele>369</ele>
        <time>2011-12-18T09:33:48Z</time>
      </trkpt>
      <trkpt lat="45.85216" lon="4.79892">
        <ele>368</ele>
        <time>2011-12-18T09:33:51Z</time>
      </trkpt>
      <trkpt lat="45.85217" lon="4.79891">
        <ele>368</ele>
        <time>2011-12-18T09:33:52Z</time>
      </trkpt>
      <trkpt lat="45.85213" lon="4.79894">
        <ele>369</ele>
        <time>2011-12-18T09:34:17Z</time>
      </trkpt>
      <trkpt lat="45.85209" lon="4.79896">
        <ele>369</ele>
        <time>2011-12-18T09:34:21Z</time>
      </trkpt>
      <trkpt lat="45.85208" lon="4.79893">
        <ele>369</ele>
        <time>2011-12-18T09:34:23Z</time>
      </trkpt>
      <trkpt lat="45.85207" lon="4.79894">
        <ele>369</ele>
        <time>2011-12-18T09:34:24Z</time>
      </trkpt>
      <trkpt lat="45.85205" lon="4.79893">
        <ele>370</ele>
        <time>2011-12-18T09:34:26Z</time>
      </trkpt>
      <trkpt lat="45.85204" lon="4.79891">
        <ele>370</ele>
        <time>2011-12-18T09:34:28Z</time>
      </trkpt>
      <trkpt lat="45.85203" lon="4.79889">
        <ele>370</ele>
        <time>2011-12-18T09:34:30Z</time>
      </trkpt>
      <trkpt lat="45.85203" lon="4.79889">
        <ele>370</ele>
        <time>2011-12-18T09:34:31Z</time>
      </trkpt>
      <trkpt lat="45.85201" lon="4.79887">
        <ele>370</ele>
        <time>2011-12-18T09:34:34Z</time>
      </trkpt>
      <trkpt lat="45.852" lon="4.79884">
        <ele>370</ele>
        <time>2011-12-18T09:34:39Z</time>
      </trkpt>
      <trkpt lat="45.85198" lon="4.79878">
        <ele>370</ele>
        <time>2011-12-18T09:34:46Z</time>
      </trkpt>
      <trkpt lat="45.85195" lon="4.79874">
        <ele>370</ele>
        <time>2011-12-18T09:34:49Z</time>
      </trkpt>
      <trkpt lat="45.85195" lon="4.79873">
        <ele>370</ele>
        <time>2011-12-18T09:34:50Z</time>
      </trkpt>
      <trkpt lat="45.85194" lon="4.79871">
        <ele>370</ele>
        <time>2011-12-18T09:34:53Z</time>
      </trkpt>
      <trkpt lat="45.8519" lon="4.79866">
        <ele>370</ele>
        <time>2011-12-18T09:34:58Z</time>
      </trkpt>
      <trkpt lat="45.85189" lon="4.79866">
        <ele>370</ele>
        <time>2011-12-18T09:34:59Z</time>
      </trkpt>
      <trkpt lat="45.85186" lon="4.79865">
        <ele>371</ele>
        <time>2011-12-18T09:35:03Z</time>
      </trkpt>
      <trkpt lat="45.85185" lon="4.79865">
        <ele>371</ele>
        <time>2011-12-18T09:35:05Z</time>
      </trkpt>
      <trkpt lat="45.85183" lon="4.79868">
        <ele>371</ele>
        <time>2011-12-18T09:35:10Z</time>
      </trkpt>
      <trkpt lat="45.8518" lon="4.79868">
        <ele>371</ele>
        <time>2011-12-18T09:35:13Z</time>
      </trkpt>
      <trkpt lat="45.85178" lon="4.79868">
        <ele>371</ele>
        <time>2011-12-18T09:35:16Z</time>
      </trkpt>
      <trkpt lat="45.85172" lon="4.79868">
        <ele>372</ele>
        <time>2011-12-18T09:35:23Z</time>
      </trkpt>
      <trkpt lat="45.85172" lon="4.79864">
        <ele>372</ele>
        <time>2011-12-18T09:35:28Z</time>
      </trkpt>
      <trkpt lat="45.8517" lon="4.79861">
        <ele>372</ele>
        <time>2011-12-18T09:35:31Z</time>
      </trkpt>
      <trkpt lat="45.85168" lon="4.79858">
        <ele>372</ele>
        <time>2011-12-18T09:35:34Z</time>
      </trkpt>
      <trkpt lat="45.85167" lon="4.79857">
        <ele>372</ele>
        <time>2011-12-18T09:35:35Z</time>
      </trkpt>
      <trkpt lat="45.85166" lon="4.79857">
        <ele>385</ele>
        <time>2011-12-18T09:35:36Z</time>
      </trkpt>
      <trkpt lat="45.85165" lon="4.79856">
        <ele>385</ele>
        <time>2011-12-18T09:35:37Z</time>
      </trkpt>
      <trkpt lat="45.85164" lon="4.79855">
        <ele>384</ele>
        <time>2011-12-18T09:35:39Z</time>
      </trkpt>
      <trkpt lat="45.85161" lon="4.7985">
        <ele>383</ele>
        <time>2011-12-18T09:35:44Z</time>
      </trkpt>
      <trkpt lat="45.85155" lon="4.79839">
        <ele>382</ele>
        <time>2011-12-18T09:35:49Z</time>
      </trkpt>
      <trkpt lat="45.85154" lon="4.79838">
        <ele>382</ele>
        <time>2011-12-18T09:35:50Z</time>
      </trkpt>
      <trkpt lat="45.85153" lon="4.79835">
        <ele>382</ele>
        <time>2011-12-18T09:35:52Z</time>
      </trkpt>
      <trkpt lat="45.8515" lon="4.79831">
        <ele>378</ele>
        <time>2011-12-18T09:35:56Z</time>
      </trkpt>
      <trkpt lat="45.85147" lon="4.79826">
        <ele>379</ele>
        <time>2011-12-18T09:35:58Z</time>
      </trkpt>
      <trkpt lat="45.85143" lon="4.79818">
        <ele>381</ele>
        <time>2011-12-18T09:36:02Z</time>
      </trkpt>
      <trkpt lat="45.85142" lon="4.79817">
        <ele>381</ele>
        <time>2011-12-18T09:36:03Z</time>
      </trkpt>
      <trkpt lat="45.85137" lon="4.7981">
        <ele>382</ele>
        <time>2011-12-18T09:36:08Z</time>
      </trkpt>
      <trkpt lat="45.85132" lon="4.79797">
        <ele>382</ele>
        <time>2011-12-18T09:36:13Z</time>
      </trkpt>
      <trkpt lat="45.85131" lon="4.79796">
        <ele>382</ele>
        <time>2011-12-18T09:36:14Z</time>
      </trkpt>
      <trkpt lat="45.85131" lon="4.79789">
        <ele>382</ele>
        <time>2011-12-18T09:36:19Z</time>
      </trkpt>
      <trkpt lat="45.85131" lon="4.79787">
        <ele>382</ele>
        <time>2011-12-18T09:36:20Z</time>
      </trkpt>
      <trkpt lat="45.85131" lon="4.79782">
        <ele>382</ele>
        <time>2011-12-18T09:36:23Z</time>
      </trkpt>
      <trkpt lat="45.85132" lon="4.79776">
        <ele>381</ele>
        <time>2011-12-18T09:36:27Z</time>
      </trkpt>
      <trkpt lat="45.85133" lon="4.79772">
        <ele>381</ele>
        <time>2011-12-18T09:36:30Z</time>
      </trkpt>
      <trkpt lat="45.85134" lon="4.79769">
        <ele>381</ele>
        <time>2011-12-18T09:36:32Z</time>
      </trkpt>
      <trkpt lat="45.85134" lon="4.79767">
        <ele>380</ele>
        <time>2011-12-18T09:36:33Z</time>
      </trkpt>
      <trkpt lat="45.85138" lon="4.79753">
        <ele>379</ele>
        <time>2011-12-18T09:36:40Z</time>
      </trkpt>
      <trkpt lat="45.85138" lon="4.79751">
        <ele>379</ele>
        <time>2011-12-18T09:36:41Z</time>
      </trkpt>
      <trkpt lat="45.85138" lon="4.79745">
        <ele>378</ele>
        <time>2011-12-18T09:36:44Z</time>
      </trkpt>
      <trkpt lat="45.85138" lon="4.79743">
        <ele>379</ele>
        <time>2011-12-18T09:36:45Z</time>
      </trkpt>
      <trkpt lat="45.8514" lon="4.79733">
        <ele>379</ele>
        <time>2011-12-18T09:36:50Z</time>
      </trkpt>
      <trkpt lat="45.85142" lon="4.7973">
        <ele>379</ele>
        <time>2011-12-18T09:36:52Z</time>
      </trkpt>
      <trkpt lat="45.85141" lon="4.79721">
        <ele>380</ele>
        <time>2011-12-18T09:36:58Z</time>
      </trkpt>
      <trkpt lat="45.85138" lon="4.79722">
        <ele>380</ele>
        <time>2011-12-18T09:37:08Z</time>
      </trkpt>
      <trkpt lat="45.85136" lon="4.79722">
        <ele>380</ele>
        <time>2011-12-18T09:37:10Z</time>
      </trkpt>
      <trkpt lat="45.85129" lon="4.79719">
        <ele>381</ele>
        <time>2011-12-18T09:37:17Z</time>
      </trkpt>
      <trkpt lat="45.85122" lon="4.79712">
        <ele>382</ele>
        <time>2011-12-18T09:37:24Z</time>
      </trkpt>
      <trkpt lat="45.85117" lon="4.79709">
        <ele>382</ele>
        <time>2011-12-18T09:37:28Z</time>
      </trkpt>
      <trkpt lat="45.85116" lon="4.79707">
        <ele>382</ele>
        <time>2011-12-18T09:37:30Z</time>
      </trkpt>
      <trkpt lat="45.85115" lon="4.79706">
        <ele>382</ele>
        <time>2011-12-18T09:37:31Z</time>
      </trkpt>
      <trkpt lat="45.85115" lon="4.79707">
        <ele>382</ele>
        <time>2011-12-18T09:37:34Z</time>
      </trkpt>
      <trkpt lat="45.85111" lon="4.79708">
        <ele>382</ele>
        <time>2011-12-18T09:37:40Z</time>
      </trkpt>
      <trkpt lat="45.8511" lon="4.79707">
        <ele>383</ele>
        <time>2011-12-18T09:37:41Z</time>
      </trkpt>
      <trkpt lat="45.85106" lon="4.79705">
        <ele>383</ele>
        <time>2011-12-18T09:37:44Z</time>
      </trkpt>
      <trkpt lat="45.85105" lon="4.79703">
        <ele>383</ele>
        <time>2011-12-18T09:37:45Z</time>
      </trkpt>
      <trkpt lat="45.85102" lon="4.79697">
        <ele>383</ele>
        <time>2011-12-18T09:37:50Z</time>
      </trkpt>
      <trkpt lat="45.85102" lon="4.79693">
        <ele>383</ele>
        <time>2011-12-18T09:37:55Z</time>
      </trkpt>
      <trkpt lat="45.85102" lon="4.79692">
        <ele>383</ele>
        <time>2011-12-18T09:37:56Z</time>
      </trkpt>
      <trkpt lat="45.851" lon="4.79687">
        <ele>384</ele>
        <time>2011-12-18T09:38:02Z</time>
      </trkpt>
      <trkpt lat="45.851" lon="4.79685">
        <ele>384</ele>
        <time>2011-12-18T09:38:04Z</time>
      </trkpt>
      <trkpt lat="45.851" lon="4.79681">
        <ele>384</ele>
        <time>2011-12-18T09:38:06Z</time>
      </trkpt>
      <trkpt lat="45.851" lon="4.79679">
        <ele>384</ele>
        <time>2011-12-18T09:38:08Z</time>
      </trkpt>
      <trkpt lat="45.85099" lon="4.79677">
        <ele>384</ele>
        <time>2011-12-18T09:38:11Z</time>
      </trkpt>
      <trkpt lat="45.85097" lon="4.79674">
        <ele>385</ele>
        <time>2011-12-18T09:38:14Z</time>
      </trkpt>
      <trkpt lat="45.85096" lon="4.79673">
        <ele>385</ele>
        <time>2011-12-18T09:38:15Z</time>
      </trkpt>
      <trkpt lat="45.85094" lon="4.79668">
        <ele>385</ele>
        <time>2011-12-18T09:38:19Z</time>
      </trkpt>
      <trkpt lat="45.85094" lon="4.79666">
        <ele>388</ele>
        <time>2011-12-18T09:38:21Z</time>
      </trkpt>
      <trkpt lat="45.85095" lon="4.79666">
        <ele>388</ele>
        <time>2011-12-18T09:38:22Z</time>
      </trkpt>
      <trkpt lat="45.85096" lon="4.79663">
        <ele>388</ele>
        <time>2011-12-18T09:38:26Z</time>
      </trkpt>
      <trkpt lat="45.85092" lon="4.79658">
        <ele>388</ele>
        <time>2011-12-18T09:38:33Z</time>
      </trkpt>
      <trkpt lat="45.8509" lon="4.79656">
        <ele>388</ele>
        <time>2011-12-18T09:38:35Z</time>
      </trkpt>
      <trkpt lat="45.85087" lon="4.79653">
        <ele>388</ele>
        <time>2011-12-18T09:38:38Z</time>
      </trkpt>
      <trkpt lat="45.85082" lon="4.79647">
        <ele>395</ele>
        <time>2011-12-18T09:38:43Z</time>
      </trkpt>
      <trkpt lat="45.85082" lon="4.79645">
        <ele>396</ele>
        <time>2011-12-18T09:38:44Z</time>
      </trkpt>
      <trkpt lat="45.85079" lon="4.79639">
        <ele>397</ele>
        <time>2011-12-18T09:38:48Z</time>
      </trkpt>
      <trkpt lat="45.85079" lon="4.79638">
        <ele>397</ele>
        <time>2011-12-18T09:38:49Z</time>
      </trkpt>
      <trkpt lat="45.85076" lon="4.79635">
        <ele>398</ele>
        <time>2011-12-18T09:38:53Z</time>
      </trkpt>
      <trkpt lat="45.85075" lon="4.79633">
        <ele>398</ele>
        <time>2011-12-18T09:38:54Z</time>
      </trkpt>
      <trkpt lat="45.85073" lon="4.79628">
        <ele>399</ele>
        <time>2011-12-18T09:38:57Z</time>
      </trkpt>
      <trkpt lat="45.85072" lon="4.79623">
        <ele>399</ele>
        <time>2011-12-18T09:39:00Z</time>
      </trkpt>
      <trkpt lat="45.85068" lon="4.79619">
        <ele>400</ele>
        <time>2011-12-18T09:39:05Z</time>
      </trkpt>
      <trkpt lat="45.85067" lon="4.79615">
        <ele>400</ele>
        <time>2011-12-18T09:39:07Z</time>
      </trkpt>
      <trkpt lat="45.85065" lon="4.79612">
        <ele>400</ele>
        <time>2011-12-18T09:39:10Z</time>
      </trkpt>
      <trkpt lat="45.85064" lon="4.79611">
        <ele>400</ele>
        <time>2011-12-18T09:39:11Z</time>
      </trkpt>
      <trkpt lat="45.85063" lon="4.79609">
        <ele>401</ele>
        <time>2011-12-18T09:39:12Z</time>
      </trkpt>
      <trkpt lat="45.85061" lon="4.79603">
        <ele>401</ele>
        <time>2011-12-18T09:39:16Z</time>
      </trkpt>
      <trkpt lat="45.8506" lon="4.79602">
        <ele>401</ele>
        <time>2011-12-18T09:39:17Z</time>
      </trkpt>
      <trkpt lat="45.85058" lon="4.796">
        <ele>401</ele>
        <time>2011-12-18T09:39:20Z</time>
      </trkpt>
      <trkpt lat="45.85057" lon="4.79599">
        <ele>401</ele>
        <time>2011-12-18T09:39:21Z</time>
      </trkpt>
      <trkpt lat="45.85055" lon="4.79599">
        <ele>401</ele>
        <time>2011-12-18T09:39:22Z</time>
      </trkpt>
      <trkpt lat="45.85045" lon="4.79596">
        <ele>403</ele>
        <time>2011-12-18T09:39:51Z</time>
      </trkpt>
      <trkpt lat="45.85045" lon="4.79594">
        <ele>403</ele>
        <time>2011-12-18T09:39:53Z</time>
      </trkpt>
      <trkpt lat="45.85044" lon="4.79592">
        <ele>403</ele>
        <time>2011-12-18T09:39:55Z</time>
      </trkpt>
      <trkpt lat="45.85043" lon="4.79591">
        <ele>403</ele>
        <time>2011-12-18T09:39:56Z</time>
      </trkpt>
      <trkpt lat="45.85041" lon="4.79586">
        <ele>404</ele>
        <time>2011-12-18T09:40:01Z</time>
      </trkpt>
      <trkpt lat="45.85041" lon="4.79585">
        <ele>404</ele>
        <time>2011-12-18T09:40:02Z</time>
      </trkpt>
      <trkpt lat="45.8504" lon="4.79583">
        <ele>407</ele>
        <time>2011-12-18T09:40:04Z</time>
      </trkpt>
      <trkpt lat="45.8504" lon="4.79581">
        <ele>408</ele>
        <time>2011-12-18T09:40:05Z</time>
      </trkpt>
      <trkpt lat="45.85038" lon="4.79577">
        <ele>408</ele>
        <time>2011-12-18T09:40:10Z</time>
      </trkpt>
      <trkpt lat="45.85034" lon="4.79585">
        <ele>405</ele>
        <time>2011-12-18T09:40:34Z</time>
      </trkpt>
      <trkpt lat="45.85032" lon="4.79582">
        <ele>409</ele>
        <time>2011-12-18T09:40:37Z</time>
      </trkpt>
      <trkpt lat="45.85032" lon="4.79581">
        <ele>409</ele>
        <time>2011-12-18T09:40:39Z</time>
      </trkpt>
      <trkpt lat="45.8503" lon="4.7958">
        <ele>409</ele>
        <time>2011-12-18T09:40:42Z</time>
      </trkpt>
      <trkpt lat="45.85031" lon="4.79575">
        <ele>409</ele>
        <time>2011-12-18T09:40:50Z</time>
      </trkpt>
      <trkpt lat="45.85035" lon="4.79576">
        <ele>408</ele>
        <time>2011-12-18T09:40:57Z</time>
      </trkpt>
      <trkpt lat="45.85035" lon="4.79577">
        <ele>408</ele>
        <time>2011-12-18T09:40:58Z</time>
      </trkpt>
      <trkpt lat="45.85036" lon="4.79579">
        <ele>408</ele>
        <time>2011-12-18T09:41:01Z</time>
      </trkpt>
      <trkpt lat="45.85037" lon="4.79584">
        <ele>404</ele>
        <time>2011-12-18T09:41:05Z</time>
      </trkpt>
      <trkpt lat="45.85038" lon="4.79585">
        <ele>404</ele>
        <time>2011-12-18T09:41:06Z</time>
      </trkpt>
      <trkpt lat="45.85041" lon="4.79588">
        <ele>404</ele>
        <time>2011-12-18T09:41:10Z</time>
      </trkpt>
      <trkpt lat="45.85042" lon="4.79588">
        <ele>404</ele>
        <time>2011-12-18T09:41:11Z</time>
      </trkpt>
      <trkpt lat="45.85043" lon="4.79589">
        <ele>403</ele>
        <time>2011-12-18T09:41:12Z</time>
      </trkpt>
      <trkpt lat="45.85045" lon="4.7959">
        <ele>403</ele>
        <time>2011-12-18T09:41:14Z</time>
      </trkpt>
      <trkpt lat="45.85046" lon="4.79592">
        <ele>403</ele>
        <time>2011-12-18T09:41:16Z</time>
      </trkpt>
      <trkpt lat="45.85051" lon="4.79595">
        <ele>402</ele>
        <time>2011-12-18T09:41:26Z</time>
      </trkpt>
      <trkpt lat="45.85054" lon="4.79603">
        <ele>402</ele>
        <time>2011-12-18T09:41:32Z</time>
      </trkpt>
      <trkpt lat="45.85055" lon="4.79604">
        <ele>402</ele>
        <time>2011-12-18T09:41:33Z</time>
      </trkpt>
      <trkpt lat="45.85056" lon="4.79604">
        <ele>401</ele>
        <time>2011-12-18T09:41:36Z</time>
      </trkpt>
      <trkpt lat="45.85057" lon="4.79605">
        <ele>401</ele>
        <time>2011-12-18T09:41:37Z</time>
      </trkpt>
      <trkpt lat="45.8506" lon="4.79608">
        <ele>401</ele>
        <time>2011-12-18T09:41:39Z</time>
      </trkpt>
      <trkpt lat="45.85064" lon="4.79612">
        <ele>401</ele>
        <time>2011-12-18T09:41:42Z</time>
      </trkpt>
      <trkpt lat="45.85066" lon="4.79619">
        <ele>400</ele>
        <time>2011-12-18T09:41:45Z</time>
      </trkpt>
      <trkpt lat="45.85067" lon="4.79622">
        <ele>400</ele>
        <time>2011-12-18T09:41:47Z</time>
      </trkpt>
      <trkpt lat="45.85071" lon="4.79631">
        <ele>399</ele>
        <time>2011-12-18T09:41:52Z</time>
      </trkpt>
      <trkpt lat="45.85073" lon="4.79638">
        <ele>398</ele>
        <time>2011-12-18T09:41:55Z</time>
      </trkpt>
      <trkpt lat="45.85073" lon="4.7964">
        <ele>398</ele>
        <time>2011-12-18T09:41:57Z</time>
      </trkpt>
      <trkpt lat="45.85074" lon="4.79643">
        <ele>397</ele>
        <time>2011-12-18T09:42:01Z</time>
      </trkpt>
      <trkpt lat="45.85076" lon="4.79646">
        <ele>396</ele>
        <time>2011-12-18T09:42:03Z</time>
      </trkpt>
      <trkpt lat="45.85079" lon="4.79649">
        <ele>395</ele>
        <time>2011-12-18T09:42:05Z</time>
      </trkpt>
      <trkpt lat="45.85079" lon="4.7965">
        <ele>395</ele>
        <time>2011-12-18T09:42:06Z</time>
      </trkpt>
      <trkpt lat="45.85085" lon="4.79655">
        <ele>388</ele>
        <time>2011-12-18T09:42:11Z</time>
      </trkpt>
      <trkpt lat="45.85085" lon="4.79655">
        <ele>388</ele>
        <time>2011-12-18T09:42:12Z</time>
      </trkpt>
      <trkpt lat="45.85088" lon="4.79658">
        <ele>388</ele>
        <time>2011-12-18T09:42:18Z</time>
      </trkpt>
      <trkpt lat="45.85089" lon="4.7966">
        <ele>388</ele>
        <time>2011-12-18T09:42:19Z</time>
      </trkpt>
      <trkpt lat="45.85089" lon="4.79663">
        <ele>387</ele>
        <time>2011-12-18T09:42:23Z</time>
      </trkpt>
      <trkpt lat="45.85091" lon="4.79666">
        <ele>387</ele>
        <time>2011-12-18T09:42:27Z</time>
      </trkpt>
      <trkpt lat="45.85092" lon="4.7967">
        <ele>385</ele>
        <time>2011-12-18T09:42:29Z</time>
      </trkpt>
      <trkpt lat="45.85097" lon="4.79682">
        <ele>384</ele>
        <time>2011-12-18T09:42:33Z</time>
      </trkpt>
      <trkpt lat="45.85098" lon="4.79685">
        <ele>384</ele>
        <time>2011-12-18T09:42:34Z</time>
      </trkpt>
      <trkpt lat="45.85099" lon="4.7969">
        <ele>384</ele>
        <time>2011-12-18T09:42:36Z</time>
      </trkpt>
      <trkpt lat="45.85099" lon="4.79699">
        <ele>383</ele>
        <time>2011-12-18T09:42:39Z</time>
      </trkpt>
      <trkpt lat="45.85101" lon="4.79703">
        <ele>383</ele>
        <time>2011-12-18T09:42:41Z</time>
      </trkpt>
      <trkpt lat="45.85106" lon="4.79706">
        <ele>383</ele>
        <time>2011-12-18T09:42:44Z</time>
      </trkpt>
      <trkpt lat="45.8511" lon="4.79706">
        <ele>383</ele>
        <time>2011-12-18T09:42:46Z</time>
      </trkpt>
      <trkpt lat="45.85117" lon="4.7971">
        <ele>382</ele>
        <time>2011-12-18T09:42:49Z</time>
      </trkpt>
      <trkpt lat="45.85127" lon="4.79716">
        <ele>381</ele>
        <time>2011-12-18T09:42:54Z</time>
      </trkpt>
      <trkpt lat="45.85128" lon="4.79719">
        <ele>381</ele>
        <time>2011-12-18T09:42:55Z</time>
      </trkpt>
      <trkpt lat="45.85131" lon="4.79735">
        <ele>380</ele>
        <time>2011-12-18T09:43:00Z</time>
      </trkpt>
      <trkpt lat="45.85132" lon="4.79739">
        <ele>380</ele>
        <time>2011-12-18T09:43:01Z</time>
      </trkpt>
      <trkpt lat="45.85131" lon="4.79743">
        <ele>380</ele>
        <time>2011-12-18T09:43:02Z</time>
      </trkpt>
      <trkpt lat="45.8513" lon="4.79753">
        <ele>381</ele>
        <time>2011-12-18T09:43:05Z</time>
      </trkpt>
      <trkpt lat="45.85128" lon="4.7977">
        <ele>382</ele>
        <time>2011-12-18T09:43:11Z</time>
      </trkpt>
      <trkpt lat="45.8513" lon="4.79789">
        <ele>382</ele>
        <time>2011-12-18T09:43:16Z</time>
      </trkpt>
      <trkpt lat="45.85132" lon="4.79796">
        <ele>382</ele>
        <time>2011-12-18T09:43:18Z</time>
      </trkpt>
      <trkpt lat="45.85136" lon="4.79802">
        <ele>382</ele>
        <time>2011-12-18T09:43:20Z</time>
      </trkpt>
      <trkpt lat="45.85139" lon="4.79816">
        <ele>381</ele>
        <time>2011-12-18T09:43:25Z</time>
      </trkpt>
      <trkpt lat="45.8514" lon="4.79819">
        <ele>381</ele>
        <time>2011-12-18T09:43:26Z</time>
      </trkpt>
      <trkpt lat="45.85146" lon="4.79827">
        <ele>380</ele>
        <time>2011-12-18T09:43:29Z</time>
      </trkpt>
      <trkpt lat="45.85152" lon="4.79837">
        <ele>382</ele>
        <time>2011-12-18T09:43:33Z</time>
      </trkpt>
      <trkpt lat="45.85153" lon="4.7984">
        <ele>382</ele>
        <time>2011-12-18T09:43:34Z</time>
      </trkpt>
      <trkpt lat="45.85158" lon="4.79851">
        <ele>384</ele>
        <time>2011-12-18T09:43:38Z</time>
      </trkpt>
      <trkpt lat="45.85162" lon="4.79864">
        <ele>387</ele>
        <time>2011-12-18T09:43:43Z</time>
      </trkpt>
      <trkpt lat="45.8517" lon="4.79881">
        <ele>373</ele>
        <time>2011-12-18T09:43:49Z</time>
      </trkpt>
      <trkpt lat="45.85172" lon="4.79886">
        <ele>374</ele>
        <time>2011-12-18T09:43:51Z</time>
      </trkpt>
      <trkpt lat="45.85173" lon="4.79889">
        <ele>374</ele>
        <time>2011-12-18T09:43:52Z</time>
      </trkpt>
      <trkpt lat="45.85177" lon="4.79895">
        <ele>374</ele>
        <time>2011-12-18T09:43:54Z</time>
      </trkpt>
      <trkpt lat="45.85178" lon="4.79898">
        <ele>375</ele>
        <time>2011-12-18T09:43:55Z</time>
      </trkpt>
      <trkpt lat="45.85185" lon="4.79913">
        <ele>376</ele>
        <time>2011-12-18T09:44:00Z</time>
      </trkpt>
      <trkpt lat="45.85187" lon="4.79919">
        <ele>378</ele>
        <time>2011-12-18T09:44:02Z</time>
      </trkpt>
      <trkpt lat="45.85192" lon="4.79935">
        <ele>377</ele>
        <time>2011-12-18T09:44:07Z</time>
      </trkpt>
      <trkpt lat="45.85193" lon="4.79938">
        <ele>377</ele>
        <time>2011-12-18T09:44:08Z</time>
      </trkpt>
      <trkpt lat="45.85196" lon="4.7995">
        <ele>376</ele>
        <time>2011-12-18T09:44:12Z</time>
      </trkpt>
      <trkpt lat="45.85198" lon="4.79963">
        <ele>376</ele>
        <time>2011-12-18T09:44:16Z</time>
      </trkpt>
      <trkpt lat="45.852" lon="4.79978">
        <ele>377</ele>
        <time>2011-12-18T09:44:20Z</time>
      </trkpt>
      <trkpt lat="45.85201" lon="4.7999">
        <ele>377</ele>
        <time>2011-12-18T09:44:23Z</time>
      </trkpt>
      <trkpt lat="45.85203" lon="4.79998">
        <ele>377</ele>
        <time>2011-12-18T09:44:25Z</time>
      </trkpt>
      <trkpt lat="45.85206" lon="4.80015">
        <ele>378</ele>
        <time>2011-12-18T09:44:30Z</time>
      </trkpt>
      <trkpt lat="45.85207" lon="4.80018">
        <ele>378</ele>
        <time>2011-12-18T09:44:31Z</time>
      </trkpt>
      <trkpt lat="45.8521" lon="4.8003">
        <ele>378</ele>
        <time>2011-12-18T09:44:35Z</time>
      </trkpt>
      <trkpt lat="45.85214" lon="4.80044">
        <ele>377</ele>
        <time>2011-12-18T09:44:41Z</time>
      </trkpt>
      <trkpt lat="45.85218" lon="4.80049">
        <ele>376</ele>
        <time>2011-12-18T09:44:47Z</time>
      </trkpt>
      <trkpt lat="45.85214" lon="4.80048">
        <ele>377</ele>
        <time>2011-12-18T09:44:56Z</time>
      </trkpt>
      <trkpt lat="45.85218" lon="4.80049">
        <ele>376</ele>
        <time>2011-12-18T09:45:07Z</time>
      </trkpt>
      <trkpt lat="45.85222" lon="4.80043">
        <ele>376</ele>
        <time>2011-12-18T09:45:14Z</time>
      </trkpt>
      <trkpt lat="45.85225" lon="4.8004">
        <ele>375</ele>
        <time>2011-12-18T09:45:18Z</time>
      </trkpt>
      <trkpt lat="45.85228" lon="4.80038">
        <ele>375</ele>
        <time>2011-12-18T09:45:25Z</time>
      </trkpt>
      <trkpt lat="45.85229" lon="4.80043">
        <ele>374</ele>
        <time>2011-12-18T09:45:30Z</time>
      </trkpt>
      <trkpt lat="45.85232" lon="4.80043">
        <ele>374</ele>
        <time>2011-12-18T09:45:38Z</time>
      </trkpt>
      <trkpt lat="45.85229" lon="4.80045">
        <ele>375</ele>
        <time>2011-12-18T09:45:45Z</time>
      </trkpt>
      <trkpt lat="45.85226" lon="4.80047">
        <ele>375</ele>
        <time>2011-12-18T09:45:49Z</time>
      </trkpt>
      <trkpt lat="45.85225" lon="4.80045">
        <ele>375</ele>
        <time>2011-12-18T09:45:52Z</time>
      </trkpt>
      <trkpt lat="45.85225" lon="4.80044">
        <ele>375</ele>
        <time>2011-12-18T09:45:53Z</time>
      </trkpt>
      <trkpt lat="45.85224" lon="4.80044">
        <ele>375</ele>
        <time>2011-12-18T09:45:56Z</time>
      </trkpt>
      <trkpt lat="45.85222" lon="4.80047">
        <ele>376</ele>
        <time>2011-12-18T09:45:59Z</time>
      </trkpt>
      <trkpt lat="45.8522" lon="4.80049">
        <ele>376</ele>
        <time>2011-12-18T09:46:02Z</time>
      </trkpt>
      <trkpt lat="45.85218" lon="4.80052">
        <ele>376</ele>
        <time>2011-12-18T09:46:06Z</time>
      </trkpt>
      <trkpt lat="45.85216" lon="4.80049">
        <ele>377</ele>
        <time>2011-12-18T09:46:13Z</time>
      </trkpt>
      <trkpt lat="45.85216" lon="4.80057">
        <ele>377</ele>
        <time>2011-12-18T09:46:21Z</time>
      </trkpt>
      <trkpt lat="45.85216" lon="4.80059">
        <ele>377</ele>
        <time>2011-12-18T09:46:23Z</time>
      </trkpt>
      <trkpt lat="45.85217" lon="4.80065">
        <ele>376</ele>
        <time>2011-12-18T09:46:28Z</time>
      </trkpt>
      <trkpt lat="45.85218" lon="4.80076">
        <ele>376</ele>
        <time>2011-12-18T09:46:35Z</time>
      </trkpt>
      <trkpt lat="45.85217" lon="4.80086">
        <ele>373</ele>
        <time>2011-12-18T09:46:40Z</time>
      </trkpt>
      <trkpt lat="45.85219" lon="4.80091">
        <ele>373</ele>
        <time>2011-12-18T09:46:43Z</time>
      </trkpt>
      <trkpt lat="45.85222" lon="4.80102">
        <ele>372</ele>
        <time>2011-12-18T09:46:50Z</time>
      </trkpt>
      <trkpt lat="45.85225" lon="4.8011">
        <ele>372</ele>
        <time>2011-12-18T09:46:53Z</time>
      </trkpt>
      <trkpt lat="45.85226" lon="4.80111">
        <ele>372</ele>
        <time>2011-12-18T09:46:54Z</time>
      </trkpt>
      <trkpt lat="45.85238" lon="4.80116">
        <ele>370</ele>
        <time>2011-12-18T09:46:59Z</time>
      </trkpt>
      <trkpt lat="45.85242" lon="4.80119">
        <ele>370</ele>
        <time>2011-12-18T09:47:01Z</time>
      </trkpt>
      <trkpt lat="45.85249" lon="4.80124">
        <ele>369</ele>
        <time>2011-12-18T09:47:04Z</time>
      </trkpt>
      <trkpt lat="45.85259" lon="4.80133">
        <ele>353</ele>
        <time>2011-12-18T09:47:09Z</time>
      </trkpt>
      <trkpt lat="45.85261" lon="4.80136">
        <ele>353</ele>
        <time>2011-12-18T09:47:10Z</time>
      </trkpt>
      <trkpt lat="45.8527" lon="4.80148">
        <ele>352</ele>
        <time>2011-12-18T09:47:15Z</time>
      </trkpt>
      <trkpt lat="45.85273" lon="4.80154">
        <ele>351</ele>
        <time>2011-12-18T09:47:17Z</time>
      </trkpt>
      <trkpt lat="45.85279" lon="4.8016">
        <ele>351</ele>
        <time>2011-12-18T09:47:20Z</time>
      </trkpt>
      <trkpt lat="45.85289" lon="4.80167">
        <ele>347</ele>
        <time>2011-12-18T09:47:27Z</time>
      </trkpt>
      <trkpt lat="45.8529" lon="4.80169">
        <ele>347</ele>
        <time>2011-12-18T09:47:28Z</time>
      </trkpt>
      <trkpt lat="45.85293" lon="4.80173">
        <ele>347</ele>
        <time>2011-12-18T09:47:33Z</time>
      </trkpt>
      <trkpt lat="45.85294" lon="4.80174">
        <ele>346</ele>
        <time>2011-12-18T09:47:34Z</time>
      </trkpt>
      <trkpt lat="45.85297" lon="4.80174">
        <ele>346</ele>
        <time>2011-12-18T09:47:36Z</time>
      </trkpt>
      <trkpt lat="45.853" lon="4.80173">
        <ele>345</ele>
        <time>2011-12-18T09:47:38Z</time>
      </trkpt>
      <trkpt lat="45.85304" lon="4.80173">
        <ele>345</ele>
        <time>2011-12-18T09:47:40Z</time>
      </trkpt>
      <trkpt lat="45.85307" lon="4.80172">
        <ele>344</ele>
        <time>2011-12-18T09:47:42Z</time>
      </trkpt>
      <trkpt lat="45.85308" lon="4.80172">
        <ele>344</ele>
        <time>2011-12-18T09:47:43Z</time>
      </trkpt>
      <trkpt lat="45.8531" lon="4.80174">
        <ele>344</ele>
        <time>2011-12-18T09:47:49Z</time>
      </trkpt>
      <trkpt lat="45.85314" lon="4.80171">
        <ele>343</ele>
        <time>2011-12-18T09:47:55Z</time>
      </trkpt>
      <trkpt lat="45.85318" lon="4.80178">
        <ele>343</ele>
        <time>2011-12-18T09:48:02Z</time>
      </trkpt>
      <trkpt lat="45.85319" lon="4.80179">
        <ele>343</ele>
        <time>2011-12-18T09:48:03Z</time>
      </trkpt>
      <trkpt lat="45.85319" lon="4.80181">
        <ele>343</ele>
        <time>2011-12-18T09:48:05Z</time>
      </trkpt>
      <trkpt lat="45.85319" lon="4.80181">
        <ele>343</ele>
        <time>2011-12-18T09:48:06Z</time>
      </trkpt>
      <trkpt lat="45.85319" lon="4.80183">
        <ele>343</ele>
        <time>2011-12-18T09:48:07Z</time>
      </trkpt>
      <trkpt lat="45.85322" lon="4.80183">
        <ele>343</ele>
        <time>2011-12-18T09:48:12Z</time>
      </trkpt>
      <trkpt lat="45.85325" lon="4.80188">
        <ele>343</ele>
        <time>2011-12-18T09:48:16Z</time>
      </trkpt>
      <trkpt lat="45.85327" lon="4.80191">
        <ele>343</ele>
        <time>2011-12-18T09:48:18Z</time>
      </trkpt>
      <trkpt lat="45.85333" lon="4.80197">
        <ele>334</ele>
        <time>2011-12-18T09:48:21Z</time>
      </trkpt>
      <trkpt lat="45.85335" lon="4.80198">
        <ele>334</ele>
        <time>2011-12-18T09:48:22Z</time>
      </trkpt>
      <trkpt lat="45.85339" lon="4.80205">
        <ele>334</ele>
        <time>2011-12-18T09:48:25Z</time>
      </trkpt>
      <trkpt lat="45.85346" lon="4.80215">
        <ele>334</ele>
        <time>2011-12-18T09:48:30Z</time>
      </trkpt>
      <trkpt lat="45.85346" lon="4.80217">
        <ele>334</ele>
        <time>2011-12-18T09:48:32Z</time>
      </trkpt>
      <trkpt lat="45.85348" lon="4.80219">
        <ele>334</ele>
        <time>2011-12-18T09:48:34Z</time>
      </trkpt>
      <trkpt lat="45.85348" lon="4.8022">
        <ele>334</ele>
        <time>2011-12-18T09:48:35Z</time>
      </trkpt>
      <trkpt lat="45.85343" lon="4.80222">
        <ele>334</ele>
        <time>2011-12-18T09:48:41Z</time>
      </trkpt>
      <trkpt lat="45.85342" lon="4.80222">
        <ele>334</ele>
        <time>2011-12-18T09:48:43Z</time>
      </trkpt>
      <trkpt lat="45.85341" lon="4.80222">
        <ele>334</ele>
        <time>2011-12-18T09:48:44Z</time>
      </trkpt>
      <trkpt lat="45.8534" lon="4.80223">
        <ele>334</ele>
        <time>2011-12-18T09:48:47Z</time>
      </trkpt>
      <trkpt lat="45.85336" lon="4.80227">
        <ele>334</ele>
        <time>2011-12-18T09:48:52Z</time>
      </trkpt>
      <trkpt lat="45.85335" lon="4.80228">
        <ele>334</ele>
        <time>2011-12-18T09:48:53Z</time>
      </trkpt>
      <trkpt lat="45.85333" lon="4.80227">
        <ele>342</ele>
        <time>2011-12-18T09:48:57Z</time>
      </trkpt>
      <trkpt lat="45.85331" lon="4.80226">
        <ele>342</ele>
        <time>2011-12-18T09:48:59Z</time>
      </trkpt>
      <trkpt lat="45.85326" lon="4.80228">
        <ele>342</ele>
        <time>2011-12-18T09:49:04Z</time>
      </trkpt>
      <trkpt lat="45.85321" lon="4.80229">
        <ele>343</ele>
        <time>2011-12-18T09:49:12Z</time>
      </trkpt>
      <trkpt lat="45.85319" lon="4.80228">
        <ele>343</ele>
        <time>2011-12-18T09:49:14Z</time>
      </trkpt>
      <trkpt lat="45.85316" lon="4.80225">
        <ele>343</ele>
        <time>2011-12-18T09:49:17Z</time>
      </trkpt>
      <trkpt lat="45.85314" lon="4.80225">
        <ele>344</ele>
        <time>2011-12-18T09:49:19Z</time>
      </trkpt>
      <trkpt lat="45.85313" lon="4.80226">
        <ele>344</ele>
        <time>2011-12-18T09:49:20Z</time>
      </trkpt>
      <trkpt lat="45.85312" lon="4.80226">
        <ele>344</ele>
        <time>2011-12-18T09:49:21Z</time>
      </trkpt>
      <trkpt lat="45.85309" lon="4.80226">
        <ele>344</ele>
        <time>2011-12-18T09:49:26Z</time>
      </trkpt>
      <trkpt lat="45.85307" lon="4.80228">
        <ele>344</ele>
        <time>2011-12-18T09:49:32Z</time>
      </trkpt>
      <trkpt lat="45.85304" lon="4.80232">
        <ele>345</ele>
        <time>2011-12-18T09:49:36Z</time>
      </trkpt>
      <trkpt lat="45.85303" lon="4.80233">
        <ele>345</ele>
        <time>2011-12-18T09:49:38Z</time>
      </trkpt>
      <trkpt lat="45.85301" lon="4.80233">
        <ele>345</ele>
        <time>2011-12-18T09:49:40Z</time>
      </trkpt>
      <trkpt lat="45.85298" lon="4.80234">
        <ele>346</ele>
        <time>2011-12-18T09:49:43Z</time>
      </trkpt>
      <trkpt lat="45.85294" lon="4.80237">
        <ele>346</ele>
        <time>2011-12-18T09:49:48Z</time>
      </trkpt>
      <trkpt lat="45.85293" lon="4.80238">
        <ele>347</ele>
        <time>2011-12-18T09:49:49Z</time>
      </trkpt>
      <trkpt lat="45.85292" lon="4.80242">
        <ele>347</ele>
        <time>2011-12-18T09:49:54Z</time>
      </trkpt>
      <trkpt lat="45.85288" lon="4.80243">
        <ele>347</ele>
        <time>2011-12-18T09:49:58Z</time>
      </trkpt>
      <trkpt lat="45.85288" lon="4.80243">
        <ele>348</ele>
        <time>2011-12-18T09:49:59Z</time>
      </trkpt>
      <trkpt lat="45.85286" lon="4.80239">
        <ele>348</ele>
        <time>2011-12-18T09:50:05Z</time>
      </trkpt>
      <trkpt lat="45.85283" lon="4.80239">
        <ele>348</ele>
        <time>2011-12-18T09:50:14Z</time>
      </trkpt>
      <trkpt lat="45.85279" lon="4.80239">
        <ele>349</ele>
        <time>2011-12-18T09:50:19Z</time>
      </trkpt>
      <trkpt lat="45.85278" lon="4.80238">
        <ele>349</ele>
        <time>2011-12-18T09:50:20Z</time>
      </trkpt>
      <trkpt lat="45.85274" lon="4.80238">
        <ele>350</ele>
        <time>2011-12-18T09:50:25Z</time>
      </trkpt>
      <trkpt lat="45.85269" lon="4.80237">
        <ele>351</ele>
        <time>2011-12-18T09:50:31Z</time>
      </trkpt>
      <trkpt lat="45.85269" lon="4.80242">
        <ele>351</ele>
        <time>2011-12-18T09:50:41Z</time>
      </trkpt>
      <trkpt lat="45.85269" lon="4.80244">
        <ele>351</ele>
        <time>2011-12-18T09:50:42Z</time>
      </trkpt>
      <trkpt lat="45.8527" lon="4.80252">
        <ele>354</ele>
        <time>2011-12-18T09:50:48Z</time>
      </trkpt>
      <trkpt lat="45.8527" lon="4.80253">
        <ele>354</ele>
        <time>2011-12-18T09:50:49Z</time>
      </trkpt>
      <trkpt lat="45.8527" lon="4.80256">
        <ele>354</ele>
        <time>2011-12-18T09:50:52Z</time>
      </trkpt>
      <trkpt lat="45.85271" lon="4.80258">
        <ele>354</ele>
        <time>2011-12-18T09:50:54Z</time>
      </trkpt>
      <trkpt lat="45.85272" lon="4.80261">
        <ele>354</ele>
        <time>2011-12-18T09:50:57Z</time>
      </trkpt>
      <trkpt lat="45.85272" lon="4.80257">
        <ele>354</ele>
        <time>2011-12-18T09:51:03Z</time>
      </trkpt>
      <trkpt lat="45.85275" lon="4.80251">
        <ele>353</ele>
        <time>2011-12-18T09:51:09Z</time>
      </trkpt>
      <trkpt lat="45.85277" lon="4.80249">
        <ele>350</ele>
        <time>2011-12-18T09:51:11Z</time>
      </trkpt>
      <trkpt lat="45.85279" lon="4.80247">
        <ele>349</ele>
        <time>2011-12-18T09:51:14Z</time>
      </trkpt>
      <trkpt lat="45.8528" lon="4.80248">
        <ele>349</ele>
        <time>2011-12-18T09:51:16Z</time>
      </trkpt>
      <trkpt lat="45.85286" lon="4.80245">
        <ele>348</ele>
        <time>2011-12-18T09:51:21Z</time>
      </trkpt>
      <trkpt lat="45.85289" lon="4.80244">
        <ele>347</ele>
        <time>2011-12-18T09:51:24Z</time>
      </trkpt>
      <trkpt lat="45.85292" lon="4.80244">
        <ele>347</ele>
        <time>2011-12-18T09:51:26Z</time>
      </trkpt>
      <trkpt lat="45.85294" lon="4.80242">
        <ele>346</ele>
        <time>2011-12-18T09:51:29Z</time>
      </trkpt>
      <trkpt lat="45.85291" lon="4.80242">
        <ele>347</ele>
        <time>2011-12-18T09:51:35Z</time>
      </trkpt>
      <trkpt lat="45.8529" lon="4.80242">
        <ele>347</ele>
        <time>2011-12-18T09:51:36Z</time>
      </trkpt>
      <trkpt lat="45.8529" lon="4.80241">
        <ele>347</ele>
        <time>2011-12-18T09:51:39Z</time>
      </trkpt>
      <trkpt lat="45.85291" lon="4.80238">
        <ele>347</ele>
        <time>2011-12-18T09:51:42Z</time>
      </trkpt>
      <trkpt lat="45.85291" lon="4.80236">
        <ele>347</ele>
        <time>2011-12-18T09:51:44Z</time>
      </trkpt>
      <trkpt lat="45.85294" lon="4.80232">
        <ele>346</ele>
        <time>2011-12-18T09:51:53Z</time>
      </trkpt>
      <trkpt lat="45.85295" lon="4.80232">
        <ele>346</ele>
        <time>2011-12-18T09:51:56Z</time>
      </trkpt>
      <trkpt lat="45.85294" lon="4.80238">
        <ele>346</ele>
        <time>2011-12-18T09:52:15Z</time>
      </trkpt>
      <trkpt lat="45.853" lon="4.80229">
        <ele>346</ele>
        <time>2011-12-18T09:52:36Z</time>
      </trkpt>
      <trkpt lat="45.85302" lon="4.80228">
        <ele>345</ele>
        <time>2011-12-18T09:52:37Z</time>
      </trkpt>
      <trkpt lat="45.85304" lon="4.80228">
        <ele>345</ele>
        <time>2011-12-18T09:52:50Z</time>
      </trkpt>
      <trkpt lat="45.85304" lon="4.80229">
        <ele>345</ele>
        <time>2011-12-18T09:52:51Z</time>
      </trkpt>
      <trkpt lat="45.85308" lon="4.80227">
        <ele>344</ele>
        <time>2011-12-18T09:52:59Z</time>
      </trkpt>
      <trkpt lat="45.85312" lon="4.80226">
        <ele>344</ele>
        <time>2011-12-18T09:53:04Z</time>
      </trkpt>
      <trkpt lat="45.85313" lon="4.80225">
        <ele>344</ele>
        <time>2011-12-18T09:53:05Z</time>
      </trkpt>
      <trkpt lat="45.85316" lon="4.80226">
        <ele>343</ele>
        <time>2011-12-18T09:53:09Z</time>
      </trkpt>
      <trkpt lat="45.85318" lon="4.80227">
        <ele>343</ele>
        <time>2011-12-18T09:53:11Z</time>
      </trkpt>
      <trkpt lat="45.8532" lon="4.80227">
        <ele>343</ele>
        <time>2011-12-18T09:53:14Z</time>
      </trkpt>
      <trkpt lat="45.85321" lon="4.80226">
        <ele>343</ele>
        <time>2011-12-18T09:53:15Z</time>
      </trkpt>
      <trkpt lat="45.85322" lon="4.80224">
        <ele>343</ele>
        <time>2011-12-18T09:53:17Z</time>
      </trkpt>
      <trkpt lat="45.85324" lon="4.80223">
        <ele>343</ele>
        <time>2011-12-18T09:53:19Z</time>
      </trkpt>
      <trkpt lat="45.85325" lon="4.80223">
        <ele>343</ele>
        <time>2011-12-18T09:53:21Z</time>
      </trkpt>
      <trkpt lat="45.85328" lon="4.80224">
        <ele>342</ele>
        <time>2011-12-18T09:53:24Z</time>
      </trkpt>
      <trkpt lat="45.85329" lon="4.80225">
        <ele>342</ele>
        <time>2011-12-18T09:53:25Z</time>
      </trkpt>
      <trkpt lat="45.85329" lon="4.80225">
        <ele>342</ele>
        <time>2011-12-18T09:53:26Z</time>
      </trkpt>
      <trkpt lat="45.8533" lon="4.80227">
        <ele>342</ele>
        <time>2011-12-18T09:53:28Z</time>
      </trkpt>
      <trkpt lat="45.85335" lon="4.80224">
        <ele>334</ele>
        <time>2011-12-18T09:53:32Z</time>
      </trkpt>
      <trkpt lat="45.85335" lon="4.80223">
        <ele>334</ele>
        <time>2011-12-18T09:53:34Z</time>
      </trkpt>
      <trkpt lat="45.85341" lon="4.8022">
        <ele>334</ele>
        <time>2011-12-18T09:53:39Z</time>
      </trkpt>
      <trkpt lat="45.85346" lon="4.8022">
        <ele>334</ele>
        <time>2011-12-18T09:53:42Z</time>
      </trkpt>
      <trkpt lat="45.85349" lon="4.80221">
        <ele>334</ele>
        <time>2011-12-18T09:53:44Z</time>
      </trkpt>
      <trkpt lat="45.85351" lon="4.80218">
        <ele>333</ele>
        <time>2011-12-18T09:53:46Z</time>
      </trkpt>
      <trkpt lat="45.85351" lon="4.80217">
        <ele>333</ele>
        <time>2011-12-18T09:53:49Z</time>
      </trkpt>
      <trkpt lat="45.8535" lon="4.80213">
        <ele>333</ele>
        <time>2011-12-18T09:53:51Z</time>
      </trkpt>
      <trkpt lat="45.85353" lon="4.8021">
        <ele>333</ele>
        <time>2011-12-18T09:53:54Z</time>
      </trkpt>
      <trkpt lat="45.8536" lon="4.80211">
        <ele>333</ele>
        <time>2011-12-18T09:53:59Z</time>
      </trkpt>
      <trkpt lat="45.85361" lon="4.80212">
        <ele>333</ele>
        <time>2011-12-18T09:54:00Z</time>
      </trkpt>
      <trkpt lat="45.85362" lon="4.80212">
        <ele>333</ele>
        <time>2011-12-18T09:54:01Z</time>
      </trkpt>
      <trkpt lat="45.85372" lon="4.8021">
        <ele>332</ele>
        <time>2011-12-18T09:54:05Z</time>
      </trkpt>
      <trkpt lat="45.85381" lon="4.80208">
        <ele>332</ele>
        <time>2011-12-18T09:54:08Z</time>
      </trkpt>
      <trkpt lat="45.8539" lon="4.80207">
        <ele>331</ele>
        <time>2011-12-18T09:54:11Z</time>
      </trkpt>
      <trkpt lat="45.85401" lon="4.80204">
        <ele>331</ele>
        <time>2011-12-18T09:54:15Z</time>
      </trkpt>
      <trkpt lat="45.85406" lon="4.80204">
        <ele>331</ele>
        <time>2011-12-18T09:54:17Z</time>
      </trkpt>
      <trkpt lat="45.85418" lon="4.80213">
        <ele>326</ele>
        <time>2011-12-18T09:54:22Z</time>
      </trkpt>
      <trkpt lat="45.85428" lon="4.80218">
        <ele>325</ele>
        <time>2011-12-18T09:54:27Z</time>
      </trkpt>
      <trkpt lat="45.85429" lon="4.8022">
        <ele>325</ele>
        <time>2011-12-18T09:54:28Z</time>
      </trkpt>
      <trkpt lat="45.85429" lon="4.80226">
        <ele>325</ele>
        <time>2011-12-18T09:54:31Z</time>
      </trkpt>
      <trkpt lat="45.8543" lon="4.80228">
        <ele>325</ele>
        <time>2011-12-18T09:54:32Z</time>
      </trkpt>
      <trkpt lat="45.8543" lon="4.8023">
        <ele>325</ele>
        <time>2011-12-18T09:54:33Z</time>
      </trkpt>
      <trkpt lat="45.85431" lon="4.8024">
        <ele>325</ele>
        <time>2011-12-18T09:54:38Z</time>
      </trkpt>
      <trkpt lat="45.85433" lon="4.80255">
        <ele>323</ele>
        <time>2011-12-18T09:54:46Z</time>
      </trkpt>
      <trkpt lat="45.85439" lon="4.80273">
        <ele>322</ele>
        <time>2011-12-18T09:54:51Z</time>
      </trkpt>
      <trkpt lat="45.85442" lon="4.80279">
        <ele>322</ele>
        <time>2011-12-18T09:54:53Z</time>
      </trkpt>
      <trkpt lat="45.85448" lon="4.80296">
        <ele>321</ele>
        <time>2011-12-18T09:54:58Z</time>
      </trkpt>
      <trkpt lat="45.8545" lon="4.80302">
        <ele>321</ele>
        <time>2011-12-18T09:55:00Z</time>
      </trkpt>
      <trkpt lat="45.85453" lon="4.80312">
        <ele>320</ele>
        <time>2011-12-18T09:55:03Z</time>
      </trkpt>
      <trkpt lat="45.85457" lon="4.80326">
        <ele>320</ele>
        <time>2011-12-18T09:55:07Z</time>
      </trkpt>
      <trkpt lat="45.85459" lon="4.80333">
        <ele>320</ele>
        <time>2011-12-18T09:55:09Z</time>
      </trkpt>
      <trkpt lat="45.85464" lon="4.80352">
        <ele>318</ele>
        <time>2011-12-18T09:55:14Z</time>
      </trkpt>
      <trkpt lat="45.85464" lon="4.80355">
        <ele>318</ele>
        <time>2011-12-18T09:55:15Z</time>
      </trkpt>
      <trkpt lat="45.85465" lon="4.80377">
        <ele>317</ele>
        <time>2011-12-18T09:55:21Z</time>
      </trkpt>
      <trkpt lat="45.85466" lon="4.80402">
        <ele>317</ele>
        <time>2011-12-18T09:55:28Z</time>
      </trkpt>
      <trkpt lat="45.85467" lon="4.80406">
        <ele>317</ele>
        <time>2011-12-18T09:55:29Z</time>
      </trkpt>
      <trkpt lat="45.85469" lon="4.80425">
        <ele>316</ele>
        <time>2011-12-18T09:55:34Z</time>
      </trkpt>
      <trkpt lat="45.8547" lon="4.80433">
        <ele>316</ele>
        <time>2011-12-18T09:55:36Z</time>
      </trkpt>
      <trkpt lat="45.85471" lon="4.80447">
        <ele>316</ele>
        <time>2011-12-18T09:55:40Z</time>
      </trkpt>
      <trkpt lat="45.85471" lon="4.80459">
        <ele>317</ele>
        <time>2011-12-18T09:55:43Z</time>
      </trkpt>
      <trkpt lat="45.85471" lon="4.8047">
        <ele>316</ele>
        <time>2011-12-18T09:55:46Z</time>
      </trkpt>
      <trkpt lat="45.85471" lon="4.80487">
        <ele>316</ele>
        <time>2011-12-18T09:55:51Z</time>
      </trkpt>
      <trkpt lat="45.8547" lon="4.8049">
        <ele>316</ele>
        <time>2011-12-18T09:55:52Z</time>
      </trkpt>
      <trkpt lat="45.85469" lon="4.80499">
        <ele>316</ele>
        <time>2011-12-18T09:55:56Z</time>
      </trkpt>
      <trkpt lat="45.85468" lon="4.80513">
        <ele>318</ele>
        <time>2011-12-18T09:56:00Z</time>
      </trkpt>
      <trkpt lat="45.85467" lon="4.80531">
        <ele>319</ele>
        <time>2011-12-18T09:56:05Z</time>
      </trkpt>
      <trkpt lat="45.85469" lon="4.80539">
        <ele>319</ele>
        <time>2011-12-18T09:56:07Z</time>
      </trkpt>
      <trkpt lat="45.8547" lon="4.8055">
        <ele>318</ele>
        <time>2011-12-18T09:56:10Z</time>
      </trkpt>
      <trkpt lat="45.85471" lon="4.80567">
        <ele>318</ele>
        <time>2011-12-18T09:56:15Z</time>
      </trkpt>
      <trkpt lat="45.85472" lon="4.80586">
        <ele>320</ele>
        <time>2011-12-18T09:56:21Z</time>
      </trkpt>
      <trkpt lat="45.85474" lon="4.80596">
        <ele>320</ele>
        <time>2011-12-18T09:56:24Z</time>
      </trkpt>
      <trkpt lat="45.85476" lon="4.80608">
        <ele>320</ele>
        <time>2011-12-18T09:56:28Z</time>
      </trkpt>
      <trkpt lat="45.8548" lon="4.80621">
        <ele>321</ele>
        <time>2011-12-18T09:56:32Z</time>
      </trkpt>
      <trkpt lat="45.85482" lon="4.80629">
        <ele>321</ele>
        <time>2011-12-18T09:56:34Z</time>
      </trkpt>
      <trkpt lat="45.85487" lon="4.80647">
        <ele>320</ele>
        <time>2011-12-18T09:56:40Z</time>
      </trkpt>
      <trkpt lat="45.85487" lon="4.80649">
        <ele>320</ele>
        <time>2011-12-18T09:56:41Z</time>
      </trkpt>
      <trkpt lat="45.85489" lon="4.80663">
        <ele>318</ele>
        <time>2011-12-18T09:56:46Z</time>
      </trkpt>
      <trkpt lat="45.85489" lon="4.80666">
        <ele>318</ele>
        <time>2011-12-18T09:56:47Z</time>
      </trkpt>
      <trkpt lat="45.85491" lon="4.80672">
        <ele>320</ele>
        <time>2011-12-18T09:56:49Z</time>
      </trkpt>
      <trkpt lat="45.85492" lon="4.80673">
        <ele>321</ele>
        <time>2011-12-18T09:56:50Z</time>
      </trkpt>
      <trkpt lat="45.85495" lon="4.80683">
        <ele>323</ele>
        <time>2011-12-18T09:56:54Z</time>
      </trkpt>
      <trkpt lat="45.85496" lon="4.80685">
        <ele>323</ele>
        <time>2011-12-18T09:56:55Z</time>
      </trkpt>
      <trkpt lat="45.85496" lon="4.80689">
        <ele>324</ele>
        <time>2011-12-18T09:56:58Z</time>
      </trkpt>
      <trkpt lat="45.85497" lon="4.80689">
        <ele>324</ele>
        <time>2011-12-18T09:57:01Z</time>
      </trkpt>
      <trkpt lat="45.85499" lon="4.80695">
        <ele>325</ele>
        <time>2011-12-18T09:57:07Z</time>
      </trkpt>
      <trkpt lat="45.85499" lon="4.80697">
        <ele>326</ele>
        <time>2011-12-18T09:57:08Z</time>
      </trkpt>
      <trkpt lat="45.85505" lon="4.80714">
        <ele>316</ele>
        <time>2011-12-18T09:57:15Z</time>
      </trkpt>
      <trkpt lat="45.85506" lon="4.80717">
        <ele>316</ele>
        <time>2011-12-18T09:57:16Z</time>
      </trkpt>
      <trkpt lat="45.85509" lon="4.80737">
        <ele>320</ele>
        <time>2011-12-18T09:57:22Z</time>
      </trkpt>
      <trkpt lat="45.85512" lon="4.80744">
        <ele>320</ele>
        <time>2011-12-18T09:57:24Z</time>
      </trkpt>
      <trkpt lat="45.85519" lon="4.80757">
        <ele>321</ele>
        <time>2011-12-18T09:57:28Z</time>
      </trkpt>
      <trkpt lat="45.85524" lon="4.80765">
        <ele>320</ele>
        <time>2011-12-18T09:57:31Z</time>
      </trkpt>
      <trkpt lat="45.85528" lon="4.80771">
        <ele>319</ele>
        <time>2011-12-18T09:57:33Z</time>
      </trkpt>
      <trkpt lat="45.85536" lon="4.80786">
        <ele>318</ele>
        <time>2011-12-18T09:57:38Z</time>
      </trkpt>
      <trkpt lat="45.85537" lon="4.80789">
        <ele>318</ele>
        <time>2011-12-18T09:57:39Z</time>
      </trkpt>
      <trkpt lat="45.85546" lon="4.80805">
        <ele>318</ele>
        <time>2011-12-18T09:57:45Z</time>
      </trkpt>
      <trkpt lat="45.85548" lon="4.80807">
        <ele>317</ele>
        <time>2011-12-18T09:57:46Z</time>
      </trkpt>
      <trkpt lat="45.85553" lon="4.80821">
        <ele>316</ele>
        <time>2011-12-18T09:57:51Z</time>
      </trkpt>
      <trkpt lat="45.85557" lon="4.80829">
        <ele>316</ele>
        <time>2011-12-18T09:57:54Z</time>
      </trkpt>
      <trkpt lat="45.85559" lon="4.80834">
        <ele>319</ele>
        <time>2011-12-18T09:57:56Z</time>
      </trkpt>
      <trkpt lat="45.85565" lon="4.80853">
        <ele>319</ele>
        <time>2011-12-18T09:58:03Z</time>
      </trkpt>
      <trkpt lat="45.85566" lon="4.80859">
        <ele>319</ele>
        <time>2011-12-18T09:58:08Z</time>
      </trkpt>
      <trkpt lat="45.85567" lon="4.80865">
        <ele>320</ele>
        <time>2011-12-18T09:58:13Z</time>
      </trkpt>
      <trkpt lat="45.85566" lon="4.8087">
        <ele>320</ele>
        <time>2011-12-18T09:58:19Z</time>
      </trkpt>
      <trkpt lat="45.85566" lon="4.80874">
        <ele>321</ele>
        <time>2011-12-18T09:58:35Z</time>
      </trkpt>
      <trkpt lat="45.85566" lon="4.80878">
        <ele>321</ele>
        <time>2011-12-18T09:58:48Z</time>
      </trkpt>
      <trkpt lat="45.85565" lon="4.80882">
        <ele>321</ele>
        <time>2011-12-18T09:58:50Z</time>
      </trkpt>
      <trkpt lat="45.85563" lon="4.80894">
        <ele>321</ele>
        <time>2011-12-18T09:58:55Z</time>
      </trkpt>
      <trkpt lat="45.85558" lon="4.80903">
        <ele>322</ele>
        <time>2011-12-18T09:58:59Z</time>
      </trkpt>
      <trkpt lat="45.8555" lon="4.80909">
        <ele>323</ele>
        <time>2011-12-18T09:59:04Z</time>
      </trkpt>
      <trkpt lat="45.85544" lon="4.80913">
        <ele>325</ele>
        <time>2011-12-18T09:59:08Z</time>
      </trkpt>
      <trkpt lat="45.85543" lon="4.80917">
        <ele>330</ele>
        <time>2011-12-18T09:59:10Z</time>
      </trkpt>
      <trkpt lat="45.85545" lon="4.80922">
        <ele>330</ele>
        <time>2011-12-18T09:59:12Z</time>
      </trkpt>
      <trkpt lat="45.85548" lon="4.80928">
        <ele>329</ele>
        <time>2011-12-18T09:59:14Z</time>
      </trkpt>
      <trkpt lat="45.85553" lon="4.80937">
        <ele>329</ele>
        <time>2011-12-18T09:59:17Z</time>
      </trkpt>
      <trkpt lat="45.85556" lon="4.80943">
        <ele>329</ele>
        <time>2011-12-18T09:59:19Z</time>
      </trkpt>
      <trkpt lat="45.85561" lon="4.80957">
        <ele>329</ele>
        <time>2011-12-18T09:59:24Z</time>
      </trkpt>
      <trkpt lat="45.85563" lon="4.80961">
        <ele>329</ele>
        <time>2011-12-18T09:59:26Z</time>
      </trkpt>
      <trkpt lat="45.85568" lon="4.80968">
        <ele>329</ele>
        <time>2011-12-18T09:59:29Z</time>
      </trkpt>
      <trkpt lat="45.85576" lon="4.8098">
        <ele>328</ele>
        <time>2011-12-18T09:59:34Z</time>
      </trkpt>
      <trkpt lat="45.8558" lon="4.80988">
        <ele>327</ele>
        <time>2011-12-18T09:59:37Z</time>
      </trkpt>
      <trkpt lat="45.85584" lon="4.80997">
        <ele>323</ele>
        <time>2011-12-18T09:59:40Z</time>
      </trkpt>
      <trkpt lat="45.85587" lon="4.81002">
        <ele>325</ele>
        <time>2011-12-18T09:59:42Z</time>
      </trkpt>
      <trkpt lat="45.85593" lon="4.81013">
        <ele>324</ele>
        <time>2011-12-18T09:59:46Z</time>
      </trkpt>
      <trkpt lat="45.85597" lon="4.81025">
        <ele>324</ele>
        <time>2011-12-18T09:59:50Z</time>
      </trkpt>
      <trkpt lat="45.85599" lon="4.8103">
        <ele>324</ele>
        <time>2011-12-18T09:59:52Z</time>
      </trkpt>
      <trkpt lat="45.85608" lon="4.81044">
        <ele>325</ele>
        <time>2011-12-18T09:59:58Z</time>
      </trkpt>
      <trkpt lat="45.85609" lon="4.81046">
        <ele>325</ele>
        <time>2011-12-18T09:59:59Z</time>
      </trkpt>
      <trkpt lat="45.85621" lon="4.8106">
        <ele>325</ele>
        <time>2011-12-18T10:00:05Z</time>
      </trkpt>
      <trkpt lat="45.85623" lon="4.81062">
        <ele>325</ele>
        <time>2011-12-18T10:00:06Z</time>
      </trkpt>
      <trkpt lat="45.85624" lon="4.81063">
        <ele>325</ele>
        <time>2011-12-18T10:00:07Z</time>
      </trkpt>
      <trkpt lat="45.85629" lon="4.81068">
        <ele>325</ele>
        <time>2011-12-18T10:00:10Z</time>
      </trkpt>
      <trkpt lat="45.85637" lon="4.81073">
        <ele>324</ele>
        <time>2011-12-18T10:00:15Z</time>
      </trkpt>
      <trkpt lat="45.8564" lon="4.81072">
        <ele>324</ele>
        <time>2011-12-18T10:00:24Z</time>
      </trkpt>
      <trkpt lat="45.85641" lon="4.81072">
        <ele>323</ele>
        <time>2011-12-18T10:00:28Z</time>
      </trkpt>
      <trkpt lat="45.85643" lon="4.81075">
        <ele>323</ele>
        <time>2011-12-18T10:00:31Z</time>
      </trkpt>
      <trkpt lat="45.85642" lon="4.81075">
        <ele>324</ele>
        <time>2011-12-18T10:00:44Z</time>
      </trkpt>
      <trkpt lat="45.85643" lon="4.8108">
        <ele>324</ele>
        <time>2011-12-18T10:01:04Z</time>
      </trkpt>
      <trkpt lat="45.85648" lon="4.81083">
        <ele>323</ele>
        <time>2011-12-18T10:01:10Z</time>
      </trkpt>
      <trkpt lat="45.85648" lon="4.81085">
        <ele>334</ele>
        <time>2011-12-18T10:01:11Z</time>
      </trkpt>
      <trkpt lat="45.8565" lon="4.81087">
        <ele>334</ele>
        <time>2011-12-18T10:01:14Z</time>
      </trkpt>
      <trkpt lat="45.85652" lon="4.81089">
        <ele>333</ele>
        <time>2011-12-18T10:01:17Z</time>
      </trkpt>
      <trkpt lat="45.85656" lon="4.81092">
        <ele>333</ele>
        <time>2011-12-18T10:01:24Z</time>
      </trkpt>
      <trkpt lat="45.85661" lon="4.81095">
        <ele>332</ele>
        <time>2011-12-18T10:01:30Z</time>
      </trkpt>
      <trkpt lat="45.85664" lon="4.81096">
        <ele>332</ele>
        <time>2011-12-18T10:01:42Z</time>
      </trkpt>
      <trkpt lat="45.85663" lon="4.81098">
        <ele>333</ele>
        <time>2011-12-18T10:01:44Z</time>
      </trkpt>
      <trkpt lat="45.85664" lon="4.811">
        <ele>334</ele>
        <time>2011-12-18T10:01:48Z</time>
      </trkpt>
      <trkpt lat="45.85666" lon="4.81104">
        <ele>336</ele>
        <time>2011-12-18T10:01:52Z</time>
      </trkpt>
      <trkpt lat="45.85672" lon="4.81109">
        <ele>332</ele>
        <time>2011-12-18T10:01:59Z</time>
      </trkpt>
      <trkpt lat="45.85676" lon="4.81111">
        <ele>332</ele>
        <time>2011-12-18T10:02:02Z</time>
      </trkpt>
      <trkpt lat="45.85682" lon="4.81113">
        <ele>333</ele>
        <time>2011-12-18T10:02:07Z</time>
      </trkpt>
      <trkpt lat="45.85682" lon="4.81113">
        <ele>333</ele>
        <time>2011-12-18T10:02:08Z</time>
      </trkpt>
      <trkpt lat="45.85684" lon="4.81111">
        <ele>333</ele>
        <time>2011-12-18T10:02:14Z</time>
      </trkpt>
      <trkpt lat="45.85687" lon="4.81109">
        <ele>332</ele>
        <time>2011-12-18T10:02:21Z</time>
      </trkpt>
      <trkpt lat="45.85688" lon="4.81106">
        <ele>332</ele>
        <time>2011-12-18T10:02:24Z</time>
      </trkpt>
      <trkpt lat="45.85689" lon="4.81105">
        <ele>332</ele>
        <time>2011-12-18T10:02:27Z</time>
      </trkpt>
      <trkpt lat="45.85691" lon="4.81105">
        <ele>332</ele>
        <time>2011-12-18T10:02:30Z</time>
      </trkpt>
      <trkpt lat="45.85692" lon="4.81105">
        <ele>332</ele>
        <time>2011-12-18T10:02:31Z</time>
      </trkpt>
      <trkpt lat="45.85691" lon="4.81104">
        <ele>332</ele>
        <time>2011-12-18T10:02:39Z</time>
      </trkpt>
      <trkpt lat="45.85691" lon="4.81102">
        <ele>331</ele>
        <time>2011-12-18T10:02:45Z</time>
      </trkpt>
      <trkpt lat="45.85688" lon="4.81102">
        <ele>331</ele>
        <time>2011-12-18T10:03:00Z</time>
      </trkpt>
      <trkpt lat="45.85686" lon="4.81102">
        <ele>331</ele>
        <time>2011-12-18T10:03:01Z</time>
      </trkpt>
      <trkpt lat="45.85684" lon="4.811">
        <ele>330</ele>
        <time>2011-12-18T10:03:06Z</time>
      </trkpt>
      <trkpt lat="45.85686" lon="4.81101">
        <ele>331</ele>
        <time>2011-12-18T10:03:07Z</time>
      </trkpt>
      <trkpt lat="45.8569" lon="4.81103">
        <ele>331</ele>
        <time>2011-12-18T10:03:11Z</time>
      </trkpt>
      <trkpt lat="45.8569" lon="4.81103">
        <ele>331</ele>
        <time>2011-12-18T10:03:12Z</time>
      </trkpt>
      <trkpt lat="45.85691" lon="4.81102">
        <ele>331</ele>
        <time>2011-12-18T10:03:13Z</time>
      </trkpt>
      <trkpt lat="45.857" lon="4.81099">
        <ele>331</ele>
        <time>2011-12-18T10:03:19Z</time>
      </trkpt>
      <trkpt lat="45.85702" lon="4.81098">
        <ele>331</ele>
        <time>2011-12-18T10:03:20Z</time>
      </trkpt>
      <trkpt lat="45.85703" lon="4.81097">
        <ele>331</ele>
        <time>2011-12-18T10:03:21Z</time>
      </trkpt>
      <trkpt lat="45.85708" lon="4.81097">
        <ele>331</ele>
        <time>2011-12-18T10:03:24Z</time>
      </trkpt>
      <trkpt lat="45.85709" lon="4.81097">
        <ele>331</ele>
        <time>2011-12-18T10:03:25Z</time>
      </trkpt>
      <trkpt lat="45.85711" lon="4.81097">
        <ele>331</ele>
        <time>2011-12-18T10:03:26Z</time>
      </trkpt>
      <trkpt lat="45.85721" lon="4.81092">
        <ele>330</ele>
        <time>2011-12-18T10:03:31Z</time>
      </trkpt>
      <trkpt lat="45.85726" lon="4.8109">
        <ele>330</ele>
        <time>2011-12-18T10:03:33Z</time>
      </trkpt>
      <trkpt lat="45.85739" lon="4.81088">
        <ele>327</ele>
        <time>2011-12-18T10:03:38Z</time>
      </trkpt>
      <trkpt lat="45.85744" lon="4.81089">
        <ele>326</ele>
        <time>2011-12-18T10:03:40Z</time>
      </trkpt>
      <trkpt lat="45.8576" lon="4.8109">
        <ele>326</ele>
        <time>2011-12-18T10:03:46Z</time>
      </trkpt>
      <trkpt lat="45.85765" lon="4.8109">
        <ele>326</ele>
        <time>2011-12-18T10:03:47Z</time>
      </trkpt>
      <trkpt lat="45.85777" lon="4.81089">
        <ele>327</ele>
        <time>2011-12-18T10:03:53Z</time>
      </trkpt>
      <trkpt lat="45.85782" lon="4.81088">
        <ele>327</ele>
        <time>2011-12-18T10:03:57Z</time>
      </trkpt>
      <trkpt lat="45.85786" lon="4.81088">
        <ele>327</ele>
        <time>2011-12-18T10:04:00Z</time>
      </trkpt>
      <trkpt lat="45.85798" lon="4.81088">
        <ele>326</ele>
        <time>2011-12-18T10:04:09Z</time>
      </trkpt>
      <trkpt lat="45.85801" lon="4.81088">
        <ele>326</ele>
        <time>2011-12-18T10:04:11Z</time>
      </trkpt>
      <trkpt lat="45.85807" lon="4.81089">
        <ele>326</ele>
        <time>2011-12-18T10:04:14Z</time>
      </trkpt>
      <trkpt lat="45.85817" lon="4.8109">
        <ele>324</ele>
        <time>2011-12-18T10:04:17Z</time>
      </trkpt>
      <trkpt lat="45.8582" lon="4.81089">
        <ele>324</ele>
        <time>2011-12-18T10:04:18Z</time>
      </trkpt>
      <trkpt lat="45.85834" lon="4.81092">
        <ele>319</ele>
        <time>2011-12-18T10:04:23Z</time>
      </trkpt>
      <trkpt lat="45.85837" lon="4.81092">
        <ele>319</ele>
        <time>2011-12-18T10:04:24Z</time>
      </trkpt>
      <trkpt lat="45.8585" lon="4.81096">
        <ele>319</ele>
        <time>2011-12-18T10:04:29Z</time>
      </trkpt>
      <trkpt lat="45.85856" lon="4.81098">
        <ele>319</ele>
        <time>2011-12-18T10:04:33Z</time>
      </trkpt>
      <trkpt lat="45.85857" lon="4.81097">
        <ele>319</ele>
        <time>2011-12-18T10:04:34Z</time>
      </trkpt>
      <trkpt lat="45.85859" lon="4.811">
        <ele>319</ele>
        <time>2011-12-18T10:04:39Z</time>
      </trkpt>
      <trkpt lat="45.85859" lon="4.81101">
        <ele>319</ele>
        <time>2011-12-18T10:04:40Z</time>
      </trkpt>
      <trkpt lat="45.85859" lon="4.81111">
        <ele>319</ele>
        <time>2011-12-18T10:04:46Z</time>
      </trkpt>
      <trkpt lat="45.85859" lon="4.81114">
        <ele>319</ele>
        <time>2011-12-18T10:04:47Z</time>
      </trkpt>
      <trkpt lat="45.8586" lon="4.81117">
        <ele>320</ele>
        <time>2011-12-18T10:04:50Z</time>
      </trkpt>
      <trkpt lat="45.85862" lon="4.81119">
        <ele>320</ele>
        <time>2011-12-18T10:04:53Z</time>
      </trkpt>
      <trkpt lat="45.85865" lon="4.81118">
        <ele>319</ele>
        <time>2011-12-18T10:04:54Z</time>
      </trkpt>
      <trkpt lat="45.8587" lon="4.81117">
        <ele>319</ele>
        <time>2011-12-18T10:04:58Z</time>
      </trkpt>
      <trkpt lat="45.85873" lon="4.81118">
        <ele>319</ele>
        <time>2011-12-18T10:05:00Z</time>
      </trkpt>
      <trkpt lat="45.85876" lon="4.81122">
        <ele>319</ele>
        <time>2011-12-18T10:05:03Z</time>
      </trkpt>
      <trkpt lat="45.85877" lon="4.81127">
        <ele>319</ele>
        <time>2011-12-18T10:05:05Z</time>
      </trkpt>
      <trkpt lat="45.85878" lon="4.81129">
        <ele>319</ele>
        <time>2011-12-18T10:05:06Z</time>
      </trkpt>
      <trkpt lat="45.85879" lon="4.8113">
        <ele>319</ele>
        <time>2011-12-18T10:05:07Z</time>
      </trkpt>
      <trkpt lat="45.85879" lon="4.8113">
        <ele>319</ele>
        <time>2011-12-18T10:05:08Z</time>
      </trkpt>
      <trkpt lat="45.85883" lon="4.81135">
        <ele>319</ele>
        <time>2011-12-18T10:05:11Z</time>
      </trkpt>
      <trkpt lat="45.85887" lon="4.81138">
        <ele>319</ele>
        <time>2011-12-18T10:05:14Z</time>
      </trkpt>
      <trkpt lat="45.85888" lon="4.81142">
        <ele>319</ele>
        <time>2011-12-18T10:05:16Z</time>
      </trkpt>
      <trkpt lat="45.85891" lon="4.81147">
        <ele>319</ele>
        <time>2011-12-18T10:05:20Z</time>
      </trkpt>
      <trkpt lat="45.85892" lon="4.81149">
        <ele>319</ele>
        <time>2011-12-18T10:05:21Z</time>
      </trkpt>
      <trkpt lat="45.85895" lon="4.81154">
        <ele>319</ele>
        <time>2011-12-18T10:05:23Z</time>
      </trkpt>
      <trkpt lat="45.85896" lon="4.81158">
        <ele>319</ele>
        <time>2011-12-18T10:05:27Z</time>
      </trkpt>
      <trkpt lat="45.85897" lon="4.81159">
        <ele>319</ele>
        <time>2011-12-18T10:05:28Z</time>
      </trkpt>
      <trkpt lat="45.85897" lon="4.81163">
        <ele>319</ele>
        <time>2011-12-18T10:05:31Z</time>
      </trkpt>
      <trkpt lat="45.85899" lon="4.81168">
        <ele>328</ele>
        <time>2011-12-18T10:05:34Z</time>
      </trkpt>
      <trkpt lat="45.85901" lon="4.8117">
        <ele>328</ele>
        <time>2011-12-18T10:05:37Z</time>
      </trkpt>
      <trkpt lat="45.85901" lon="4.8117">
        <ele>327</ele>
        <time>2011-12-18T10:05:39Z</time>
      </trkpt>
      <trkpt lat="45.85901" lon="4.81172">
        <ele>328</ele>
        <time>2011-12-18T10:05:40Z</time>
      </trkpt>
      <trkpt lat="45.85903" lon="4.81173">
        <ele>327</ele>
        <time>2011-12-18T10:05:41Z</time>
      </trkpt>
      <trkpt lat="45.85904" lon="4.81174">
        <ele>327</ele>
        <time>2011-12-18T10:05:43Z</time>
      </trkpt>
      <trkpt lat="45.85904" lon="4.81174">
        <ele>327</ele>
        <time>2011-12-18T10:05:44Z</time>
      </trkpt>
      <trkpt lat="45.85907" lon="4.81177">
        <ele>327</ele>
        <time>2011-12-18T10:05:48Z</time>
      </trkpt>
      <trkpt lat="45.8591" lon="4.81177">
        <ele>326</ele>
        <time>2011-12-18T10:05:57Z</time>
      </trkpt>
      <trkpt lat="45.85911" lon="4.81179">
        <ele>326</ele>
        <time>2011-12-18T10:05:58Z</time>
      </trkpt>
      <trkpt lat="45.85914" lon="4.81183">
        <ele>328</ele>
        <time>2011-12-18T10:06:02Z</time>
      </trkpt>
      <trkpt lat="45.85914" lon="4.81183">
        <ele>328</ele>
        <time>2011-12-18T10:06:03Z</time>
      </trkpt>
      <trkpt lat="45.85916" lon="4.81184">
        <ele>328</ele>
        <time>2011-12-18T10:06:04Z</time>
      </trkpt>
      <trkpt lat="45.85918" lon="4.81185">
        <ele>318</ele>
        <time>2011-12-18T10:06:05Z</time>
      </trkpt>
      <trkpt lat="45.85921" lon="4.81185">
        <ele>318</ele>
        <time>2011-12-18T10:06:08Z</time>
      </trkpt>
      <trkpt lat="45.85923" lon="4.81185">
        <ele>317</ele>
        <time>2011-12-18T10:06:09Z</time>
      </trkpt>
      <trkpt lat="45.85927" lon="4.81189">
        <ele>317</ele>
        <time>2011-12-18T10:06:15Z</time>
      </trkpt>
      <trkpt lat="45.85936" lon="4.81192">
        <ele>317</ele>
        <time>2011-12-18T10:06:27Z</time>
      </trkpt>
      <trkpt lat="45.85936" lon="4.81193">
        <ele>317</ele>
        <time>2011-12-18T10:06:28Z</time>
      </trkpt>
      <trkpt lat="45.85937" lon="4.81197">
        <ele>317</ele>
        <time>2011-12-18T10:06:30Z</time>
      </trkpt>
      <trkpt lat="45.85938" lon="4.812">
        <ele>317</ele>
        <time>2011-12-18T10:06:32Z</time>
      </trkpt>
      <trkpt lat="45.8594" lon="4.81203">
        <ele>318</ele>
        <time>2011-12-18T10:06:35Z</time>
      </trkpt>
      <trkpt lat="45.8594" lon="4.81203">
        <ele>318</ele>
        <time>2011-12-18T10:06:36Z</time>
      </trkpt>
      <trkpt lat="45.85941" lon="4.81204">
        <ele>318</ele>
        <time>2011-12-18T10:06:37Z</time>
      </trkpt>
      <trkpt lat="45.85943" lon="4.81208">
        <ele>318</ele>
        <time>2011-12-18T10:06:41Z</time>
      </trkpt>
      <trkpt lat="45.85944" lon="4.81213">
        <ele>319</ele>
        <time>2011-12-18T10:06:45Z</time>
      </trkpt>
      <trkpt lat="45.85945" lon="4.81216">
        <ele>319</ele>
        <time>2011-12-18T10:06:48Z</time>
      </trkpt>
      <trkpt lat="45.85945" lon="4.81217">
        <ele>319</ele>
        <time>2011-12-18T10:06:49Z</time>
      </trkpt>
      <trkpt lat="45.85945" lon="4.8122">
        <ele>319</ele>
        <time>2011-12-18T10:06:51Z</time>
      </trkpt>
      <trkpt lat="45.85947" lon="4.81222">
        <ele>320</ele>
        <time>2011-12-18T10:06:54Z</time>
      </trkpt>
      <trkpt lat="45.85949" lon="4.81222">
        <ele>319</ele>
        <time>2011-12-18T10:06:57Z</time>
      </trkpt>
      <trkpt lat="45.85952" lon="4.81223">
        <ele>319</ele>
        <time>2011-12-18T10:07:02Z</time>
      </trkpt>
      <trkpt lat="45.85955" lon="4.81227">
        <ele>318</ele>
        <time>2011-12-18T10:07:06Z</time>
      </trkpt>
      <trkpt lat="45.85956" lon="4.81228">
        <ele>318</ele>
        <time>2011-12-18T10:07:07Z</time>
      </trkpt>
      <trkpt lat="45.85959" lon="4.8123">
        <ele>318</ele>
        <time>2011-12-18T10:07:13Z</time>
      </trkpt>
      <trkpt lat="45.85963" lon="4.81232">
        <ele>317</ele>
        <time>2011-12-18T10:07:19Z</time>
      </trkpt>
      <trkpt lat="45.85964" lon="4.81234">
        <ele>317</ele>
        <time>2011-12-18T10:07:22Z</time>
      </trkpt>
      <trkpt lat="45.85966" lon="4.81233">
        <ele>317</ele>
        <time>2011-12-18T10:07:27Z</time>
      </trkpt>
      <trkpt lat="45.8597" lon="4.81234">
        <ele>316</ele>
        <time>2011-12-18T10:07:35Z</time>
      </trkpt>
      <trkpt lat="45.8598" lon="4.81237">
        <ele>314</ele>
        <time>2011-12-18T10:08:00Z</time>
      </trkpt>
      <trkpt lat="45.85981" lon="4.81236">
        <ele>314</ele>
        <time>2011-12-18T10:08:03Z</time>
      </trkpt>
      <trkpt lat="45.85983" lon="4.81236">
        <ele>314</ele>
        <time>2011-12-18T10:08:06Z</time>
      </trkpt>
      <trkpt lat="45.85985" lon="4.81235">
        <ele>313</ele>
        <time>2011-12-18T10:08:12Z</time>
      </trkpt>
      <trkpt lat="45.85987" lon="4.81233">
        <ele>313</ele>
        <time>2011-12-18T10:08:18Z</time>
      </trkpt>
      <trkpt lat="45.85989" lon="4.81235">
        <ele>313</ele>
        <time>2011-12-18T10:08:25Z</time>
      </trkpt>
      <trkpt lat="45.85989" lon="4.81234">
        <ele>313</ele>
        <time>2011-12-18T10:08:30Z</time>
      </trkpt>
      <trkpt lat="45.85993" lon="4.81238">
        <ele>313</ele>
        <time>2011-12-18T10:08:35Z</time>
      </trkpt>
      <trkpt lat="45.85994" lon="4.8124">
        <ele>312</ele>
        <time>2011-12-18T10:08:40Z</time>
      </trkpt>
      <trkpt lat="45.85997" lon="4.81239">
        <ele>312</ele>
        <time>2011-12-18T10:08:42Z</time>
      </trkpt>
      <trkpt lat="45.85998" lon="4.81238">
        <ele>312</ele>
        <time>2011-12-18T10:08:47Z</time>
      </trkpt>
      <trkpt lat="45.85998" lon="4.81241">
        <ele>312</ele>
        <time>2011-12-18T10:08:51Z</time>
      </trkpt>
      <trkpt lat="45.85998" lon="4.81241">
        <ele>312</ele>
        <time>2011-12-18T10:08:52Z</time>
      </trkpt>
      <trkpt lat="45.85997" lon="4.81244">
        <ele>312</ele>
        <time>2011-12-18T10:08:57Z</time>
      </trkpt>
      <trkpt lat="45.85999" lon="4.81244">
        <ele>312</ele>
        <time>2011-12-18T10:09:02Z</time>
      </trkpt>
      <trkpt lat="45.86001" lon="4.81245">
        <ele>307</ele>
        <time>2011-12-18T10:09:09Z</time>
      </trkpt>
      <trkpt lat="45.86002" lon="4.81246">
        <ele>307</ele>
        <time>2011-12-18T10:09:10Z</time>
      </trkpt>
      <trkpt lat="45.86005" lon="4.81247">
        <ele>307</ele>
        <time>2011-12-18T10:09:14Z</time>
      </trkpt>
      <trkpt lat="45.86005" lon="4.81247">
        <ele>306</ele>
        <time>2011-12-18T10:09:15Z</time>
      </trkpt>
      <trkpt lat="45.86008" lon="4.8125">
        <ele>305</ele>
        <time>2011-12-18T10:09:20Z</time>
      </trkpt>
      <trkpt lat="45.86013" lon="4.81251">
        <ele>310</ele>
        <time>2011-12-18T10:09:26Z</time>
      </trkpt>
      <trkpt lat="45.86014" lon="4.81249">
        <ele>302</ele>
        <time>2011-12-18T10:09:31Z</time>
      </trkpt>
      <trkpt lat="45.86015" lon="4.81249">
        <ele>301</ele>
        <time>2011-12-18T10:09:32Z</time>
      </trkpt>
      <trkpt lat="45.86017" lon="4.81247">
        <ele>300</ele>
        <time>2011-12-18T10:09:38Z</time>
      </trkpt>
      <trkpt lat="45.86019" lon="4.81249">
        <ele>299</ele>
        <time>2011-12-18T10:09:49Z</time>
      </trkpt>
      <trkpt lat="45.86024" lon="4.81254">
        <ele>308</ele>
        <time>2011-12-18T10:10:02Z</time>
      </trkpt>
      <trkpt lat="45.86025" lon="4.81255">
        <ele>308</ele>
        <time>2011-12-18T10:10:07Z</time>
      </trkpt>
      <trkpt lat="45.86022" lon="4.81256">
        <ele>309</ele>
        <time>2011-12-18T10:10:12Z</time>
      </trkpt>
      <trkpt lat="45.86024" lon="4.81259">
        <ele>309</ele>
        <time>2011-12-18T10:10:16Z</time>
      </trkpt>
      <trkpt lat="45.86034" lon="4.8126">
        <ele>307</ele>
        <time>2011-12-18T10:10:34Z</time>
      </trkpt>
      <trkpt lat="45.86036" lon="4.81259">
        <ele>306</ele>
        <time>2011-12-18T10:10:38Z</time>
      </trkpt>
      <trkpt lat="45.86039" lon="4.81264">
        <ele>306</ele>
        <time>2011-12-18T10:10:46Z</time>
      </trkpt>
      <trkpt lat="45.86043" lon="4.81265">
        <ele>305</ele>
        <time>2011-12-18T10:10:49Z</time>
      </trkpt>
      <trkpt lat="45.86045" lon="4.81265">
        <ele>305</ele>
        <time>2011-12-18T10:10:50Z</time>
      </trkpt>
      <trkpt lat="45.86048" lon="4.81266">
        <ele>304</ele>
        <time>2011-12-18T10:10:52Z</time>
      </trkpt>
      <trkpt lat="45.8605" lon="4.81267">
        <ele>304</ele>
        <time>2011-12-18T10:10:54Z</time>
      </trkpt>
      <trkpt lat="45.86054" lon="4.81269">
        <ele>303</ele>
        <time>2011-12-18T10:10:58Z</time>
      </trkpt>
      <trkpt lat="45.86055" lon="4.81269">
        <ele>303</ele>
        <time>2011-12-18T10:11:00Z</time>
      </trkpt>
      <trkpt lat="45.86055" lon="4.81271">
        <ele>303</ele>
        <time>2011-12-18T10:11:01Z</time>
      </trkpt>
      <trkpt lat="45.86057" lon="4.81273">
        <ele>303</ele>
        <time>2011-12-18T10:11:04Z</time>
      </trkpt>
      <trkpt lat="45.86057" lon="4.81273">
        <ele>303</ele>
        <time>2011-12-18T10:11:05Z</time>
      </trkpt>
      <trkpt lat="45.8606" lon="4.81275">
        <ele>303</ele>
        <time>2011-12-18T10:11:09Z</time>
      </trkpt>
      <trkpt lat="45.86062" lon="4.81276">
        <ele>303</ele>
        <time>2011-12-18T10:11:11Z</time>
      </trkpt>
      <trkpt lat="45.86064" lon="4.81277">
        <ele>303</ele>
        <time>2011-12-18T10:11:13Z</time>
      </trkpt>
      <trkpt lat="45.86066" lon="4.81277">
        <ele>302</ele>
        <time>2011-12-18T10:11:15Z</time>
      </trkpt>
      <trkpt lat="45.86069" lon="4.81277">
        <ele>302</ele>
        <time>2011-12-18T10:11:17Z</time>
      </trkpt>
      <trkpt lat="45.86071" lon="4.81278">
        <ele>302</ele>
        <time>2011-12-18T10:11:20Z</time>
      </trkpt>
      <trkpt lat="45.86072" lon="4.8128">
        <ele>302</ele>
        <time>2011-12-18T10:11:22Z</time>
      </trkpt>
      <trkpt lat="45.86073" lon="4.81281">
        <ele>302</ele>
        <time>2011-12-18T10:11:23Z</time>
      </trkpt>
      <trkpt lat="45.86074" lon="4.81284">
        <ele>303</ele>
        <time>2011-12-18T10:11:27Z</time>
      </trkpt>
      <trkpt lat="45.86077" lon="4.81289">
        <ele>304</ele>
        <time>2011-12-18T10:11:35Z</time>
      </trkpt>
      <trkpt lat="45.86077" lon="4.81287">
        <ele>303</ele>
        <time>2011-12-18T10:12:05Z</time>
      </trkpt>
      <trkpt lat="45.86078" lon="4.81285">
        <ele>303</ele>
        <time>2011-12-18T10:12:06Z</time>
      </trkpt>
      <trkpt lat="45.8608" lon="4.81281">
        <ele>301</ele>
        <time>2011-12-18T10:12:12Z</time>
      </trkpt>
      <trkpt lat="45.86079" lon="4.81279">
        <ele>301</ele>
        <time>2011-12-18T10:12:14Z</time>
      </trkpt>
      <trkpt lat="45.86079" lon="4.81275">
        <ele>299</ele>
        <time>2011-12-18T10:12:18Z</time>
      </trkpt>
      <trkpt lat="45.86084" lon="4.81271">
        <ele>286</ele>
        <time>2011-12-18T10:12:22Z</time>
      </trkpt>
      <trkpt lat="45.86089" lon="4.81269">
        <ele>286</ele>
        <time>2011-12-18T10:12:27Z</time>
      </trkpt>
      <trkpt lat="45.8609" lon="4.81268">
        <ele>285</ele>
        <time>2011-12-18T10:12:28Z</time>
      </trkpt>
      <trkpt lat="45.86093" lon="4.8127">
        <ele>286</ele>
        <time>2011-12-18T10:12:31Z</time>
      </trkpt>
      <trkpt lat="45.86095" lon="4.81272">
        <ele>286</ele>
        <time>2011-12-18T10:12:33Z</time>
      </trkpt>
      <trkpt lat="45.861" lon="4.81275">
        <ele>286</ele>
        <time>2011-12-18T10:12:38Z</time>
      </trkpt>
      <trkpt lat="45.86105" lon="4.81274">
        <ele>286</ele>
        <time>2011-12-18T10:12:42Z</time>
      </trkpt>
      <trkpt lat="45.86106" lon="4.81273">
        <ele>286</ele>
        <time>2011-12-18T10:12:43Z</time>
      </trkpt>
      <trkpt lat="45.8611" lon="4.81277">
        <ele>286</ele>
        <time>2011-12-18T10:12:49Z</time>
      </trkpt>
      <trkpt lat="45.8611" lon="4.81282">
        <ele>286</ele>
        <time>2011-12-18T10:12:53Z</time>
      </trkpt>
      <trkpt lat="45.8611" lon="4.81283">
        <ele>287</ele>
        <time>2011-12-18T10:12:54Z</time>
      </trkpt>
      <trkpt lat="45.86112" lon="4.81288">
        <ele>287</ele>
        <time>2011-12-18T10:12:58Z</time>
      </trkpt>
      <trkpt lat="45.86111" lon="4.81291">
        <ele>288</ele>
        <time>2011-12-18T10:13:02Z</time>
      </trkpt>
      <trkpt lat="45.8611" lon="4.81291">
        <ele>288</ele>
        <time>2011-12-18T10:13:04Z</time>
      </trkpt>
      <trkpt lat="45.86113" lon="4.81291">
        <ele>287</ele>
        <time>2011-12-18T10:13:10Z</time>
      </trkpt>
      <trkpt lat="45.86118" lon="4.81295">
        <ele>288</ele>
        <time>2011-12-18T10:13:14Z</time>
      </trkpt>
      <trkpt lat="45.86119" lon="4.81296">
        <ele>287</ele>
        <time>2011-12-18T10:13:15Z</time>
      </trkpt>
      <trkpt lat="45.86122" lon="4.81298">
        <ele>287</ele>
        <time>2011-12-18T10:13:19Z</time>
      </trkpt>
      <trkpt lat="45.86121" lon="4.81298">
        <ele>288</ele>
        <time>2011-12-18T10:13:20Z</time>
      </trkpt>
      <trkpt lat="45.86121" lon="4.81301">
        <ele>288</ele>
        <time>2011-12-18T10:13:24Z</time>
      </trkpt>
      <trkpt lat="45.86121" lon="4.81304">
        <ele>288</ele>
        <time>2011-12-18T10:13:28Z</time>
      </trkpt>
      <trkpt lat="45.86122" lon="4.81312">
        <ele>289</ele>
        <time>2011-12-18T10:13:35Z</time>
      </trkpt>
      <trkpt lat="45.86123" lon="4.81314">
        <ele>289</ele>
        <time>2011-12-18T10:13:41Z</time>
      </trkpt>
      <trkpt lat="45.86121" lon="4.81313">
        <ele>289</ele>
        <time>2011-12-18T10:13:43Z</time>
      </trkpt>
      <trkpt lat="45.86118" lon="4.81311">
        <ele>290</ele>
        <time>2011-12-18T10:13:47Z</time>
      </trkpt>
      <trkpt lat="45.86116" lon="4.81309">
        <ele>290</ele>
        <time>2011-12-18T10:13:56Z</time>
      </trkpt>
      <trkpt lat="45.86116" lon="4.81309">
        <ele>290</ele>
        <time>2011-12-18T10:13:57Z</time>
      </trkpt>
      <trkpt lat="45.86114" lon="4.81309">
        <ele>290</ele>
        <time>2011-12-18T10:14:03Z</time>
      </trkpt>
      <trkpt lat="45.86109" lon="4.81307">
        <ele>291</ele>
        <time>2011-12-18T10:14:17Z</time>
      </trkpt>
      <trkpt lat="45.86104" lon="4.81303">
        <ele>291</ele>
        <time>2011-12-18T10:14:24Z</time>
      </trkpt>
      <trkpt lat="45.86115" lon="4.813">
        <ele>289</ele>
        <time>2011-12-18T10:14:43Z</time>
      </trkpt>
      <trkpt lat="45.86119" lon="4.81305">
        <ele>289</ele>
        <time>2011-12-18T10:14:50Z</time>
      </trkpt>
      <trkpt lat="45.8612" lon="4.81307">
        <ele>289</ele>
        <time>2011-12-18T10:14:52Z</time>
      </trkpt>
      <trkpt lat="45.86122" lon="4.81309">
        <ele>289</ele>
        <time>2011-12-18T10:14:54Z</time>
      </trkpt>
      <trkpt lat="45.86128" lon="4.81313">
        <ele>288</ele>
        <time>2011-12-18T10:14:59Z</time>
      </trkpt>
      <trkpt lat="45.8613" lon="4.81314">
        <ele>288</ele>
        <time>2011-12-18T10:15:00Z</time>
      </trkpt>
      <trkpt lat="45.86136" lon="4.81317">
        <ele>288</ele>
        <time>2011-12-18T10:15:04Z</time>
      </trkpt>
      <trkpt lat="45.86146" lon="4.81321">
        <ele>287</ele>
        <time>2011-12-18T10:15:09Z</time>
      </trkpt>
      <trkpt lat="45.86149" lon="4.81322">
        <ele>287</ele>
        <time>2011-12-18T10:15:10Z</time>
      </trkpt>
      <trkpt lat="45.86158" lon="4.81321">
        <ele>286</ele>
        <time>2011-12-18T10:15:14Z</time>
      </trkpt>
      <trkpt lat="45.86169" lon="4.81318">
        <ele>280</ele>
        <time>2011-12-18T10:15:18Z</time>
      </trkpt>
      <trkpt lat="45.86173" lon="4.81317">
        <ele>279</ele>
        <time>2011-12-18T10:15:20Z</time>
      </trkpt>
      <trkpt lat="45.86184" lon="4.81315">
        <ele>277</ele>
        <time>2011-12-18T10:15:25Z</time>
      </trkpt>
      <trkpt lat="45.86187" lon="4.81315">
        <ele>276</ele>
        <time>2011-12-18T10:15:26Z</time>
      </trkpt>
      <trkpt lat="45.86198" lon="4.81316">
        <ele>275</ele>
        <time>2011-12-18T10:15:30Z</time>
      </trkpt>
      <trkpt lat="45.86206" lon="4.81317">
        <ele>274</ele>
        <time>2011-12-18T10:15:33Z</time>
      </trkpt>
      <trkpt lat="45.86212" lon="4.81316">
        <ele>274</ele>
        <time>2011-12-18T10:15:35Z</time>
      </trkpt>
      <trkpt lat="45.86224" lon="4.81313">
        <ele>273</ele>
        <time>2011-12-18T10:15:40Z</time>
      </trkpt>
      <trkpt lat="45.8623" lon="4.81312">
        <ele>272</ele>
        <time>2011-12-18T10:15:44Z</time>
      </trkpt>
      <trkpt lat="45.86231" lon="4.81313">
        <ele>272</ele>
        <time>2011-12-18T10:15:45Z</time>
      </trkpt>
      <trkpt lat="45.86232" lon="4.81306">
        <ele>272</ele>
        <time>2011-12-18T10:16:05Z</time>
      </trkpt>
      <trkpt lat="45.86233" lon="4.81304">
        <ele>272</ele>
        <time>2011-12-18T10:16:06Z</time>
      </trkpt>
      <trkpt lat="45.86241" lon="4.81303">
        <ele>271</ele>
        <time>2011-12-18T10:16:09Z</time>
      </trkpt>
      <trkpt lat="45.86246" lon="4.81304">
        <ele>271</ele>
        <time>2011-12-18T10:16:11Z</time>
      </trkpt>
      <trkpt lat="45.86252" lon="4.81305">
        <ele>267</ele>
        <time>2011-12-18T10:16:14Z</time>
      </trkpt>
      <trkpt lat="45.86253" lon="4.81307">
        <ele>268</ele>
        <time>2011-12-18T10:16:15Z</time>
      </trkpt>
      <trkpt lat="45.86252" lon="4.81308">
        <ele>268</ele>
        <time>2011-12-18T10:16:16Z</time>
      </trkpt>
      <trkpt lat="45.8625" lon="4.81313">
        <ele>268</ele>
        <time>2011-12-18T10:16:19Z</time>
      </trkpt>
      <trkpt lat="45.8625" lon="4.81314">
        <ele>269</ele>
        <time>2011-12-18T10:16:20Z</time>
      </trkpt>
      <trkpt lat="45.8625" lon="4.81315">
        <ele>269</ele>
        <time>2011-12-18T10:16:21Z</time>
      </trkpt>
      <trkpt lat="45.86251" lon="4.81318">
        <ele>269</ele>
        <time>2011-12-18T10:16:23Z</time>
      </trkpt>
      <trkpt lat="45.86252" lon="4.8132">
        <ele>270</ele>
        <time>2011-12-18T10:16:25Z</time>
      </trkpt>
      <trkpt lat="45.86254" lon="4.81323">
        <ele>270</ele>
        <time>2011-12-18T10:16:27Z</time>
      </trkpt>
      <trkpt lat="45.86254" lon="4.81325">
        <ele>270</ele>
        <time>2011-12-18T10:16:28Z</time>
      </trkpt>
      <trkpt lat="45.86257" lon="4.81326">
        <ele>270</ele>
        <time>2011-12-18T10:16:31Z</time>
      </trkpt>
      <trkpt lat="45.86262" lon="4.81328">
        <ele>270</ele>
        <time>2011-12-18T10:16:33Z</time>
      </trkpt>
      <trkpt lat="45.86267" lon="4.81329">
        <ele>269</ele>
        <time>2011-12-18T10:16:35Z</time>
      </trkpt>
      <trkpt lat="45.86274" lon="4.81331">
        <ele>268</ele>
        <time>2011-12-18T10:16:38Z</time>
      </trkpt>
      <trkpt lat="45.86277" lon="4.81332">
        <ele>268</ele>
        <time>2011-12-18T10:16:39Z</time>
      </trkpt>
      <trkpt lat="45.86286" lon="4.81334">
        <ele>281</ele>
        <time>2011-12-18T10:16:42Z</time>
      </trkpt>
      <trkpt lat="45.86288" lon="4.81334">
        <ele>281</ele>
        <time>2011-12-18T10:16:43Z</time>
      </trkpt>
      <trkpt lat="45.86299" lon="4.81336">
        <ele>281</ele>
        <time>2011-12-18T10:16:47Z</time>
      </trkpt>
      <trkpt lat="45.86303" lon="4.81338">
        <ele>280</ele>
        <time>2011-12-18T10:16:49Z</time>
      </trkpt>
      <trkpt lat="45.86307" lon="4.81339">
        <ele>279</ele>
        <time>2011-12-18T10:16:51Z</time>
      </trkpt>
      <trkpt lat="45.86319" lon="4.81346">
        <ele>277</ele>
        <time>2011-12-18T10:16:56Z</time>
      </trkpt>
      <trkpt lat="45.86322" lon="4.81347">
        <ele>277</ele>
        <time>2011-12-18T10:16:57Z</time>
      </trkpt>
      <trkpt lat="45.86332" lon="4.8135">
        <ele>277</ele>
        <time>2011-12-18T10:17:02Z</time>
      </trkpt>
      <trkpt lat="45.86334" lon="4.8135">
        <ele>271</ele>
        <time>2011-12-18T10:17:04Z</time>
      </trkpt>
      <trkpt lat="45.86333" lon="4.8135">
        <ele>277</ele>
        <time>2011-12-18T10:17:06Z</time>
      </trkpt>
      <trkpt lat="45.86328" lon="4.81348">
        <ele>276</ele>
        <time>2011-12-18T10:17:10Z</time>
      </trkpt>
      <trkpt lat="45.86326" lon="4.81347">
        <ele>276</ele>
        <time>2011-12-18T10:17:11Z</time>
      </trkpt>
      <trkpt lat="45.86319" lon="4.81346">
        <ele>278</ele>
        <time>2011-12-18T10:17:14Z</time>
      </trkpt>
      <trkpt lat="45.86315" lon="4.81346">
        <ele>279</ele>
        <time>2011-12-18T10:17:15Z</time>
      </trkpt>
      <trkpt lat="45.86307" lon="4.81346">
        <ele>280</ele>
        <time>2011-12-18T10:17:17Z</time>
      </trkpt>
      <trkpt lat="45.86301" lon="4.81341">
        <ele>281</ele>
        <time>2011-12-18T10:17:19Z</time>
      </trkpt>
      <trkpt lat="45.86288" lon="4.81339">
        <ele>282</ele>
        <time>2011-12-18T10:17:23Z</time>
      </trkpt>
      <trkpt lat="45.86285" lon="4.81338">
        <ele>282</ele>
        <time>2011-12-18T10:17:24Z</time>
      </trkpt>
      <trkpt lat="45.86275" lon="4.81336">
        <ele>281</ele>
        <time>2011-12-18T10:17:28Z</time>
      </trkpt>
      <trkpt lat="45.86271" lon="4.81331">
        <ele>269</ele>
        <time>2011-12-18T10:17:32Z</time>
      </trkpt>
      <trkpt lat="45.86271" lon="4.81326">
        <ele>268</ele>
        <time>2011-12-18T10:17:37Z</time>
      </trkpt>
      <trkpt lat="45.86269" lon="4.81326">
        <ele>269</ele>
        <time>2011-12-18T10:17:44Z</time>
      </trkpt>
      <trkpt lat="45.86268" lon="4.81324">
        <ele>269</ele>
        <time>2011-12-18T10:17:47Z</time>
      </trkpt>
      <trkpt lat="45.86267" lon="4.81325">
        <ele>269</ele>
        <time>2011-12-18T10:17:49Z</time>
      </trkpt>
      <trkpt lat="45.86266" lon="4.81325">
        <ele>269</ele>
        <time>2011-12-18T10:17:51Z</time>
      </trkpt>
      <trkpt lat="45.86264" lon="4.81325">
        <ele>269</ele>
        <time>2011-12-18T10:17:53Z</time>
      </trkpt>
      <trkpt lat="45.86262" lon="4.81324">
        <ele>269</ele>
        <time>2011-12-18T10:17:55Z</time>
      </trkpt>
      <trkpt lat="45.8626" lon="4.81323">
        <ele>269</ele>
        <time>2011-12-18T10:17:57Z</time>
      </trkpt>
      <trkpt lat="45.86259" lon="4.81323">
        <ele>270</ele>
        <time>2011-12-18T10:17:58Z</time>
      </trkpt>
      <trkpt lat="45.86258" lon="4.81323">
        <ele>270</ele>
        <time>2011-12-18T10:17:59Z</time>
      </trkpt>
      <trkpt lat="45.86255" lon="4.81322">
        <ele>270</ele>
        <time>2011-12-18T10:18:01Z</time>
      </trkpt>
      <trkpt lat="45.86254" lon="4.81321">
        <ele>270</ele>
        <time>2011-12-18T10:18:02Z</time>
      </trkpt>
      <trkpt lat="45.86255" lon="4.8132">
        <ele>270</ele>
        <time>2011-12-18T10:18:03Z</time>
      </trkpt>
      <trkpt lat="45.86255" lon="4.81316">
        <ele>269</ele>
        <time>2011-12-18T10:18:05Z</time>
      </trkpt>
      <trkpt lat="45.86257" lon="4.81314">
        <ele>268</ele>
        <time>2011-12-18T10:18:06Z</time>
      </trkpt>
      <trkpt lat="45.86266" lon="4.81312">
        <ele>268</ele>
        <time>2011-12-18T10:18:09Z</time>
      </trkpt>
      <trkpt lat="45.86269" lon="4.81312">
        <ele>267</ele>
        <time>2011-12-18T10:18:10Z</time>
      </trkpt>
      <trkpt lat="45.86284" lon="4.81313">
        <ele>267</ele>
        <time>2011-12-18T10:18:15Z</time>
      </trkpt>
      <trkpt lat="45.86302" lon="4.81312">
        <ele>266</ele>
        <time>2011-12-18T10:18:21Z</time>
      </trkpt>
      <trkpt lat="45.86305" lon="4.81312">
        <ele>266</ele>
        <time>2011-12-18T10:18:22Z</time>
      </trkpt>
      <trkpt lat="45.8632" lon="4.81312">
        <ele>266</ele>
        <time>2011-12-18T10:18:28Z</time>
      </trkpt>
      <trkpt lat="45.86323" lon="4.81312">
        <ele>266</ele>
        <time>2011-12-18T10:18:29Z</time>
      </trkpt>
      <trkpt lat="45.86334" lon="4.81312">
        <ele>263</ele>
        <time>2011-12-18T10:18:33Z</time>
      </trkpt>
      <trkpt lat="45.86342" lon="4.81313">
        <ele>263</ele>
        <time>2011-12-18T10:18:36Z</time>
      </trkpt>
      <trkpt lat="45.86354" lon="4.81314">
        <ele>262</ele>
        <time>2011-12-18T10:18:40Z</time>
      </trkpt>
      <trkpt lat="45.86362" lon="4.81316">
        <ele>262</ele>
        <time>2011-12-18T10:18:43Z</time>
      </trkpt>
      <trkpt lat="45.86367" lon="4.81316">
        <ele>262</ele>
        <time>2011-12-18T10:18:45Z</time>
      </trkpt>
      <trkpt lat="45.86381" lon="4.81318">
        <ele>261</ele>
        <time>2011-12-18T10:18:50Z</time>
      </trkpt>
      <trkpt lat="45.86384" lon="4.81319">
        <ele>261</ele>
        <time>2011-12-18T10:18:51Z</time>
      </trkpt>
      <trkpt lat="45.86399" lon="4.81321">
        <ele>260</ele>
        <time>2011-12-18T10:18:57Z</time>
      </trkpt>
      <trkpt lat="45.86403" lon="4.81321">
        <ele>260</ele>
        <time>2011-12-18T10:18:58Z</time>
      </trkpt>
      <trkpt lat="45.86413" lon="4.81325">
        <ele>259</ele>
        <time>2011-12-18T10:19:02Z</time>
      </trkpt>
      <trkpt lat="45.86419" lon="4.81326">
        <ele>257</ele>
        <time>2011-12-18T10:19:04Z</time>
      </trkpt>
      <trkpt lat="45.86427" lon="4.81327">
        <ele>257</ele>
        <time>2011-12-18T10:19:07Z</time>
      </trkpt>
      <trkpt lat="45.86438" lon="4.81328">
        <ele>257</ele>
        <time>2011-12-18T10:19:11Z</time>
      </trkpt>
      <trkpt lat="45.86441" lon="4.81329">
        <ele>256</ele>
        <time>2011-12-18T10:19:12Z</time>
      </trkpt>
      <trkpt lat="45.86454" lon="4.81331">
        <ele>256</ele>
        <time>2011-12-18T10:19:17Z</time>
      </trkpt>
      <trkpt lat="45.86458" lon="4.81331">
        <ele>255</ele>
        <time>2011-12-18T10:19:19Z</time>
      </trkpt>
      <trkpt lat="45.86472" lon="4.81334">
        <ele>258</ele>
        <time>2011-12-18T10:19:24Z</time>
      </trkpt>
      <trkpt lat="45.86478" lon="4.81336">
        <ele>257</ele>
        <time>2011-12-18T10:19:26Z</time>
      </trkpt>
      <trkpt lat="45.8649" lon="4.81337">
        <ele>255</ele>
        <time>2011-12-18T10:19:30Z</time>
      </trkpt>
      <trkpt lat="45.86495" lon="4.81338">
        <ele>254</ele>
        <time>2011-12-18T10:19:32Z</time>
      </trkpt>
      <trkpt lat="45.86503" lon="4.8134">
        <ele>251</ele>
        <time>2011-12-18T10:19:35Z</time>
      </trkpt>
      <trkpt lat="45.86514" lon="4.81344">
        <ele>251</ele>
        <time>2011-12-18T10:19:39Z</time>
      </trkpt>
      <trkpt lat="45.86517" lon="4.81344">
        <ele>251</ele>
        <time>2011-12-18T10:19:40Z</time>
      </trkpt>
      <trkpt lat="45.86533" lon="4.81347">
        <ele>251</ele>
        <time>2011-12-18T10:19:46Z</time>
      </trkpt>
      <trkpt lat="45.86549" lon="4.81351">
        <ele>250</ele>
        <time>2011-12-18T10:19:52Z</time>
      </trkpt>
      <trkpt lat="45.86552" lon="4.81352">
        <ele>250</ele>
        <time>2011-12-18T10:19:53Z</time>
      </trkpt>
      <trkpt lat="45.86567" lon="4.81358">
        <ele>249</ele>
        <time>2011-12-18T10:19:59Z</time>
      </trkpt>
      <trkpt lat="45.86569" lon="4.8136">
        <ele>249</ele>
        <time>2011-12-18T10:20:00Z</time>
      </trkpt>
      <trkpt lat="45.86578" lon="4.81373">
        <ele>249</ele>
        <time>2011-12-18T10:20:05Z</time>
      </trkpt>
      <trkpt lat="45.86581" lon="4.81379">
        <ele>249</ele>
        <time>2011-12-18T10:20:07Z</time>
      </trkpt>
      <trkpt lat="45.86586" lon="4.81388">
        <ele>245</ele>
        <time>2011-12-18T10:20:10Z</time>
      </trkpt>
      <trkpt lat="45.86593" lon="4.81401">
        <ele>245</ele>
        <time>2011-12-18T10:20:14Z</time>
      </trkpt>
      <trkpt lat="45.86596" lon="4.81408">
        <ele>244</ele>
        <time>2011-12-18T10:20:16Z</time>
      </trkpt>
      <trkpt lat="45.86605" lon="4.81423">
        <ele>245</ele>
        <time>2011-12-18T10:20:21Z</time>
      </trkpt>
      <trkpt lat="45.86616" lon="4.81438">
        <ele>246</ele>
        <time>2011-12-18T10:20:26Z</time>
      </trkpt>
      <trkpt lat="45.8662" lon="4.81443">
        <ele>246</ele>
        <time>2011-12-18T10:20:28Z</time>
      </trkpt>
      <trkpt lat="45.86626" lon="4.81451">
        <ele>246</ele>
        <time>2011-12-18T10:20:31Z</time>
      </trkpt>
      <trkpt lat="45.86632" lon="4.8146">
        <ele>246</ele>
        <time>2011-12-18T10:20:36Z</time>
      </trkpt>
      <trkpt lat="45.86633" lon="4.81462">
        <ele>246</ele>
        <time>2011-12-18T10:20:37Z</time>
      </trkpt>
      <trkpt lat="45.86635" lon="4.81466">
        <ele>246</ele>
        <time>2011-12-18T10:20:40Z</time>
      </trkpt>
      <trkpt lat="45.86635" lon="4.81469">
        <ele>246</ele>
        <time>2011-12-18T10:20:42Z</time>
      </trkpt>
      <trkpt lat="45.86631" lon="4.81472">
        <ele>246</ele>
        <time>2011-12-18T10:20:45Z</time>
      </trkpt>
      <trkpt lat="45.86628" lon="4.81472">
        <ele>246</ele>
        <time>2011-12-18T10:20:46Z</time>
      </trkpt>
      <trkpt lat="45.86621" lon="4.81474">
        <ele>247</ele>
        <time>2011-12-18T10:20:49Z</time>
      </trkpt>
      <trkpt lat="45.86619" lon="4.81476">
        <ele>247</ele>
        <time>2011-12-18T10:20:51Z</time>
      </trkpt>
      <trkpt lat="45.86612" lon="4.81483">
        <ele>249</ele>
        <time>2011-12-18T10:20:56Z</time>
      </trkpt>
      <trkpt lat="45.86612" lon="4.81484">
        <ele>249</ele>
        <time>2011-12-18T10:20:57Z</time>
      </trkpt>
      <trkpt lat="45.86611" lon="4.81486">
        <ele>249</ele>
        <time>2011-12-18T10:20:58Z</time>
      </trkpt>
      <trkpt lat="45.86612" lon="4.8149">
        <ele>249</ele>
        <time>2011-12-18T10:21:01Z</time>
      </trkpt>
      <trkpt lat="45.86612" lon="4.81492">
        <ele>249</ele>
        <time>2011-12-18T10:21:02Z</time>
      </trkpt>
      <trkpt lat="45.86612" lon="4.81493">
        <ele>249</ele>
        <time>2011-12-18T10:21:03Z</time>
      </trkpt>
      <trkpt lat="45.86614" lon="4.81497">
        <ele>249</ele>
        <time>2011-12-18T10:21:06Z</time>
      </trkpt>
      <trkpt lat="45.86613" lon="4.815">
        <ele>255</ele>
        <time>2011-12-18T10:21:11Z</time>
      </trkpt>
      <trkpt lat="45.86616" lon="4.81505">
        <ele>254</ele>
        <time>2011-12-18T10:21:18Z</time>
      </trkpt>
      <trkpt lat="45.86617" lon="4.81511">
        <ele>254</ele>
        <time>2011-12-18T10:21:24Z</time>
      </trkpt>
      <trkpt lat="45.86619" lon="4.81514">
        <ele>254</ele>
        <time>2011-12-18T10:21:28Z</time>
      </trkpt>
      <trkpt lat="45.86619" lon="4.81516">
        <ele>254</ele>
        <time>2011-12-18T10:21:29Z</time>
      </trkpt>
      <trkpt lat="45.86621" lon="4.81517">
        <ele>254</ele>
        <time>2011-12-18T10:21:31Z</time>
      </trkpt>
      <trkpt lat="45.86625" lon="4.8152">
        <ele>254</ele>
        <time>2011-12-18T10:21:35Z</time>
      </trkpt>
      <trkpt lat="45.8663" lon="4.81526">
        <ele>253</ele>
        <time>2011-12-18T10:21:40Z</time>
      </trkpt>
      <trkpt lat="45.8663" lon="4.81529">
        <ele>253</ele>
        <time>2011-12-18T10:21:42Z</time>
      </trkpt>
      <trkpt lat="45.86631" lon="4.81535">
        <ele>254</ele>
        <time>2011-12-18T10:21:46Z</time>
      </trkpt>
      <trkpt lat="45.86635" lon="4.81537">
        <ele>253</ele>
        <time>2011-12-18T10:21:48Z</time>
      </trkpt>
      <trkpt lat="45.86636" lon="4.81539">
        <ele>253</ele>
        <time>2011-12-18T10:21:49Z</time>
      </trkpt>
      <trkpt lat="45.86639" lon="4.81545">
        <ele>253</ele>
        <time>2011-12-18T10:21:52Z</time>
      </trkpt>
      <trkpt lat="45.8664" lon="4.81549">
        <ele>253</ele>
        <time>2011-12-18T10:21:54Z</time>
      </trkpt>
      <trkpt lat="45.86642" lon="4.81557">
        <ele>253</ele>
        <time>2011-12-18T10:21:57Z</time>
      </trkpt>
      <trkpt lat="45.86644" lon="4.81562">
        <ele>253</ele>
        <time>2011-12-18T10:22:00Z</time>
      </trkpt>
      <trkpt lat="45.86644" lon="4.81563">
        <ele>253</ele>
        <time>2011-12-18T10:22:01Z</time>
      </trkpt>
      <trkpt lat="45.86645" lon="4.81564">
        <ele>253</ele>
        <time>2011-12-18T10:22:02Z</time>
      </trkpt>
      <trkpt lat="45.86646" lon="4.81568">
        <ele>252</ele>
        <time>2011-12-18T10:22:07Z</time>
      </trkpt>
      <trkpt lat="45.86647" lon="4.8157">
        <ele>252</ele>
        <time>2011-12-18T10:22:08Z</time>
      </trkpt>
      <trkpt lat="45.8665" lon="4.81579">
        <ele>251</ele>
        <time>2011-12-18T10:22:13Z</time>
      </trkpt>
      <trkpt lat="45.86651" lon="4.81582">
        <ele>251</ele>
        <time>2011-12-18T10:22:15Z</time>
      </trkpt>
      <trkpt lat="45.8665" lon="4.81584">
        <ele>256</ele>
        <time>2011-12-18T10:22:17Z</time>
      </trkpt>
      <trkpt lat="45.86651" lon="4.81586">
        <ele>256</ele>
        <time>2011-12-18T10:22:18Z</time>
      </trkpt>
      <trkpt lat="45.86656" lon="4.81594">
        <ele>255</ele>
        <time>2011-12-18T10:22:21Z</time>
      </trkpt>
      <trkpt lat="45.8666" lon="4.81608">
        <ele>258</ele>
        <time>2011-12-18T10:22:25Z</time>
      </trkpt>
      <trkpt lat="45.86663" lon="4.81624">
        <ele>260</ele>
        <time>2011-12-18T10:22:30Z</time>
      </trkpt>
      <trkpt lat="45.86655" lon="4.81625">
        <ele>261</ele>
        <time>2011-12-18T10:22:33Z</time>
      </trkpt>
      <trkpt lat="45.86654" lon="4.81624">
        <ele>261</ele>
        <time>2011-12-18T10:22:34Z</time>
      </trkpt>
      <trkpt lat="45.86652" lon="4.81621">
        <ele>261</ele>
        <time>2011-12-18T10:22:36Z</time>
      </trkpt>
      <trkpt lat="45.8665" lon="4.81618">
        <ele>261</ele>
        <time>2011-12-18T10:22:39Z</time>
      </trkpt>
      <trkpt lat="45.86647" lon="4.81616">
        <ele>261</ele>
        <time>2011-12-18T10:22:42Z</time>
      </trkpt>
      <trkpt lat="45.86646" lon="4.81614">
        <ele>261</ele>
        <time>2011-12-18T10:22:44Z</time>
      </trkpt>
      <trkpt lat="45.86645" lon="4.81614">
        <ele>261</ele>
        <time>2011-12-18T10:22:45Z</time>
      </trkpt>
      <trkpt lat="45.86643" lon="4.81612">
        <ele>261</ele>
        <time>2011-12-18T10:22:49Z</time>
      </trkpt>
      <trkpt lat="45.8664" lon="4.81608">
        <ele>262</ele>
        <time>2011-12-18T10:22:52Z</time>
      </trkpt>
      <trkpt lat="45.86637" lon="4.81604">
        <ele>262</ele>
        <time>2011-12-18T10:22:54Z</time>
      </trkpt>
      <trkpt lat="45.86636" lon="4.81601">
        <ele>262</ele>
        <time>2011-12-18T10:22:59Z</time>
      </trkpt>
      <trkpt lat="45.86634" lon="4.81601">
        <ele>262</ele>
        <time>2011-12-18T10:23:00Z</time>
      </trkpt>
      <trkpt lat="45.86625" lon="4.81596">
        <ele>264</ele>
        <time>2011-12-18T10:23:04Z</time>
      </trkpt>
      <trkpt lat="45.86626" lon="4.81594">
        <ele>264</ele>
        <time>2011-12-18T10:23:05Z</time>
      </trkpt>
      <trkpt lat="45.86625" lon="4.81593">
        <ele>264</ele>
        <time>2011-12-18T10:23:07Z</time>
      </trkpt>
      <trkpt lat="45.86624" lon="4.81593">
        <ele>264</ele>
        <time>2011-12-18T10:23:08Z</time>
      </trkpt>
      <trkpt lat="45.86621" lon="4.81592">
        <ele>265</ele>
        <time>2011-12-18T10:23:12Z</time>
      </trkpt>
      <trkpt lat="45.86621" lon="4.81591">
        <ele>265</ele>
        <time>2011-12-18T10:23:18Z</time>
      </trkpt>
      <trkpt lat="45.8662" lon="4.81583">
        <ele>265</ele>
        <time>2011-12-18T10:23:22Z</time>
      </trkpt>
      <trkpt lat="45.86619" lon="4.81578">
        <ele>258</ele>
        <time>2011-12-18T10:23:25Z</time>
      </trkpt>
      <trkpt lat="45.86617" lon="4.81573">
        <ele>259</ele>
        <time>2011-12-18T10:23:28Z</time>
      </trkpt>
      <trkpt lat="45.86617" lon="4.81572">
        <ele>259</ele>
        <time>2011-12-18T10:23:29Z</time>
      </trkpt>
      <trkpt lat="45.86615" lon="4.81563">
        <ele>258</ele>
        <time>2011-12-18T10:23:34Z</time>
      </trkpt>
      <trkpt lat="45.86615" lon="4.81562">
        <ele>258</ele>
        <time>2011-12-18T10:23:35Z</time>
      </trkpt>
      <trkpt lat="45.86612" lon="4.81553">
        <ele>258</ele>
        <time>2011-12-18T10:23:42Z</time>
      </trkpt>
      <trkpt lat="45.8661" lon="4.8155">
        <ele>258</ele>
        <time>2011-12-18T10:23:45Z</time>
      </trkpt>
      <trkpt lat="45.86608" lon="4.81546">
        <ele>258</ele>
        <time>2011-12-18T10:23:48Z</time>
      </trkpt>
      <trkpt lat="45.86607" lon="4.81542">
        <ele>258</ele>
        <time>2011-12-18T10:23:50Z</time>
      </trkpt>
      <trkpt lat="45.86605" lon="4.81535">
        <ele>257</ele>
        <time>2011-12-18T10:23:55Z</time>
      </trkpt>
      <trkpt lat="45.866" lon="4.81527">
        <ele>257</ele>
        <time>2011-12-18T10:24:00Z</time>
      </trkpt>
      <trkpt lat="45.86599" lon="4.81525">
        <ele>257</ele>
        <time>2011-12-18T10:24:01Z</time>
      </trkpt>
      <trkpt lat="45.8659" lon="4.81513">
        <ele>258</ele>
        <time>2011-12-18T10:24:07Z</time>
      </trkpt>
      <trkpt lat="45.86589" lon="4.81511">
        <ele>258</ele>
        <time>2011-12-18T10:24:09Z</time>
      </trkpt>
      <trkpt lat="45.86585" lon="4.8151">
        <ele>258</ele>
        <time>2011-12-18T10:24:13Z</time>
      </trkpt>
      <trkpt lat="45.86585" lon="4.81509">
        <ele>258</ele>
        <time>2011-12-18T10:24:16Z</time>
      </trkpt>
      <trkpt lat="45.86585" lon="4.81508">
        <ele>258</ele>
        <time>2011-12-18T10:24:20Z</time>
      </trkpt>
      <trkpt lat="45.86582" lon="4.81514">
        <ele>268</ele>
        <time>2011-12-18T10:24:23Z</time>
      </trkpt>
      <trkpt lat="45.86582" lon="4.81516">
        <ele>269</ele>
        <time>2011-12-18T10:24:25Z</time>
      </trkpt>
      <trkpt lat="45.86582" lon="4.81518">
        <ele>270</ele>
        <time>2011-12-18T10:24:27Z</time>
      </trkpt>
      <trkpt lat="45.86582" lon="4.81519">
        <ele>271</ele>
        <time>2011-12-18T10:24:28Z</time>
      </trkpt>
      <trkpt lat="45.86578" lon="4.81525">
        <ele>273</ele>
        <time>2011-12-18T10:24:34Z</time>
      </trkpt>
      <trkpt lat="45.86577" lon="4.81526">
        <ele>273</ele>
        <time>2011-12-18T10:24:35Z</time>
      </trkpt>
      <trkpt lat="45.86573" lon="4.81532">
        <ele>275</ele>
        <time>2011-12-18T10:24:41Z</time>
      </trkpt>
      <trkpt lat="45.86573" lon="4.81536">
        <ele>276</ele>
        <time>2011-12-18T10:24:46Z</time>
      </trkpt>
      <trkpt lat="45.86574" lon="4.81542">
        <ele>277</ele>
        <time>2011-12-18T10:24:49Z</time>
      </trkpt>
      <trkpt lat="45.86572" lon="4.81546">
        <ele>277</ele>
        <time>2011-12-18T10:24:54Z</time>
      </trkpt>
      <trkpt lat="45.86572" lon="4.81549">
        <ele>278</ele>
        <time>2011-12-18T10:24:57Z</time>
      </trkpt>
      <trkpt lat="45.86573" lon="4.81551">
        <ele>278</ele>
        <time>2011-12-18T10:24:58Z</time>
      </trkpt>
      <trkpt lat="45.86574" lon="4.81553">
        <ele>278</ele>
        <time>2011-12-18T10:25:01Z</time>
      </trkpt>
      <trkpt lat="45.86572" lon="4.81554">
        <ele>278</ele>
        <time>2011-12-18T10:25:11Z</time>
      </trkpt>
      <trkpt lat="45.86569" lon="4.8155">
        <ele>278</ele>
        <time>2011-12-18T10:25:17Z</time>
      </trkpt>
      <trkpt lat="45.86568" lon="4.81547">
        <ele>278</ele>
        <time>2011-12-18T10:25:25Z</time>
      </trkpt>
      <trkpt lat="45.86567" lon="4.81545">
        <ele>278</ele>
        <time>2011-12-18T10:25:31Z</time>
      </trkpt>
      <trkpt lat="45.86569" lon="4.81546">
        <ele>278</ele>
        <time>2011-12-18T10:25:33Z</time>
      </trkpt>
      <trkpt lat="45.8657" lon="4.81548">
        <ele>278</ele>
        <time>2011-12-18T10:25:36Z</time>
      </trkpt>
      <trkpt lat="45.86574" lon="4.81557">
        <ele>278</ele>
        <time>2011-12-18T10:25:44Z</time>
      </trkpt>
      <trkpt lat="45.86573" lon="4.81559">
        <ele>278</ele>
        <time>2011-12-18T10:25:47Z</time>
      </trkpt>
      <trkpt lat="45.86573" lon="4.81561">
        <ele>278</ele>
        <time>2011-12-18T10:25:54Z</time>
      </trkpt>
      <trkpt lat="45.86571" lon="4.81563">
        <ele>278</ele>
        <time>2011-12-18T10:26:00Z</time>
      </trkpt>
      <trkpt lat="45.86569" lon="4.81564">
        <ele>279</ele>
        <time>2011-12-18T10:26:05Z</time>
      </trkpt>
      <trkpt lat="45.86567" lon="4.81567">
        <ele>279</ele>
        <time>2011-12-18T10:26:19Z</time>
      </trkpt>
      <trkpt lat="45.86562" lon="4.81557">
        <ele>279</ele>
        <time>2011-12-18T10:26:39Z</time>
      </trkpt>
      <trkpt lat="45.86556" lon="4.81564">
        <ele>281</ele>
        <time>2011-12-18T10:26:55Z</time>
      </trkpt>
      <trkpt lat="45.86552" lon="4.81563">
        <ele>281</ele>
        <time>2011-12-18T10:27:26Z</time>
      </trkpt>
      <trkpt lat="45.86553" lon="4.81565">
        <ele>281</ele>
        <time>2011-12-18T10:27:31Z</time>
      </trkpt>
      <trkpt lat="45.86548" lon="4.81564">
        <ele>282</ele>
        <time>2011-12-18T10:27:41Z</time>
      </trkpt>
      <trkpt lat="45.86552" lon="4.81565">
        <ele>281</ele>
        <time>2011-12-18T10:27:49Z</time>
      </trkpt>
      <trkpt lat="45.86553" lon="4.81566">
        <ele>281</ele>
        <time>2011-12-18T10:27:55Z</time>
      </trkpt>
      <trkpt lat="45.86555" lon="4.81565">
        <ele>281</ele>
        <time>2011-12-18T10:28:00Z</time>
      </trkpt>
      <trkpt lat="45.86555" lon="4.81564">
        <ele>281</ele>
        <time>2011-12-18T10:28:03Z</time>
      </trkpt>
      <trkpt lat="45.86561" lon="4.81569">
        <ele>280</ele>
        <time>2011-12-18T10:28:18Z</time>
      </trkpt>
      <trkpt lat="45.86565" lon="4.81567">
        <ele>279</ele>
        <time>2011-12-18T10:28:21Z</time>
      </trkpt>
      <trkpt lat="45.86562" lon="4.81558">
        <ele>279</ele>
        <time>2011-12-18T10:28:52Z</time>
      </trkpt>
      <trkpt lat="45.86561" lon="4.81558">
        <ele>280</ele>
        <time>2011-12-18T10:28:53Z</time>
      </trkpt>
      <trkpt lat="45.86561" lon="4.81562">
        <ele>280</ele>
        <time>2011-12-18T10:28:56Z</time>
      </trkpt>
      <trkpt lat="45.86562" lon="4.81563">
        <ele>280</ele>
        <time>2011-12-18T10:28:58Z</time>
      </trkpt>
      <trkpt lat="45.86565" lon="4.81568">
        <ele>279</ele>
        <time>2011-12-18T10:29:02Z</time>
      </trkpt>
      <trkpt lat="45.86566" lon="4.81568">
        <ele>279</ele>
        <time>2011-12-18T10:29:05Z</time>
      </trkpt>
      <trkpt lat="45.86564" lon="4.81565">
        <ele>279</ele>
        <time>2011-12-18T10:29:09Z</time>
      </trkpt>
      <trkpt lat="45.8656" lon="4.81565">
        <ele>280</ele>
        <time>2011-12-18T10:29:13Z</time>
      </trkpt>
      <trkpt lat="45.86558" lon="4.81568">
        <ele>280</ele>
        <time>2011-12-18T10:29:17Z</time>
      </trkpt>
      <trkpt lat="45.86558" lon="4.81568">
        <ele>280</ele>
        <time>2011-12-18T10:29:18Z</time>
      </trkpt>
      <trkpt lat="45.86557" lon="4.81569">
        <ele>281</ele>
        <time>2011-12-18T10:29:19Z</time>
      </trkpt>
      <trkpt lat="45.86558" lon="4.81573">
        <ele>280</ele>
        <time>2011-12-18T10:29:22Z</time>
      </trkpt>
      <trkpt lat="45.86559" lon="4.81574">
        <ele>280</ele>
        <time>2011-12-18T10:29:23Z</time>
      </trkpt>
      <trkpt lat="45.8656" lon="4.81579">
        <ele>280</ele>
        <time>2011-12-18T10:29:27Z</time>
      </trkpt>
      <trkpt lat="45.8656" lon="4.81579">
        <ele>280</ele>
        <time>2011-12-18T10:29:28Z</time>
      </trkpt>
      <trkpt lat="45.86564" lon="4.81585">
        <ele>285</ele>
        <time>2011-12-18T10:29:32Z</time>
      </trkpt>
      <trkpt lat="45.86569" lon="4.81587">
        <ele>283</ele>
        <time>2011-12-18T10:29:38Z</time>
      </trkpt>
      <trkpt lat="45.86569" lon="4.81586">
        <ele>283</ele>
        <time>2011-12-18T10:30:02Z</time>
      </trkpt>
      <trkpt lat="45.8657" lon="4.81594">
        <ele>284</ele>
        <time>2011-12-18T10:30:08Z</time>
      </trkpt>
      <trkpt lat="45.86575" lon="4.816">
        <ele>284</ele>
        <time>2011-12-18T10:30:18Z</time>
      </trkpt>
      <trkpt lat="45.86576" lon="4.81602">
        <ele>285</ele>
        <time>2011-12-18T10:30:19Z</time>
      </trkpt>
      <trkpt lat="45.86579" lon="4.81605">
        <ele>285</ele>
        <time>2011-12-18T10:30:25Z</time>
      </trkpt>
      <trkpt lat="45.86579" lon="4.81612">
        <ele>287</ele>
        <time>2011-12-18T10:30:30Z</time>
      </trkpt>
      <trkpt lat="45.8658" lon="4.81616">
        <ele>287</ele>
        <time>2011-12-18T10:30:32Z</time>
      </trkpt>
      <trkpt lat="45.8658" lon="4.81619">
        <ele>288</ele>
        <time>2011-12-18T10:30:33Z</time>
      </trkpt>
      <trkpt lat="45.86581" lon="4.81626">
        <ele>288</ele>
        <time>2011-12-18T10:30:38Z</time>
      </trkpt>
      <trkpt lat="45.8658" lon="4.81629">
        <ele>289</ele>
        <time>2011-12-18T10:30:40Z</time>
      </trkpt>
      <trkpt lat="45.8658" lon="4.81632">
        <ele>289</ele>
        <time>2011-12-18T10:30:43Z</time>
      </trkpt>
      <trkpt lat="45.86583" lon="4.81643">
        <ele>289</ele>
        <time>2011-12-18T10:30:48Z</time>
      </trkpt>
      <trkpt lat="45.86583" lon="4.81645">
        <ele>289</ele>
        <time>2011-12-18T10:30:49Z</time>
      </trkpt>
      <trkpt lat="45.86583" lon="4.81648">
        <ele>289</ele>
        <time>2011-12-18T10:30:51Z</time>
      </trkpt>
      <trkpt lat="45.86585" lon="4.81649">
        <ele>277</ele>
        <time>2011-12-18T10:30:53Z</time>
      </trkpt>
      <trkpt lat="45.86585" lon="4.81655">
        <ele>279</ele>
        <time>2011-12-18T10:30:58Z</time>
      </trkpt>
      <trkpt lat="45.86586" lon="4.81656">
        <ele>280</ele>
        <time>2011-12-18T10:31:01Z</time>
      </trkpt>
      <trkpt lat="45.86582" lon="4.8166">
        <ele>288</ele>
        <time>2011-12-18T10:31:07Z</time>
      </trkpt>
      <trkpt lat="45.86585" lon="4.8167">
        <ele>285</ele>
        <time>2011-12-18T10:31:14Z</time>
      </trkpt>
      <trkpt lat="45.86584" lon="4.81673">
        <ele>284</ele>
        <time>2011-12-18T10:31:18Z</time>
      </trkpt>
      <trkpt lat="45.86584" lon="4.81672">
        <ele>284</ele>
        <time>2011-12-18T10:31:19Z</time>
      </trkpt>
      <trkpt lat="45.86579" lon="4.81669">
        <ele>289</ele>
        <time>2011-12-18T10:31:25Z</time>
      </trkpt>
      <trkpt lat="45.86574" lon="4.81661">
        <ele>289</ele>
        <time>2011-12-18T10:31:30Z</time>
      </trkpt>
      <trkpt lat="45.86572" lon="4.81659">
        <ele>289</ele>
        <time>2011-12-18T10:31:32Z</time>
      </trkpt>
      <trkpt lat="45.8657" lon="4.81658">
        <ele>290</ele>
        <time>2011-12-18T10:31:35Z</time>
      </trkpt>
      <trkpt lat="45.86568" lon="4.81657">
        <ele>290</ele>
        <time>2011-12-18T10:31:37Z</time>
      </trkpt>
      <trkpt lat="45.86569" lon="4.81655">
        <ele>290</ele>
        <time>2011-12-18T10:31:40Z</time>
      </trkpt>
      <trkpt lat="45.86569" lon="4.81654">
        <ele>290</ele>
        <time>2011-12-18T10:31:41Z</time>
      </trkpt>
      <trkpt lat="45.86565" lon="4.81652">
        <ele>291</ele>
        <time>2011-12-18T10:31:45Z</time>
      </trkpt>
      <trkpt lat="45.86562" lon="4.81649">
        <ele>291</ele>
        <time>2011-12-18T10:31:47Z</time>
      </trkpt>
      <trkpt lat="45.86557" lon="4.81645">
        <ele>291</ele>
        <time>2011-12-18T10:31:52Z</time>
      </trkpt>
      <trkpt lat="45.86555" lon="4.81645">
        <ele>292</ele>
        <time>2011-12-18T10:31:53Z</time>
      </trkpt>
      <trkpt lat="45.86553" lon="4.81645">
        <ele>292</ele>
        <time>2011-12-18T10:31:56Z</time>
      </trkpt>
      <trkpt lat="45.86551" lon="4.81645">
        <ele>292</ele>
        <time>2011-12-18T10:31:58Z</time>
      </trkpt>
      <trkpt lat="45.86549" lon="4.81645">
        <ele>292</ele>
        <time>2011-12-18T10:32:00Z</time>
      </trkpt>
      <trkpt lat="45.86548" lon="4.81646">
        <ele>293</ele>
        <time>2011-12-18T10:32:02Z</time>
      </trkpt>
      <trkpt lat="45.86545" lon="4.81647">
        <ele>293</ele>
        <time>2011-12-18T10:32:05Z</time>
      </trkpt>
      <trkpt lat="45.86542" lon="4.81648">
        <ele>294</ele>
        <time>2011-12-18T10:32:07Z</time>
      </trkpt>
      <trkpt lat="45.86541" lon="4.81648">
        <ele>294</ele>
        <time>2011-12-18T10:32:08Z</time>
      </trkpt>
      <trkpt lat="45.86538" lon="4.81649">
        <ele>294</ele>
        <time>2011-12-18T10:32:13Z</time>
      </trkpt>
      <trkpt lat="45.86538" lon="4.81649">
        <ele>294</ele>
        <time>2011-12-18T10:32:14Z</time>
      </trkpt>
      <trkpt lat="45.86536" lon="4.81649">
        <ele>295</ele>
        <time>2011-12-18T10:32:17Z</time>
      </trkpt>
      <trkpt lat="45.8653" lon="4.81655">
        <ele>296</ele>
        <time>2011-12-18T10:32:36Z</time>
      </trkpt>
      <trkpt lat="45.86528" lon="4.81656">
        <ele>297</ele>
        <time>2011-12-18T10:32:39Z</time>
      </trkpt>
      <trkpt lat="45.86524" lon="4.8166">
        <ele>298</ele>
        <time>2011-12-18T10:32:43Z</time>
      </trkpt>
      <trkpt lat="45.86522" lon="4.81661">
        <ele>298</ele>
        <time>2011-12-18T10:32:45Z</time>
      </trkpt>
      <trkpt lat="45.86521" lon="4.81662">
        <ele>298</ele>
        <time>2011-12-18T10:32:46Z</time>
      </trkpt>
      <trkpt lat="45.86516" lon="4.81662">
        <ele>299</ele>
        <time>2011-12-18T10:32:50Z</time>
      </trkpt>
      <trkpt lat="45.86509" lon="4.81661">
        <ele>301</ele>
        <time>2011-12-18T10:32:57Z</time>
      </trkpt>
      <trkpt lat="45.86504" lon="4.81658">
        <ele>302</ele>
        <time>2011-12-18T10:33:02Z</time>
      </trkpt>
      <trkpt lat="45.86502" lon="4.81656">
        <ele>302</ele>
        <time>2011-12-18T10:33:04Z</time>
      </trkpt>
      <trkpt lat="45.86496" lon="4.81653">
        <ele>310</ele>
        <time>2011-12-18T10:33:10Z</time>
      </trkpt>
      <trkpt lat="45.86495" lon="4.81653">
        <ele>310</ele>
        <time>2011-12-18T10:33:11Z</time>
      </trkpt>
      <trkpt lat="45.86488" lon="4.81647">
        <ele>312</ele>
        <time>2011-12-18T10:33:19Z</time>
      </trkpt>
      <trkpt lat="45.86487" lon="4.81646">
        <ele>312</ele>
        <time>2011-12-18T10:33:20Z</time>
      </trkpt>
      <trkpt lat="45.86478" lon="4.81642">
        <ele>314</ele>
        <time>2011-12-18T10:33:28Z</time>
      </trkpt>
      <trkpt lat="45.86471" lon="4.81638">
        <ele>315</ele>
        <time>2011-12-18T10:33:35Z</time>
      </trkpt>
      <trkpt lat="45.8647" lon="4.81637">
        <ele>315</ele>
        <time>2011-12-18T10:33:36Z</time>
      </trkpt>
      <trkpt lat="45.86468" lon="4.81635">
        <ele>315</ele>
        <time>2011-12-18T10:33:40Z</time>
      </trkpt>
      <trkpt lat="45.86463" lon="4.81632">
        <ele>316</ele>
        <time>2011-12-18T10:33:46Z</time>
      </trkpt>
      <trkpt lat="45.8646" lon="4.81632">
        <ele>316</ele>
        <time>2011-12-18T10:33:51Z</time>
      </trkpt>
      <trkpt lat="45.86459" lon="4.81629">
        <ele>317</ele>
        <time>2011-12-18T10:33:56Z</time>
      </trkpt>
      <trkpt lat="45.86459" lon="4.81629">
        <ele>317</ele>
        <time>2011-12-18T10:34:01Z</time>
      </trkpt>
      <trkpt lat="45.86454" lon="4.81628">
        <ele>317</ele>
        <time>2011-12-18T10:34:16Z</time>
      </trkpt>
      <trkpt lat="45.86454" lon="4.81626">
        <ele>317</ele>
        <time>2011-12-18T10:34:17Z</time>
      </trkpt>
      <trkpt lat="45.86456" lon="4.81623">
        <ele>317</ele>
        <time>2011-12-18T10:34:19Z</time>
      </trkpt>
      <trkpt lat="45.8646" lon="4.81617">
        <ele>317</ele>
        <time>2011-12-18T10:34:24Z</time>
      </trkpt>
      <trkpt lat="45.86462" lon="4.81615">
        <ele>316</ele>
        <time>2011-12-18T10:34:26Z</time>
      </trkpt>
      <trkpt lat="45.86465" lon="4.81614">
        <ele>316</ele>
        <time>2011-12-18T10:34:29Z</time>
      </trkpt>
      <trkpt lat="45.86468" lon="4.81612">
        <ele>315</ele>
        <time>2011-12-18T10:34:32Z</time>
      </trkpt>
      <trkpt lat="45.8647" lon="4.81609">
        <ele>315</ele>
        <time>2011-12-18T10:34:35Z</time>
      </trkpt>
      <trkpt lat="45.86472" lon="4.81605">
        <ele>314</ele>
        <time>2011-12-18T10:34:39Z</time>
      </trkpt>
      <trkpt lat="45.86472" lon="4.81602">
        <ele>314</ele>
        <time>2011-12-18T10:34:42Z</time>
      </trkpt>
      <trkpt lat="45.86474" lon="4.81595">
        <ele>313</ele>
        <time>2011-12-18T10:34:48Z</time>
      </trkpt>
      <trkpt lat="45.86474" lon="4.81592">
        <ele>313</ele>
        <time>2011-12-18T10:34:51Z</time>
      </trkpt>
      <trkpt lat="45.86473" lon="4.81589">
        <ele>313</ele>
        <time>2011-12-18T10:34:53Z</time>
      </trkpt>
      <trkpt lat="45.86473" lon="4.81587">
        <ele>313</ele>
        <time>2011-12-18T10:34:54Z</time>
      </trkpt>
      <trkpt lat="45.86474" lon="4.81584">
        <ele>313</ele>
        <time>2011-12-18T10:34:57Z</time>
      </trkpt>
      <trkpt lat="45.86474" lon="4.81583">
        <ele>309</ele>
        <time>2011-12-18T10:34:58Z</time>
      </trkpt>
      <trkpt lat="45.86474" lon="4.81582">
        <ele>309</ele>
        <time>2011-12-18T10:34:59Z</time>
      </trkpt>
      <trkpt lat="45.86475" lon="4.81579">
        <ele>309</ele>
        <time>2011-12-18T10:35:02Z</time>
      </trkpt>
      <trkpt lat="45.86475" lon="4.81574">
        <ele>309</ele>
        <time>2011-12-18T10:35:05Z</time>
      </trkpt>
      <trkpt lat="45.86475" lon="4.81565">
        <ele>308</ele>
        <time>2011-12-18T10:35:12Z</time>
      </trkpt>
      <trkpt lat="45.86473" lon="4.81562">
        <ele>309</ele>
        <time>2011-12-18T10:35:14Z</time>
      </trkpt>
      <trkpt lat="45.8647" lon="4.81559">
        <ele>309</ele>
        <time>2011-12-18T10:35:17Z</time>
      </trkpt>
      <trkpt lat="45.86468" lon="4.81558">
        <ele>309</ele>
        <time>2011-12-18T10:35:19Z</time>
      </trkpt>
      <trkpt lat="45.86466" lon="4.81555">
        <ele>310</ele>
        <time>2011-12-18T10:35:23Z</time>
      </trkpt>
      <trkpt lat="45.86465" lon="4.81554">
        <ele>310</ele>
        <time>2011-12-18T10:35:24Z</time>
      </trkpt>
      <trkpt lat="45.86461" lon="4.81555">
        <ele>311</ele>
        <time>2011-12-18T10:35:29Z</time>
      </trkpt>
      <trkpt lat="45.86457" lon="4.81552">
        <ele>311</ele>
        <time>2011-12-18T10:35:35Z</time>
      </trkpt>
      <trkpt lat="45.86456" lon="4.81551">
        <ele>311</ele>
        <time>2011-12-18T10:35:36Z</time>
      </trkpt>
      <trkpt lat="45.86455" lon="4.81551">
        <ele>311</ele>
        <time>2011-12-18T10:35:37Z</time>
      </trkpt>
      <trkpt lat="45.8645" lon="4.81549">
        <ele>312</ele>
        <time>2011-12-18T10:35:41Z</time>
      </trkpt>
      <trkpt lat="45.86441" lon="4.81544">
        <ele>313</ele>
        <time>2011-12-18T10:35:48Z</time>
      </trkpt>
      <trkpt lat="45.8644" lon="4.81544">
        <ele>313</ele>
        <time>2011-12-18T10:35:49Z</time>
      </trkpt>
      <trkpt lat="45.86438" lon="4.81543">
        <ele>313</ele>
        <time>2011-12-18T10:35:51Z</time>
      </trkpt>
      <trkpt lat="45.86436" lon="4.8154">
        <ele>313</ele>
        <time>2011-12-18T10:35:54Z</time>
      </trkpt>
      <trkpt lat="45.86433" lon="4.81537">
        <ele>313</ele>
        <time>2011-12-18T10:35:58Z</time>
      </trkpt>
      <trkpt lat="45.8643" lon="4.81536">
        <ele>313</ele>
        <time>2011-12-18T10:36:02Z</time>
      </trkpt>
      <trkpt lat="45.86423" lon="4.81531">
        <ele>313</ele>
        <time>2011-12-18T10:36:07Z</time>
      </trkpt>
      <trkpt lat="45.86422" lon="4.81531">
        <ele>313</ele>
        <time>2011-12-18T10:36:08Z</time>
      </trkpt>
      <trkpt lat="45.86417" lon="4.81528">
        <ele>314</ele>
        <time>2011-12-18T10:36:13Z</time>
      </trkpt>
      <trkpt lat="45.86415" lon="4.81526">
        <ele>326</ele>
        <time>2011-12-18T10:36:15Z</time>
      </trkpt>
      <trkpt lat="45.86411" lon="4.81526">
        <ele>327</ele>
        <time>2011-12-18T10:36:20Z</time>
      </trkpt>
      <trkpt lat="45.86414" lon="4.8153">
        <ele>327</ele>
        <time>2011-12-18T10:36:27Z</time>
      </trkpt>
      <trkpt lat="45.86415" lon="4.81533">
        <ele>328</ele>
        <time>2011-12-18T10:36:29Z</time>
      </trkpt>
      <trkpt lat="45.86416" lon="4.81536">
        <ele>328</ele>
        <time>2011-12-18T10:36:31Z</time>
      </trkpt>
      <trkpt lat="45.86417" lon="4.81537">
        <ele>314</ele>
        <time>2011-12-18T10:36:33Z</time>
      </trkpt>
      <trkpt lat="45.86419" lon="4.81544">
        <ele>315</ele>
        <time>2011-12-18T10:36:38Z</time>
      </trkpt>
      <trkpt lat="45.86421" lon="4.8155">
        <ele>316</ele>
        <time>2011-12-18T10:36:46Z</time>
      </trkpt>
      <trkpt lat="45.86422" lon="4.81554">
        <ele>317</ele>
        <time>2011-12-18T10:36:56Z</time>
      </trkpt>
      <trkpt lat="45.86419" lon="4.81555">
        <ele>318</ele>
        <time>2011-12-18T10:36:59Z</time>
      </trkpt>
      <trkpt lat="45.86417" lon="4.81552">
        <ele>317</ele>
        <time>2011-12-18T10:37:02Z</time>
      </trkpt>
      <trkpt lat="45.86417" lon="4.81551">
        <ele>317</ele>
        <time>2011-12-18T10:37:03Z</time>
      </trkpt>
      <trkpt lat="45.86414" lon="4.81549">
        <ele>330</ele>
        <time>2011-12-18T10:37:12Z</time>
      </trkpt>
      <trkpt lat="45.86411" lon="4.81545">
        <ele>330</ele>
        <time>2011-12-18T10:37:22Z</time>
      </trkpt>
      <trkpt lat="45.86407" lon="4.81542">
        <ele>330</ele>
        <time>2011-12-18T10:37:27Z</time>
      </trkpt>
      <trkpt lat="45.86405" lon="4.81541">
        <ele>330</ele>
        <time>2011-12-18T10:37:29Z</time>
      </trkpt>
      <trkpt lat="45.86404" lon="4.8154">
        <ele>330</ele>
        <time>2011-12-18T10:37:30Z</time>
      </trkpt>
      <trkpt lat="45.864" lon="4.81538">
        <ele>330</ele>
        <time>2011-12-18T10:37:34Z</time>
      </trkpt>
      <trkpt lat="45.86399" lon="4.81538">
        <ele>330</ele>
        <time>2011-12-18T10:37:35Z</time>
      </trkpt>
      <trkpt lat="45.86393" lon="4.81535">
        <ele>330</ele>
        <time>2011-12-18T10:37:41Z</time>
      </trkpt>
      <trkpt lat="45.86389" lon="4.81533">
        <ele>330</ele>
        <time>2011-12-18T10:37:46Z</time>
      </trkpt>
      <trkpt lat="45.86387" lon="4.81533">
        <ele>331</ele>
        <time>2011-12-18T10:37:48Z</time>
      </trkpt>
      <trkpt lat="45.86385" lon="4.81532">
        <ele>331</ele>
        <time>2011-12-18T10:37:49Z</time>
      </trkpt>
      <trkpt lat="45.86381" lon="4.81531">
        <ele>331</ele>
        <time>2011-12-18T10:37:53Z</time>
      </trkpt>
      <trkpt lat="45.86379" lon="4.81531">
        <ele>331</ele>
        <time>2011-12-18T10:37:55Z</time>
      </trkpt>
      <trkpt lat="45.86376" lon="4.81529">
        <ele>332</ele>
        <time>2011-12-18T10:37:58Z</time>
      </trkpt>
      <trkpt lat="45.86374" lon="4.81529">
        <ele>332</ele>
        <time>2011-12-18T10:37:59Z</time>
      </trkpt>
      <trkpt lat="45.86371" lon="4.81528">
        <ele>332</ele>
        <time>2011-12-18T10:38:02Z</time>
      </trkpt>
      <trkpt lat="45.86369" lon="4.81527">
        <ele>333</ele>
        <time>2011-12-18T10:38:04Z</time>
      </trkpt>
      <trkpt lat="45.86368" lon="4.81526">
        <ele>333</ele>
        <time>2011-12-18T10:38:05Z</time>
      </trkpt>
      <trkpt lat="45.86363" lon="4.81525">
        <ele>333</ele>
        <time>2011-12-18T10:38:09Z</time>
      </trkpt>
      <trkpt lat="45.86362" lon="4.81524">
        <ele>333</ele>
        <time>2011-12-18T10:38:10Z</time>
      </trkpt>
      <trkpt lat="45.86359" lon="4.81519">
        <ele>334</ele>
        <time>2011-12-18T10:38:17Z</time>
      </trkpt>
      <trkpt lat="45.86352" lon="4.81512">
        <ele>335</ele>
        <time>2011-12-18T10:38:24Z</time>
      </trkpt>
      <trkpt lat="45.86348" lon="4.8151">
        <ele>335</ele>
        <time>2011-12-18T10:38:26Z</time>
      </trkpt>
      <trkpt lat="45.86342" lon="4.81507">
        <ele>337</ele>
        <time>2011-12-18T10:38:29Z</time>
      </trkpt>
      <trkpt lat="45.86333" lon="4.81504">
        <ele>338</ele>
        <time>2011-12-18T10:38:33Z</time>
      </trkpt>
      <trkpt lat="45.86331" lon="4.81502">
        <ele>340</ele>
        <time>2011-12-18T10:38:34Z</time>
      </trkpt>
      <trkpt lat="45.86319" lon="4.815">
        <ele>334</ele>
        <time>2011-12-18T10:38:38Z</time>
      </trkpt>
      <trkpt lat="45.86314" lon="4.81498">
        <ele>333</ele>
        <time>2011-12-18T10:38:40Z</time>
      </trkpt>
      <trkpt lat="45.86307" lon="4.81496">
        <ele>332</ele>
        <time>2011-12-18T10:38:43Z</time>
      </trkpt>
      <trkpt lat="45.86295" lon="4.81495">
        <ele>332</ele>
        <time>2011-12-18T10:38:48Z</time>
      </trkpt>
      <trkpt lat="45.86286" lon="4.81493">
        <ele>333</ele>
        <time>2011-12-18T10:38:52Z</time>
      </trkpt>
      <trkpt lat="45.86275" lon="4.81491">
        <ele>335</ele>
        <time>2011-12-18T10:38:56Z</time>
      </trkpt>
      <trkpt lat="45.86273" lon="4.8149">
        <ele>336</ele>
        <time>2011-12-18T10:38:57Z</time>
      </trkpt>
      <trkpt lat="45.86261" lon="4.81485">
        <ele>338</ele>
        <time>2011-12-18T10:39:03Z</time>
      </trkpt>
      <trkpt lat="45.86257" lon="4.81483">
        <ele>338</ele>
        <time>2011-12-18T10:39:05Z</time>
      </trkpt>
      <trkpt lat="45.86254" lon="4.81481">
        <ele>338</ele>
        <time>2011-12-18T10:39:08Z</time>
      </trkpt>
      <trkpt lat="45.86252" lon="4.8148">
        <ele>337</ele>
        <time>2011-12-18T10:39:09Z</time>
      </trkpt>
      <trkpt lat="45.86244" lon="4.81477">
        <ele>341</ele>
        <time>2011-12-18T10:39:15Z</time>
      </trkpt>
      <trkpt lat="45.86239" lon="4.81476">
        <ele>340</ele>
        <time>2011-12-18T10:39:20Z</time>
      </trkpt>
      <trkpt lat="45.86236" lon="4.81474">
        <ele>340</ele>
        <time>2011-12-18T10:39:23Z</time>
      </trkpt>
      <trkpt lat="45.86225" lon="4.81472">
        <ele>339</ele>
        <time>2011-12-18T10:39:33Z</time>
      </trkpt>
      <trkpt lat="45.86221" lon="4.8147">
        <ele>338</ele>
        <time>2011-12-18T10:39:37Z</time>
      </trkpt>
      <trkpt lat="45.86216" lon="4.81468">
        <ele>338</ele>
        <time>2011-12-18T10:39:40Z</time>
      </trkpt>
      <trkpt lat="45.86207" lon="4.81466">
        <ele>337</ele>
        <time>2011-12-18T10:39:47Z</time>
      </trkpt>
      <trkpt lat="45.86202" lon="4.81464">
        <ele>337</ele>
        <time>2011-12-18T10:39:51Z</time>
      </trkpt>
      <trkpt lat="45.86198" lon="4.81464">
        <ele>337</ele>
        <time>2011-12-18T10:39:54Z</time>
      </trkpt>
      <trkpt lat="45.86188" lon="4.81464">
        <ele>338</ele>
        <time>2011-12-18T10:40:03Z</time>
      </trkpt>
      <trkpt lat="45.86183" lon="4.81465">
        <ele>338</ele>
        <time>2011-12-18T10:40:07Z</time>
      </trkpt>
      <trkpt lat="45.8618" lon="4.81464">
        <ele>338</ele>
        <time>2011-12-18T10:40:10Z</time>
      </trkpt>
      <trkpt lat="45.86177" lon="4.81463">
        <ele>338</ele>
        <time>2011-12-18T10:40:12Z</time>
      </trkpt>
      <trkpt lat="45.8617" lon="4.81461">
        <ele>338</ele>
        <time>2011-12-18T10:40:15Z</time>
      </trkpt>
      <trkpt lat="45.86168" lon="4.8146">
        <ele>338</ele>
        <time>2011-12-18T10:40:16Z</time>
      </trkpt>
      <trkpt lat="45.86164" lon="4.81458">
        <ele>340</ele>
        <time>2011-12-18T10:40:18Z</time>
      </trkpt>
      <trkpt lat="45.86162" lon="4.81457">
        <ele>340</ele>
        <time>2011-12-18T10:40:19Z</time>
      </trkpt>
      <trkpt lat="45.86155" lon="4.81454">
        <ele>339</ele>
        <time>2011-12-18T10:40:21Z</time>
      </trkpt>
      <trkpt lat="45.86151" lon="4.81451">
        <ele>339</ele>
        <time>2011-12-18T10:40:23Z</time>
      </trkpt>
      <trkpt lat="45.86146" lon="4.8145">
        <ele>339</ele>
        <time>2011-12-18T10:40:25Z</time>
      </trkpt>
      <trkpt lat="45.86139" lon="4.81447">
        <ele>339</ele>
        <time>2011-12-18T10:40:28Z</time>
      </trkpt>
      <trkpt lat="45.86136" lon="4.81446">
        <ele>339</ele>
        <time>2011-12-18T10:40:29Z</time>
      </trkpt>
      <trkpt lat="45.86126" lon="4.81446">
        <ele>339</ele>
        <time>2011-12-18T10:40:33Z</time>
      </trkpt>
      <trkpt lat="45.86113" lon="4.81449">
        <ele>340</ele>
        <time>2011-12-18T10:40:39Z</time>
      </trkpt>
      <trkpt lat="45.86106" lon="4.81448">
        <ele>340</ele>
        <time>2011-12-18T10:40:42Z</time>
      </trkpt>
      <trkpt lat="45.86102" lon="4.81448">
        <ele>340</ele>
        <time>2011-12-18T10:40:44Z</time>
      </trkpt>
      <trkpt lat="45.86098" lon="4.81447">
        <ele>340</ele>
        <time>2011-12-18T10:40:46Z</time>
      </trkpt>
      <trkpt lat="45.86091" lon="4.81446">
        <ele>340</ele>
        <time>2011-12-18T10:40:50Z</time>
      </trkpt>
      <trkpt lat="45.86086" lon="4.81446">
        <ele>340</ele>
        <time>2011-12-18T10:40:53Z</time>
      </trkpt>
      <trkpt lat="45.8608" lon="4.81444">
        <ele>344</ele>
        <time>2011-12-18T10:40:56Z</time>
      </trkpt>
      <trkpt lat="45.86071" lon="4.81443">
        <ele>344</ele>
        <time>2011-12-18T10:41:01Z</time>
      </trkpt>
      <trkpt lat="45.86068" lon="4.8144">
        <ele>344</ele>
        <time>2011-12-18T10:41:02Z</time>
      </trkpt>
      <trkpt lat="45.86066" lon="4.81438">
        <ele>344</ele>
        <time>2011-12-18T10:41:06Z</time>
      </trkpt>
      <trkpt lat="45.86065" lon="4.81439">
        <ele>344</ele>
        <time>2011-12-18T10:41:07Z</time>
      </trkpt>
      <trkpt lat="45.86064" lon="4.8144">
        <ele>344</ele>
        <time>2011-12-18T10:41:12Z</time>
      </trkpt>
      <trkpt lat="45.8606" lon="4.81444">
        <ele>345</ele>
        <time>2011-12-18T10:41:21Z</time>
      </trkpt>
      <trkpt lat="45.86064" lon="4.81443">
        <ele>344</ele>
        <time>2011-12-18T10:41:27Z</time>
      </trkpt>
      <trkpt lat="45.86068" lon="4.81445">
        <ele>344</ele>
        <time>2011-12-18T10:41:33Z</time>
      </trkpt>
      <trkpt lat="45.8607" lon="4.81446">
        <ele>344</ele>
        <time>2011-12-18T10:41:38Z</time>
      </trkpt>
      <trkpt lat="45.86073" lon="4.81447">
        <ele>344</ele>
        <time>2011-12-18T10:41:41Z</time>
      </trkpt>
      <trkpt lat="45.86074" lon="4.81447">
        <ele>344</ele>
        <time>2011-12-18T10:41:43Z</time>
      </trkpt>
      <trkpt lat="45.86077" lon="4.81449">
        <ele>344</ele>
        <time>2011-12-18T10:41:46Z</time>
      </trkpt>
      <trkpt lat="45.86083" lon="4.81451">
        <ele>341</ele>
        <time>2011-12-18T10:41:52Z</time>
      </trkpt>
      <trkpt lat="45.86087" lon="4.81453">
        <ele>341</ele>
        <time>2011-12-18T10:41:56Z</time>
      </trkpt>
      <trkpt lat="45.86091" lon="4.81454">
        <ele>341</ele>
        <time>2011-12-18T10:41:59Z</time>
      </trkpt>
      <trkpt lat="45.86102" lon="4.81457">
        <ele>341</ele>
        <time>2011-12-18T10:42:07Z</time>
      </trkpt>
      <trkpt lat="45.86106" lon="4.81458">
        <ele>341</ele>
        <time>2011-12-18T10:42:11Z</time>
      </trkpt>
      <trkpt lat="45.8611" lon="4.8146">
        <ele>341</ele>
        <time>2011-12-18T10:42:14Z</time>
      </trkpt>
      <trkpt lat="45.86111" lon="4.8146">
        <ele>341</ele>
        <time>2011-12-18T10:42:15Z</time>
      </trkpt>
      <trkpt lat="45.86119" lon="4.81464">
        <ele>341</ele>
        <time>2011-12-18T10:42:22Z</time>
      </trkpt>
      <trkpt lat="45.86124" lon="4.81465">
        <ele>341</ele>
        <time>2011-12-18T10:42:26Z</time>
      </trkpt>
      <trkpt lat="45.8613" lon="4.81466">
        <ele>341</ele>
        <time>2011-12-18T10:42:29Z</time>
      </trkpt>
      <trkpt lat="45.86141" lon="4.81472">
        <ele>341</ele>
        <time>2011-12-18T10:42:34Z</time>
      </trkpt>
      <trkpt lat="45.86144" lon="4.81473">
        <ele>342</ele>
        <time>2011-12-18T10:42:35Z</time>
      </trkpt>
      <trkpt lat="45.86155" lon="4.81477">
        <ele>343</ele>
        <time>2011-12-18T10:42:40Z</time>
      </trkpt>
      <trkpt lat="45.86161" lon="4.81481">
        <ele>344</ele>
        <time>2011-12-18T10:42:43Z</time>
      </trkpt>
      <trkpt lat="45.8617" lon="4.81484">
        <ele>343</ele>
        <time>2011-12-18T10:42:47Z</time>
      </trkpt>
      <trkpt lat="45.86179" lon="4.81487">
        <ele>343</ele>
        <time>2011-12-18T10:42:51Z</time>
      </trkpt>
      <trkpt lat="45.86183" lon="4.8149">
        <ele>343</ele>
        <time>2011-12-18T10:42:53Z</time>
      </trkpt>
      <trkpt lat="45.86196" lon="4.81495">
        <ele>342</ele>
        <time>2011-12-18T10:42:59Z</time>
      </trkpt>
      <trkpt lat="45.86198" lon="4.81497">
        <ele>342</ele>
        <time>2011-12-18T10:43:00Z</time>
      </trkpt>
      <trkpt lat="45.86211" lon="4.81502">
        <ele>346</ele>
        <time>2011-12-18T10:43:05Z</time>
      </trkpt>
      <trkpt lat="45.86216" lon="4.81507">
        <ele>346</ele>
        <time>2011-12-18T10:43:08Z</time>
      </trkpt>
      <trkpt lat="45.86219" lon="4.81509">
        <ele>346</ele>
        <time>2011-12-18T10:43:09Z</time>
      </trkpt>
      <trkpt lat="45.86233" lon="4.81513">
        <ele>347</ele>
        <time>2011-12-18T10:43:15Z</time>
      </trkpt>
      <trkpt lat="45.86236" lon="4.81514">
        <ele>347</ele>
        <time>2011-12-18T10:43:16Z</time>
      </trkpt>
      <trkpt lat="45.86242" lon="4.81518">
        <ele>347</ele>
        <time>2011-12-18T10:43:19Z</time>
      </trkpt>
      <trkpt lat="45.86255" lon="4.81522">
        <ele>347</ele>
        <time>2011-12-18T10:43:24Z</time>
      </trkpt>
      <trkpt lat="45.86271" lon="4.81529">
        <ele>345</ele>
        <time>2011-12-18T10:43:30Z</time>
      </trkpt>
      <trkpt lat="45.86274" lon="4.8153">
        <ele>345</ele>
        <time>2011-12-18T10:43:31Z</time>
      </trkpt>
      <trkpt lat="45.86289" lon="4.81536">
        <ele>344</ele>
        <time>2011-12-18T10:43:37Z</time>
      </trkpt>
      <trkpt lat="45.86293" lon="4.81537">
        <ele>344</ele>
        <time>2011-12-18T10:43:39Z</time>
      </trkpt>
      <trkpt lat="45.86298" lon="4.8154">
        <ele>344</ele>
        <time>2011-12-18T10:43:41Z</time>
      </trkpt>
      <trkpt lat="45.86311" lon="4.81545">
        <ele>344</ele>
        <time>2011-12-18T10:43:46Z</time>
      </trkpt>
      <trkpt lat="45.86314" lon="4.81546">
        <ele>344</ele>
        <time>2011-12-18T10:43:47Z</time>
      </trkpt>
      <trkpt lat="45.86325" lon="4.81557">
        <ele>344</ele>
        <time>2011-12-18T10:43:52Z</time>
      </trkpt>
      <trkpt lat="45.86327" lon="4.81559">
        <ele>344</ele>
        <time>2011-12-18T10:43:53Z</time>
      </trkpt>
      <trkpt lat="45.86334" lon="4.81561">
        <ele>338</ele>
        <time>2011-12-18T10:43:56Z</time>
      </trkpt>
      <trkpt lat="45.86335" lon="4.81561">
        <ele>338</ele>
        <time>2011-12-18T10:43:57Z</time>
      </trkpt>
      <trkpt lat="45.86342" lon="4.81565">
        <ele>339</ele>
        <time>2011-12-18T10:44:03Z</time>
      </trkpt>
      <trkpt lat="45.86345" lon="4.81567">
        <ele>338</ele>
        <time>2011-12-18T10:44:06Z</time>
      </trkpt>
      <trkpt lat="45.86347" lon="4.81568">
        <ele>338</ele>
        <time>2011-12-18T10:44:08Z</time>
      </trkpt>
      <trkpt lat="45.86347" lon="4.81573">
        <ele>339</ele>
        <time>2011-12-18T10:44:11Z</time>
      </trkpt>
      <trkpt lat="45.86347" lon="4.81574">
        <ele>339</ele>
        <time>2011-12-18T10:44:12Z</time>
      </trkpt>
      <trkpt lat="45.86347" lon="4.81575">
        <ele>339</ele>
        <time>2011-12-18T10:44:16Z</time>
      </trkpt>
      <trkpt lat="45.86349" lon="4.81579">
        <ele>339</ele>
        <time>2011-12-18T10:44:22Z</time>
      </trkpt>
      <trkpt lat="45.86346" lon="4.81576">
        <ele>340</ele>
        <time>2011-12-18T10:44:30Z</time>
      </trkpt>
      <trkpt lat="45.86346" lon="4.81574">
        <ele>339</ele>
        <time>2011-12-18T10:44:45Z</time>
      </trkpt>
      <trkpt lat="45.86347" lon="4.81575">
        <ele>339</ele>
        <time>2011-12-18T10:44:53Z</time>
      </trkpt>
      <trkpt lat="45.86346" lon="4.81575">
        <ele>340</ele>
        <time>2011-12-18T10:45:01Z</time>
      </trkpt>
      <trkpt lat="45.86343" lon="4.81575">
        <ele>340</ele>
        <time>2011-12-18T10:45:04Z</time>
      </trkpt>
      <trkpt lat="45.86341" lon="4.81578">
        <ele>341</ele>
        <time>2011-12-18T10:45:14Z</time>
      </trkpt>
      <trkpt lat="45.86343" lon="4.81576">
        <ele>341</ele>
        <time>2011-12-18T10:45:29Z</time>
      </trkpt>
      <trkpt lat="45.86347" lon="4.81579">
        <ele>340</ele>
        <time>2011-12-18T10:45:50Z</time>
      </trkpt>
      <trkpt lat="45.86347" lon="4.8158">
        <ele>340</ele>
        <time>2011-12-18T10:45:51Z</time>
      </trkpt>
      <trkpt lat="45.86346" lon="4.81583">
        <ele>340</ele>
        <time>2011-12-18T10:45:53Z</time>
      </trkpt>
      <trkpt lat="45.86346" lon="4.81584">
        <ele>340</ele>
        <time>2011-12-18T10:45:54Z</time>
      </trkpt>
      <trkpt lat="45.86346" lon="4.81585">
        <ele>340</ele>
        <time>2011-12-18T10:45:55Z</time>
      </trkpt>
      <trkpt lat="45.86347" lon="4.81582">
        <ele>340</ele>
        <time>2011-12-18T10:45:59Z</time>
      </trkpt>
      <trkpt lat="45.86347" lon="4.81576">
        <ele>340</ele>
        <time>2011-12-18T10:46:04Z</time>
      </trkpt>
      <trkpt lat="45.86347" lon="4.81573">
        <ele>339</ele>
        <time>2011-12-18T10:46:07Z</time>
      </trkpt>
      <trkpt lat="45.86348" lon="4.81572">
        <ele>339</ele>
        <time>2011-12-18T10:46:10Z</time>
      </trkpt>
      <trkpt lat="45.86354" lon="4.81575">
        <ele>338</ele>
        <time>2011-12-18T10:46:16Z</time>
      </trkpt>
      <trkpt lat="45.86358" lon="4.81582">
        <ele>338</ele>
        <time>2011-12-18T10:46:22Z</time>
      </trkpt>
      <trkpt lat="45.86361" lon="4.81591">
        <ele>336</ele>
        <time>2011-12-18T10:46:27Z</time>
      </trkpt>
      <trkpt lat="45.86363" lon="4.81592">
        <ele>336</ele>
        <time>2011-12-18T10:46:28Z</time>
      </trkpt>
      <trkpt lat="45.86364" lon="4.81595">
        <ele>336</ele>
        <time>2011-12-18T10:46:29Z</time>
      </trkpt>
      <trkpt lat="45.86365" lon="4.81597">
        <ele>336</ele>
        <time>2011-12-18T10:46:30Z</time>
      </trkpt>
      <trkpt lat="45.86367" lon="4.81601">
        <ele>335</ele>
        <time>2011-12-18T10:46:32Z</time>
      </trkpt>
      <trkpt lat="45.86368" lon="4.81606">
        <ele>335</ele>
        <time>2011-12-18T10:46:34Z</time>
      </trkpt>
      <trkpt lat="45.86368" lon="4.8161">
        <ele>334</ele>
        <time>2011-12-18T10:46:37Z</time>
      </trkpt>
      <trkpt lat="45.86366" lon="4.81611">
        <ele>334</ele>
        <time>2011-12-18T10:46:42Z</time>
      </trkpt>
      <trkpt lat="45.86366" lon="4.81615">
        <ele>334</ele>
        <time>2011-12-18T10:46:46Z</time>
      </trkpt>
      <trkpt lat="45.86368" lon="4.8162">
        <ele>333</ele>
        <time>2011-12-18T10:46:50Z</time>
      </trkpt>
      <trkpt lat="45.86369" lon="4.81623">
        <ele>333</ele>
        <time>2011-12-18T10:46:52Z</time>
      </trkpt>
      <trkpt lat="45.8637" lon="4.81625">
        <ele>333</ele>
        <time>2011-12-18T10:46:53Z</time>
      </trkpt>
      <trkpt lat="45.86372" lon="4.81627">
        <ele>333</ele>
        <time>2011-12-18T10:46:57Z</time>
      </trkpt>
      <trkpt lat="45.86373" lon="4.81631">
        <ele>332</ele>
        <time>2011-12-18T10:47:00Z</time>
      </trkpt>
      <trkpt lat="45.86373" lon="4.81632">
        <ele>332</ele>
        <time>2011-12-18T10:47:01Z</time>
      </trkpt>
      <trkpt lat="45.86372" lon="4.81636">
        <ele>332</ele>
        <time>2011-12-18T10:47:05Z</time>
      </trkpt>
      <trkpt lat="45.86374" lon="4.8164">
        <ele>332</ele>
        <time>2011-12-18T10:47:07Z</time>
      </trkpt>
      <trkpt lat="45.86375" lon="4.81641">
        <ele>332</ele>
        <time>2011-12-18T10:47:08Z</time>
      </trkpt>
      <trkpt lat="45.86376" lon="4.81645">
        <ele>331</ele>
        <time>2011-12-18T10:47:10Z</time>
      </trkpt>
      <trkpt lat="45.86376" lon="4.81653">
        <ele>331</ele>
        <time>2011-12-18T10:47:14Z</time>
      </trkpt>
      <trkpt lat="45.86377" lon="4.81654">
        <ele>331</ele>
        <time>2011-12-18T10:47:16Z</time>
      </trkpt>
      <trkpt lat="45.86378" lon="4.81657">
        <ele>331</ele>
        <time>2011-12-18T10:47:18Z</time>
      </trkpt>
      <trkpt lat="45.86378" lon="4.81661">
        <ele>331</ele>
        <time>2011-12-18T10:47:23Z</time>
      </trkpt>
      <trkpt lat="45.86376" lon="4.81664">
        <ele>331</ele>
        <time>2011-12-18T10:47:45Z</time>
      </trkpt>
      <trkpt lat="45.86374" lon="4.81665">
        <ele>331</ele>
        <time>2011-12-18T10:47:46Z</time>
      </trkpt>
      <trkpt lat="45.86368" lon="4.81667">
        <ele>322</ele>
        <time>2011-12-18T10:47:51Z</time>
      </trkpt>
      <trkpt lat="45.8636" lon="4.81668">
        <ele>322</ele>
        <time>2011-12-18T10:47:57Z</time>
      </trkpt>
      <trkpt lat="45.86357" lon="4.81667">
        <ele>322</ele>
        <time>2011-12-18T10:47:59Z</time>
      </trkpt>
      <trkpt lat="45.8635" lon="4.81664">
        <ele>330</ele>
        <time>2011-12-18T10:48:04Z</time>
      </trkpt>
      <trkpt lat="45.86344" lon="4.81662">
        <ele>330</ele>
        <time>2011-12-18T10:48:08Z</time>
      </trkpt>
      <trkpt lat="45.86342" lon="4.81659">
        <ele>330</ele>
        <time>2011-12-18T10:48:11Z</time>
      </trkpt>
      <trkpt lat="45.8634" lon="4.81659">
        <ele>330</ele>
        <time>2011-12-18T10:48:14Z</time>
      </trkpt>
      <trkpt lat="45.86338" lon="4.81658">
        <ele>330</ele>
        <time>2011-12-18T10:48:16Z</time>
      </trkpt>
      <trkpt lat="45.86329" lon="4.81655">
        <ele>330</ele>
        <time>2011-12-18T10:48:23Z</time>
      </trkpt>
      <trkpt lat="45.86322" lon="4.81652">
        <ele>330</ele>
        <time>2011-12-18T10:48:28Z</time>
      </trkpt>
      <trkpt lat="45.86314" lon="4.81647">
        <ele>331</ele>
        <time>2011-12-18T10:48:34Z</time>
      </trkpt>
      <trkpt lat="45.86305" lon="4.81643">
        <ele>331</ele>
        <time>2011-12-18T10:48:41Z</time>
      </trkpt>
      <trkpt lat="45.86304" lon="4.81642">
        <ele>331</ele>
        <time>2011-12-18T10:48:42Z</time>
      </trkpt>
      <trkpt lat="45.86301" lon="4.8164">
        <ele>331</ele>
        <time>2011-12-18T10:48:45Z</time>
      </trkpt>
      <trkpt lat="45.86299" lon="4.81638">
        <ele>331</ele>
        <time>2011-12-18T10:48:47Z</time>
      </trkpt>
      <trkpt lat="45.86293" lon="4.81635">
        <ele>331</ele>
        <time>2011-12-18T10:48:53Z</time>
      </trkpt>
      <trkpt lat="45.86292" lon="4.81635">
        <ele>331</ele>
        <time>2011-12-18T10:48:54Z</time>
      </trkpt>
      <trkpt lat="45.8629" lon="4.81633">
        <ele>331</ele>
        <time>2011-12-18T10:49:00Z</time>
      </trkpt>
      <trkpt lat="45.8629" lon="4.81633">
        <ele>331</ele>
        <time>2011-12-18T10:49:06Z</time>
      </trkpt>
      <trkpt lat="45.86289" lon="4.81634">
        <ele>331</ele>
        <time>2011-12-18T10:49:08Z</time>
      </trkpt>
      <trkpt lat="45.86286" lon="4.81636">
        <ele>331</ele>
        <time>2011-12-18T10:49:13Z</time>
      </trkpt>
      <trkpt lat="45.86284" lon="4.8164">
        <ele>330</ele>
        <time>2011-12-18T10:49:18Z</time>
      </trkpt>
      <trkpt lat="45.86281" lon="4.81642">
        <ele>330</ele>
        <time>2011-12-18T10:49:23Z</time>
      </trkpt>
      <trkpt lat="45.86279" lon="4.81645">
        <ele>329</ele>
        <time>2011-12-18T10:49:29Z</time>
      </trkpt>
      <trkpt lat="45.86278" lon="4.81647">
        <ele>329</ele>
        <time>2011-12-18T10:49:36Z</time>
      </trkpt>
      <trkpt lat="45.86277" lon="4.8165">
        <ele>328</ele>
        <time>2011-12-18T10:49:49Z</time>
      </trkpt>
      <trkpt lat="45.86274" lon="4.81648">
        <ele>328</ele>
        <time>2011-12-18T10:49:52Z</time>
      </trkpt>
      <trkpt lat="45.86271" lon="4.81649">
        <ele>327</ele>
        <time>2011-12-18T10:49:57Z</time>
      </trkpt>
      <trkpt lat="45.8627" lon="4.81649">
        <ele>327</ele>
        <time>2011-12-18T10:49:59Z</time>
      </trkpt>
      <trkpt lat="45.86267" lon="4.8165">
        <ele>326</ele>
        <time>2011-12-18T10:50:05Z</time>
      </trkpt>
      <trkpt lat="45.86264" lon="4.81656">
        <ele>324</ele>
        <time>2011-12-18T10:50:12Z</time>
      </trkpt>
      <trkpt lat="45.86261" lon="4.81658">
        <ele>323</ele>
        <time>2011-12-18T10:50:17Z</time>
      </trkpt>
      <trkpt lat="45.86261" lon="4.81658">
        <ele>323</ele>
        <time>2011-12-18T10:50:18Z</time>
      </trkpt>
      <trkpt lat="45.86261" lon="4.8166">
        <ele>323</ele>
        <time>2011-12-18T10:50:22Z</time>
      </trkpt>
      <trkpt lat="45.8626" lon="4.81658">
        <ele>323</ele>
        <time>2011-12-18T10:50:29Z</time>
      </trkpt>
      <trkpt lat="45.86256" lon="4.81657">
        <ele>322</ele>
        <time>2011-12-18T10:50:35Z</time>
      </trkpt>
      <trkpt lat="45.86254" lon="4.81654">
        <ele>323</ele>
        <time>2011-12-18T10:50:41Z</time>
      </trkpt>
      <trkpt lat="45.86253" lon="4.81649">
        <ele>325</ele>
        <time>2011-12-18T10:50:46Z</time>
      </trkpt>
      <trkpt lat="45.86252" lon="4.81648">
        <ele>325</ele>
        <time>2011-12-18T10:50:52Z</time>
      </trkpt>
      <trkpt lat="45.86248" lon="4.81645">
        <ele>322</ele>
        <time>2011-12-18T10:50:56Z</time>
      </trkpt>
      <trkpt lat="45.86247" lon="4.81644">
        <ele>322</ele>
        <time>2011-12-18T10:50:57Z</time>
      </trkpt>
      <trkpt lat="45.86245" lon="4.81643">
        <ele>323</ele>
        <time>2011-12-18T10:51:01Z</time>
      </trkpt>
      <trkpt lat="45.86244" lon="4.81643">
        <ele>323</ele>
        <time>2011-12-18T10:51:03Z</time>
      </trkpt>
      <trkpt lat="45.86243" lon="4.81645">
        <ele>322</ele>
        <time>2011-12-18T10:51:12Z</time>
      </trkpt>
      <trkpt lat="45.86242" lon="4.81642">
        <ele>323</ele>
        <time>2011-12-18T10:51:32Z</time>
      </trkpt>
      <trkpt lat="45.86244" lon="4.8164">
        <ele>323</ele>
        <time>2011-12-18T10:51:39Z</time>
      </trkpt>
      <trkpt lat="45.86246" lon="4.81641">
        <ele>323</ele>
        <time>2011-12-18T10:51:42Z</time>
      </trkpt>
      <trkpt lat="45.86248" lon="4.81641">
        <ele>323</ele>
        <time>2011-12-18T10:51:49Z</time>
      </trkpt>
      <trkpt lat="45.8625" lon="4.81639">
        <ele>323</ele>
        <time>2011-12-18T10:51:55Z</time>
      </trkpt>
      <trkpt lat="45.8625" lon="4.81639">
        <ele>323</ele>
        <time>2011-12-18T10:51:56Z</time>
      </trkpt>
      <trkpt lat="45.86248" lon="4.81637">
        <ele>324</ele>
        <time>2011-12-18T10:52:00Z</time>
      </trkpt>
      <trkpt lat="45.86244" lon="4.81636">
        <ele>324</ele>
        <time>2011-12-18T10:52:07Z</time>
      </trkpt>
      <trkpt lat="45.86243" lon="4.81634">
        <ele>324</ele>
        <time>2011-12-18T10:52:12Z</time>
      </trkpt>
      <trkpt lat="45.86239" lon="4.81633">
        <ele>325</ele>
        <time>2011-12-18T10:52:19Z</time>
      </trkpt>
      <trkpt lat="45.86235" lon="4.81633">
        <ele>324</ele>
        <time>2011-12-18T10:52:23Z</time>
      </trkpt>
      <trkpt lat="45.86234" lon="4.81633">
        <ele>325</ele>
        <time>2011-12-18T10:52:24Z</time>
      </trkpt>
      <trkpt lat="45.86233" lon="4.81632">
        <ele>325</ele>
        <time>2011-12-18T10:52:26Z</time>
      </trkpt>
      <trkpt lat="45.86229" lon="4.8163">
        <ele>325</ele>
        <time>2011-12-18T10:52:29Z</time>
      </trkpt>
      <trkpt lat="45.86229" lon="4.81629">
        <ele>325</ele>
        <time>2011-12-18T10:52:30Z</time>
      </trkpt>
      <trkpt lat="45.86224" lon="4.81627">
        <ele>325</ele>
        <time>2011-12-18T10:52:36Z</time>
      </trkpt>
      <trkpt lat="45.86221" lon="4.81625">
        <ele>326</ele>
        <time>2011-12-18T10:52:41Z</time>
      </trkpt>
      <trkpt lat="45.86217" lon="4.81624">
        <ele>325</ele>
        <time>2011-12-18T10:52:46Z</time>
      </trkpt>
      <trkpt lat="45.86215" lon="4.81623">
        <ele>326</ele>
        <time>2011-12-18T10:52:51Z</time>
      </trkpt>
      <trkpt lat="45.86212" lon="4.81621">
        <ele>326</ele>
        <time>2011-12-18T10:52:54Z</time>
      </trkpt>
      <trkpt lat="45.86211" lon="4.81617">
        <ele>326</ele>
        <time>2011-12-18T10:52:59Z</time>
      </trkpt>
      <trkpt lat="45.86211" lon="4.81612">
        <ele>327</ele>
        <time>2011-12-18T10:53:05Z</time>
      </trkpt>
      <trkpt lat="45.8621" lon="4.81607">
        <ele>327</ele>
        <time>2011-12-18T10:53:11Z</time>
      </trkpt>
      <trkpt lat="45.8621" lon="4.81605">
        <ele>328</ele>
        <time>2011-12-18T10:53:16Z</time>
      </trkpt>
      <trkpt lat="45.86206" lon="4.81601">
        <ele>328</ele>
        <time>2011-12-18T10:53:22Z</time>
      </trkpt>
      <trkpt lat="45.86202" lon="4.81598">
        <ele>328</ele>
        <time>2011-12-18T10:53:26Z</time>
      </trkpt>
      <trkpt lat="45.86201" lon="4.81597">
        <ele>328</ele>
        <time>2011-12-18T10:53:27Z</time>
      </trkpt>
      <trkpt lat="45.86197" lon="4.81594">
        <ele>328</ele>
        <time>2011-12-18T10:53:31Z</time>
      </trkpt>
      <trkpt lat="45.86196" lon="4.81594">
        <ele>328</ele>
        <time>2011-12-18T10:53:32Z</time>
      </trkpt>
      <trkpt lat="45.8619" lon="4.81591">
        <ele>328</ele>
        <time>2011-12-18T10:53:37Z</time>
      </trkpt>
      <trkpt lat="45.86187" lon="4.8159">
        <ele>328</ele>
        <time>2011-12-18T10:53:40Z</time>
      </trkpt>
      <trkpt lat="45.86185" lon="4.81588">
        <ele>328</ele>
        <time>2011-12-18T10:53:42Z</time>
      </trkpt>
      <trkpt lat="45.86184" lon="4.81588">
        <ele>328</ele>
        <time>2011-12-18T10:53:43Z</time>
      </trkpt>
      <trkpt lat="45.86182" lon="4.81587">
        <ele>328</ele>
        <time>2011-12-18T10:53:48Z</time>
      </trkpt>
      <trkpt lat="45.86178" lon="4.81589">
        <ele>328</ele>
        <time>2011-12-18T10:53:54Z</time>
      </trkpt>
      <trkpt lat="45.86179" lon="4.81591">
        <ele>328</ele>
        <time>2011-12-18T10:53:59Z</time>
      </trkpt>
      <trkpt lat="45.86178" lon="4.81593">
        <ele>328</ele>
        <time>2011-12-18T10:54:12Z</time>
      </trkpt>
      <trkpt lat="45.86178" lon="4.81593">
        <ele>328</ele>
        <time>2011-12-18T10:54:15Z</time>
      </trkpt>
      <trkpt lat="45.86177" lon="4.8159">
        <ele>328</ele>
        <time>2011-12-18T10:54:36Z</time>
      </trkpt>
      <trkpt lat="45.86177" lon="4.81589">
        <ele>328</ele>
        <time>2011-12-18T10:55:11Z</time>
      </trkpt>
      <trkpt lat="45.86177" lon="4.81588">
        <ele>328</ele>
        <time>2011-12-18T10:55:13Z</time>
      </trkpt>
      <trkpt lat="45.86176" lon="4.81589">
        <ele>328</ele>
        <time>2011-12-18T10:55:19Z</time>
      </trkpt>
      <trkpt lat="45.86174" lon="4.81591">
        <ele>328</ele>
        <time>2011-12-18T10:55:24Z</time>
      </trkpt>
      <trkpt lat="45.86175" lon="4.81589">
        <ele>328</ele>
        <time>2011-12-18T10:55:30Z</time>
      </trkpt>
      <trkpt lat="45.86176" lon="4.81591">
        <ele>328</ele>
        <time>2011-12-18T10:55:38Z</time>
      </trkpt>
      <trkpt lat="45.86176" lon="4.81588">
        <ele>328</ele>
        <time>2011-12-18T10:55:42Z</time>
      </trkpt>
      <trkpt lat="45.86176" lon="4.81586">
        <ele>329</ele>
        <time>2011-12-18T10:55:46Z</time>
      </trkpt>
      <trkpt lat="45.86176" lon="4.81587">
        <ele>329</ele>
        <time>2011-12-18T10:55:54Z</time>
      </trkpt>
      <trkpt lat="45.86177" lon="4.81588">
        <ele>328</ele>
        <time>2011-12-18T10:55:55Z</time>
      </trkpt>
      <trkpt lat="45.86177" lon="4.8159">
        <ele>328</ele>
        <time>2011-12-18T10:55:59Z</time>
      </trkpt>
      <trkpt lat="45.86175" lon="4.81592">
        <ele>328</ele>
        <time>2011-12-18T10:56:06Z</time>
      </trkpt>
      <trkpt lat="45.86171" lon="4.81587">
        <ele>329</ele>
        <time>2011-12-18T10:56:13Z</time>
      </trkpt>
      <trkpt lat="45.86167" lon="4.81584">
        <ele>330</ele>
        <time>2011-12-18T10:56:17Z</time>
      </trkpt>
      <trkpt lat="45.86164" lon="4.81583">
        <ele>331</ele>
        <time>2011-12-18T10:56:19Z</time>
      </trkpt>
      <trkpt lat="45.86156" lon="4.81577">
        <ele>332</ele>
        <time>2011-12-18T10:56:27Z</time>
      </trkpt>
      <trkpt lat="45.86156" lon="4.81577">
        <ele>333</ele>
        <time>2011-12-18T10:56:28Z</time>
      </trkpt>
      <trkpt lat="45.86152" lon="4.81577">
        <ele>333</ele>
        <time>2011-12-18T10:56:32Z</time>
      </trkpt>
      <trkpt lat="45.8615" lon="4.81574">
        <ele>333</ele>
        <time>2011-12-18T10:56:36Z</time>
      </trkpt>
      <trkpt lat="45.86148" lon="4.81573">
        <ele>334</ele>
        <time>2011-12-18T10:56:38Z</time>
      </trkpt>
      <trkpt lat="45.86147" lon="4.81572">
        <ele>334</ele>
        <time>2011-12-18T10:56:40Z</time>
      </trkpt>
      <trkpt lat="45.86144" lon="4.81573">
        <ele>334</ele>
        <time>2011-12-18T10:56:43Z</time>
      </trkpt>
      <trkpt lat="45.86142" lon="4.81571">
        <ele>334</ele>
        <time>2011-12-18T10:56:45Z</time>
      </trkpt>
      <trkpt lat="45.86137" lon="4.81569">
        <ele>334</ele>
        <time>2011-12-18T10:56:49Z</time>
      </trkpt>
      <trkpt lat="45.86136" lon="4.81568">
        <ele>334</ele>
        <time>2011-12-18T10:56:50Z</time>
      </trkpt>
      <trkpt lat="45.86133" lon="4.81567">
        <ele>334</ele>
        <time>2011-12-18T10:56:53Z</time>
      </trkpt>
      <trkpt lat="45.86132" lon="4.81566">
        <ele>334</ele>
        <time>2011-12-18T10:56:54Z</time>
      </trkpt>
      <trkpt lat="45.86132" lon="4.81565">
        <ele>334</ele>
        <time>2011-12-18T10:56:55Z</time>
      </trkpt>
      <trkpt lat="45.86131" lon="4.81564">
        <ele>334</ele>
        <time>2011-12-18T10:56:57Z</time>
      </trkpt>
      <trkpt lat="45.86131" lon="4.81564">
        <ele>334</ele>
        <time>2011-12-18T10:56:58Z</time>
      </trkpt>
      <trkpt lat="45.86126" lon="4.81561">
        <ele>335</ele>
        <time>2011-12-18T10:57:03Z</time>
      </trkpt>
      <trkpt lat="45.86118" lon="4.81559">
        <ele>334</ele>
        <time>2011-12-18T10:57:09Z</time>
      </trkpt>
      <trkpt lat="45.86117" lon="4.81559">
        <ele>334</ele>
        <time>2011-12-18T10:57:10Z</time>
      </trkpt>
      <trkpt lat="45.86115" lon="4.8156">
        <ele>334</ele>
        <time>2011-12-18T10:57:12Z</time>
      </trkpt>
      <trkpt lat="45.86111" lon="4.81558">
        <ele>334</ele>
        <time>2011-12-18T10:57:15Z</time>
      </trkpt>
      <trkpt lat="45.86109" lon="4.81557">
        <ele>334</ele>
        <time>2011-12-18T10:57:18Z</time>
      </trkpt>
      <trkpt lat="45.86109" lon="4.81557">
        <ele>334</ele>
        <time>2011-12-18T10:57:20Z</time>
      </trkpt>
      <trkpt lat="45.86104" lon="4.81555">
        <ele>334</ele>
        <time>2011-12-18T10:57:26Z</time>
      </trkpt>
      <trkpt lat="45.86102" lon="4.81554">
        <ele>334</ele>
        <time>2011-12-18T10:57:31Z</time>
      </trkpt>
      <trkpt lat="45.86103" lon="4.81551">
        <ele>335</ele>
        <time>2011-12-18T10:57:35Z</time>
      </trkpt>
      <trkpt lat="45.86103" lon="4.81549">
        <ele>335</ele>
        <time>2011-12-18T10:57:40Z</time>
      </trkpt>
      <trkpt lat="45.86102" lon="4.81551">
        <ele>334</ele>
        <time>2011-12-18T10:57:44Z</time>
      </trkpt>
      <trkpt lat="45.86101" lon="4.81551">
        <ele>334</ele>
        <time>2011-12-18T10:57:46Z</time>
      </trkpt>
      <trkpt lat="45.86098" lon="4.81552">
        <ele>334</ele>
        <time>2011-12-18T10:57:52Z</time>
      </trkpt>
      <trkpt lat="45.86098" lon="4.81558">
        <ele>333</ele>
        <time>2011-12-18T10:57:59Z</time>
      </trkpt>
      <trkpt lat="45.86098" lon="4.81559">
        <ele>333</ele>
        <time>2011-12-18T10:58:00Z</time>
      </trkpt>
      <trkpt lat="45.86095" lon="4.81563">
        <ele>332</ele>
        <time>2011-12-18T10:58:04Z</time>
      </trkpt>
      <trkpt lat="45.86095" lon="4.81564">
        <ele>332</ele>
        <time>2011-12-18T10:58:05Z</time>
      </trkpt>
      <trkpt lat="45.86092" lon="4.81569">
        <ele>331</ele>
        <time>2011-12-18T10:58:09Z</time>
      </trkpt>
      <trkpt lat="45.86091" lon="4.81569">
        <ele>331</ele>
        <time>2011-12-18T10:58:10Z</time>
      </trkpt>
      <trkpt lat="45.86091" lon="4.81569">
        <ele>330</ele>
        <time>2011-12-18T10:58:11Z</time>
      </trkpt>
      <trkpt lat="45.86089" lon="4.81572">
        <ele>330</ele>
        <time>2011-12-18T10:58:13Z</time>
      </trkpt>
      <trkpt lat="45.86087" lon="4.81573">
        <ele>329</ele>
        <time>2011-12-18T10:58:15Z</time>
      </trkpt>
      <trkpt lat="45.86081" lon="4.81576">
        <ele>328</ele>
        <time>2011-12-18T10:58:20Z</time>
      </trkpt>
      <trkpt lat="45.86077" lon="4.81572">
        <ele>330</ele>
        <time>2011-12-18T10:58:24Z</time>
      </trkpt>
      <trkpt lat="45.86075" lon="4.8157">
        <ele>331</ele>
        <time>2011-12-18T10:58:26Z</time>
      </trkpt>
      <trkpt lat="45.86073" lon="4.81568">
        <ele>332</ele>
        <time>2011-12-18T10:58:28Z</time>
      </trkpt>
      <trkpt lat="45.86066" lon="4.81563">
        <ele>334</ele>
        <time>2011-12-18T10:58:33Z</time>
      </trkpt>
      <trkpt lat="45.86063" lon="4.81561">
        <ele>334</ele>
        <time>2011-12-18T10:58:36Z</time>
      </trkpt>
      <trkpt lat="45.8606" lon="4.81559">
        <ele>335</ele>
        <time>2011-12-18T10:58:38Z</time>
      </trkpt>
      <trkpt lat="45.86059" lon="4.81558">
        <ele>335</ele>
        <time>2011-12-18T10:58:39Z</time>
      </trkpt>
      <trkpt lat="45.86053" lon="4.81555">
        <ele>336</ele>
        <time>2011-12-18T10:58:44Z</time>
      </trkpt>
      <trkpt lat="45.86049" lon="4.81553">
        <ele>336</ele>
        <time>2011-12-18T10:58:47Z</time>
      </trkpt>
      <trkpt lat="45.86046" lon="4.81552">
        <ele>337</ele>
        <time>2011-12-18T10:58:50Z</time>
      </trkpt>
      <trkpt lat="45.86044" lon="4.8155">
        <ele>337</ele>
        <time>2011-12-18T10:58:51Z</time>
      </trkpt>
      <trkpt lat="45.86042" lon="4.81547">
        <ele>337</ele>
        <time>2011-12-18T10:58:53Z</time>
      </trkpt>
      <trkpt lat="45.86036" lon="4.81541">
        <ele>338</ele>
        <time>2011-12-18T10:58:58Z</time>
      </trkpt>
      <trkpt lat="45.8603" lon="4.81538">
        <ele>338</ele>
        <time>2011-12-18T10:59:04Z</time>
      </trkpt>
      <trkpt lat="45.86028" lon="4.81536">
        <ele>338</ele>
        <time>2011-12-18T10:59:07Z</time>
      </trkpt>
      <trkpt lat="45.86026" lon="4.81535">
        <ele>339</ele>
        <time>2011-12-18T10:59:09Z</time>
      </trkpt>
      <trkpt lat="45.86025" lon="4.81534">
        <ele>339</ele>
        <time>2011-12-18T10:59:10Z</time>
      </trkpt>
      <trkpt lat="45.86019" lon="4.81533">
        <ele>339</ele>
        <time>2011-12-18T10:59:16Z</time>
      </trkpt>
      <trkpt lat="45.86019" lon="4.81534">
        <ele>339</ele>
        <time>2011-12-18T10:59:17Z</time>
      </trkpt>
      <trkpt lat="45.86021" lon="4.81538">
        <ele>339</ele>
        <time>2011-12-18T10:59:21Z</time>
      </trkpt>
      <trkpt lat="45.86014" lon="4.81536">
        <ele>339</ele>
        <time>2011-12-18T10:59:27Z</time>
      </trkpt>
      <trkpt lat="45.8601" lon="4.81541">
        <ele>339</ele>
        <time>2011-12-18T10:59:33Z</time>
      </trkpt>
      <trkpt lat="45.86014" lon="4.81544">
        <ele>339</ele>
        <time>2011-12-18T10:59:40Z</time>
      </trkpt>
      <trkpt lat="45.8601" lon="4.81543">
        <ele>339</ele>
        <time>2011-12-18T10:59:52Z</time>
      </trkpt>
      <trkpt lat="45.8601" lon="4.81547">
        <ele>339</ele>
        <time>2011-12-18T11:00:03Z</time>
      </trkpt>
      <trkpt lat="45.86015" lon="4.81549">
        <ele>338</ele>
        <time>2011-12-18T11:00:09Z</time>
      </trkpt>
      <trkpt lat="45.86016" lon="4.8155">
        <ele>338</ele>
        <time>2011-12-18T11:00:10Z</time>
      </trkpt>
      <trkpt lat="45.86018" lon="4.81551">
        <ele>338</ele>
        <time>2011-12-18T11:00:15Z</time>
      </trkpt>
      <trkpt lat="45.86019" lon="4.81551">
        <ele>338</ele>
        <time>2011-12-18T11:00:16Z</time>
      </trkpt>
      <trkpt lat="45.86025" lon="4.8156">
        <ele>338</ele>
        <time>2011-12-18T11:00:22Z</time>
      </trkpt>
      <trkpt lat="45.86026" lon="4.81563">
        <ele>338</ele>
        <time>2011-12-18T11:00:24Z</time>
      </trkpt>
      <trkpt lat="45.8603" lon="4.81568">
        <ele>337</ele>
        <time>2011-12-18T11:00:28Z</time>
      </trkpt>
      <trkpt lat="45.8603" lon="4.8157">
        <ele>337</ele>
        <time>2011-12-18T11:00:29Z</time>
      </trkpt>
      <trkpt lat="45.86032" lon="4.81577">
        <ele>337</ele>
        <time>2011-12-18T11:00:33Z</time>
      </trkpt>
      <trkpt lat="45.86033" lon="4.8158">
        <ele>337</ele>
        <time>2011-12-18T11:00:35Z</time>
      </trkpt>
      <trkpt lat="45.86038" lon="4.81588">
        <ele>335</ele>
        <time>2011-12-18T11:00:42Z</time>
      </trkpt>
      <trkpt lat="45.8604" lon="4.8159">
        <ele>335</ele>
        <time>2011-12-18T11:00:44Z</time>
      </trkpt>
      <trkpt lat="45.86044" lon="4.81598">
        <ele>334</ele>
        <time>2011-12-18T11:00:48Z</time>
      </trkpt>
      <trkpt lat="45.86046" lon="4.816">
        <ele>334</ele>
        <time>2011-12-18T11:00:50Z</time>
      </trkpt>
      <trkpt lat="45.8605" lon="4.81605">
        <ele>334</ele>
        <time>2011-12-18T11:00:54Z</time>
      </trkpt>
      <trkpt lat="45.86051" lon="4.81607">
        <ele>334</ele>
        <time>2011-12-18T11:00:56Z</time>
      </trkpt>
      <trkpt lat="45.86054" lon="4.81611">
        <ele>333</ele>
        <time>2011-12-18T11:00:59Z</time>
      </trkpt>
      <trkpt lat="45.86056" lon="4.81613">
        <ele>333</ele>
        <time>2011-12-18T11:01:01Z</time>
      </trkpt>
      <trkpt lat="45.86059" lon="4.8162">
        <ele>333</ele>
        <time>2011-12-18T11:01:06Z</time>
      </trkpt>
      <trkpt lat="45.8606" lon="4.81621">
        <ele>333</ele>
        <time>2011-12-18T11:01:07Z</time>
      </trkpt>
      <trkpt lat="45.86066" lon="4.81627">
        <ele>333</ele>
        <time>2011-12-18T11:01:12Z</time>
      </trkpt>
      <trkpt lat="45.86068" lon="4.81628">
        <ele>332</ele>
        <time>2011-12-18T11:01:13Z</time>
      </trkpt>
      <trkpt lat="45.86071" lon="4.81631">
        <ele>332</ele>
        <time>2011-12-18T11:01:15Z</time>
      </trkpt>
      <trkpt lat="45.86076" lon="4.81637">
        <ele>331</ele>
        <time>2011-12-18T11:01:19Z</time>
      </trkpt>
      <trkpt lat="45.86081" lon="4.81645">
        <ele>330</ele>
        <time>2011-12-18T11:01:25Z</time>
      </trkpt>
      <trkpt lat="45.86085" lon="4.81651">
        <ele>323</ele>
        <time>2011-12-18T11:01:32Z</time>
      </trkpt>
      <trkpt lat="45.86088" lon="4.81655">
        <ele>323</ele>
        <time>2011-12-18T11:01:35Z</time>
      </trkpt>
      <trkpt lat="45.8609" lon="4.81659">
        <ele>323</ele>
        <time>2011-12-18T11:01:37Z</time>
      </trkpt>
      <trkpt lat="45.86095" lon="4.8167">
        <ele>323</ele>
        <time>2011-12-18T11:01:44Z</time>
      </trkpt>
      <trkpt lat="45.86097" lon="4.81672">
        <ele>323</ele>
        <time>2011-12-18T11:01:46Z</time>
      </trkpt>
      <trkpt lat="45.86097" lon="4.81673">
        <ele>323</ele>
        <time>2011-12-18T11:01:47Z</time>
      </trkpt>
      <trkpt lat="45.86098" lon="4.81673">
        <ele>323</ele>
        <time>2011-12-18T11:01:50Z</time>
      </trkpt>
      <trkpt lat="45.86099" lon="4.81674">
        <ele>323</ele>
        <time>2011-12-18T11:01:52Z</time>
      </trkpt>
      <trkpt lat="45.86102" lon="4.81677">
        <ele>323</ele>
        <time>2011-12-18T11:01:55Z</time>
      </trkpt>
      <trkpt lat="45.861" lon="4.81678">
        <ele>323</ele>
        <time>2011-12-18T11:02:04Z</time>
      </trkpt>
      <trkpt lat="45.86099" lon="4.81675">
        <ele>323</ele>
        <time>2011-12-18T11:02:07Z</time>
      </trkpt>
      <trkpt lat="45.86098" lon="4.81672">
        <ele>323</ele>
        <time>2011-12-18T11:02:09Z</time>
      </trkpt>
      <trkpt lat="45.86097" lon="4.81666">
        <ele>323</ele>
        <time>2011-12-18T11:02:12Z</time>
      </trkpt>
      <trkpt lat="45.86097" lon="4.81666">
        <ele>323</ele>
        <time>2011-12-18T11:02:13Z</time>
      </trkpt>
      <trkpt lat="45.86096" lon="4.81663">
        <ele>323</ele>
        <time>2011-12-18T11:02:15Z</time>
      </trkpt>
      <trkpt lat="45.86095" lon="4.81655">
        <ele>323</ele>
        <time>2011-12-18T11:02:30Z</time>
      </trkpt>
      <trkpt lat="45.86096" lon="4.81653">
        <ele>323</ele>
        <time>2011-12-18T11:02:32Z</time>
      </trkpt>
      <trkpt lat="45.86096" lon="4.81649">
        <ele>323</ele>
        <time>2011-12-18T11:02:35Z</time>
      </trkpt>
      <trkpt lat="45.86097" lon="4.81641">
        <ele>323</ele>
        <time>2011-12-18T11:02:42Z</time>
      </trkpt>
      <trkpt lat="45.86097" lon="4.81636">
        <ele>323</ele>
        <time>2011-12-18T11:02:45Z</time>
      </trkpt>
      <trkpt lat="45.86097" lon="4.81626">
        <ele>323</ele>
        <time>2011-12-18T11:02:51Z</time>
      </trkpt>
      <trkpt lat="45.86096" lon="4.81619">
        <ele>324</ele>
        <time>2011-12-18T11:02:56Z</time>
      </trkpt>
      <trkpt lat="45.86095" lon="4.81616">
        <ele>324</ele>
        <time>2011-12-18T11:02:58Z</time>
      </trkpt>
      <trkpt lat="45.86095" lon="4.81615">
        <ele>324</ele>
        <time>2011-12-18T11:03:00Z</time>
      </trkpt>
      <trkpt lat="45.86093" lon="4.81612">
        <ele>324</ele>
        <time>2011-12-18T11:03:05Z</time>
      </trkpt>
      <trkpt lat="45.86093" lon="4.81609">
        <ele>324</ele>
        <time>2011-12-18T11:03:07Z</time>
      </trkpt>
      <trkpt lat="45.86091" lon="4.81604">
        <ele>324</ele>
        <time>2011-12-18T11:03:11Z</time>
      </trkpt>
      <trkpt lat="45.86091" lon="4.81597">
        <ele>324</ele>
        <time>2011-12-18T11:03:15Z</time>
      </trkpt>
      <trkpt lat="45.86091" lon="4.81597">
        <ele>324</ele>
        <time>2011-12-18T11:03:17Z</time>
      </trkpt>
      <trkpt lat="45.86093" lon="4.81601">
        <ele>324</ele>
        <time>2011-12-18T11:03:23Z</time>
      </trkpt>
      <trkpt lat="45.86093" lon="4.81604">
        <ele>324</ele>
        <time>2011-12-18T11:03:27Z</time>
      </trkpt>
      <trkpt lat="45.86094" lon="4.81608">
        <ele>324</ele>
        <time>2011-12-18T11:03:30Z</time>
      </trkpt>
      <trkpt lat="45.86096" lon="4.81617">
        <ele>324</ele>
        <time>2011-12-18T11:03:36Z</time>
      </trkpt>
      <trkpt lat="45.86098" lon="4.81628">
        <ele>323</ele>
        <time>2011-12-18T11:03:42Z</time>
      </trkpt>
      <trkpt lat="45.86098" lon="4.8163">
        <ele>323</ele>
        <time>2011-12-18T11:03:43Z</time>
      </trkpt>
      <trkpt lat="45.86098" lon="4.81632">
        <ele>323</ele>
        <time>2011-12-18T11:03:44Z</time>
      </trkpt>
      <trkpt lat="45.86099" lon="4.81641">
        <ele>323</ele>
        <time>2011-12-18T11:03:47Z</time>
      </trkpt>
      <trkpt lat="45.86099" lon="4.81643">
        <ele>323</ele>
        <time>2011-12-18T11:03:48Z</time>
      </trkpt>
      <trkpt lat="45.86102" lon="4.81655">
        <ele>323</ele>
        <time>2011-12-18T11:03:53Z</time>
      </trkpt>
      <trkpt lat="45.86102" lon="4.81657">
        <ele>323</ele>
        <time>2011-12-18T11:03:54Z</time>
      </trkpt>
      <trkpt lat="45.86099" lon="4.81664">
        <ele>323</ele>
        <time>2011-12-18T11:03:58Z</time>
      </trkpt>
      <trkpt lat="45.86098" lon="4.81664">
        <ele>323</ele>
        <time>2011-12-18T11:04:00Z</time>
      </trkpt>
      <trkpt lat="45.86097" lon="4.81664">
        <ele>323</ele>
        <time>2011-12-18T11:04:04Z</time>
      </trkpt>
      <trkpt lat="45.86097" lon="4.81665">
        <ele>323</ele>
        <time>2011-12-18T11:04:28Z</time>
      </trkpt>
      <trkpt lat="45.86098" lon="4.8167">
        <ele>323</ele>
        <time>2011-12-18T11:04:30Z</time>
      </trkpt>
      <trkpt lat="45.86098" lon="4.81673">
        <ele>323</ele>
        <time>2011-12-18T11:04:33Z</time>
      </trkpt>
      <trkpt lat="45.861" lon="4.81683">
        <ele>323</ele>
        <time>2011-12-18T11:04:39Z</time>
      </trkpt>
      <trkpt lat="45.86106" lon="4.81695">
        <ele>323</ele>
        <time>2011-12-18T11:04:44Z</time>
      </trkpt>
      <trkpt lat="45.86108" lon="4.81696">
        <ele>323</ele>
        <time>2011-12-18T11:04:45Z</time>
      </trkpt>
      <trkpt lat="45.86111" lon="4.817">
        <ele>323</ele>
        <time>2011-12-18T11:04:47Z</time>
      </trkpt>
      <trkpt lat="45.86114" lon="4.81703">
        <ele>323</ele>
        <time>2011-12-18T11:04:49Z</time>
      </trkpt>
      <trkpt lat="45.8612" lon="4.81708">
        <ele>323</ele>
        <time>2011-12-18T11:04:52Z</time>
      </trkpt>
      <trkpt lat="45.86122" lon="4.8171">
        <ele>323</ele>
        <time>2011-12-18T11:04:53Z</time>
      </trkpt>
      <trkpt lat="45.86125" lon="4.81714">
        <ele>322</ele>
        <time>2011-12-18T11:04:55Z</time>
      </trkpt>
      <trkpt lat="45.86138" lon="4.81722">
        <ele>322</ele>
        <time>2011-12-18T11:05:00Z</time>
      </trkpt>
      <trkpt lat="45.8614" lon="4.81723">
        <ele>321</ele>
        <time>2011-12-18T11:05:01Z</time>
      </trkpt>
      <trkpt lat="45.86148" lon="4.81733">
        <ele>321</ele>
        <time>2011-12-18T11:05:06Z</time>
      </trkpt>
      <trkpt lat="45.8615" lon="4.81735">
        <ele>320</ele>
        <time>2011-12-18T11:05:07Z</time>
      </trkpt>
      <trkpt lat="45.86155" lon="4.81741">
        <ele>319</ele>
        <time>2011-12-18T11:05:10Z</time>
      </trkpt>
      <trkpt lat="45.86158" lon="4.81743">
        <ele>319</ele>
        <time>2011-12-18T11:05:11Z</time>
      </trkpt>
      <trkpt lat="45.86172" lon="4.81758">
        <ele>316</ele>
        <time>2011-12-18T11:05:18Z</time>
      </trkpt>
      <trkpt lat="45.86181" lon="4.81768">
        <ele>315</ele>
        <time>2011-12-18T11:05:23Z</time>
      </trkpt>
      <trkpt lat="45.86188" lon="4.81779">
        <ele>315</ele>
        <time>2011-12-18T11:05:27Z</time>
      </trkpt>
      <trkpt lat="45.86191" lon="4.81784">
        <ele>315</ele>
        <time>2011-12-18T11:05:29Z</time>
      </trkpt>
      <trkpt lat="45.86195" lon="4.81785">
        <ele>315</ele>
        <time>2011-12-18T11:05:33Z</time>
      </trkpt>
      <trkpt lat="45.86197" lon="4.81786">
        <ele>315</ele>
        <time>2011-12-18T11:05:34Z</time>
      </trkpt>
      <trkpt lat="45.862" lon="4.81785">
        <ele>314</ele>
        <time>2011-12-18T11:05:37Z</time>
      </trkpt>
      <trkpt lat="45.86203" lon="4.81791">
        <ele>314</ele>
        <time>2011-12-18T11:05:39Z</time>
      </trkpt>
      <trkpt lat="45.86204" lon="4.81794">
        <ele>314</ele>
        <time>2011-12-18T11:05:40Z</time>
      </trkpt>
      <trkpt lat="45.86213" lon="4.81804">
        <ele>314</ele>
        <time>2011-12-18T11:05:44Z</time>
      </trkpt>
      <trkpt lat="45.86215" lon="4.81807">
        <ele>314</ele>
        <time>2011-12-18T11:05:45Z</time>
      </trkpt>
      <trkpt lat="45.86219" lon="4.81813">
        <ele>313</ele>
        <time>2011-12-18T11:05:47Z</time>
      </trkpt>
      <trkpt lat="45.86222" lon="4.81817">
        <ele>313</ele>
        <time>2011-12-18T11:05:48Z</time>
      </trkpt>
      <trkpt lat="45.86229" lon="4.81829">
        <ele>311</ele>
        <time>2011-12-18T11:05:53Z</time>
      </trkpt>
      <trkpt lat="45.86232" lon="4.81834">
        <ele>315</ele>
        <time>2011-12-18T11:05:55Z</time>
      </trkpt>
      <trkpt lat="45.86235" lon="4.81837">
        <ele>314</ele>
        <time>2011-12-18T11:05:56Z</time>
      </trkpt>
      <trkpt lat="45.86241" lon="4.81842">
        <ele>313</ele>
        <time>2011-12-18T11:05:59Z</time>
      </trkpt>
      <trkpt lat="45.86252" lon="4.81855">
        <ele>305</ele>
        <time>2011-12-18T11:06:05Z</time>
      </trkpt>
      <trkpt lat="45.86255" lon="4.81857">
        <ele>305</ele>
        <time>2011-12-18T11:06:06Z</time>
      </trkpt>
      <trkpt lat="45.86267" lon="4.81871">
        <ele>305</ele>
        <time>2011-12-18T11:06:11Z</time>
      </trkpt>
      <trkpt lat="45.86274" lon="4.81883">
        <ele>305</ele>
        <time>2011-12-18T11:06:15Z</time>
      </trkpt>
      <trkpt lat="45.86277" lon="4.81894">
        <ele>305</ele>
        <time>2011-12-18T11:06:19Z</time>
      </trkpt>
      <trkpt lat="45.86277" lon="4.81898">
        <ele>306</ele>
        <time>2011-12-18T11:06:20Z</time>
      </trkpt>
      <trkpt lat="45.86281" lon="4.81919">
        <ele>310</ele>
        <time>2011-12-18T11:06:26Z</time>
      </trkpt>
      <trkpt lat="45.86287" lon="4.81938">
        <ele>309</ele>
        <time>2011-12-18T11:06:32Z</time>
      </trkpt>
      <trkpt lat="45.86289" lon="4.81943">
        <ele>309</ele>
        <time>2011-12-18T11:06:34Z</time>
      </trkpt>
      <trkpt lat="45.86291" lon="4.81946">
        <ele>309</ele>
        <time>2011-12-18T11:06:37Z</time>
      </trkpt>
      <trkpt lat="45.86292" lon="4.81948">
        <ele>309</ele>
        <time>2011-12-18T11:06:39Z</time>
      </trkpt>
      <trkpt lat="45.86294" lon="4.81951">
        <ele>309</ele>
        <time>2011-12-18T11:06:43Z</time>
      </trkpt>
      <trkpt lat="45.86294" lon="4.81951">
        <ele>309</ele>
        <time>2011-12-18T11:06:44Z</time>
      </trkpt>
      <trkpt lat="45.86295" lon="4.8195">
        <ele>309</ele>
        <time>2011-12-18T11:06:53Z</time>
      </trkpt>
      <trkpt lat="45.86298" lon="4.81955">
        <ele>309</ele>
        <time>2011-12-18T11:07:01Z</time>
      </trkpt>
      <trkpt lat="45.86299" lon="4.81957">
        <ele>309</ele>
        <time>2011-12-18T11:07:02Z</time>
      </trkpt>
      <trkpt lat="45.86302" lon="4.81961">
        <ele>308</ele>
        <time>2011-12-18T11:07:04Z</time>
      </trkpt>
      <trkpt lat="45.86305" lon="4.81965">
        <ele>308</ele>
        <time>2011-12-18T11:07:07Z</time>
      </trkpt>
      <trkpt lat="45.86309" lon="4.81967">
        <ele>308</ele>
        <time>2011-12-18T11:07:09Z</time>
      </trkpt>
      <trkpt lat="45.86316" lon="4.8197">
        <ele>307</ele>
        <time>2011-12-18T11:07:12Z</time>
      </trkpt>
      <trkpt lat="45.86318" lon="4.81971">
        <ele>307</ele>
        <time>2011-12-18T11:07:13Z</time>
      </trkpt>
      <trkpt lat="45.86328" lon="4.81977">
        <ele>307</ele>
        <time>2011-12-18T11:07:17Z</time>
      </trkpt>
      <trkpt lat="45.86329" lon="4.81978">
        <ele>306</ele>
        <time>2011-12-18T11:07:18Z</time>
      </trkpt>
      <trkpt lat="45.86335" lon="4.81981">
        <ele>299</ele>
        <time>2011-12-18T11:07:21Z</time>
      </trkpt>
      <trkpt lat="45.86337" lon="4.81982">
        <ele>299</ele>
        <time>2011-12-18T11:07:22Z</time>
      </trkpt>
      <trkpt lat="45.86346" lon="4.81988">
        <ele>299</ele>
        <time>2011-12-18T11:07:26Z</time>
      </trkpt>
      <trkpt lat="45.86353" lon="4.81994">
        <ele>298</ele>
        <time>2011-12-18T11:07:29Z</time>
      </trkpt>
      <trkpt lat="45.86358" lon="4.81997">
        <ele>298</ele>
        <time>2011-12-18T11:07:31Z</time>
      </trkpt>
      <trkpt lat="45.8636" lon="4.82006">
        <ele>303</ele>
        <time>2011-12-18T11:07:35Z</time>
      </trkpt>
      <trkpt lat="45.86362" lon="4.82017">
        <ele>303</ele>
        <time>2011-12-18T11:07:40Z</time>
      </trkpt>
      <trkpt lat="45.8636" lon="4.82024">
        <ele>304</ele>
        <time>2011-12-18T11:07:43Z</time>
      </trkpt>
      <trkpt lat="45.86359" lon="4.82027">
        <ele>304</ele>
        <time>2011-12-18T11:07:45Z</time>
      </trkpt>
      <trkpt lat="45.86356" lon="4.82036">
        <ele>305</ele>
        <time>2011-12-18T11:07:50Z</time>
      </trkpt>
      <trkpt lat="45.86356" lon="4.82043">
        <ele>305</ele>
        <time>2011-12-18T11:07:53Z</time>
      </trkpt>
      <trkpt lat="45.86355" lon="4.82047">
        <ele>306</ele>
        <time>2011-12-18T11:07:55Z</time>
      </trkpt>
      <trkpt lat="45.86354" lon="4.8205">
        <ele>306</ele>
        <time>2011-12-18T11:07:56Z</time>
      </trkpt>
      <trkpt lat="45.86352" lon="4.82062">
        <ele>308</ele>
        <time>2011-12-18T11:08:00Z</time>
      </trkpt>
      <trkpt lat="45.86349" lon="4.82068">
        <ele>310</ele>
        <time>2011-12-18T11:08:05Z</time>
      </trkpt>
      <trkpt lat="45.86345" lon="4.82076">
        <ele>312</ele>
        <time>2011-12-18T11:08:11Z</time>
      </trkpt>
      <trkpt lat="45.86344" lon="4.82081">
        <ele>313</ele>
        <time>2011-12-18T11:08:16Z</time>
      </trkpt>
      <trkpt lat="45.86344" lon="4.82085">
        <ele>316</ele>
        <time>2011-12-18T11:08:18Z</time>
      </trkpt>
      <trkpt lat="45.86343" lon="4.82088">
        <ele>316</ele>
        <time>2011-12-18T11:08:22Z</time>
      </trkpt>
      <trkpt lat="45.86342" lon="4.82091">
        <ele>316</ele>
        <time>2011-12-18T11:08:24Z</time>
      </trkpt>
      <trkpt lat="45.86342" lon="4.82092">
        <ele>315</ele>
        <time>2011-12-18T11:08:25Z</time>
      </trkpt>
      <trkpt lat="45.86342" lon="4.82095">
        <ele>315</ele>
        <time>2011-12-18T11:08:27Z</time>
      </trkpt>
      <trkpt lat="45.86342" lon="4.82097">
        <ele>315</ele>
        <time>2011-12-18T11:08:29Z</time>
      </trkpt>
      <trkpt lat="45.86342" lon="4.82102">
        <ele>315</ele>
        <time>2011-12-18T11:08:33Z</time>
      </trkpt>
      <trkpt lat="45.86342" lon="4.82104">
        <ele>315</ele>
        <time>2011-12-18T11:08:35Z</time>
      </trkpt>
      <trkpt lat="45.86342" lon="4.82105">
        <ele>314</ele>
        <time>2011-12-18T11:08:36Z</time>
      </trkpt>
      <trkpt lat="45.86339" lon="4.82111">
        <ele>314</ele>
        <time>2011-12-18T11:08:41Z</time>
      </trkpt>
      <trkpt lat="45.86337" lon="4.82114">
        <ele>315</ele>
        <time>2011-12-18T11:08:44Z</time>
      </trkpt>
      <trkpt lat="45.86336" lon="4.82115">
        <ele>315</ele>
        <time>2011-12-18T11:08:45Z</time>
      </trkpt>
      <trkpt lat="45.86335" lon="4.82117">
        <ele>315</ele>
        <time>2011-12-18T11:08:47Z</time>
      </trkpt>
      <trkpt lat="45.86334" lon="4.82119">
        <ele>315</ele>
        <time>2011-12-18T11:08:48Z</time>
      </trkpt>
      <trkpt lat="45.86332" lon="4.82122">
        <ele>326</ele>
        <time>2011-12-18T11:08:52Z</time>
      </trkpt>
      <trkpt lat="45.8633" lon="4.82123">
        <ele>327</ele>
        <time>2011-12-18T11:08:53Z</time>
      </trkpt>
      <trkpt lat="45.86327" lon="4.82125">
        <ele>327</ele>
        <time>2011-12-18T11:08:57Z</time>
      </trkpt>
      <trkpt lat="45.86327" lon="4.82126">
        <ele>327</ele>
        <time>2011-12-18T11:08:58Z</time>
      </trkpt>
      <trkpt lat="45.86325" lon="4.82133">
        <ele>327</ele>
        <time>2011-12-18T11:09:06Z</time>
      </trkpt>
      <trkpt lat="45.8633" lon="4.82142">
        <ele>327</ele>
        <time>2011-12-18T11:09:37Z</time>
      </trkpt>
      <trkpt lat="45.8633" lon="4.82143">
        <ele>327</ele>
        <time>2011-12-18T11:09:41Z</time>
      </trkpt>
      <trkpt lat="45.86335" lon="4.82143">
        <ele>317</ele>
        <time>2011-12-18T11:09:46Z</time>
      </trkpt>
      <trkpt lat="45.86336" lon="4.82145">
        <ele>317</ele>
        <time>2011-12-18T11:09:49Z</time>
      </trkpt>
      <trkpt lat="45.86336" lon="4.82146">
        <ele>317</ele>
        <time>2011-12-18T11:09:51Z</time>
      </trkpt>
      <trkpt lat="45.86341" lon="4.8215">
        <ele>318</ele>
        <time>2011-12-18T11:10:04Z</time>
      </trkpt>
      <trkpt lat="45.86341" lon="4.82163">
        <ele>320</ele>
        <time>2011-12-18T11:10:11Z</time>
      </trkpt>
      <trkpt lat="45.86341" lon="4.82166">
        <ele>321</ele>
        <time>2011-12-18T11:10:13Z</time>
      </trkpt>
      <trkpt lat="45.86345" lon="4.82177">
        <ele>319</ele>
        <time>2011-12-18T11:10:20Z</time>
      </trkpt>
      <trkpt lat="45.8635" lon="4.82185">
        <ele>317</ele>
        <time>2011-12-18T11:10:27Z</time>
      </trkpt>
      <trkpt lat="45.86355" lon="4.82189">
        <ele>317</ele>
        <time>2011-12-18T11:10:31Z</time>
      </trkpt>
      <trkpt lat="45.86357" lon="4.82189">
        <ele>316</ele>
        <time>2011-12-18T11:10:33Z</time>
      </trkpt>
      <trkpt lat="45.8636" lon="4.8219">
        <ele>316</ele>
        <time>2011-12-18T11:10:35Z</time>
      </trkpt>
      <trkpt lat="45.86363" lon="4.82193">
        <ele>315</ele>
        <time>2011-12-18T11:10:38Z</time>
      </trkpt>
      <trkpt lat="45.86364" lon="4.82195">
        <ele>315</ele>
        <time>2011-12-18T11:10:39Z</time>
      </trkpt>
      <trkpt lat="45.86364" lon="4.822">
        <ele>315</ele>
        <time>2011-12-18T11:10:42Z</time>
      </trkpt>
      <trkpt lat="45.86364" lon="4.82202">
        <ele>315</ele>
        <time>2011-12-18T11:10:43Z</time>
      </trkpt>
      <trkpt lat="45.86363" lon="4.82211">
        <ele>315</ele>
        <time>2011-12-18T11:10:49Z</time>
      </trkpt>
      <trkpt lat="45.86363" lon="4.82223">
        <ele>315</ele>
        <time>2011-12-18T11:10:55Z</time>
      </trkpt>
      <trkpt lat="45.86366" lon="4.82227">
        <ele>315</ele>
        <time>2011-12-18T11:10:58Z</time>
      </trkpt>
      <trkpt lat="45.86369" lon="4.82232">
        <ele>315</ele>
        <time>2011-12-18T11:11:02Z</time>
      </trkpt>
      <trkpt lat="45.86377" lon="4.8224">
        <ele>314</ele>
        <time>2011-12-18T11:11:09Z</time>
      </trkpt>
      <trkpt lat="45.86381" lon="4.82243">
        <ele>313</ele>
        <time>2011-12-18T11:11:12Z</time>
      </trkpt>
      <trkpt lat="45.86386" lon="4.82248">
        <ele>312</ele>
        <time>2011-12-18T11:11:16Z</time>
      </trkpt>
      <trkpt lat="45.86395" lon="4.82253">
        <ele>313</ele>
        <time>2011-12-18T11:11:24Z</time>
      </trkpt>
      <trkpt lat="45.86397" lon="4.82255">
        <ele>313</ele>
        <time>2011-12-18T11:11:26Z</time>
      </trkpt>
      <trkpt lat="45.86405" lon="4.82263">
        <ele>312</ele>
        <time>2011-12-18T11:11:32Z</time>
      </trkpt>
      <trkpt lat="45.86415" lon="4.82272">
        <ele>313</ele>
        <time>2011-12-18T11:11:37Z</time>
      </trkpt>
      <trkpt lat="45.86417" lon="4.82274">
        <ele>303</ele>
        <time>2011-12-18T11:11:38Z</time>
      </trkpt>
      <trkpt lat="45.86428" lon="4.82289">
        <ele>302</ele>
        <time>2011-12-18T11:11:44Z</time>
      </trkpt>
      <trkpt lat="45.8643" lon="4.82292">
        <ele>302</ele>
        <time>2011-12-18T11:11:45Z</time>
      </trkpt>
      <trkpt lat="45.86437" lon="4.82303">
        <ele>302</ele>
        <time>2011-12-18T11:11:49Z</time>
      </trkpt>
      <trkpt lat="45.86442" lon="4.82314">
        <ele>302</ele>
        <time>2011-12-18T11:11:53Z</time>
      </trkpt>
      <trkpt lat="45.86443" lon="4.82317">
        <ele>302</ele>
        <time>2011-12-18T11:11:55Z</time>
      </trkpt>
      <trkpt lat="45.8644" lon="4.82327">
        <ele>304</ele>
        <time>2011-12-18T11:12:02Z</time>
      </trkpt>
      <trkpt lat="45.8644" lon="4.82328">
        <ele>304</ele>
        <time>2011-12-18T11:12:04Z</time>
      </trkpt>
      <trkpt lat="45.86442" lon="4.82329">
        <ele>303</ele>
        <time>2011-12-18T11:12:06Z</time>
      </trkpt>
      <trkpt lat="45.86442" lon="4.8233">
        <ele>303</ele>
        <time>2011-12-18T11:12:13Z</time>
      </trkpt>
      <trkpt lat="45.86441" lon="4.82331">
        <ele>304</ele>
        <time>2011-12-18T11:12:14Z</time>
      </trkpt>
      <trkpt lat="45.86437" lon="4.82333">
        <ele>305</ele>
        <time>2011-12-18T11:12:18Z</time>
      </trkpt>
      <trkpt lat="45.86437" lon="4.82336">
        <ele>305</ele>
        <time>2011-12-18T11:12:20Z</time>
      </trkpt>
      <trkpt lat="45.86433" lon="4.82343">
        <ele>305</ele>
        <time>2011-12-18T11:12:26Z</time>
      </trkpt>
      <trkpt lat="45.86433" lon="4.82344">
        <ele>305</ele>
        <time>2011-12-18T11:12:27Z</time>
      </trkpt>
      <trkpt lat="45.86434" lon="4.82347">
        <ele>305</ele>
        <time>2011-12-18T11:12:30Z</time>
      </trkpt>
      <trkpt lat="45.86435" lon="4.82347">
        <ele>304</ele>
        <time>2011-12-18T11:12:32Z</time>
      </trkpt>
      <trkpt lat="45.86436" lon="4.82352">
        <ele>304</ele>
        <time>2011-12-18T11:12:36Z</time>
      </trkpt>
      <trkpt lat="45.86434" lon="4.82358">
        <ele>303</ele>
        <time>2011-12-18T11:12:40Z</time>
      </trkpt>
      <trkpt lat="45.86434" lon="4.82361">
        <ele>303</ele>
        <time>2011-12-18T11:12:42Z</time>
      </trkpt>
      <trkpt lat="45.86434" lon="4.82363">
        <ele>303</ele>
        <time>2011-12-18T11:12:43Z</time>
      </trkpt>
      <trkpt lat="45.86433" lon="4.82367">
        <ele>303</ele>
        <time>2011-12-18T11:12:46Z</time>
      </trkpt>
      <trkpt lat="45.86431" lon="4.82375">
        <ele>303</ele>
        <time>2011-12-18T11:12:51Z</time>
      </trkpt>
      <trkpt lat="45.86429" lon="4.82376">
        <ele>303</ele>
        <time>2011-12-18T11:12:52Z</time>
      </trkpt>
      <trkpt lat="45.86429" lon="4.82377">
        <ele>303</ele>
        <time>2011-12-18T11:12:53Z</time>
      </trkpt>
      <trkpt lat="45.8643" lon="4.82381">
        <ele>303</ele>
        <time>2011-12-18T11:12:56Z</time>
      </trkpt>
      <trkpt lat="45.86426" lon="4.82388">
        <ele>304</ele>
        <time>2011-12-18T11:13:00Z</time>
      </trkpt>
      <trkpt lat="45.86424" lon="4.82389">
        <ele>304</ele>
        <time>2011-12-18T11:13:02Z</time>
      </trkpt>
      <trkpt lat="45.86422" lon="4.82395">
        <ele>305</ele>
        <time>2011-12-18T11:13:06Z</time>
      </trkpt>
      <trkpt lat="45.86422" lon="4.82398">
        <ele>305</ele>
        <time>2011-12-18T11:13:07Z</time>
      </trkpt>
      <trkpt lat="45.86421" lon="4.82401">
        <ele>306</ele>
        <time>2011-12-18T11:13:09Z</time>
      </trkpt>
      <trkpt lat="45.86422" lon="4.82403">
        <ele>306</ele>
        <time>2011-12-18T11:13:11Z</time>
      </trkpt>
      <trkpt lat="45.86422" lon="4.82404">
        <ele>306</ele>
        <time>2011-12-18T11:13:12Z</time>
      </trkpt>
      <trkpt lat="45.86426" lon="4.82409">
        <ele>307</ele>
        <time>2011-12-18T11:13:16Z</time>
      </trkpt>
      <trkpt lat="45.86427" lon="4.82414">
        <ele>307</ele>
        <time>2011-12-18T11:13:19Z</time>
      </trkpt>
      <trkpt lat="45.86425" lon="4.8242">
        <ele>305</ele>
        <time>2011-12-18T11:13:23Z</time>
      </trkpt>
      <trkpt lat="45.86424" lon="4.82422">
        <ele>305</ele>
        <time>2011-12-18T11:13:24Z</time>
      </trkpt>
      <trkpt lat="45.86423" lon="4.82423">
        <ele>305</ele>
        <time>2011-12-18T11:13:25Z</time>
      </trkpt>
      <trkpt lat="45.8642" lon="4.82428">
        <ele>304</ele>
        <time>2011-12-18T11:13:29Z</time>
      </trkpt>
      <trkpt lat="45.86415" lon="4.82431">
        <ele>313</ele>
        <time>2011-12-18T11:13:34Z</time>
      </trkpt>
      <trkpt lat="45.86413" lon="4.82431">
        <ele>313</ele>
        <time>2011-12-18T11:13:36Z</time>
      </trkpt>
      <trkpt lat="45.8641" lon="4.82436">
        <ele>313</ele>
        <time>2011-12-18T11:13:41Z</time>
      </trkpt>
      <trkpt lat="45.86409" lon="4.82437">
        <ele>313</ele>
        <time>2011-12-18T11:13:44Z</time>
      </trkpt>
      <trkpt lat="45.86409" lon="4.82438">
        <ele>313</ele>
        <time>2011-12-18T11:13:46Z</time>
      </trkpt>
      <trkpt lat="45.86408" lon="4.8244">
        <ele>313</ele>
        <time>2011-12-18T11:13:47Z</time>
      </trkpt>
      <trkpt lat="45.86405" lon="4.82443">
        <ele>313</ele>
        <time>2011-12-18T11:13:51Z</time>
      </trkpt>
      <trkpt lat="45.86403" lon="4.82444">
        <ele>313</ele>
        <time>2011-12-18T11:13:54Z</time>
      </trkpt>
      <trkpt lat="45.86403" lon="4.82445">
        <ele>313</ele>
        <time>2011-12-18T11:13:55Z</time>
      </trkpt>
      <trkpt lat="45.86401" lon="4.82446">
        <ele>313</ele>
        <time>2011-12-18T11:13:57Z</time>
      </trkpt>
      <trkpt lat="45.86399" lon="4.8245">
        <ele>313</ele>
        <time>2011-12-18T11:14:03Z</time>
      </trkpt>
      <trkpt lat="45.86399" lon="4.82453">
        <ele>313</ele>
        <time>2011-12-18T11:14:07Z</time>
      </trkpt>
      <trkpt lat="45.864" lon="4.82455">
        <ele>313</ele>
        <time>2011-12-18T11:14:08Z</time>
      </trkpt>
      <trkpt lat="45.86401" lon="4.82457">
        <ele>312</ele>
        <time>2011-12-18T11:14:10Z</time>
      </trkpt>
      <trkpt lat="45.86401" lon="4.82462">
        <ele>312</ele>
        <time>2011-12-18T11:14:13Z</time>
      </trkpt>
      <trkpt lat="45.86401" lon="4.82463">
        <ele>312</ele>
        <time>2011-12-18T11:14:14Z</time>
      </trkpt>
      <trkpt lat="45.864" lon="4.82465">
        <ele>312</ele>
        <time>2011-12-18T11:14:16Z</time>
      </trkpt>
      <trkpt lat="45.86399" lon="4.82468">
        <ele>311</ele>
        <time>2011-12-18T11:14:18Z</time>
      </trkpt>
      <trkpt lat="45.864" lon="4.8247">
        <ele>311</ele>
        <time>2011-12-18T11:14:19Z</time>
      </trkpt>
      <trkpt lat="45.864" lon="4.82472">
        <ele>310</ele>
        <time>2011-12-18T11:14:20Z</time>
      </trkpt>
      <trkpt lat="45.864" lon="4.82475">
        <ele>310</ele>
        <time>2011-12-18T11:14:22Z</time>
      </trkpt>
      <trkpt lat="45.86397" lon="4.82477">
        <ele>310</ele>
        <time>2011-12-18T11:14:25Z</time>
      </trkpt>
      <trkpt lat="45.86395" lon="4.82477">
        <ele>310</ele>
        <time>2011-12-18T11:14:28Z</time>
      </trkpt>
      <trkpt lat="45.86394" lon="4.82478">
        <ele>311</ele>
        <time>2011-12-18T11:14:29Z</time>
      </trkpt>
      <trkpt lat="45.86393" lon="4.82479">
        <ele>311</ele>
        <time>2011-12-18T11:14:30Z</time>
      </trkpt>
      <trkpt lat="45.8639" lon="4.82481">
        <ele>311</ele>
        <time>2011-12-18T11:14:32Z</time>
      </trkpt>
      <trkpt lat="45.86387" lon="4.82483">
        <ele>311</ele>
        <time>2011-12-18T11:14:34Z</time>
      </trkpt>
      <trkpt lat="45.86379" lon="4.82489">
        <ele>313</ele>
        <time>2011-12-18T11:14:40Z</time>
      </trkpt>
      <trkpt lat="45.86374" lon="4.82489">
        <ele>314</ele>
        <time>2011-12-18T11:14:43Z</time>
      </trkpt>
      <trkpt lat="45.86371" lon="4.8249">
        <ele>314</ele>
        <time>2011-12-18T11:14:45Z</time>
      </trkpt>
      <trkpt lat="45.86365" lon="4.82495">
        <ele>315</ele>
        <time>2011-12-18T11:14:52Z</time>
      </trkpt>
      <trkpt lat="45.86362" lon="4.825">
        <ele>306</ele>
        <time>2011-12-18T11:14:55Z</time>
      </trkpt>
      <trkpt lat="45.86357" lon="4.82507">
        <ele>307</ele>
        <time>2011-12-18T11:15:00Z</time>
      </trkpt>
      <trkpt lat="45.86354" lon="4.82509">
        <ele>308</ele>
        <time>2011-12-18T11:15:05Z</time>
      </trkpt>
      <trkpt lat="45.86353" lon="4.8251">
        <ele>308</ele>
        <time>2011-12-18T11:15:06Z</time>
      </trkpt>
      <trkpt lat="45.86346" lon="4.8252">
        <ele>307</ele>
        <time>2011-12-18T11:15:12Z</time>
      </trkpt>
      <trkpt lat="45.86343" lon="4.82522">
        <ele>307</ele>
        <time>2011-12-18T11:15:16Z</time>
      </trkpt>
      <trkpt lat="45.8634" lon="4.82523">
        <ele>307</ele>
        <time>2011-12-18T11:15:19Z</time>
      </trkpt>
      <trkpt lat="45.86333" lon="4.82526">
        <ele>307</ele>
        <time>2011-12-18T11:15:25Z</time>
      </trkpt>
      <trkpt lat="45.8633" lon="4.82532">
        <ele>318</ele>
        <time>2011-12-18T11:15:30Z</time>
      </trkpt>
      <trkpt lat="45.86327" lon="4.82536">
        <ele>317</ele>
        <time>2011-12-18T11:15:32Z</time>
      </trkpt>
      <trkpt lat="45.86324" lon="4.82537">
        <ele>317</ele>
        <time>2011-12-18T11:15:35Z</time>
      </trkpt>
      <trkpt lat="45.86322" lon="4.82541">
        <ele>317</ele>
        <time>2011-12-18T11:15:38Z</time>
      </trkpt>
      <trkpt lat="45.86321" lon="4.82541">
        <ele>317</ele>
        <time>2011-12-18T11:15:39Z</time>
      </trkpt>
      <trkpt lat="45.86317" lon="4.82542">
        <ele>317</ele>
        <time>2011-12-18T11:15:43Z</time>
      </trkpt>
      <trkpt lat="45.86316" lon="4.82542">
        <ele>317</ele>
        <time>2011-12-18T11:15:44Z</time>
      </trkpt>
      <trkpt lat="45.86312" lon="4.82542">
        <ele>317</ele>
        <time>2011-12-18T11:15:46Z</time>
      </trkpt>
      <trkpt lat="45.86311" lon="4.82543">
        <ele>317</ele>
        <time>2011-12-18T11:15:48Z</time>
      </trkpt>
      <trkpt lat="45.86308" lon="4.82552">
        <ele>316</ele>
        <time>2011-12-18T11:15:55Z</time>
      </trkpt>
      <trkpt lat="45.86307" lon="4.82554">
        <ele>316</ele>
        <time>2011-12-18T11:15:56Z</time>
      </trkpt>
      <trkpt lat="45.86301" lon="4.82557">
        <ele>316</ele>
        <time>2011-12-18T11:16:00Z</time>
      </trkpt>
      <trkpt lat="45.86299" lon="4.8256">
        <ele>316</ele>
        <time>2011-12-18T11:16:02Z</time>
      </trkpt>
      <trkpt lat="45.86294" lon="4.82563">
        <ele>316</ele>
        <time>2011-12-18T11:16:07Z</time>
      </trkpt>
      <trkpt lat="45.86286" lon="4.82567">
        <ele>317</ele>
        <time>2011-12-18T11:16:14Z</time>
      </trkpt>
      <trkpt lat="45.86284" lon="4.82567">
        <ele>317</ele>
        <time>2011-12-18T11:16:15Z</time>
      </trkpt>
      <trkpt lat="45.86281" lon="4.82567">
        <ele>317</ele>
        <time>2011-12-18T11:16:16Z</time>
      </trkpt>
      <trkpt lat="45.86278" lon="4.82567">
        <ele>317</ele>
        <time>2011-12-18T11:16:18Z</time>
      </trkpt>
      <trkpt lat="45.86274" lon="4.82568">
        <ele>317</ele>
        <time>2011-12-18T11:16:20Z</time>
      </trkpt>
      <trkpt lat="45.8627" lon="4.8257">
        <ele>317</ele>
        <time>2011-12-18T11:16:24Z</time>
      </trkpt>
      <trkpt lat="45.86268" lon="4.82571">
        <ele>317</ele>
        <time>2011-12-18T11:16:26Z</time>
      </trkpt>
      <trkpt lat="45.86266" lon="4.82571">
        <ele>318</ele>
        <time>2011-12-18T11:16:27Z</time>
      </trkpt>
      <trkpt lat="45.86263" lon="4.82573">
        <ele>317</ele>
        <time>2011-12-18T11:16:30Z</time>
      </trkpt>
      <trkpt lat="45.8626" lon="4.82576">
        <ele>317</ele>
        <time>2011-12-18T11:16:32Z</time>
      </trkpt>
      <trkpt lat="45.86255" lon="4.82579">
        <ele>317</ele>
        <time>2011-12-18T11:16:39Z</time>
      </trkpt>
      <trkpt lat="45.86252" lon="4.82576">
        <ele>317</ele>
        <time>2011-12-18T11:16:41Z</time>
      </trkpt>
      <trkpt lat="45.86249" lon="4.82575">
        <ele>320</ele>
        <time>2011-12-18T11:16:44Z</time>
      </trkpt>
      <trkpt lat="45.86246" lon="4.82575">
        <ele>321</ele>
        <time>2011-12-18T11:16:46Z</time>
      </trkpt>
      <trkpt lat="45.86245" lon="4.82575">
        <ele>321</ele>
        <time>2011-12-18T11:16:47Z</time>
      </trkpt>
      <trkpt lat="45.86241" lon="4.82575">
        <ele>322</ele>
        <time>2011-12-18T11:16:50Z</time>
      </trkpt>
      <trkpt lat="45.8624" lon="4.82575">
        <ele>323</ele>
        <time>2011-12-18T11:16:51Z</time>
      </trkpt>
      <trkpt lat="45.86236" lon="4.82575">
        <ele>324</ele>
        <time>2011-12-18T11:16:55Z</time>
      </trkpt>
      <trkpt lat="45.86233" lon="4.82576">
        <ele>324</ele>
        <time>2011-12-18T11:16:59Z</time>
      </trkpt>
      <trkpt lat="45.86232" lon="4.82574">
        <ele>325</ele>
        <time>2011-12-18T11:17:02Z</time>
      </trkpt>
      <trkpt lat="45.86228" lon="4.82575">
        <ele>325</ele>
        <time>2011-12-18T11:17:10Z</time>
      </trkpt>
      <trkpt lat="45.86227" lon="4.82575">
        <ele>326</ele>
        <time>2011-12-18T11:17:17Z</time>
      </trkpt>
      <trkpt lat="45.86223" lon="4.82576">
        <ele>326</ele>
        <time>2011-12-18T11:17:21Z</time>
      </trkpt>
      <trkpt lat="45.86217" lon="4.82581">
        <ele>327</ele>
        <time>2011-12-18T11:17:29Z</time>
      </trkpt>
      <trkpt lat="45.86212" lon="4.82587">
        <ele>313</ele>
        <time>2011-12-18T11:17:35Z</time>
      </trkpt>
      <trkpt lat="45.86209" lon="4.82587">
        <ele>313</ele>
        <time>2011-12-18T11:17:37Z</time>
      </trkpt>
      <trkpt lat="45.86205" lon="4.82591">
        <ele>313</ele>
        <time>2011-12-18T11:17:42Z</time>
      </trkpt>
      <trkpt lat="45.86201" lon="4.82595">
        <ele>313</ele>
        <time>2011-12-18T11:17:47Z</time>
      </trkpt>
      <trkpt lat="45.862" lon="4.82596">
        <ele>313</ele>
        <time>2011-12-18T11:17:48Z</time>
      </trkpt>
      <trkpt lat="45.86198" lon="4.82597">
        <ele>313</ele>
        <time>2011-12-18T11:17:49Z</time>
      </trkpt>
      <trkpt lat="45.86196" lon="4.82598">
        <ele>313</ele>
        <time>2011-12-18T11:17:51Z</time>
      </trkpt>
      <trkpt lat="45.86193" lon="4.826">
        <ele>313</ele>
        <time>2011-12-18T11:17:54Z</time>
      </trkpt>
      <trkpt lat="45.86188" lon="4.82605">
        <ele>313</ele>
        <time>2011-12-18T11:17:58Z</time>
      </trkpt>
      <trkpt lat="45.86186" lon="4.82608">
        <ele>313</ele>
        <time>2011-12-18T11:18:01Z</time>
      </trkpt>
      <trkpt lat="45.8618" lon="4.82614">
        <ele>312</ele>
        <time>2011-12-18T11:18:08Z</time>
      </trkpt>
      <trkpt lat="45.86172" lon="4.82619">
        <ele>311</ele>
        <time>2011-12-18T11:18:15Z</time>
      </trkpt>
      <trkpt lat="45.86164" lon="4.82623">
        <ele>316</ele>
        <time>2011-12-18T11:18:21Z</time>
      </trkpt>
      <trkpt lat="45.86163" lon="4.82624">
        <ele>316</ele>
        <time>2011-12-18T11:18:22Z</time>
      </trkpt>
      <trkpt lat="45.86153" lon="4.82634">
        <ele>314</ele>
        <time>2011-12-18T11:18:28Z</time>
      </trkpt>
      <trkpt lat="45.86146" lon="4.82638">
        <ele>314</ele>
        <time>2011-12-18T11:18:31Z</time>
      </trkpt>
      <trkpt lat="45.86141" lon="4.82643">
        <ele>314</ele>
        <time>2011-12-18T11:18:33Z</time>
      </trkpt>
      <trkpt lat="45.86127" lon="4.82652">
        <ele>313</ele>
        <time>2011-12-18T11:18:38Z</time>
      </trkpt>
      <trkpt lat="45.86122" lon="4.82655">
        <ele>313</ele>
        <time>2011-12-18T11:18:40Z</time>
      </trkpt>
      <trkpt lat="45.8611" lon="4.8266">
        <ele>313</ele>
        <time>2011-12-18T11:18:45Z</time>
      </trkpt>
      <trkpt lat="45.86097" lon="4.82668">
        <ele>301</ele>
        <time>2011-12-18T11:18:50Z</time>
      </trkpt>
      <trkpt lat="45.86093" lon="4.82671">
        <ele>302</ele>
        <time>2011-12-18T11:18:52Z</time>
      </trkpt>
      <trkpt lat="45.86084" lon="4.82679">
        <ele>301</ele>
        <time>2011-12-18T11:18:56Z</time>
      </trkpt>
      <trkpt lat="45.86077" lon="4.8269">
        <ele>302</ele>
        <time>2011-12-18T11:18:59Z</time>
      </trkpt>
      <trkpt lat="45.8607" lon="4.82696">
        <ele>301</ele>
        <time>2011-12-18T11:19:02Z</time>
      </trkpt>
      <trkpt lat="45.86059" lon="4.82698">
        <ele>301</ele>
        <time>2011-12-18T11:19:07Z</time>
      </trkpt>
      <trkpt lat="45.86057" lon="4.82697">
        <ele>301</ele>
        <time>2011-12-18T11:19:08Z</time>
      </trkpt>
      <trkpt lat="45.86046" lon="4.82692">
        <ele>302</ele>
        <time>2011-12-18T11:19:14Z</time>
      </trkpt>
      <trkpt lat="45.86041" lon="4.8269">
        <ele>303</ele>
        <time>2011-12-18T11:19:17Z</time>
      </trkpt>
      <trkpt lat="45.86033" lon="4.82687">
        <ele>304</ele>
        <time>2011-12-18T11:19:22Z</time>
      </trkpt>
      <trkpt lat="45.86027" lon="4.82686">
        <ele>305</ele>
        <time>2011-12-18T11:19:28Z</time>
      </trkpt>
      <trkpt lat="45.86027" lon="4.82685">
        <ele>305</ele>
        <time>2011-12-18T11:19:29Z</time>
      </trkpt>
      <trkpt lat="45.86024" lon="4.82684">
        <ele>306</ele>
        <time>2011-12-18T11:19:32Z</time>
      </trkpt>
      <trkpt lat="45.86023" lon="4.82684">
        <ele>306</ele>
        <time>2011-12-18T11:19:33Z</time>
      </trkpt>
      <trkpt lat="45.86022" lon="4.82683">
        <ele>306</ele>
        <time>2011-12-18T11:19:35Z</time>
      </trkpt>
      <trkpt lat="45.86018" lon="4.82685">
        <ele>307</ele>
        <time>2011-12-18T11:19:40Z</time>
      </trkpt>
      <trkpt lat="45.86016" lon="4.82686">
        <ele>307</ele>
        <time>2011-12-18T11:19:42Z</time>
      </trkpt>
      <trkpt lat="45.8601" lon="4.82683">
        <ele>308</ele>
        <time>2011-12-18T11:19:48Z</time>
      </trkpt>
      <trkpt lat="45.86007" lon="4.82682">
        <ele>310</ele>
        <time>2011-12-18T11:19:53Z</time>
      </trkpt>
      <trkpt lat="45.86005" lon="4.82679">
        <ele>311</ele>
        <time>2011-12-18T11:19:55Z</time>
      </trkpt>
      <trkpt lat="45.86004" lon="4.82679">
        <ele>311</ele>
        <time>2011-12-18T11:19:56Z</time>
      </trkpt>
      <trkpt lat="45.86003" lon="4.82679">
        <ele>311</ele>
        <time>2011-12-18T11:19:57Z</time>
      </trkpt>
      <trkpt lat="45.85998" lon="4.82678">
        <ele>314</ele>
        <time>2011-12-18T11:20:02Z</time>
      </trkpt>
      <trkpt lat="45.85995" lon="4.82676">
        <ele>314</ele>
        <time>2011-12-18T11:20:07Z</time>
      </trkpt>
      <trkpt lat="45.85994" lon="4.82676">
        <ele>314</ele>
        <time>2011-12-18T11:20:09Z</time>
      </trkpt>
      <trkpt lat="45.8599" lon="4.82674">
        <ele>314</ele>
        <time>2011-12-18T11:20:14Z</time>
      </trkpt>
      <trkpt lat="45.85987" lon="4.82672">
        <ele>313</ele>
        <time>2011-12-18T11:20:17Z</time>
      </trkpt>
      <trkpt lat="45.85983" lon="4.82671">
        <ele>312</ele>
        <time>2011-12-18T11:20:23Z</time>
      </trkpt>
      <trkpt lat="45.85978" lon="4.8267">
        <ele>311</ele>
        <time>2011-12-18T11:20:28Z</time>
      </trkpt>
      <trkpt lat="45.85977" lon="4.82671">
        <ele>311</ele>
        <time>2011-12-18T11:20:29Z</time>
      </trkpt>
      <trkpt lat="45.85975" lon="4.82673">
        <ele>311</ele>
        <time>2011-12-18T11:20:35Z</time>
      </trkpt>
      <trkpt lat="45.85972" lon="4.82676">
        <ele>310</ele>
        <time>2011-12-18T11:20:42Z</time>
      </trkpt>
      <trkpt lat="45.85973" lon="4.82677">
        <ele>310</ele>
        <time>2011-12-18T11:20:50Z</time>
      </trkpt>
      <trkpt lat="45.85973" lon="4.82677">
        <ele>310</ele>
        <time>2011-12-18T11:20:52Z</time>
      </trkpt>
      <trkpt lat="45.85977" lon="4.82679">
        <ele>310</ele>
        <time>2011-12-18T11:21:00Z</time>
      </trkpt>
      <trkpt lat="45.85973" lon="4.82679">
        <ele>310</ele>
        <time>2011-12-18T11:21:12Z</time>
      </trkpt>
      <trkpt lat="45.8597" lon="4.82681">
        <ele>310</ele>
        <time>2011-12-18T11:21:18Z</time>
      </trkpt>
      <trkpt lat="45.85967" lon="4.82682">
        <ele>309</ele>
        <time>2011-12-18T11:21:24Z</time>
      </trkpt>
      <trkpt lat="45.85962" lon="4.82684">
        <ele>309</ele>
        <time>2011-12-18T11:21:30Z</time>
      </trkpt>
      <trkpt lat="45.85956" lon="4.82686">
        <ele>309</ele>
        <time>2011-12-18T11:21:36Z</time>
      </trkpt>
      <trkpt lat="45.85952" lon="4.82685">
        <ele>309</ele>
        <time>2011-12-18T11:21:42Z</time>
      </trkpt>
      <trkpt lat="45.85945" lon="4.82681">
        <ele>310</ele>
        <time>2011-12-18T11:22:00Z</time>
      </trkpt>
      <trkpt lat="45.85942" lon="4.82682">
        <ele>310</ele>
        <time>2011-12-18T11:22:05Z</time>
      </trkpt>
      <trkpt lat="45.8594" lon="4.82685">
        <ele>310</ele>
        <time>2011-12-18T11:22:10Z</time>
      </trkpt>
      <trkpt lat="45.85936" lon="4.82687">
        <ele>310</ele>
        <time>2011-12-18T11:22:16Z</time>
      </trkpt>
      <trkpt lat="45.85932" lon="4.82687">
        <ele>310</ele>
        <time>2011-12-18T11:22:21Z</time>
      </trkpt>
      <trkpt lat="45.85927" lon="4.82686">
        <ele>311</ele>
        <time>2011-12-18T11:22:26Z</time>
      </trkpt>
      <trkpt lat="45.85926" lon="4.82686">
        <ele>311</ele>
        <time>2011-12-18T11:22:27Z</time>
      </trkpt>
      <trkpt lat="45.85926" lon="4.82686">
        <ele>311</ele>
        <time>2011-12-18T11:22:28Z</time>
      </trkpt>
      <trkpt lat="45.85923" lon="4.82687">
        <ele>311</ele>
        <time>2011-12-18T11:22:32Z</time>
      </trkpt>
      <trkpt lat="45.8592" lon="4.82688">
        <ele>311</ele>
        <time>2011-12-18T11:22:43Z</time>
      </trkpt>
      <trkpt lat="45.85915" lon="4.82685">
        <ele>309</ele>
        <time>2011-12-18T11:22:50Z</time>
      </trkpt>
      <trkpt lat="45.85913" lon="4.82687">
        <ele>308</ele>
        <time>2011-12-18T11:22:58Z</time>
      </trkpt>
      <trkpt lat="45.85911" lon="4.82686">
        <ele>308</ele>
        <time>2011-12-18T11:23:01Z</time>
      </trkpt>
      <trkpt lat="45.85908" lon="4.82687">
        <ele>308</ele>
        <time>2011-12-18T11:23:04Z</time>
      </trkpt>
      <trkpt lat="45.85905" lon="4.82688">
        <ele>307</ele>
        <time>2011-12-18T11:23:09Z</time>
      </trkpt>
      <trkpt lat="45.85901" lon="4.82688">
        <ele>306</ele>
        <time>2011-12-18T11:23:14Z</time>
      </trkpt>
      <trkpt lat="45.85899" lon="4.82685">
        <ele>306</ele>
        <time>2011-12-18T11:23:19Z</time>
      </trkpt>
      <trkpt lat="45.85896" lon="4.82682">
        <ele>307</ele>
        <time>2011-12-18T11:23:24Z</time>
      </trkpt>
      <trkpt lat="45.85894" lon="4.82681">
        <ele>306</ele>
        <time>2011-12-18T11:23:26Z</time>
      </trkpt>
      <trkpt lat="45.8589" lon="4.82681">
        <ele>306</ele>
        <time>2011-12-18T11:23:29Z</time>
      </trkpt>
      <trkpt lat="45.85885" lon="4.82679">
        <ele>305</ele>
        <time>2011-12-18T11:23:34Z</time>
      </trkpt>
      <trkpt lat="45.85884" lon="4.82679">
        <ele>305</ele>
        <time>2011-12-18T11:23:35Z</time>
      </trkpt>
      <trkpt lat="45.8588" lon="4.82679">
        <ele>304</ele>
        <time>2011-12-18T11:23:40Z</time>
      </trkpt>
      <trkpt lat="45.85879" lon="4.82678">
        <ele>304</ele>
        <time>2011-12-18T11:23:41Z</time>
      </trkpt>
      <trkpt lat="45.85878" lon="4.82674">
        <ele>304</ele>
        <time>2011-12-18T11:23:45Z</time>
      </trkpt>
      <trkpt lat="45.85878" lon="4.82673">
        <ele>304</ele>
        <time>2011-12-18T11:23:46Z</time>
      </trkpt>
      <trkpt lat="45.85877" lon="4.82673">
        <ele>304</ele>
        <time>2011-12-18T11:23:47Z</time>
      </trkpt>
      <trkpt lat="45.85877" lon="4.82672">
        <ele>304</ele>
        <time>2011-12-18T11:23:48Z</time>
      </trkpt>
      <trkpt lat="45.85875" lon="4.8267">
        <ele>304</ele>
        <time>2011-12-18T11:23:52Z</time>
      </trkpt>
      <trkpt lat="45.85873" lon="4.82663">
        <ele>316</ele>
        <time>2011-12-18T11:24:01Z</time>
      </trkpt>
      <trkpt lat="45.85868" lon="4.8266">
        <ele>315</ele>
        <time>2011-12-18T11:24:08Z</time>
      </trkpt>
      <trkpt lat="45.85865" lon="4.82661">
        <ele>315</ele>
        <time>2011-12-18T11:24:13Z</time>
      </trkpt>
      <trkpt lat="45.85865" lon="4.82661">
        <ele>314</ele>
        <time>2011-12-18T11:24:14Z</time>
      </trkpt>
      <trkpt lat="45.8586" lon="4.82662">
        <ele>313</ele>
        <time>2011-12-18T11:24:20Z</time>
      </trkpt>
      <trkpt lat="45.85856" lon="4.82662">
        <ele>313</ele>
        <time>2011-12-18T11:24:27Z</time>
      </trkpt>
      <trkpt lat="45.85852" lon="4.82662">
        <ele>312</ele>
        <time>2011-12-18T11:24:31Z</time>
      </trkpt>
      <trkpt lat="45.85852" lon="4.82661">
        <ele>312</ele>
        <time>2011-12-18T11:24:32Z</time>
      </trkpt>
      <trkpt lat="45.85851" lon="4.82658">
        <ele>312</ele>
        <time>2011-12-18T11:24:35Z</time>
      </trkpt>
      <trkpt lat="45.85849" lon="4.82655">
        <ele>312</ele>
        <time>2011-12-18T11:24:38Z</time>
      </trkpt>
      <trkpt lat="45.85848" lon="4.82654">
        <ele>312</ele>
        <time>2011-12-18T11:24:39Z</time>
      </trkpt>
      <trkpt lat="45.85841" lon="4.82641">
        <ele>313</ele>
        <time>2011-12-18T11:24:45Z</time>
      </trkpt>
      <trkpt lat="45.85838" lon="4.82632">
        <ele>314</ele>
        <time>2011-12-18T11:24:48Z</time>
      </trkpt>
      <trkpt lat="45.85834" lon="4.8262">
        <ele>316</ele>
        <time>2011-12-18T11:24:52Z</time>
      </trkpt>
      <trkpt lat="45.85834" lon="4.82612">
        <ele>316</ele>
        <time>2011-12-18T11:24:56Z</time>
      </trkpt>
      <trkpt lat="45.85834" lon="4.82611">
        <ele>316</ele>
        <time>2011-12-18T11:24:57Z</time>
      </trkpt>
      <trkpt lat="45.85832" lon="4.82608">
        <ele>307</ele>
        <time>2011-12-18T11:25:00Z</time>
      </trkpt>
      <trkpt lat="45.85832" lon="4.82604">
        <ele>308</ele>
        <time>2011-12-18T11:25:02Z</time>
      </trkpt>
      <trkpt lat="45.85832" lon="4.82595">
        <ele>310</ele>
        <time>2011-12-18T11:25:08Z</time>
      </trkpt>
      <trkpt lat="45.8583" lon="4.8258">
        <ele>315</ele>
        <time>2011-12-18T11:25:16Z</time>
      </trkpt>
      <trkpt lat="45.85828" lon="4.82566">
        <ele>315</ele>
        <time>2011-12-18T11:25:24Z</time>
      </trkpt>
      <trkpt lat="45.85826" lon="4.82553">
        <ele>315</ele>
        <time>2011-12-18T11:25:31Z</time>
      </trkpt>
      <trkpt lat="45.85824" lon="4.82546">
        <ele>316</ele>
        <time>2011-12-18T11:25:35Z</time>
      </trkpt>
      <trkpt lat="45.85823" lon="4.82539">
        <ele>316</ele>
        <time>2011-12-18T11:25:38Z</time>
      </trkpt>
      <trkpt lat="45.85822" lon="4.82532">
        <ele>317</ele>
        <time>2011-12-18T11:25:43Z</time>
      </trkpt>
      <trkpt lat="45.85822" lon="4.8253">
        <ele>317</ele>
        <time>2011-12-18T11:25:44Z</time>
      </trkpt>
      <trkpt lat="45.85821" lon="4.82527">
        <ele>317</ele>
        <time>2011-12-18T11:25:46Z</time>
      </trkpt>
      <trkpt lat="45.8582" lon="4.8252">
        <ele>318</ele>
        <time>2011-12-18T11:25:49Z</time>
      </trkpt>
      <trkpt lat="45.85819" lon="4.82517">
        <ele>318</ele>
        <time>2011-12-18T11:25:51Z</time>
      </trkpt>
      <trkpt lat="45.85815" lon="4.82502">
        <ele>319</ele>
        <time>2011-12-18T11:25:58Z</time>
      </trkpt>
      <trkpt lat="45.85815" lon="4.825">
        <ele>325</ele>
        <time>2011-12-18T11:25:59Z</time>
      </trkpt>
      <trkpt lat="45.8581" lon="4.82486">
        <ele>325</ele>
        <time>2011-12-18T11:26:06Z</time>
      </trkpt>
      <trkpt lat="45.85807" lon="4.82475">
        <ele>326</ele>
        <time>2011-12-18T11:26:12Z</time>
      </trkpt>
      <trkpt lat="45.85806" lon="4.82473">
        <ele>326</ele>
        <time>2011-12-18T11:26:13Z</time>
      </trkpt>
      <trkpt lat="45.85804" lon="4.82467">
        <ele>326</ele>
        <time>2011-12-18T11:26:17Z</time>
      </trkpt>
      <trkpt lat="45.85801" lon="4.82463">
        <ele>326</ele>
        <time>2011-12-18T11:26:20Z</time>
      </trkpt>
      <trkpt lat="45.85797" lon="4.82459">
        <ele>327</ele>
        <time>2011-12-18T11:26:24Z</time>
      </trkpt>
      <trkpt lat="45.85795" lon="4.82456">
        <ele>327</ele>
        <time>2011-12-18T11:26:27Z</time>
      </trkpt>
      <trkpt lat="45.85794" lon="4.82455">
        <ele>327</ele>
        <time>2011-12-18T11:26:28Z</time>
      </trkpt>
      <trkpt lat="45.85785" lon="4.82447">
        <ele>327</ele>
        <time>2011-12-18T11:26:37Z</time>
      </trkpt>
      <trkpt lat="45.85778" lon="4.82442">
        <ele>326</ele>
        <time>2011-12-18T11:26:42Z</time>
      </trkpt>
      <trkpt lat="45.85774" lon="4.82441">
        <ele>326</ele>
        <time>2011-12-18T11:26:44Z</time>
      </trkpt>
      <trkpt lat="45.85763" lon="4.8244">
        <ele>326</ele>
        <time>2011-12-18T11:26:52Z</time>
      </trkpt>
      <trkpt lat="45.85759" lon="4.8244">
        <ele>326</ele>
        <time>2011-12-18T11:26:59Z</time>
      </trkpt>
      <trkpt lat="45.85759" lon="4.8244">
        <ele>326</ele>
        <time>2011-12-18T11:27:02Z</time>
      </trkpt>
      <trkpt lat="45.85754" lon="4.82443">
        <ele>326</ele>
        <time>2011-12-18T11:27:12Z</time>
      </trkpt>
      <trkpt lat="45.85749" lon="4.82442">
        <ele>328</ele>
        <time>2011-12-18T11:27:23Z</time>
      </trkpt>
      <trkpt lat="45.85747" lon="4.82445">
        <ele>328</ele>
        <time>2011-12-18T11:27:27Z</time>
      </trkpt>
      <trkpt lat="45.85746" lon="4.82446">
        <ele>328</ele>
        <time>2011-12-18T11:27:28Z</time>
      </trkpt>
      <trkpt lat="45.85744" lon="4.82449">
        <ele>328</ele>
        <time>2011-12-18T11:27:30Z</time>
      </trkpt>
      <trkpt lat="45.85743" lon="4.8245">
        <ele>328</ele>
        <time>2011-12-18T11:27:31Z</time>
      </trkpt>
      <trkpt lat="45.85738" lon="4.82456">
        <ele>328</ele>
        <time>2011-12-18T11:27:36Z</time>
      </trkpt>
      <trkpt lat="45.8573" lon="4.82471">
        <ele>328</ele>
        <time>2011-12-18T11:27:45Z</time>
      </trkpt>
      <trkpt lat="45.85726" lon="4.82476">
        <ele>327</ele>
        <time>2011-12-18T11:27:49Z</time>
      </trkpt>
      <trkpt lat="45.85724" lon="4.82478">
        <ele>328</ele>
        <time>2011-12-18T11:27:51Z</time>
      </trkpt>
      <trkpt lat="45.85718" lon="4.82484">
        <ele>328</ele>
        <time>2011-12-18T11:27:58Z</time>
      </trkpt>
      <trkpt lat="45.85715" lon="4.82487">
        <ele>328</ele>
        <time>2011-12-18T11:28:01Z</time>
      </trkpt>
      <trkpt lat="45.8571" lon="4.82496">
        <ele>329</ele>
        <time>2011-12-18T11:28:06Z</time>
      </trkpt>
      <trkpt lat="45.85705" lon="4.82504">
        <ele>322</ele>
        <time>2011-12-18T11:28:13Z</time>
      </trkpt>
      <trkpt lat="45.85704" lon="4.82505">
        <ele>322</ele>
        <time>2011-12-18T11:28:14Z</time>
      </trkpt>
      <trkpt lat="45.85702" lon="4.82505">
        <ele>323</ele>
        <time>2011-12-18T11:28:16Z</time>
      </trkpt>
      <trkpt lat="45.85693" lon="4.82512">
        <ele>324</ele>
        <time>2011-12-18T11:28:22Z</time>
      </trkpt>
      <trkpt lat="45.85684" lon="4.82516">
        <ele>325</ele>
        <time>2011-12-18T11:28:27Z</time>
      </trkpt>
      <trkpt lat="45.85683" lon="4.82517">
        <ele>326</ele>
        <time>2011-12-18T11:28:28Z</time>
      </trkpt>
      <trkpt lat="45.85671" lon="4.82526">
        <ele>325</ele>
        <time>2011-12-18T11:28:37Z</time>
      </trkpt>
      <trkpt lat="45.85668" lon="4.82528">
        <ele>325</ele>
        <time>2011-12-18T11:28:40Z</time>
      </trkpt>
      <trkpt lat="45.85663" lon="4.82532">
        <ele>335</ele>
        <time>2011-12-18T11:28:44Z</time>
      </trkpt>
      <trkpt lat="45.85651" lon="4.82539">
        <ele>334</ele>
        <time>2011-12-18T11:28:54Z</time>
      </trkpt>
      <trkpt lat="45.85642" lon="4.82548">
        <ele>334</ele>
        <time>2011-12-18T11:29:01Z</time>
      </trkpt>
      <trkpt lat="45.85636" lon="4.82556">
        <ele>334</ele>
        <time>2011-12-18T11:29:06Z</time>
      </trkpt>
      <trkpt lat="45.85634" lon="4.82558">
        <ele>334</ele>
        <time>2011-12-18T11:29:09Z</time>
      </trkpt>
      <trkpt lat="45.85631" lon="4.82561">
        <ele>334</ele>
        <time>2011-12-18T11:29:14Z</time>
      </trkpt>
      <trkpt lat="45.8563" lon="4.82562">
        <ele>334</ele>
        <time>2011-12-18T11:29:16Z</time>
      </trkpt>
      <trkpt lat="45.85631" lon="4.82565">
        <ele>334</ele>
        <time>2011-12-18T11:29:42Z</time>
      </trkpt>
      <trkpt lat="45.85627" lon="4.82572">
        <ele>334</ele>
        <time>2011-12-18T11:30:08Z</time>
      </trkpt>
      <trkpt lat="45.85625" lon="4.82572">
        <ele>334</ele>
        <time>2011-12-18T11:30:10Z</time>
      </trkpt>
      <trkpt lat="45.85615" lon="4.8258">
        <ele>335</ele>
        <time>2011-12-18T11:30:18Z</time>
      </trkpt>
      <trkpt lat="45.8561" lon="4.82584">
        <ele>327</ele>
        <time>2011-12-18T11:30:22Z</time>
      </trkpt>
      <trkpt lat="45.85609" lon="4.82586">
        <ele>327</ele>
        <time>2011-12-18T11:30:24Z</time>
      </trkpt>
      <trkpt lat="45.85607" lon="4.82587">
        <ele>328</ele>
        <time>2011-12-18T11:30:25Z</time>
      </trkpt>
      <trkpt lat="45.85601" lon="4.82589">
        <ele>329</ele>
        <time>2011-12-18T11:30:31Z</time>
      </trkpt>
      <trkpt lat="45.85593" lon="4.82593">
        <ele>330</ele>
        <time>2011-12-18T11:30:39Z</time>
      </trkpt>
      <trkpt lat="45.85592" lon="4.82594">
        <ele>331</ele>
        <time>2011-12-18T11:30:40Z</time>
      </trkpt>
      <trkpt lat="45.85585" lon="4.82602">
        <ele>329</ele>
        <time>2011-12-18T11:30:47Z</time>
      </trkpt>
      <trkpt lat="45.85577" lon="4.82606">
        <ele>335</ele>
        <time>2011-12-18T11:30:53Z</time>
      </trkpt>
      <trkpt lat="45.85576" lon="4.82607">
        <ele>335</ele>
        <time>2011-12-18T11:30:54Z</time>
      </trkpt>
      <trkpt lat="45.85567" lon="4.8261">
        <ele>334</ele>
        <time>2011-12-18T11:31:01Z</time>
      </trkpt>
      <trkpt lat="45.85559" lon="4.82614">
        <ele>334</ele>
        <time>2011-12-18T11:31:07Z</time>
      </trkpt>
      <trkpt lat="45.85558" lon="4.82615">
        <ele>334</ele>
        <time>2011-12-18T11:31:08Z</time>
      </trkpt>
      <trkpt lat="45.85549" lon="4.82619">
        <ele>334</ele>
        <time>2011-12-18T11:31:14Z</time>
      </trkpt>
      <trkpt lat="45.85542" lon="4.82624">
        <ele>334</ele>
        <time>2011-12-18T11:31:17Z</time>
      </trkpt>
      <trkpt lat="45.85538" lon="4.82629">
        <ele>334</ele>
        <time>2011-12-18T11:31:19Z</time>
      </trkpt>
      <trkpt lat="45.85529" lon="4.82643">
        <ele>333</ele>
        <time>2011-12-18T11:31:23Z</time>
      </trkpt>
      <trkpt lat="45.85528" lon="4.82645">
        <ele>333</ele>
        <time>2011-12-18T11:31:24Z</time>
      </trkpt>
      <trkpt lat="45.85518" lon="4.82656">
        <ele>332</ele>
        <time>2011-12-18T11:31:28Z</time>
      </trkpt>
      <trkpt lat="45.85514" lon="4.82659">
        <ele>332</ele>
        <time>2011-12-18T11:31:30Z</time>
      </trkpt>
      <trkpt lat="45.85507" lon="4.82663">
        <ele>331</ele>
        <time>2011-12-18T11:31:33Z</time>
      </trkpt>
      <trkpt lat="45.85496" lon="4.82668">
        <ele>328</ele>
        <time>2011-12-18T11:31:37Z</time>
      </trkpt>
      <trkpt lat="45.85494" lon="4.8267">
        <ele>327</ele>
        <time>2011-12-18T11:31:38Z</time>
      </trkpt>
      <trkpt lat="45.85482" lon="4.82669">
        <ele>323</ele>
        <time>2011-12-18T11:31:43Z</time>
      </trkpt>
      <trkpt lat="45.85477" lon="4.82667">
        <ele>322</ele>
        <time>2011-12-18T11:31:46Z</time>
      </trkpt>
      <trkpt lat="45.85473" lon="4.82667">
        <ele>321</ele>
        <time>2011-12-18T11:31:48Z</time>
      </trkpt>
      <trkpt lat="45.85463" lon="4.82662">
        <ele>328</ele>
        <time>2011-12-18T11:31:53Z</time>
      </trkpt>
      <trkpt lat="45.85459" lon="4.8266">
        <ele>328</ele>
        <time>2011-12-18T11:31:55Z</time>
      </trkpt>
      <trkpt lat="45.85456" lon="4.82657">
        <ele>328</ele>
        <time>2011-12-18T11:31:58Z</time>
      </trkpt>
      <trkpt lat="45.85455" lon="4.82657">
        <ele>328</ele>
        <time>2011-12-18T11:32:04Z</time>
      </trkpt>
      <trkpt lat="45.85453" lon="4.82662">
        <ele>327</ele>
        <time>2011-12-18T11:32:09Z</time>
      </trkpt>
      <trkpt lat="45.85453" lon="4.82674">
        <ele>318</ele>
        <time>2011-12-18T11:32:16Z</time>
      </trkpt>
      <trkpt lat="45.85454" lon="4.82675">
        <ele>318</ele>
        <time>2011-12-18T11:32:17Z</time>
      </trkpt>
      <trkpt lat="45.85456" lon="4.82679">
        <ele>318</ele>
        <time>2011-12-18T11:32:22Z</time>
      </trkpt>
      <trkpt lat="45.85456" lon="4.82686">
        <ele>317</ele>
        <time>2011-12-18T11:32:28Z</time>
      </trkpt>
      <trkpt lat="45.85453" lon="4.82689">
        <ele>317</ele>
        <time>2011-12-18T11:32:33Z</time>
      </trkpt>
      <trkpt lat="45.85451" lon="4.82692">
        <ele>316</ele>
        <time>2011-12-18T11:32:40Z</time>
      </trkpt>
      <trkpt lat="45.85448" lon="4.8269">
        <ele>316</ele>
        <time>2011-12-18T11:32:47Z</time>
      </trkpt>
      <trkpt lat="45.85447" lon="4.82689">
        <ele>316</ele>
        <time>2011-12-18T11:32:48Z</time>
      </trkpt>
      <trkpt lat="45.85445" lon="4.82686">
        <ele>317</ele>
        <time>2011-12-18T11:32:53Z</time>
      </trkpt>
      <trkpt lat="45.85444" lon="4.82682">
        <ele>317</ele>
        <time>2011-12-18T11:33:01Z</time>
      </trkpt>
      <trkpt lat="45.85444" lon="4.82678">
        <ele>317</ele>
        <time>2011-12-18T11:33:07Z</time>
      </trkpt>
      <trkpt lat="45.85447" lon="4.82675">
        <ele>317</ele>
        <time>2011-12-18T11:33:12Z</time>
      </trkpt>
      <trkpt lat="45.85448" lon="4.82672">
        <ele>317</ele>
        <time>2011-12-18T11:33:14Z</time>
      </trkpt>
      <trkpt lat="45.85448" lon="4.82671">
        <ele>317</ele>
        <time>2011-12-18T11:33:15Z</time>
      </trkpt>
      <trkpt lat="45.85448" lon="4.82669">
        <ele>317</ele>
        <time>2011-12-18T11:33:18Z</time>
      </trkpt>
      <trkpt lat="45.85447" lon="4.82669">
        <ele>317</ele>
        <time>2011-12-18T11:33:19Z</time>
      </trkpt>
      <trkpt lat="45.85445" lon="4.82669">
        <ele>317</ele>
        <time>2011-12-18T11:33:22Z</time>
      </trkpt>
      <trkpt lat="45.85448" lon="4.82663">
        <ele>326</ele>
        <time>2011-12-18T11:33:34Z</time>
      </trkpt>
      <trkpt lat="45.85448" lon="4.82662">
        <ele>326</ele>
        <time>2011-12-18T11:33:35Z</time>
      </trkpt>
      <trkpt lat="45.85451" lon="4.82655">
        <ele>327</ele>
        <time>2011-12-18T11:33:39Z</time>
      </trkpt>
      <trkpt lat="45.85451" lon="4.82654">
        <ele>327</ele>
        <time>2011-12-18T11:33:40Z</time>
      </trkpt>
      <trkpt lat="45.85454" lon="4.82649">
        <ele>328</ele>
        <time>2011-12-18T11:33:45Z</time>
      </trkpt>
      <trkpt lat="45.85458" lon="4.82642">
        <ele>329</ele>
        <time>2011-12-18T11:33:51Z</time>
      </trkpt>
      <trkpt lat="45.8546" lon="4.82633">
        <ele>330</ele>
        <time>2011-12-18T11:33:58Z</time>
      </trkpt>
      <trkpt lat="45.85461" lon="4.82632">
        <ele>330</ele>
        <time>2011-12-18T11:33:59Z</time>
      </trkpt>
      <trkpt lat="45.85461" lon="4.8263">
        <ele>330</ele>
        <time>2011-12-18T11:34:01Z</time>
      </trkpt>
      <trkpt lat="45.85461" lon="4.82624">
        <ele>331</ele>
        <time>2011-12-18T11:34:05Z</time>
      </trkpt>
      <trkpt lat="45.85462" lon="4.82614">
        <ele>331</ele>
        <time>2011-12-18T11:34:12Z</time>
      </trkpt>
      <trkpt lat="45.85461" lon="4.82612">
        <ele>332</ele>
        <time>2011-12-18T11:34:14Z</time>
      </trkpt>
      <trkpt lat="45.85456" lon="4.82607">
        <ele>331</ele>
        <time>2011-12-18T11:34:19Z</time>
      </trkpt>
      <trkpt lat="45.85453" lon="4.82603">
        <ele>331</ele>
        <time>2011-12-18T11:34:23Z</time>
      </trkpt>
      <trkpt lat="45.8545" lon="4.82601">
        <ele>331</ele>
        <time>2011-12-18T11:34:27Z</time>
      </trkpt>
      <trkpt lat="45.8545" lon="4.82606">
        <ele>331</ele>
        <time>2011-12-18T11:34:34Z</time>
      </trkpt>
      <trkpt lat="45.85447" lon="4.82609">
        <ele>330</ele>
        <time>2011-12-18T11:34:38Z</time>
      </trkpt>
      <trkpt lat="45.85447" lon="4.82612">
        <ele>330</ele>
        <time>2011-12-18T11:34:40Z</time>
      </trkpt>
      <trkpt lat="45.85446" lon="4.82615">
        <ele>330</ele>
        <time>2011-12-18T11:34:43Z</time>
      </trkpt>
      <trkpt lat="45.85445" lon="4.82621">
        <ele>329</ele>
        <time>2011-12-18T11:34:47Z</time>
      </trkpt>
      <trkpt lat="45.85443" lon="4.82627">
        <ele>329</ele>
        <time>2011-12-18T11:34:52Z</time>
      </trkpt>
      <trkpt lat="45.8544" lon="4.82632">
        <ele>328</ele>
        <time>2011-12-18T11:35:02Z</time>
      </trkpt>
      <trkpt lat="45.8544" lon="4.82635">
        <ele>328</ele>
        <time>2011-12-18T11:35:06Z</time>
      </trkpt>
      <trkpt lat="45.8544" lon="4.82638">
        <ele>327</ele>
        <time>2011-12-18T11:35:08Z</time>
      </trkpt>
      <trkpt lat="45.85439" lon="4.82639">
        <ele>327</ele>
        <time>2011-12-18T11:35:09Z</time>
      </trkpt>
      <trkpt lat="45.85437" lon="4.82647">
        <ele>326</ele>
        <time>2011-12-18T11:35:14Z</time>
      </trkpt>
      <trkpt lat="45.85436" lon="4.8265">
        <ele>326</ele>
        <time>2011-12-18T11:35:16Z</time>
      </trkpt>
      <trkpt lat="45.85436" lon="4.82652">
        <ele>325</ele>
        <time>2011-12-18T11:35:18Z</time>
      </trkpt>
      <trkpt lat="45.85436" lon="4.82653">
        <ele>325</ele>
        <time>2011-12-18T11:35:19Z</time>
      </trkpt>
      <trkpt lat="45.85433" lon="4.82663">
        <ele>323</ele>
        <time>2011-12-18T11:35:25Z</time>
      </trkpt>
      <trkpt lat="45.85431" lon="4.82669">
        <ele>317</ele>
        <time>2011-12-18T11:35:28Z</time>
      </trkpt>
      <trkpt lat="45.85429" lon="4.82675">
        <ele>317</ele>
        <time>2011-12-18T11:35:31Z</time>
      </trkpt>
      <trkpt lat="45.85428" lon="4.82677">
        <ele>316</ele>
        <time>2011-12-18T11:35:32Z</time>
      </trkpt>
      <trkpt lat="45.85426" lon="4.82679">
        <ele>316</ele>
        <time>2011-12-18T11:35:37Z</time>
      </trkpt>
      <trkpt lat="45.85425" lon="4.82682">
        <ele>316</ele>
        <time>2011-12-18T11:35:41Z</time>
      </trkpt>
      <trkpt lat="45.85423" lon="4.82686">
        <ele>316</ele>
        <time>2011-12-18T11:35:44Z</time>
      </trkpt>
      <trkpt lat="45.85423" lon="4.82686">
        <ele>316</ele>
        <time>2011-12-18T11:35:45Z</time>
      </trkpt>
      <trkpt lat="45.85426" lon="4.8269">
        <ele>316</ele>
        <time>2011-12-18T11:35:55Z</time>
      </trkpt>
      <trkpt lat="45.85428" lon="4.82692">
        <ele>315</ele>
        <time>2011-12-18T11:36:01Z</time>
      </trkpt>
      <trkpt lat="45.85433" lon="4.82694">
        <ele>315</ele>
        <time>2011-12-18T11:36:07Z</time>
      </trkpt>
      <trkpt lat="45.85439" lon="4.82697">
        <ele>315</ele>
        <time>2011-12-18T11:36:14Z</time>
      </trkpt>
      <trkpt lat="45.8544" lon="4.82697">
        <ele>315</ele>
        <time>2011-12-18T11:36:15Z</time>
      </trkpt>
      <trkpt lat="45.85446" lon="4.82699">
        <ele>316</ele>
        <time>2011-12-18T11:36:20Z</time>
      </trkpt>
      <trkpt lat="45.85451" lon="4.827">
        <ele>316</ele>
        <time>2011-12-18T11:36:23Z</time>
      </trkpt>
      <trkpt lat="45.85452" lon="4.82701">
        <ele>316</ele>
        <time>2011-12-18T11:36:25Z</time>
      </trkpt>
      <trkpt lat="45.85455" lon="4.827">
        <ele>316</ele>
        <time>2011-12-18T11:36:35Z</time>
      </trkpt>
      <trkpt lat="45.85456" lon="4.82698">
        <ele>316</ele>
        <time>2011-12-18T11:36:40Z</time>
      </trkpt>
      <trkpt lat="45.85456" lon="4.82698">
        <ele>316</ele>
        <time>2011-12-18T11:36:42Z</time>
      </trkpt>
      <trkpt lat="45.85454" lon="4.827">
        <ele>316</ele>
        <time>2011-12-18T11:36:48Z</time>
      </trkpt>
      <trkpt lat="45.8545" lon="4.82701">
        <ele>316</ele>
        <time>2011-12-18T11:36:53Z</time>
      </trkpt>
      <trkpt lat="45.85445" lon="4.82701">
        <ele>315</ele>
        <time>2011-12-18T11:36:58Z</time>
      </trkpt>
      <trkpt lat="45.8544" lon="4.82698">
        <ele>315</ele>
        <time>2011-12-18T11:37:03Z</time>
      </trkpt>
      <trkpt lat="45.85433" lon="4.82696">
        <ele>315</ele>
        <time>2011-12-18T11:37:08Z</time>
      </trkpt>
      <trkpt lat="45.85427" lon="4.82695">
        <ele>315</ele>
        <time>2011-12-18T11:37:12Z</time>
      </trkpt>
      <trkpt lat="45.85426" lon="4.82694">
        <ele>315</ele>
        <time>2011-12-18T11:37:13Z</time>
      </trkpt>
      <trkpt lat="45.85422" lon="4.82694">
        <ele>315</ele>
        <time>2011-12-18T11:37:18Z</time>
      </trkpt>
      <trkpt lat="45.85422" lon="4.82695">
        <ele>315</ele>
        <time>2011-12-18T11:37:19Z</time>
      </trkpt>
      <trkpt lat="45.85418" lon="4.82697">
        <ele>315</ele>
        <time>2011-12-18T11:37:24Z</time>
      </trkpt>
      <trkpt lat="45.85417" lon="4.82697">
        <ele>315</ele>
        <time>2011-12-18T11:37:25Z</time>
      </trkpt>
      <trkpt lat="45.85416" lon="4.82694">
        <ele>297</ele>
        <time>2011-12-18T11:37:27Z</time>
      </trkpt>
      <trkpt lat="45.85412" lon="4.82689">
        <ele>299</ele>
        <time>2011-12-18T11:37:31Z</time>
      </trkpt>
      <trkpt lat="45.85412" lon="4.82687">
        <ele>299</ele>
        <time>2011-12-18T11:37:32Z</time>
      </trkpt>
      <trkpt lat="45.85412" lon="4.82681">
        <ele>303</ele>
        <time>2011-12-18T11:37:36Z</time>
      </trkpt>
      <trkpt lat="45.85413" lon="4.82678">
        <ele>305</ele>
        <time>2011-12-18T11:37:38Z</time>
      </trkpt>
      <trkpt lat="45.85413" lon="4.82669">
        <ele>312</ele>
        <time>2011-12-18T11:37:44Z</time>
      </trkpt>
      <trkpt lat="45.85413" lon="4.82668">
        <ele>312</ele>
        <time>2011-12-18T11:37:45Z</time>
      </trkpt>
      <trkpt lat="45.85413" lon="4.82666">
        <ele>315</ele>
        <time>2011-12-18T11:37:47Z</time>
      </trkpt>
      <trkpt lat="45.85414" lon="4.82664">
        <ele>314</ele>
        <time>2011-12-18T11:37:49Z</time>
      </trkpt>
      <trkpt lat="45.85414" lon="4.82662">
        <ele>314</ele>
        <time>2011-12-18T11:37:51Z</time>
      </trkpt>
      <trkpt lat="45.85413" lon="4.82659">
        <ele>312</ele>
        <time>2011-12-18T11:37:54Z</time>
      </trkpt>
      <trkpt lat="45.85412" lon="4.82655">
        <ele>310</ele>
        <time>2011-12-18T11:37:57Z</time>
      </trkpt>
      <trkpt lat="45.85411" lon="4.8265">
        <ele>308</ele>
        <time>2011-12-18T11:38:00Z</time>
      </trkpt>
      <trkpt lat="45.85411" lon="4.82645">
        <ele>307</ele>
        <time>2011-12-18T11:38:03Z</time>
      </trkpt>
      <trkpt lat="45.85409" lon="4.8264">
        <ele>306</ele>
        <time>2011-12-18T11:38:06Z</time>
      </trkpt>
      <trkpt lat="45.85408" lon="4.82635">
        <ele>306</ele>
        <time>2011-12-18T11:38:11Z</time>
      </trkpt>
      <trkpt lat="45.85408" lon="4.82634">
        <ele>306</ele>
        <time>2011-12-18T11:38:12Z</time>
      </trkpt>
      <trkpt lat="45.85408" lon="4.8263">
        <ele>306</ele>
        <time>2011-12-18T11:38:15Z</time>
      </trkpt>
      <trkpt lat="45.85408" lon="4.82626">
        <ele>306</ele>
        <time>2011-12-18T11:38:18Z</time>
      </trkpt>
      <trkpt lat="45.85409" lon="4.82615">
        <ele>307</ele>
        <time>2011-12-18T11:38:24Z</time>
      </trkpt>
      <trkpt lat="45.8541" lon="4.82614">
        <ele>308</ele>
        <time>2011-12-18T11:38:25Z</time>
      </trkpt>
      <trkpt lat="45.85409" lon="4.82607">
        <ele>310</ele>
        <time>2011-12-18T11:38:29Z</time>
      </trkpt>
      <trkpt lat="45.85408" lon="4.82605">
        <ele>310</ele>
        <time>2011-12-18T11:38:30Z</time>
      </trkpt>
      <trkpt lat="45.85406" lon="4.82602">
        <ele>311</ele>
        <time>2011-12-18T11:38:32Z</time>
      </trkpt>
      <trkpt lat="45.85405" lon="4.82595">
        <ele>313</ele>
        <time>2011-12-18T11:38:39Z</time>
      </trkpt>
      <trkpt lat="45.85405" lon="4.82593">
        <ele>314</ele>
        <time>2011-12-18T11:38:41Z</time>
      </trkpt>
      <trkpt lat="45.85405" lon="4.8259">
        <ele>315</ele>
        <time>2011-12-18T11:38:44Z</time>
      </trkpt>
      <trkpt lat="45.85405" lon="4.82584">
        <ele>317</ele>
        <time>2011-12-18T11:38:48Z</time>
      </trkpt>
      <trkpt lat="45.85405" lon="4.82581">
        <ele>319</ele>
        <time>2011-12-18T11:38:50Z</time>
      </trkpt>
      <trkpt lat="45.85405" lon="4.8258">
        <ele>319</ele>
        <time>2011-12-18T11:38:51Z</time>
      </trkpt>
      <trkpt lat="45.85405" lon="4.82577">
        <ele>318</ele>
        <time>2011-12-18T11:38:54Z</time>
      </trkpt>
      <trkpt lat="45.85405" lon="4.82575">
        <ele>318</ele>
        <time>2011-12-18T11:38:56Z</time>
      </trkpt>
      <trkpt lat="45.85405" lon="4.82571">
        <ele>316</ele>
        <time>2011-12-18T11:38:59Z</time>
      </trkpt>
      <trkpt lat="45.85403" lon="4.82568">
        <ele>315</ele>
        <time>2011-12-18T11:39:02Z</time>
      </trkpt>
      <trkpt lat="45.85403" lon="4.82567">
        <ele>315</ele>
        <time>2011-12-18T11:39:03Z</time>
      </trkpt>
      <trkpt lat="45.85401" lon="4.82561">
        <ele>313</ele>
        <time>2011-12-18T11:39:08Z</time>
      </trkpt>
      <trkpt lat="45.854" lon="4.82559">
        <ele>313</ele>
        <time>2011-12-18T11:39:09Z</time>
      </trkpt>
      <trkpt lat="45.85399" lon="4.82554">
        <ele>312</ele>
        <time>2011-12-18T11:39:13Z</time>
      </trkpt>
      <trkpt lat="45.854" lon="4.8255">
        <ele>312</ele>
        <time>2011-12-18T11:39:17Z</time>
      </trkpt>
      <trkpt lat="45.85399" lon="4.82548">
        <ele>312</ele>
        <time>2011-12-18T11:39:20Z</time>
      </trkpt>
      <trkpt lat="45.85398" lon="4.82547">
        <ele>312</ele>
        <time>2011-12-18T11:39:21Z</time>
      </trkpt>
      <trkpt lat="45.85398" lon="4.82544">
        <ele>312</ele>
        <time>2011-12-18T11:39:25Z</time>
      </trkpt>
      <trkpt lat="45.85397" lon="4.82542">
        <ele>312</ele>
        <time>2011-12-18T11:39:31Z</time>
      </trkpt>
      <trkpt lat="45.85398" lon="4.82539">
        <ele>312</ele>
        <time>2011-12-18T11:39:33Z</time>
      </trkpt>
      <trkpt lat="45.85399" lon="4.82536">
        <ele>313</ele>
        <time>2011-12-18T11:39:36Z</time>
      </trkpt>
      <trkpt lat="45.854" lon="4.82528">
        <ele>314</ele>
        <time>2011-12-18T11:39:42Z</time>
      </trkpt>
      <trkpt lat="45.854" lon="4.82528">
        <ele>314</ele>
        <time>2011-12-18T11:39:43Z</time>
      </trkpt>
      <trkpt lat="45.85399" lon="4.82523">
        <ele>315</ele>
        <time>2011-12-18T11:39:46Z</time>
      </trkpt>
      <trkpt lat="45.85399" lon="4.82523">
        <ele>315</ele>
        <time>2011-12-18T11:39:47Z</time>
      </trkpt>
      <trkpt lat="45.854" lon="4.82517">
        <ele>317</ele>
        <time>2011-12-18T11:39:52Z</time>
      </trkpt>
      <trkpt lat="45.85399" lon="4.82516">
        <ele>317</ele>
        <time>2011-12-18T11:39:53Z</time>
      </trkpt>
      <trkpt lat="45.85399" lon="4.82512">
        <ele>318</ele>
        <time>2011-12-18T11:39:57Z</time>
      </trkpt>
      <trkpt lat="45.85397" lon="4.82507">
        <ele>318</ele>
        <time>2011-12-18T11:40:01Z</time>
      </trkpt>
      <trkpt lat="45.85396" lon="4.82505">
        <ele>318</ele>
        <time>2011-12-18T11:40:02Z</time>
      </trkpt>
      <trkpt lat="45.85395" lon="4.82504">
        <ele>317</ele>
        <time>2011-12-18T11:40:03Z</time>
      </trkpt>
      <trkpt lat="45.85393" lon="4.82502">
        <ele>316</ele>
        <time>2011-12-18T11:40:06Z</time>
      </trkpt>
      <trkpt lat="45.85389" lon="4.82496">
        <ele>318</ele>
        <time>2011-12-18T11:40:18Z</time>
      </trkpt>
      <trkpt lat="45.85387" lon="4.82495">
        <ele>318</ele>
        <time>2011-12-18T11:40:23Z</time>
      </trkpt>
      <trkpt lat="45.85382" lon="4.82495">
        <ele>315</ele>
        <time>2011-12-18T11:40:32Z</time>
      </trkpt>
      <trkpt lat="45.85381" lon="4.82495">
        <ele>315</ele>
        <time>2011-12-18T11:40:36Z</time>
      </trkpt>
      <trkpt lat="45.8538" lon="4.82494">
        <ele>314</ele>
        <time>2011-12-18T11:40:38Z</time>
      </trkpt>
      <trkpt lat="45.85377" lon="4.82495">
        <ele>313</ele>
        <time>2011-12-18T11:40:42Z</time>
      </trkpt>
      <trkpt lat="45.85374" lon="4.82496">
        <ele>312</ele>
        <time>2011-12-18T11:40:51Z</time>
      </trkpt>
      <trkpt lat="45.85373" lon="4.82491">
        <ele>311</ele>
        <time>2011-12-18T11:40:57Z</time>
      </trkpt>
      <trkpt lat="45.85373" lon="4.82489">
        <ele>311</ele>
        <time>2011-12-18T11:40:59Z</time>
      </trkpt>
      <trkpt lat="45.85374" lon="4.82487">
        <ele>312</ele>
        <time>2011-12-18T11:41:02Z</time>
      </trkpt>
      <trkpt lat="45.85374" lon="4.82486">
        <ele>312</ele>
        <time>2011-12-18T11:41:04Z</time>
      </trkpt>
      <trkpt lat="45.85375" lon="4.82483">
        <ele>312</ele>
        <time>2011-12-18T11:41:06Z</time>
      </trkpt>
      <trkpt lat="45.85377" lon="4.82481">
        <ele>313</ele>
        <time>2011-12-18T11:41:09Z</time>
      </trkpt>
      <trkpt lat="45.85378" lon="4.82479">
        <ele>313</ele>
        <time>2011-12-18T11:41:11Z</time>
      </trkpt>
      <trkpt lat="45.85377" lon="4.82475">
        <ele>313</ele>
        <time>2011-12-18T11:41:14Z</time>
      </trkpt>
      <trkpt lat="45.85378" lon="4.82474">
        <ele>313</ele>
        <time>2011-12-18T11:41:16Z</time>
      </trkpt>
      <trkpt lat="45.85378" lon="4.82473">
        <ele>314</ele>
        <time>2011-12-18T11:41:17Z</time>
      </trkpt>
      <trkpt lat="45.8538" lon="4.82466">
        <ele>314</ele>
        <time>2011-12-18T11:41:20Z</time>
      </trkpt>
      <trkpt lat="45.85381" lon="4.82463">
        <ele>315</ele>
        <time>2011-12-18T11:41:22Z</time>
      </trkpt>
      <trkpt lat="45.85377" lon="4.82458">
        <ele>314</ele>
        <time>2011-12-18T11:41:26Z</time>
      </trkpt>
      <trkpt lat="45.85376" lon="4.82453">
        <ele>313</ele>
        <time>2011-12-18T11:41:34Z</time>
      </trkpt>
      <trkpt lat="45.85374" lon="4.82451">
        <ele>313</ele>
        <time>2011-12-18T11:41:35Z</time>
      </trkpt>
      <trkpt lat="45.85372" lon="4.82449">
        <ele>312</ele>
        <time>2011-12-18T11:41:37Z</time>
      </trkpt>
      <trkpt lat="45.85371" lon="4.82449">
        <ele>312</ele>
        <time>2011-12-18T11:41:39Z</time>
      </trkpt>
      <trkpt lat="45.85369" lon="4.82446">
        <ele>312</ele>
        <time>2011-12-18T11:41:43Z</time>
      </trkpt>
      <trkpt lat="45.85369" lon="4.82445">
        <ele>312</ele>
        <time>2011-12-18T11:41:44Z</time>
      </trkpt>
      <trkpt lat="45.85371" lon="4.82439">
        <ele>312</ele>
        <time>2011-12-18T11:41:48Z</time>
      </trkpt>
      <trkpt lat="45.8537" lon="4.82438">
        <ele>312</ele>
        <time>2011-12-18T11:41:50Z</time>
      </trkpt>
      <trkpt lat="45.85367" lon="4.82434">
        <ele>311</ele>
        <time>2011-12-18T11:41:53Z</time>
      </trkpt>
      <trkpt lat="45.85367" lon="4.82431">
        <ele>310</ele>
        <time>2011-12-18T11:41:56Z</time>
      </trkpt>
      <trkpt lat="45.85367" lon="4.8243">
        <ele>310</ele>
        <time>2011-12-18T11:41:57Z</time>
      </trkpt>
      <trkpt lat="45.85366" lon="4.82429">
        <ele>310</ele>
        <time>2011-12-18T11:41:58Z</time>
      </trkpt>
      <trkpt lat="45.85363" lon="4.82424">
        <ele>309</ele>
        <time>2011-12-18T11:42:06Z</time>
      </trkpt>
      <trkpt lat="45.85361" lon="4.82419">
        <ele>308</ele>
        <time>2011-12-18T11:42:12Z</time>
      </trkpt>
      <trkpt lat="45.8536" lon="4.82418">
        <ele>307</ele>
        <time>2011-12-18T11:42:13Z</time>
      </trkpt>
      <trkpt lat="45.85362" lon="4.82413">
        <ele>310</ele>
        <time>2011-12-18T11:42:18Z</time>
      </trkpt>
      <trkpt lat="45.85362" lon="4.82412">
        <ele>310</ele>
        <time>2011-12-18T11:42:19Z</time>
      </trkpt>
      <trkpt lat="45.85362" lon="4.8241">
        <ele>311</ele>
        <time>2011-12-18T11:42:23Z</time>
      </trkpt>
      <trkpt lat="45.85363" lon="4.82408">
        <ele>311</ele>
        <time>2011-12-18T11:42:25Z</time>
      </trkpt>
      <trkpt lat="45.85363" lon="4.82405">
        <ele>311</ele>
        <time>2011-12-18T11:42:28Z</time>
      </trkpt>
      <trkpt lat="45.85365" lon="4.82398">
        <ele>313</ele>
        <time>2011-12-18T11:42:33Z</time>
      </trkpt>
      <trkpt lat="45.85367" lon="4.82389">
        <ele>314</ele>
        <time>2011-12-18T11:42:39Z</time>
      </trkpt>
      <trkpt lat="45.85368" lon="4.82383">
        <ele>314</ele>
        <time>2011-12-18T11:42:43Z</time>
      </trkpt>
      <trkpt lat="45.85368" lon="4.82382">
        <ele>315</ele>
        <time>2011-12-18T11:42:44Z</time>
      </trkpt>
      <trkpt lat="45.85369" lon="4.8238">
        <ele>315</ele>
        <time>2011-12-18T11:42:45Z</time>
      </trkpt>
      <trkpt lat="45.85373" lon="4.82367">
        <ele>316</ele>
        <time>2011-12-18T11:42:53Z</time>
      </trkpt>
      <trkpt lat="45.85374" lon="4.82361">
        <ele>316</ele>
        <time>2011-12-18T11:42:56Z</time>
      </trkpt>
      <trkpt lat="45.85373" lon="4.82359">
        <ele>316</ele>
        <time>2011-12-18T11:42:58Z</time>
      </trkpt>
      <trkpt lat="45.85372" lon="4.82355">
        <ele>316</ele>
        <time>2011-12-18T11:43:03Z</time>
      </trkpt>
      <trkpt lat="45.85373" lon="4.82354">
        <ele>316</ele>
        <time>2011-12-18T11:43:04Z</time>
      </trkpt>
      <trkpt lat="45.85373" lon="4.82353">
        <ele>317</ele>
        <time>2011-12-18T11:43:06Z</time>
      </trkpt>
      <trkpt lat="45.85376" lon="4.82351">
        <ele>317</ele>
        <time>2011-12-18T11:43:09Z</time>
      </trkpt>
      <trkpt lat="45.85378" lon="4.82348">
        <ele>318</ele>
        <time>2011-12-18T11:43:14Z</time>
      </trkpt>
      <trkpt lat="45.8538" lon="4.82342">
        <ele>319</ele>
        <time>2011-12-18T11:43:20Z</time>
      </trkpt>
      <trkpt lat="45.85383" lon="4.82338">
        <ele>321</ele>
        <time>2011-12-18T11:43:26Z</time>
      </trkpt>
      <trkpt lat="45.85383" lon="4.82333">
        <ele>323</ele>
        <time>2011-12-18T11:43:31Z</time>
      </trkpt>
      <trkpt lat="45.85383" lon="4.82332">
        <ele>323</ele>
        <time>2011-12-18T11:43:32Z</time>
      </trkpt>
      <trkpt lat="45.85382" lon="4.82326">
        <ele>322</ele>
        <time>2011-12-18T11:43:38Z</time>
      </trkpt>
      <trkpt lat="45.85382" lon="4.82325">
        <ele>322</ele>
        <time>2011-12-18T11:43:39Z</time>
      </trkpt>
      <trkpt lat="45.85381" lon="4.8232">
        <ele>322</ele>
        <time>2011-12-18T11:43:46Z</time>
      </trkpt>
      <trkpt lat="45.85385" lon="4.82315">
        <ele>323</ele>
        <time>2011-12-18T11:43:54Z</time>
      </trkpt>
      <trkpt lat="45.85387" lon="4.8231">
        <ele>323</ele>
        <time>2011-12-18T11:44:00Z</time>
      </trkpt>
      <trkpt lat="45.85389" lon="4.82302">
        <ele>323</ele>
        <time>2011-12-18T11:44:05Z</time>
      </trkpt>
      <trkpt lat="45.85391" lon="4.82293">
        <ele>324</ele>
        <time>2011-12-18T11:44:12Z</time>
      </trkpt>
      <trkpt lat="45.85392" lon="4.82287">
        <ele>324</ele>
        <time>2011-12-18T11:44:18Z</time>
      </trkpt>
      <trkpt lat="45.85392" lon="4.82283">
        <ele>324</ele>
        <time>2011-12-18T11:44:20Z</time>
      </trkpt>
      <trkpt lat="45.85391" lon="4.8228">
        <ele>324</ele>
        <time>2011-12-18T11:44:22Z</time>
      </trkpt>
      <trkpt lat="45.8539" lon="4.82278">
        <ele>324</ele>
        <time>2011-12-18T11:44:24Z</time>
      </trkpt>
      <trkpt lat="45.85387" lon="4.82272">
        <ele>324</ele>
        <time>2011-12-18T11:44:30Z</time>
      </trkpt>
      <trkpt lat="45.85387" lon="4.82271">
        <ele>324</ele>
        <time>2011-12-18T11:44:32Z</time>
      </trkpt>
      <trkpt lat="45.85387" lon="4.82266">
        <ele>324</ele>
        <time>2011-12-18T11:44:36Z</time>
      </trkpt>
      <trkpt lat="45.85389" lon="4.82261">
        <ele>325</ele>
        <time>2011-12-18T11:44:45Z</time>
      </trkpt>
      <trkpt lat="45.85391" lon="4.82254">
        <ele>327</ele>
        <time>2011-12-18T11:44:50Z</time>
      </trkpt>
      <trkpt lat="45.85392" lon="4.82252">
        <ele>327</ele>
        <time>2011-12-18T11:44:52Z</time>
      </trkpt>
      <trkpt lat="45.85391" lon="4.82245">
        <ele>329</ele>
        <time>2011-12-18T11:45:00Z</time>
      </trkpt>
      <trkpt lat="45.85389" lon="4.8224">
        <ele>328</ele>
        <time>2011-12-18T11:45:05Z</time>
      </trkpt>
      <trkpt lat="45.85389" lon="4.82235">
        <ele>327</ele>
        <time>2011-12-18T11:45:10Z</time>
      </trkpt>
      <trkpt lat="45.85389" lon="4.82229">
        <ele>327</ele>
        <time>2011-12-18T11:45:17Z</time>
      </trkpt>
      <trkpt lat="45.8539" lon="4.82228">
        <ele>327</ele>
        <time>2011-12-18T11:45:18Z</time>
      </trkpt>
      <trkpt lat="45.85392" lon="4.82221">
        <ele>327</ele>
        <time>2011-12-18T11:45:22Z</time>
      </trkpt>
      <trkpt lat="45.85392" lon="4.82218">
        <ele>327</ele>
        <time>2011-12-18T11:45:23Z</time>
      </trkpt>
      <trkpt lat="45.85392" lon="4.82214">
        <ele>327</ele>
        <time>2011-12-18T11:45:26Z</time>
      </trkpt>
      <trkpt lat="45.85393" lon="4.82214">
        <ele>327</ele>
        <time>2011-12-18T11:45:28Z</time>
      </trkpt>
      <trkpt lat="45.85393" lon="4.82209">
        <ele>327</ele>
        <time>2011-12-18T11:45:33Z</time>
      </trkpt>
      <trkpt lat="45.85396" lon="4.82206">
        <ele>328</ele>
        <time>2011-12-18T11:45:36Z</time>
      </trkpt>
      <trkpt lat="45.85397" lon="4.82202">
        <ele>328</ele>
        <time>2011-12-18T11:45:39Z</time>
      </trkpt>
      <trkpt lat="45.85397" lon="4.822">
        <ele>328</ele>
        <time>2011-12-18T11:45:40Z</time>
      </trkpt>
      <trkpt lat="45.85398" lon="4.82197">
        <ele>329</ele>
        <time>2011-12-18T11:45:43Z</time>
      </trkpt>
      <trkpt lat="45.85399" lon="4.82195">
        <ele>329</ele>
        <time>2011-12-18T11:45:45Z</time>
      </trkpt>
      <trkpt lat="45.854" lon="4.82193">
        <ele>329</ele>
        <time>2011-12-18T11:45:48Z</time>
      </trkpt>
      <trkpt lat="45.85401" lon="4.82191">
        <ele>330</ele>
        <time>2011-12-18T11:45:49Z</time>
      </trkpt>
      <trkpt lat="45.85402" lon="4.82187">
        <ele>330</ele>
        <time>2011-12-18T11:45:53Z</time>
      </trkpt>
      <trkpt lat="45.85403" lon="4.82184">
        <ele>331</ele>
        <time>2011-12-18T11:45:55Z</time>
      </trkpt>
      <trkpt lat="45.85403" lon="4.82181">
        <ele>332</ele>
        <time>2011-12-18T11:45:58Z</time>
      </trkpt>
      <trkpt lat="45.85403" lon="4.8218">
        <ele>332</ele>
        <time>2011-12-18T11:45:59Z</time>
      </trkpt>
      <trkpt lat="45.85406" lon="4.82171">
        <ele>334</ele>
        <time>2011-12-18T11:46:05Z</time>
      </trkpt>
      <trkpt lat="45.85408" lon="4.82166">
        <ele>338</ele>
        <time>2011-12-18T11:46:11Z</time>
      </trkpt>
      <trkpt lat="45.85408" lon="4.82165">
        <ele>338</ele>
        <time>2011-12-18T11:46:12Z</time>
      </trkpt>
      <trkpt lat="45.85408" lon="4.82164">
        <ele>338</ele>
        <time>2011-12-18T11:46:13Z</time>
      </trkpt>
      <trkpt lat="45.8541" lon="4.82158">
        <ele>337</ele>
        <time>2011-12-18T11:46:17Z</time>
      </trkpt>
      <trkpt lat="45.8541" lon="4.82157">
        <ele>337</ele>
        <time>2011-12-18T11:46:18Z</time>
      </trkpt>
      <trkpt lat="45.85411" lon="4.82152">
        <ele>337</ele>
        <time>2011-12-18T11:46:22Z</time>
      </trkpt>
      <trkpt lat="45.85411" lon="4.82151">
        <ele>337</ele>
        <time>2011-12-18T11:46:23Z</time>
      </trkpt>
      <trkpt lat="45.85411" lon="4.8215">
        <ele>337</ele>
        <time>2011-12-18T11:46:24Z</time>
      </trkpt>
      <trkpt lat="45.85411" lon="4.82142">
        <ele>336</ele>
        <time>2011-12-18T11:46:28Z</time>
      </trkpt>
      <trkpt lat="45.85414" lon="4.82136">
        <ele>336</ele>
        <time>2011-12-18T11:46:34Z</time>
      </trkpt>
      <trkpt lat="45.85417" lon="4.82135">
        <ele>354</ele>
        <time>2011-12-18T11:46:39Z</time>
      </trkpt>
      <trkpt lat="45.85418" lon="4.82136">
        <ele>354</ele>
        <time>2011-12-18T11:46:40Z</time>
      </trkpt>
      <trkpt lat="45.8542" lon="4.82137">
        <ele>354</ele>
        <time>2011-12-18T11:46:45Z</time>
      </trkpt>
      <trkpt lat="45.85424" lon="4.82136">
        <ele>355</ele>
        <time>2011-12-18T11:46:50Z</time>
      </trkpt>
      <trkpt lat="45.85426" lon="4.82135">
        <ele>355</ele>
        <time>2011-12-18T11:46:55Z</time>
      </trkpt>
      <trkpt lat="45.85427" lon="4.82135">
        <ele>355</ele>
        <time>2011-12-18T11:46:57Z</time>
      </trkpt>
      <trkpt lat="45.85429" lon="4.82134">
        <ele>356</ele>
        <time>2011-12-18T11:47:02Z</time>
      </trkpt>
      <trkpt lat="45.85431" lon="4.82131">
        <ele>356</ele>
        <time>2011-12-18T11:47:06Z</time>
      </trkpt>
      <trkpt lat="45.8543" lon="4.8213">
        <ele>356</ele>
        <time>2011-12-18T11:47:17Z</time>
      </trkpt>
      <trkpt lat="45.85429" lon="4.8213">
        <ele>356</ele>
        <time>2011-12-18T11:47:26Z</time>
      </trkpt>
      <trkpt lat="45.8543" lon="4.82126">
        <ele>356</ele>
        <time>2011-12-18T11:47:29Z</time>
      </trkpt>
      <trkpt lat="45.8543" lon="4.82125">
        <ele>356</ele>
        <time>2011-12-18T11:47:30Z</time>
      </trkpt>
      <trkpt lat="45.85428" lon="4.82116">
        <ele>356</ele>
        <time>2011-12-18T11:47:35Z</time>
      </trkpt>
      <trkpt lat="45.85425" lon="4.82103">
        <ele>354</ele>
        <time>2011-12-18T11:47:41Z</time>
      </trkpt>
      <trkpt lat="45.85426" lon="4.82093">
        <ele>351</ele>
        <time>2011-12-18T11:47:47Z</time>
      </trkpt>
      <trkpt lat="45.85426" lon="4.82082">
        <ele>352</ele>
        <time>2011-12-18T11:47:53Z</time>
      </trkpt>
      <trkpt lat="45.85425" lon="4.82078">
        <ele>352</ele>
        <time>2011-12-18T11:47:56Z</time>
      </trkpt>
      <trkpt lat="45.85425" lon="4.82077">
        <ele>353</ele>
        <time>2011-12-18T11:47:57Z</time>
      </trkpt>
      <trkpt lat="45.85425" lon="4.82075">
        <ele>354</ele>
        <time>2011-12-18T11:48:00Z</time>
      </trkpt>
      <trkpt lat="45.85426" lon="4.82073">
        <ele>354</ele>
        <time>2011-12-18T11:48:02Z</time>
      </trkpt>
      <trkpt lat="45.85421" lon="4.82066">
        <ele>356</ele>
        <time>2011-12-18T11:48:06Z</time>
      </trkpt>
      <trkpt lat="45.8542" lon="4.82062">
        <ele>358</ele>
        <time>2011-12-18T11:48:08Z</time>
      </trkpt>
      <trkpt lat="45.85413" lon="4.82052">
        <ele>348</ele>
        <time>2011-12-18T11:48:13Z</time>
      </trkpt>
      <trkpt lat="45.85413" lon="4.8205">
        <ele>349</ele>
        <time>2011-12-18T11:48:14Z</time>
      </trkpt>
      <trkpt lat="45.85408" lon="4.82047">
        <ele>349</ele>
        <time>2011-12-18T11:48:19Z</time>
      </trkpt>
      <trkpt lat="45.85405" lon="4.82044">
        <ele>350</ele>
        <time>2011-12-18T11:48:22Z</time>
      </trkpt>
      <trkpt lat="45.85404" lon="4.82043">
        <ele>350</ele>
        <time>2011-12-18T11:48:23Z</time>
      </trkpt>
      <trkpt lat="45.85401" lon="4.82042">
        <ele>350</ele>
        <time>2011-12-18T11:48:25Z</time>
      </trkpt>
      <trkpt lat="45.85397" lon="4.82042">
        <ele>350</ele>
        <time>2011-12-18T11:48:28Z</time>
      </trkpt>
      <trkpt lat="45.85395" lon="4.82045">
        <ele>349</ele>
        <time>2011-12-18T11:48:31Z</time>
      </trkpt>
      <trkpt lat="45.85392" lon="4.82045">
        <ele>349</ele>
        <time>2011-12-18T11:48:33Z</time>
      </trkpt>
      <trkpt lat="45.85386" lon="4.82046">
        <ele>349</ele>
        <time>2011-12-18T11:48:37Z</time>
      </trkpt>
      <trkpt lat="45.85385" lon="4.82048">
        <ele>349</ele>
        <time>2011-12-18T11:48:44Z</time>
      </trkpt>
      <trkpt lat="45.85384" lon="4.82051">
        <ele>349</ele>
        <time>2011-12-18T11:48:57Z</time>
      </trkpt>
      <trkpt lat="45.85384" lon="4.82053">
        <ele>349</ele>
        <time>2011-12-18T11:49:00Z</time>
      </trkpt>
      <trkpt lat="45.85385" lon="4.82055">
        <ele>348</ele>
        <time>2011-12-18T11:49:01Z</time>
      </trkpt>
      <trkpt lat="45.85384" lon="4.82058">
        <ele>348</ele>
        <time>2011-12-18T11:49:02Z</time>
      </trkpt>
      <trkpt lat="45.85383" lon="4.82065">
        <ele>347</ele>
        <time>2011-12-18T11:49:06Z</time>
      </trkpt>
      <trkpt lat="45.85382" lon="4.82065">
        <ele>347</ele>
        <time>2011-12-18T11:49:07Z</time>
      </trkpt>
      <trkpt lat="45.85377" lon="4.82068">
        <ele>347</ele>
        <time>2011-12-18T11:49:14Z</time>
      </trkpt>
      <trkpt lat="45.85375" lon="4.82072">
        <ele>347</ele>
        <time>2011-12-18T11:49:24Z</time>
      </trkpt>
      <trkpt lat="45.85373" lon="4.82073">
        <ele>347</ele>
        <time>2011-12-18T11:49:27Z</time>
      </trkpt>
      <trkpt lat="45.85371" lon="4.82074">
        <ele>346</ele>
        <time>2011-12-18T11:49:29Z</time>
      </trkpt>
      <trkpt lat="45.85369" lon="4.82075">
        <ele>346</ele>
        <time>2011-12-18T11:49:36Z</time>
      </trkpt>
      <trkpt lat="45.8537" lon="4.82077">
        <ele>346</ele>
        <time>2011-12-18T11:49:38Z</time>
      </trkpt>
      <trkpt lat="45.8537" lon="4.8208">
        <ele>346</ele>
        <time>2011-12-18T11:49:42Z</time>
      </trkpt>
      <trkpt lat="45.85369" lon="4.82083">
        <ele>346</ele>
        <time>2011-12-18T11:49:44Z</time>
      </trkpt>
      <trkpt lat="45.85366" lon="4.82086">
        <ele>336</ele>
        <time>2011-12-18T11:49:47Z</time>
      </trkpt>
      <trkpt lat="45.85365" lon="4.82088">
        <ele>336</ele>
        <time>2011-12-18T11:49:49Z</time>
      </trkpt>
      <trkpt lat="45.85364" lon="4.82089">
        <ele>336</ele>
        <time>2011-12-18T11:49:50Z</time>
      </trkpt>
      <trkpt lat="45.85363" lon="4.82091">
        <ele>335</ele>
        <time>2011-12-18T11:49:51Z</time>
      </trkpt>
      <trkpt lat="45.85362" lon="4.82094">
        <ele>335</ele>
        <time>2011-12-18T11:49:53Z</time>
      </trkpt>
      <trkpt lat="45.85358" lon="4.82099">
        <ele>335</ele>
        <time>2011-12-18T11:49:58Z</time>
      </trkpt>
      <trkpt lat="45.85356" lon="4.821">
        <ele>335</ele>
        <time>2011-12-18T11:50:00Z</time>
      </trkpt>
      <trkpt lat="45.85356" lon="4.821">
        <ele>335</ele>
        <time>2011-12-18T11:50:01Z</time>
      </trkpt>
      <trkpt lat="45.85355" lon="4.82101">
        <ele>335</ele>
        <time>2011-12-18T11:50:02Z</time>
      </trkpt>
      <trkpt lat="45.85352" lon="4.82106">
        <ele>334</ele>
        <time>2011-12-18T11:50:08Z</time>
      </trkpt>
      <trkpt lat="45.85352" lon="4.82109">
        <ele>334</ele>
        <time>2011-12-18T11:50:10Z</time>
      </trkpt>
      <trkpt lat="45.85353" lon="4.82111">
        <ele>334</ele>
        <time>2011-12-18T11:50:13Z</time>
      </trkpt>
      <trkpt lat="45.85352" lon="4.82113">
        <ele>333</ele>
        <time>2011-12-18T11:50:15Z</time>
      </trkpt>
      <trkpt lat="45.8535" lon="4.82115">
        <ele>333</ele>
        <time>2011-12-18T11:50:17Z</time>
      </trkpt>
      <trkpt lat="45.8535" lon="4.82118">
        <ele>332</ele>
        <time>2011-12-18T11:50:19Z</time>
      </trkpt>
      <trkpt lat="45.8535" lon="4.8212">
        <ele>332</ele>
        <time>2011-12-18T11:50:21Z</time>
      </trkpt>
      <trkpt lat="45.85351" lon="4.82128">
        <ele>331</ele>
        <time>2011-12-18T11:50:27Z</time>
      </trkpt>
      <trkpt lat="45.85352" lon="4.82134">
        <ele>330</ele>
        <time>2011-12-18T11:50:32Z</time>
      </trkpt>
      <trkpt lat="45.85351" lon="4.82136">
        <ele>329</ele>
        <time>2011-12-18T11:50:35Z</time>
      </trkpt>
      <trkpt lat="45.8535" lon="4.8214">
        <ele>328</ele>
        <time>2011-12-18T11:50:39Z</time>
      </trkpt>
      <trkpt lat="45.85349" lon="4.82143">
        <ele>328</ele>
        <time>2011-12-18T11:50:41Z</time>
      </trkpt>
      <trkpt lat="45.85348" lon="4.82148">
        <ele>326</ele>
        <time>2011-12-18T11:50:44Z</time>
      </trkpt>
      <trkpt lat="45.85349" lon="4.82149">
        <ele>326</ele>
        <time>2011-12-18T11:50:45Z</time>
      </trkpt>
      <trkpt lat="45.85346" lon="4.82153">
        <ele>324</ele>
        <time>2011-12-18T11:50:51Z</time>
      </trkpt>
      <trkpt lat="45.85345" lon="4.82158">
        <ele>323</ele>
        <time>2011-12-18T11:50:55Z</time>
      </trkpt>
      <trkpt lat="45.85344" lon="4.8216">
        <ele>322</ele>
        <time>2011-12-18T11:50:57Z</time>
      </trkpt>
      <trkpt lat="45.85337" lon="4.82167">
        <ele>315</ele>
        <time>2011-12-18T11:51:04Z</time>
      </trkpt>
      <trkpt lat="45.85334" lon="4.82168">
        <ele>314</ele>
        <time>2011-12-18T11:51:09Z</time>
      </trkpt>
      <trkpt lat="45.85333" lon="4.82169">
        <ele>313</ele>
        <time>2011-12-18T11:51:18Z</time>
      </trkpt>
      <trkpt lat="45.85332" lon="4.82175">
        <ele>314</ele>
        <time>2011-12-18T11:51:22Z</time>
      </trkpt>
      <trkpt lat="45.85332" lon="4.82176">
        <ele>314</ele>
        <time>2011-12-18T11:51:23Z</time>
      </trkpt>
      <trkpt lat="45.85331" lon="4.82177">
        <ele>314</ele>
        <time>2011-12-18T11:51:24Z</time>
      </trkpt>
      <trkpt lat="45.85331" lon="4.82179">
        <ele>314</ele>
        <time>2011-12-18T11:51:26Z</time>
      </trkpt>
      <trkpt lat="45.85329" lon="4.82184">
        <ele>314</ele>
        <time>2011-12-18T11:51:29Z</time>
      </trkpt>
      <trkpt lat="45.85324" lon="4.82193">
        <ele>314</ele>
        <time>2011-12-18T11:51:35Z</time>
      </trkpt>
      <trkpt lat="45.85323" lon="4.82195">
        <ele>314</ele>
        <time>2011-12-18T11:51:37Z</time>
      </trkpt>
      <trkpt lat="45.85323" lon="4.82197">
        <ele>313</ele>
        <time>2011-12-18T11:51:38Z</time>
      </trkpt>
      <trkpt lat="45.85321" lon="4.822">
        <ele>313</ele>
        <time>2011-12-18T11:51:40Z</time>
      </trkpt>
      <trkpt lat="45.8532" lon="4.82207">
        <ele>313</ele>
        <time>2011-12-18T11:51:44Z</time>
      </trkpt>
      <trkpt lat="45.85319" lon="4.82208">
        <ele>313</ele>
        <time>2011-12-18T11:51:45Z</time>
      </trkpt>
      <trkpt lat="45.85317" lon="4.82212">
        <ele>312</ele>
        <time>2011-12-18T11:51:50Z</time>
      </trkpt>
      <trkpt lat="45.85315" lon="4.82216">
        <ele>312</ele>
        <time>2011-12-18T11:51:55Z</time>
      </trkpt>
      <trkpt lat="45.85313" lon="4.82219">
        <ele>312</ele>
        <time>2011-12-18T11:51:57Z</time>
      </trkpt>
      <trkpt lat="45.85311" lon="4.82222">
        <ele>312</ele>
        <time>2011-12-18T11:52:01Z</time>
      </trkpt>
      <trkpt lat="45.85308" lon="4.82226">
        <ele>311</ele>
        <time>2011-12-18T11:52:06Z</time>
      </trkpt>
      <trkpt lat="45.85308" lon="4.82227">
        <ele>311</ele>
        <time>2011-12-18T11:52:07Z</time>
      </trkpt>
      <trkpt lat="45.85305" lon="4.82233">
        <ele>311</ele>
        <time>2011-12-18T11:52:11Z</time>
      </trkpt>
      <trkpt lat="45.85304" lon="4.82234">
        <ele>311</ele>
        <time>2011-12-18T11:52:12Z</time>
      </trkpt>
      <trkpt lat="45.85302" lon="4.8224">
        <ele>311</ele>
        <time>2011-12-18T11:52:15Z</time>
      </trkpt>
      <trkpt lat="45.853" lon="4.82243">
        <ele>310</ele>
        <time>2011-12-18T11:52:17Z</time>
      </trkpt>
      <trkpt lat="45.853" lon="4.82244">
        <ele>310</ele>
        <time>2011-12-18T11:52:18Z</time>
      </trkpt>
      <trkpt lat="45.85297" lon="4.82245">
        <ele>311</ele>
        <time>2011-12-18T11:52:21Z</time>
      </trkpt>
      <trkpt lat="45.85296" lon="4.82245">
        <ele>311</ele>
        <time>2011-12-18T11:52:23Z</time>
      </trkpt>
      <trkpt lat="45.85294" lon="4.82244">
        <ele>311</ele>
        <time>2011-12-18T11:52:32Z</time>
      </trkpt>
      <trkpt lat="45.85296" lon="4.82248">
        <ele>311</ele>
        <time>2011-12-18T11:52:37Z</time>
      </trkpt>
      <trkpt lat="45.85296" lon="4.8225">
        <ele>311</ele>
        <time>2011-12-18T11:52:38Z</time>
      </trkpt>
      <trkpt lat="45.85294" lon="4.82253">
        <ele>299</ele>
        <time>2011-12-18T11:52:42Z</time>
      </trkpt>
      <trkpt lat="45.85294" lon="4.82254">
        <ele>299</ele>
        <time>2011-12-18T11:52:43Z</time>
      </trkpt>
      <trkpt lat="45.85294" lon="4.82255">
        <ele>299</ele>
        <time>2011-12-18T11:52:44Z</time>
      </trkpt>
      <trkpt lat="45.85293" lon="4.82257">
        <ele>299</ele>
        <time>2011-12-18T11:52:48Z</time>
      </trkpt>
      <trkpt lat="45.85293" lon="4.8226">
        <ele>298</ele>
        <time>2011-12-18T11:52:51Z</time>
      </trkpt>
      <trkpt lat="45.85291" lon="4.82265">
        <ele>298</ele>
        <time>2011-12-18T11:52:54Z</time>
      </trkpt>
      <trkpt lat="45.85288" lon="4.82275">
        <ele>297</ele>
        <time>2011-12-18T11:53:00Z</time>
      </trkpt>
      <trkpt lat="45.85287" lon="4.82277">
        <ele>297</ele>
        <time>2011-12-18T11:53:01Z</time>
      </trkpt>
      <trkpt lat="45.85284" lon="4.82287">
        <ele>296</ele>
        <time>2011-12-18T11:53:06Z</time>
      </trkpt>
      <trkpt lat="45.85283" lon="4.82289">
        <ele>296</ele>
        <time>2011-12-18T11:53:07Z</time>
      </trkpt>
      <trkpt lat="45.8528" lon="4.82298">
        <ele>294</ele>
        <time>2011-12-18T11:53:13Z</time>
      </trkpt>
      <trkpt lat="45.8528" lon="4.823">
        <ele>294</ele>
        <time>2011-12-18T11:53:14Z</time>
      </trkpt>
      <trkpt lat="45.85279" lon="4.82305">
        <ele>293</ele>
        <time>2011-12-18T11:53:16Z</time>
      </trkpt>
      <trkpt lat="45.85276" lon="4.82316">
        <ele>291</ele>
        <time>2011-12-18T11:53:19Z</time>
      </trkpt>
      <trkpt lat="45.85273" lon="4.82327">
        <ele>289</ele>
        <time>2011-12-18T11:53:23Z</time>
      </trkpt>
      <trkpt lat="45.85271" lon="4.82331">
        <ele>288</ele>
        <time>2011-12-18T11:53:25Z</time>
      </trkpt>
      <trkpt lat="45.85268" lon="4.82341">
        <ele>280</ele>
        <time>2011-12-18T11:53:29Z</time>
      </trkpt>
      <trkpt lat="45.85266" lon="4.82348">
        <ele>280</ele>
        <time>2011-12-18T11:53:35Z</time>
      </trkpt>
      <trkpt lat="45.85265" lon="4.82347">
        <ele>280</ele>
        <time>2011-12-18T11:53:36Z</time>
      </trkpt>
      <trkpt lat="45.85264" lon="4.82346">
        <ele>280</ele>
        <time>2011-12-18T11:53:38Z</time>
      </trkpt>
      <trkpt lat="45.85262" lon="4.82345">
        <ele>280</ele>
        <time>2011-12-18T11:53:40Z</time>
      </trkpt>
      <trkpt lat="45.85253" lon="4.82341">
        <ele>279</ele>
        <time>2011-12-18T11:53:45Z</time>
      </trkpt>
      <trkpt lat="45.8525" lon="4.82338">
        <ele>279</ele>
        <time>2011-12-18T11:53:48Z</time>
      </trkpt>
      <trkpt lat="45.85248" lon="4.82334">
        <ele>280</ele>
        <time>2011-12-18T11:53:51Z</time>
      </trkpt>
      <trkpt lat="45.85246" lon="4.82333">
        <ele>284</ele>
        <time>2011-12-18T11:53:52Z</time>
      </trkpt>
      <trkpt lat="45.85245" lon="4.82331">
        <ele>286</ele>
        <time>2011-12-18T11:53:53Z</time>
      </trkpt>
      <trkpt lat="45.85244" lon="4.8233">
        <ele>288</ele>
        <time>2011-12-18T11:53:59Z</time>
      </trkpt>
      <trkpt lat="45.85246" lon="4.82334">
        <ele>281</ele>
        <time>2011-12-18T11:54:03Z</time>
      </trkpt>
      <trkpt lat="45.8525" lon="4.82342">
        <ele>282</ele>
        <time>2011-12-18T11:54:07Z</time>
      </trkpt>
      <trkpt lat="45.85253" lon="4.82342">
        <ele>279</ele>
        <time>2011-12-18T11:54:09Z</time>
      </trkpt>
      <trkpt lat="45.85259" lon="4.82348">
        <ele>280</ele>
        <time>2011-12-18T11:54:15Z</time>
      </trkpt>
      <trkpt lat="45.8526" lon="4.82349">
        <ele>280</ele>
        <time>2011-12-18T11:54:16Z</time>
      </trkpt>
      <trkpt lat="45.85261" lon="4.82358">
        <ele>280</ele>
        <time>2011-12-18T11:54:21Z</time>
      </trkpt>
      <trkpt lat="45.85261" lon="4.82363">
        <ele>279</ele>
        <time>2011-12-18T11:54:23Z</time>
      </trkpt>
      <trkpt lat="45.85261" lon="4.82366">
        <ele>279</ele>
        <time>2011-12-18T11:54:25Z</time>
      </trkpt>
      <trkpt lat="45.8526" lon="4.82368">
        <ele>279</ele>
        <time>2011-12-18T11:54:26Z</time>
      </trkpt>
      <trkpt lat="45.85257" lon="4.82379">
        <ele>277</ele>
        <time>2011-12-18T11:54:33Z</time>
      </trkpt>
      <trkpt lat="45.85255" lon="4.82387">
        <ele>276</ele>
        <time>2011-12-18T11:54:38Z</time>
      </trkpt>
      <trkpt lat="45.85255" lon="4.82388">
        <ele>275</ele>
        <time>2011-12-18T11:54:39Z</time>
      </trkpt>
      <trkpt lat="45.85253" lon="4.8239">
        <ele>275</ele>
        <time>2011-12-18T11:54:40Z</time>
      </trkpt>
      <trkpt lat="45.85251" lon="4.82395">
        <ele>273</ele>
        <time>2011-12-18T11:54:43Z</time>
      </trkpt>
      <trkpt lat="45.85251" lon="4.82398">
        <ele>272</ele>
        <time>2011-12-18T11:54:45Z</time>
      </trkpt>
      <trkpt lat="45.85251" lon="4.824">
        <ele>272</ele>
        <time>2011-12-18T11:54:47Z</time>
      </trkpt>
      <trkpt lat="45.8525" lon="4.82401">
        <ele>271</ele>
        <time>2011-12-18T11:54:48Z</time>
      </trkpt>
      <trkpt lat="45.85249" lon="4.82411">
        <ele>268</ele>
        <time>2011-12-18T11:54:54Z</time>
      </trkpt>
      <trkpt lat="45.85248" lon="4.8241">
        <ele>269</ele>
        <time>2011-12-18T11:54:58Z</time>
      </trkpt>
      <trkpt lat="45.85248" lon="4.82418">
        <ele>263</ele>
        <time>2011-12-18T11:55:05Z</time>
      </trkpt>
      <trkpt lat="45.85244" lon="4.82434">
        <ele>264</ele>
        <time>2011-12-18T11:55:12Z</time>
      </trkpt>
      <trkpt lat="45.85243" lon="4.82437">
        <ele>264</ele>
        <time>2011-12-18T11:55:13Z</time>
      </trkpt>
      <trkpt lat="45.85246" lon="4.82452">
        <ele>262</ele>
        <time>2011-12-18T11:55:18Z</time>
      </trkpt>
      <trkpt lat="45.85248" lon="4.82461">
        <ele>261</ele>
        <time>2011-12-18T11:55:21Z</time>
      </trkpt>
      <trkpt lat="45.85249" lon="4.82465">
        <ele>261</ele>
        <time>2011-12-18T11:55:23Z</time>
      </trkpt>
      <trkpt lat="45.85249" lon="4.82466">
        <ele>260</ele>
        <time>2011-12-18T11:55:24Z</time>
      </trkpt>
      <trkpt lat="45.85246" lon="4.8247">
        <ele>260</ele>
        <time>2011-12-18T11:55:27Z</time>
      </trkpt>
      <trkpt lat="45.85242" lon="4.8247">
        <ele>260</ele>
        <time>2011-12-18T11:55:31Z</time>
      </trkpt>
      <trkpt lat="45.85236" lon="4.8247">
        <ele>260</ele>
        <time>2011-12-18T11:55:33Z</time>
      </trkpt>
      <trkpt lat="45.8523" lon="4.82473">
        <ele>260</ele>
        <time>2011-12-18T11:55:39Z</time>
      </trkpt>
      <trkpt lat="45.8523" lon="4.82473">
        <ele>260</ele>
        <time>2011-12-18T11:55:48Z</time>
      </trkpt>
      <trkpt lat="45.85228" lon="4.8248">
        <ele>260</ele>
        <time>2011-12-18T11:55:57Z</time>
      </trkpt>
      <trkpt lat="45.85223" lon="4.82488">
        <ele>259</ele>
        <time>2011-12-18T11:56:03Z</time>
      </trkpt>
      <trkpt lat="45.85222" lon="4.82489">
        <ele>259</ele>
        <time>2011-12-18T11:56:04Z</time>
      </trkpt>
      <trkpt lat="45.85216" lon="4.8249">
        <ele>260</ele>
        <time>2011-12-18T11:56:09Z</time>
      </trkpt>
      <trkpt lat="45.85215" lon="4.8249">
        <ele>260</ele>
        <time>2011-12-18T11:56:10Z</time>
      </trkpt>
      <trkpt lat="45.85214" lon="4.82494">
        <ele>259</ele>
        <time>2011-12-18T11:56:13Z</time>
      </trkpt>
      <trkpt lat="45.85214" lon="4.82504">
        <ele>249</ele>
        <time>2011-12-18T11:56:17Z</time>
      </trkpt>
      <trkpt lat="45.85212" lon="4.82508">
        <ele>249</ele>
        <time>2011-12-18T11:56:19Z</time>
      </trkpt>
      <trkpt lat="45.8521" lon="4.82515">
        <ele>249</ele>
        <time>2011-12-18T11:56:23Z</time>
      </trkpt>
      <trkpt lat="45.8521" lon="4.8252">
        <ele>249</ele>
        <time>2011-12-18T11:56:25Z</time>
      </trkpt>
      <trkpt lat="45.85209" lon="4.8253">
        <ele>248</ele>
        <time>2011-12-18T11:56:28Z</time>
      </trkpt>
      <trkpt lat="45.85208" lon="4.82534">
        <ele>248</ele>
        <time>2011-12-18T11:56:30Z</time>
      </trkpt>
      <trkpt lat="45.85203" lon="4.82552">
        <ele>247</ele>
        <time>2011-12-18T11:56:34Z</time>
      </trkpt>
      <trkpt lat="45.85201" lon="4.82556">
        <ele>247</ele>
        <time>2011-12-18T11:56:35Z</time>
      </trkpt>
      <trkpt lat="45.85197" lon="4.82573">
        <ele>246</ele>
        <time>2011-12-18T11:56:41Z</time>
      </trkpt>
      <trkpt lat="45.85196" lon="4.82581">
        <ele>246</ele>
        <time>2011-12-18T11:56:43Z</time>
      </trkpt>
      <trkpt lat="45.85195" lon="4.82593">
        <ele>242</ele>
        <time>2011-12-18T11:56:45Z</time>
      </trkpt>
      <trkpt lat="45.85193" lon="4.82608">
        <ele>242</ele>
        <time>2011-12-18T11:56:50Z</time>
      </trkpt>
      <trkpt lat="45.85189" lon="4.82615">
        <ele>241</ele>
        <time>2011-12-18T11:56:56Z</time>
      </trkpt>
      <trkpt lat="45.85179" lon="4.82624">
        <ele>241</ele>
        <time>2011-12-18T11:57:00Z</time>
      </trkpt>
      <trkpt lat="45.85166" lon="4.82628">
        <ele>244</ele>
        <time>2011-12-18T11:57:06Z</time>
      </trkpt>
      <trkpt lat="45.8516" lon="4.82629">
        <ele>244</ele>
        <time>2011-12-18T11:57:08Z</time>
      </trkpt>
      <trkpt lat="45.85152" lon="4.82636">
        <ele>244</ele>
        <time>2011-12-18T11:57:10Z</time>
      </trkpt>
      <trkpt lat="45.85143" lon="4.82641">
        <ele>244</ele>
        <time>2011-12-18T11:57:14Z</time>
      </trkpt>
      <trkpt lat="45.85136" lon="4.82642">
        <ele>244</ele>
        <time>2011-12-18T11:57:15Z</time>
      </trkpt>
      <trkpt lat="45.85123" lon="4.82647">
        <ele>245</ele>
        <time>2011-12-18T11:57:20Z</time>
      </trkpt>
      <trkpt lat="45.85107" lon="4.8265">
        <ele>245</ele>
        <time>2011-12-18T11:57:26Z</time>
      </trkpt>
      <trkpt lat="45.85104" lon="4.8265">
        <ele>245</ele>
        <time>2011-12-18T11:57:28Z</time>
      </trkpt>
      <trkpt lat="45.85101" lon="4.82649">
        <ele>245</ele>
        <time>2011-12-18T11:57:31Z</time>
      </trkpt>
      <trkpt lat="45.85092" lon="4.82646">
        <ele>245</ele>
        <time>2011-12-18T11:57:41Z</time>
      </trkpt>
      <trkpt lat="45.85086" lon="4.82643">
        <ele>245</ele>
        <time>2011-12-18T11:57:47Z</time>
      </trkpt>
      <trkpt lat="45.85084" lon="4.82643">
        <ele>245</ele>
        <time>2011-12-18T11:57:49Z</time>
      </trkpt>
      <trkpt lat="45.85076" lon="4.82641">
        <ele>249</ele>
        <time>2011-12-18T11:57:57Z</time>
      </trkpt>
      <trkpt lat="45.85067" lon="4.82638">
        <ele>250</ele>
        <time>2011-12-18T11:58:03Z</time>
      </trkpt>
      <trkpt lat="45.85061" lon="4.82636">
        <ele>251</ele>
        <time>2011-12-18T11:58:10Z</time>
      </trkpt>
      <trkpt lat="45.85056" lon="4.82634">
        <ele>251</ele>
        <time>2011-12-18T11:58:15Z</time>
      </trkpt>
      <trkpt lat="45.85055" lon="4.82634">
        <ele>251</ele>
        <time>2011-12-18T11:58:16Z</time>
      </trkpt>
      <trkpt lat="45.85049" lon="4.82632">
        <ele>252</ele>
        <time>2011-12-18T11:58:21Z</time>
      </trkpt>
      <trkpt lat="45.85046" lon="4.82631">
        <ele>252</ele>
        <time>2011-12-18T11:58:22Z</time>
      </trkpt>
      <trkpt lat="45.8504" lon="4.82629">
        <ele>252</ele>
        <time>2011-12-18T11:58:26Z</time>
      </trkpt>
      <trkpt lat="45.85037" lon="4.82629">
        <ele>252</ele>
        <time>2011-12-18T11:58:29Z</time>
      </trkpt>
      <trkpt lat="45.85031" lon="4.82627">
        <ele>253</ele>
        <time>2011-12-18T11:58:33Z</time>
      </trkpt>
      <trkpt lat="45.85025" lon="4.82625">
        <ele>253</ele>
        <time>2011-12-18T11:58:38Z</time>
      </trkpt>
      <trkpt lat="45.85015" lon="4.82623">
        <ele>254</ele>
        <time>2011-12-18T11:58:46Z</time>
      </trkpt>
      <trkpt lat="45.85014" lon="4.82623">
        <ele>254</ele>
        <time>2011-12-18T11:58:47Z</time>
      </trkpt>
      <trkpt lat="45.85013" lon="4.82623">
        <ele>254</ele>
        <time>2011-12-18T11:58:48Z</time>
      </trkpt>
      <trkpt lat="45.85005" lon="4.82622">
        <ele>254</ele>
        <time>2011-12-18T11:58:54Z</time>
      </trkpt>
      <trkpt lat="45.85003" lon="4.82618">
        <ele>255</ele>
        <time>2011-12-18T11:59:13Z</time>
      </trkpt>
      <trkpt lat="45.85004" lon="4.82612">
        <ele>257</ele>
        <time>2011-12-18T11:59:19Z</time>
      </trkpt>
      <trkpt lat="45.85003" lon="4.82609">
        <ele>258</ele>
        <time>2011-12-18T11:59:21Z</time>
      </trkpt>
      <trkpt lat="45.85003" lon="4.82608">
        <ele>258</ele>
        <time>2011-12-18T11:59:23Z</time>
      </trkpt>
      <trkpt lat="45.85003" lon="4.82605">
        <ele>259</ele>
        <time>2011-12-18T11:59:25Z</time>
      </trkpt>
      <trkpt lat="45.85003" lon="4.82598">
        <ele>261</ele>
        <time>2011-12-18T11:59:32Z</time>
      </trkpt>
      <trkpt lat="45.85002" lon="4.82595">
        <ele>262</ele>
        <time>2011-12-18T11:59:35Z</time>
      </trkpt>
      <trkpt lat="45.85" lon="4.82594">
        <ele>263</ele>
        <time>2011-12-18T11:59:38Z</time>
      </trkpt>
      <trkpt lat="45.84997" lon="4.8259">
        <ele>265</ele>
        <time>2011-12-18T11:59:43Z</time>
      </trkpt>
      <trkpt lat="45.84996" lon="4.82587">
        <ele>265</ele>
        <time>2011-12-18T11:59:45Z</time>
      </trkpt>
      <trkpt lat="45.84993" lon="4.8258">
        <ele>271</ele>
        <time>2011-12-18T11:59:53Z</time>
      </trkpt>
      <trkpt lat="45.84993" lon="4.82579">
        <ele>272</ele>
        <time>2011-12-18T11:59:54Z</time>
      </trkpt>
      <trkpt lat="45.84993" lon="4.82575">
        <ele>273</ele>
        <time>2011-12-18T11:59:58Z</time>
      </trkpt>
      <trkpt lat="45.84994" lon="4.82574">
        <ele>273</ele>
        <time>2011-12-18T11:59:59Z</time>
      </trkpt>
      <trkpt lat="45.84995" lon="4.8257">
        <ele>274</ele>
        <time>2011-12-18T12:00:03Z</time>
      </trkpt>
      <trkpt lat="45.84998" lon="4.82567">
        <ele>274</ele>
        <time>2011-12-18T12:00:08Z</time>
      </trkpt>
      <trkpt lat="45.84999" lon="4.82565">
        <ele>275</ele>
        <time>2011-12-18T12:00:10Z</time>
      </trkpt>
      <trkpt lat="45.85" lon="4.82563">
        <ele>275</ele>
        <time>2011-12-18T12:00:12Z</time>
      </trkpt>
      <trkpt lat="45.85001" lon="4.82562">
        <ele>275</ele>
        <time>2011-12-18T12:00:13Z</time>
      </trkpt>
      <trkpt lat="45.85002" lon="4.82555">
        <ele>277</ele>
        <time>2011-12-18T12:00:22Z</time>
      </trkpt>
      <trkpt lat="45.85001" lon="4.82552">
        <ele>277</ele>
        <time>2011-12-18T12:00:24Z</time>
      </trkpt>
      <trkpt lat="45.85002" lon="4.8255">
        <ele>278</ele>
        <time>2011-12-18T12:00:27Z</time>
      </trkpt>
      <trkpt lat="45.85002" lon="4.82547">
        <ele>279</ele>
        <time>2011-12-18T12:00:29Z</time>
      </trkpt>
      <trkpt lat="45.85004" lon="4.82542">
        <ele>280</ele>
        <time>2011-12-18T12:00:33Z</time>
      </trkpt>
      <trkpt lat="45.85005" lon="4.82539">
        <ele>280</ele>
        <time>2011-12-18T12:00:37Z</time>
      </trkpt>
      <trkpt lat="45.85006" lon="4.82536">
        <ele>281</ele>
        <time>2011-12-18T12:00:39Z</time>
      </trkpt>
      <trkpt lat="45.85004" lon="4.8253">
        <ele>283</ele>
        <time>2011-12-18T12:00:44Z</time>
      </trkpt>
      <trkpt lat="45.85" lon="4.82528">
        <ele>283</ele>
        <time>2011-12-18T12:00:48Z</time>
      </trkpt>
      <trkpt lat="45.85" lon="4.82526">
        <ele>285</ele>
        <time>2011-12-18T12:00:52Z</time>
      </trkpt>
      <trkpt lat="45.84997" lon="4.82515">
        <ele>288</ele>
        <time>2011-12-18T12:01:03Z</time>
      </trkpt>
      <trkpt lat="45.84999" lon="4.82514">
        <ele>289</ele>
        <time>2011-12-18T12:01:05Z</time>
      </trkpt>
      <trkpt lat="45.85" lon="4.82512">
        <ele>289</ele>
        <time>2011-12-18T12:01:07Z</time>
      </trkpt>
      <trkpt lat="45.85002" lon="4.82509">
        <ele>290</ele>
        <time>2011-12-18T12:01:10Z</time>
      </trkpt>
      <trkpt lat="45.85007" lon="4.82505">
        <ele>290</ele>
        <time>2011-12-18T12:01:27Z</time>
      </trkpt>
      <trkpt lat="45.8501" lon="4.82506">
        <ele>289</ele>
        <time>2011-12-18T12:01:29Z</time>
      </trkpt>
      <trkpt lat="45.8501" lon="4.82503">
        <ele>290</ele>
        <time>2011-12-18T12:01:33Z</time>
      </trkpt>
      <trkpt lat="45.85009" lon="4.82498">
        <ele>298</ele>
        <time>2011-12-18T12:01:38Z</time>
      </trkpt>
      <trkpt lat="45.85007" lon="4.82492">
        <ele>298</ele>
        <time>2011-12-18T12:01:47Z</time>
      </trkpt>
      <trkpt lat="45.85007" lon="4.82488">
        <ele>299</ele>
        <time>2011-12-18T12:01:49Z</time>
      </trkpt>
      <trkpt lat="45.85005" lon="4.82485">
        <ele>299</ele>
        <time>2011-12-18T12:01:53Z</time>
      </trkpt>
      <trkpt lat="45.85005" lon="4.82477">
        <ele>301</ele>
        <time>2011-12-18T12:02:00Z</time>
      </trkpt>
      <trkpt lat="45.85003" lon="4.82473">
        <ele>302</ele>
        <time>2011-12-18T12:02:03Z</time>
      </trkpt>
      <trkpt lat="45.85003" lon="4.82469">
        <ele>303</ele>
        <time>2011-12-18T12:02:05Z</time>
      </trkpt>
      <trkpt lat="45.85002" lon="4.82468">
        <ele>303</ele>
        <time>2011-12-18T12:02:06Z</time>
      </trkpt>
      <trkpt lat="45.84999" lon="4.82464">
        <ele>302</ele>
        <time>2011-12-18T12:02:10Z</time>
      </trkpt>
      <trkpt lat="45.84998" lon="4.82464">
        <ele>302</ele>
        <time>2011-12-18T12:02:11Z</time>
      </trkpt>
      <trkpt lat="45.84995" lon="4.8246">
        <ele>303</ele>
        <time>2011-12-18T12:02:15Z</time>
      </trkpt>
      <trkpt lat="45.84992" lon="4.82455">
        <ele>304</ele>
        <time>2011-12-18T12:02:21Z</time>
      </trkpt>
      <trkpt lat="45.84991" lon="4.82454">
        <ele>304</ele>
        <time>2011-12-18T12:02:22Z</time>
      </trkpt>
      <trkpt lat="45.84989" lon="4.8245">
        <ele>304</ele>
        <time>2011-12-18T12:02:27Z</time>
      </trkpt>
      <trkpt lat="45.84985" lon="4.82444">
        <ele>305</ele>
        <time>2011-12-18T12:02:39Z</time>
      </trkpt>
      <trkpt lat="45.84987" lon="4.8244">
        <ele>306</ele>
        <time>2011-12-18T12:02:51Z</time>
      </trkpt>
      <trkpt lat="45.84981" lon="4.82443">
        <ele>305</ele>
        <time>2011-12-18T12:03:09Z</time>
      </trkpt>
      <trkpt lat="45.84978" lon="4.82446">
        <ele>305</ele>
        <time>2011-12-18T12:03:13Z</time>
      </trkpt>
      <trkpt lat="45.84975" lon="4.82448">
        <ele>304</ele>
        <time>2011-12-18T12:03:15Z</time>
      </trkpt>
      <trkpt lat="45.84969" lon="4.82452">
        <ele>303</ele>
        <time>2011-12-18T12:03:21Z</time>
      </trkpt>
      <trkpt lat="45.84966" lon="4.82454">
        <ele>303</ele>
        <time>2011-12-18T12:03:25Z</time>
      </trkpt>
      <trkpt lat="45.84964" lon="4.82456">
        <ele>302</ele>
        <time>2011-12-18T12:03:27Z</time>
      </trkpt>
      <trkpt lat="45.84961" lon="4.82458">
        <ele>302</ele>
        <time>2011-12-18T12:03:29Z</time>
      </trkpt>
      <trkpt lat="45.84955" lon="4.82461">
        <ele>301</ele>
        <time>2011-12-18T12:03:33Z</time>
      </trkpt>
      <trkpt lat="45.84954" lon="4.82462">
        <ele>301</ele>
        <time>2011-12-18T12:03:35Z</time>
      </trkpt>
      <trkpt lat="45.8495" lon="4.82465">
        <ele>301</ele>
        <time>2011-12-18T12:03:40Z</time>
      </trkpt>
      <trkpt lat="45.8495" lon="4.82466">
        <ele>301</ele>
        <time>2011-12-18T12:03:41Z</time>
      </trkpt>
      <trkpt lat="45.84946" lon="4.82467">
        <ele>300</ele>
        <time>2011-12-18T12:03:45Z</time>
      </trkpt>
      <trkpt lat="45.84944" lon="4.82468">
        <ele>300</ele>
        <time>2011-12-18T12:03:47Z</time>
      </trkpt>
      <trkpt lat="45.84939" lon="4.8247">
        <ele>299</ele>
        <time>2011-12-18T12:03:51Z</time>
      </trkpt>
      <trkpt lat="45.84933" lon="4.82474">
        <ele>298</ele>
        <time>2011-12-18T12:03:57Z</time>
      </trkpt>
      <trkpt lat="45.8493" lon="4.82475">
        <ele>298</ele>
        <time>2011-12-18T12:03:59Z</time>
      </trkpt>
      <trkpt lat="45.84927" lon="4.82477">
        <ele>297</ele>
        <time>2011-12-18T12:04:02Z</time>
      </trkpt>
      <trkpt lat="45.84923" lon="4.82478">
        <ele>297</ele>
        <time>2011-12-18T12:04:05Z</time>
      </trkpt>
      <trkpt lat="45.84914" lon="4.82482">
        <ele>292</ele>
        <time>2011-12-18T12:04:12Z</time>
      </trkpt>
      <trkpt lat="45.84911" lon="4.82484">
        <ele>292</ele>
        <time>2011-12-18T12:04:16Z</time>
      </trkpt>
      <trkpt lat="45.84909" lon="4.82485">
        <ele>292</ele>
        <time>2011-12-18T12:04:18Z</time>
      </trkpt>
      <trkpt lat="45.84908" lon="4.82486">
        <ele>292</ele>
        <time>2011-12-18T12:04:19Z</time>
      </trkpt>
      <trkpt lat="45.849" lon="4.82489">
        <ele>291</ele>
        <time>2011-12-18T12:04:24Z</time>
      </trkpt>
      <trkpt lat="45.84893" lon="4.82492">
        <ele>291</ele>
        <time>2011-12-18T12:04:30Z</time>
      </trkpt>
      <trkpt lat="45.84892" lon="4.82493">
        <ele>291</ele>
        <time>2011-12-18T12:04:31Z</time>
      </trkpt>
      <trkpt lat="45.84885" lon="4.82496">
        <ele>291</ele>
        <time>2011-12-18T12:04:36Z</time>
      </trkpt>
      <trkpt lat="45.84879" lon="4.82495">
        <ele>291</ele>
        <time>2011-12-18T12:04:41Z</time>
      </trkpt>
      <trkpt lat="45.84878" lon="4.82495">
        <ele>291</ele>
        <time>2011-12-18T12:04:42Z</time>
      </trkpt>
      <trkpt lat="45.84873" lon="4.82494">
        <ele>290</ele>
        <time>2011-12-18T12:04:45Z</time>
      </trkpt>
      <trkpt lat="45.8487" lon="4.82494">
        <ele>290</ele>
        <time>2011-12-18T12:04:47Z</time>
      </trkpt>
      <trkpt lat="45.84867" lon="4.82494">
        <ele>290</ele>
        <time>2011-12-18T12:04:50Z</time>
      </trkpt>
      <trkpt lat="45.84863" lon="4.82494">
        <ele>290</ele>
        <time>2011-12-18T12:04:53Z</time>
      </trkpt>
      <trkpt lat="45.84855" lon="4.82495">
        <ele>288</ele>
        <time>2011-12-18T12:04:59Z</time>
      </trkpt>
      <trkpt lat="45.84844" lon="4.82494">
        <ele>286</ele>
        <time>2011-12-18T12:05:06Z</time>
      </trkpt>
      <trkpt lat="45.84838" lon="4.82496">
        <ele>284</ele>
        <time>2011-12-18T12:05:10Z</time>
      </trkpt>
      <trkpt lat="45.84834" lon="4.82496">
        <ele>283</ele>
        <time>2011-12-18T12:05:12Z</time>
      </trkpt>
      <trkpt lat="45.84831" lon="4.82493">
        <ele>280</ele>
        <time>2011-12-18T12:05:16Z</time>
      </trkpt>
      <trkpt lat="45.8483" lon="4.82492">
        <ele>280</ele>
        <time>2011-12-18T12:05:17Z</time>
      </trkpt>
      <trkpt lat="45.8483" lon="4.82491">
        <ele>280</ele>
        <time>2011-12-18T12:05:18Z</time>
      </trkpt>
      <trkpt lat="45.8483" lon="4.8249">
        <ele>280</ele>
        <time>2011-12-18T12:05:20Z</time>
      </trkpt>
      <trkpt lat="45.84829" lon="4.82487">
        <ele>280</ele>
        <time>2011-12-18T12:05:24Z</time>
      </trkpt>
      <trkpt lat="45.84826" lon="4.82481">
        <ele>280</ele>
        <time>2011-12-18T12:05:30Z</time>
      </trkpt>
      <trkpt lat="45.84825" lon="4.8248">
        <ele>280</ele>
        <time>2011-12-18T12:05:31Z</time>
      </trkpt>
      <trkpt lat="45.84825" lon="4.82479">
        <ele>280</ele>
        <time>2011-12-18T12:05:32Z</time>
      </trkpt>
      <trkpt lat="45.84826" lon="4.82477">
        <ele>280</ele>
        <time>2011-12-18T12:05:36Z</time>
      </trkpt>
      <trkpt lat="45.84827" lon="4.8247">
        <ele>281</ele>
        <time>2011-12-18T12:05:46Z</time>
      </trkpt>
      <trkpt lat="45.84829" lon="4.82466">
        <ele>281</ele>
        <time>2011-12-18T12:05:49Z</time>
      </trkpt>
      <trkpt lat="45.84829" lon="4.82464">
        <ele>282</ele>
        <time>2011-12-18T12:05:51Z</time>
      </trkpt>
      <trkpt lat="45.8483" lon="4.82462">
        <ele>282</ele>
        <time>2011-12-18T12:05:52Z</time>
      </trkpt>
      <trkpt lat="45.84831" lon="4.82459">
        <ele>282</ele>
        <time>2011-12-18T12:05:55Z</time>
      </trkpt>
      <trkpt lat="45.84831" lon="4.82458">
        <ele>283</ele>
        <time>2011-12-18T12:05:57Z</time>
      </trkpt>
      <trkpt lat="45.84831" lon="4.82457">
        <ele>283</ele>
        <time>2011-12-18T12:05:58Z</time>
      </trkpt>
      <trkpt lat="45.8483" lon="4.82453">
        <ele>283</ele>
        <time>2011-12-18T12:06:04Z</time>
      </trkpt>
      <trkpt lat="45.84828" lon="4.82449">
        <ele>284</ele>
        <time>2011-12-18T12:06:07Z</time>
      </trkpt>
      <trkpt lat="45.84828" lon="4.82446">
        <ele>285</ele>
        <time>2011-12-18T12:06:10Z</time>
      </trkpt>
      <trkpt lat="45.84827" lon="4.82443">
        <ele>285</ele>
        <time>2011-12-18T12:06:12Z</time>
      </trkpt>
      <trkpt lat="45.84829" lon="4.82441">
        <ele>286</ele>
        <time>2011-12-18T12:06:17Z</time>
      </trkpt>
      <trkpt lat="45.84832" lon="4.82435">
        <ele>288</ele>
        <time>2011-12-18T12:06:27Z</time>
      </trkpt>
      <trkpt lat="45.84832" lon="4.82433">
        <ele>289</ele>
        <time>2011-12-18T12:06:33Z</time>
      </trkpt>
      <trkpt lat="45.84831" lon="4.82433">
        <ele>289</ele>
        <time>2011-12-18T12:06:34Z</time>
      </trkpt>
      <trkpt lat="45.84829" lon="4.82433">
        <ele>289</ele>
        <time>2011-12-18T12:06:39Z</time>
      </trkpt>
      <trkpt lat="45.8483" lon="4.82432">
        <ele>289</ele>
        <time>2011-12-18T12:06:46Z</time>
      </trkpt>
      <trkpt lat="45.84832" lon="4.82431">
        <ele>290</ele>
        <time>2011-12-18T12:06:53Z</time>
      </trkpt>
      <trkpt lat="45.8483" lon="4.82433">
        <ele>289</ele>
        <time>2011-12-18T12:06:55Z</time>
      </trkpt>
      <trkpt lat="45.84828" lon="4.82433">
        <ele>288</ele>
        <time>2011-12-18T12:06:57Z</time>
      </trkpt>
      <trkpt lat="45.84824" lon="4.82432">
        <ele>288</ele>
        <time>2011-12-18T12:07:02Z</time>
      </trkpt>
      <trkpt lat="45.84823" lon="4.82431">
        <ele>288</ele>
        <time>2011-12-18T12:07:04Z</time>
      </trkpt>
      <trkpt lat="45.8482" lon="4.82429">
        <ele>288</ele>
        <time>2011-12-18T12:07:09Z</time>
      </trkpt>
      <trkpt lat="45.84814" lon="4.82422">
        <ele>287</ele>
        <time>2011-12-18T12:07:16Z</time>
      </trkpt>
      <trkpt lat="45.84814" lon="4.8242">
        <ele>287</ele>
        <time>2011-12-18T12:07:17Z</time>
      </trkpt>
      <trkpt lat="45.84818" lon="4.82414">
        <ele>294</ele>
        <time>2011-12-18T12:07:22Z</time>
      </trkpt>
      <trkpt lat="45.84818" lon="4.82413">
        <ele>294</ele>
        <time>2011-12-18T12:07:23Z</time>
      </trkpt>
      <trkpt lat="45.8482" lon="4.82412">
        <ele>295</ele>
        <time>2011-12-18T12:07:25Z</time>
      </trkpt>
      <trkpt lat="45.84828" lon="4.82406">
        <ele>296</ele>
        <time>2011-12-18T12:07:33Z</time>
      </trkpt>
      <trkpt lat="45.84829" lon="4.82405">
        <ele>296</ele>
        <time>2011-12-18T12:07:34Z</time>
      </trkpt>
      <trkpt lat="45.84834" lon="4.824">
        <ele>304</ele>
        <time>2011-12-18T12:07:39Z</time>
      </trkpt>
      <trkpt lat="45.84839" lon="4.82393">
        <ele>306</ele>
        <time>2011-12-18T12:07:45Z</time>
      </trkpt>
      <trkpt lat="45.84841" lon="4.82392">
        <ele>306</ele>
        <time>2011-12-18T12:07:47Z</time>
      </trkpt>
      <trkpt lat="45.84849" lon="4.82385">
        <ele>308</ele>
        <time>2011-12-18T12:07:54Z</time>
      </trkpt>
      <trkpt lat="45.8485" lon="4.82384">
        <ele>308</ele>
        <time>2011-12-18T12:07:55Z</time>
      </trkpt>
      <trkpt lat="45.8485" lon="4.82382">
        <ele>308</ele>
        <time>2011-12-18T12:07:56Z</time>
      </trkpt>
      <trkpt lat="45.84853" lon="4.82381">
        <ele>308</ele>
        <time>2011-12-18T12:08:00Z</time>
      </trkpt>
      <trkpt lat="45.84854" lon="4.82386">
        <ele>308</ele>
        <time>2011-12-18T12:08:05Z</time>
      </trkpt>
      <trkpt lat="45.84854" lon="4.82386">
        <ele>308</ele>
        <time>2011-12-18T12:08:06Z</time>
      </trkpt>
      <trkpt lat="45.84856" lon="4.82388">
        <ele>308</ele>
        <time>2011-12-18T12:08:21Z</time>
      </trkpt>
      <trkpt lat="45.84854" lon="4.82386">
        <ele>308</ele>
        <time>2011-12-18T12:08:28Z</time>
      </trkpt>
      <trkpt lat="45.84851" lon="4.82381">
        <ele>308</ele>
        <time>2011-12-18T12:08:30Z</time>
      </trkpt>
      <trkpt lat="45.84845" lon="4.82369">
        <ele>309</ele>
        <time>2011-12-18T12:08:34Z</time>
      </trkpt>
      <trkpt lat="45.84842" lon="4.82359">
        <ele>310</ele>
        <time>2011-12-18T12:08:37Z</time>
      </trkpt>
      <trkpt lat="45.84834" lon="4.82342">
        <ele>311</ele>
        <time>2011-12-18T12:08:42Z</time>
      </trkpt>
      <trkpt lat="45.8483" lon="4.82337">
        <ele>307</ele>
        <time>2011-12-18T12:08:44Z</time>
      </trkpt>
      <trkpt lat="45.84819" lon="4.82324">
        <ele>306</ele>
        <time>2011-12-18T12:08:49Z</time>
      </trkpt>
      <trkpt lat="45.84814" lon="4.8232">
        <ele>305</ele>
        <time>2011-12-18T12:08:51Z</time>
      </trkpt>
      <trkpt lat="45.84802" lon="4.82309">
        <ele>302</ele>
        <time>2011-12-18T12:08:56Z</time>
      </trkpt>
      <trkpt lat="45.84797" lon="4.82305">
        <ele>301</ele>
        <time>2011-12-18T12:08:58Z</time>
      </trkpt>
      <trkpt lat="45.84788" lon="4.82297">
        <ele>300</ele>
        <time>2011-12-18T12:09:02Z</time>
      </trkpt>
      <trkpt lat="45.84782" lon="4.82291">
        <ele>299</ele>
        <time>2011-12-18T12:09:05Z</time>
      </trkpt>
      <trkpt lat="45.84777" lon="4.82285">
        <ele>299</ele>
        <time>2011-12-18T12:09:08Z</time>
      </trkpt>
      <trkpt lat="45.84774" lon="4.82271">
        <ele>298</ele>
        <time>2011-12-18T12:09:14Z</time>
      </trkpt>
      <trkpt lat="45.84774" lon="4.82268">
        <ele>298</ele>
        <time>2011-12-18T12:09:15Z</time>
      </trkpt>
      <trkpt lat="45.84772" lon="4.82247">
        <ele>302</ele>
        <time>2011-12-18T12:09:22Z</time>
      </trkpt>
      <trkpt lat="45.84771" lon="4.82241">
        <ele>302</ele>
        <time>2011-12-18T12:09:24Z</time>
      </trkpt>
      <trkpt lat="45.84768" lon="4.82224">
        <ele>304</ele>
        <time>2011-12-18T12:09:31Z</time>
      </trkpt>
      <trkpt lat="45.84766" lon="4.82216">
        <ele>305</ele>
        <time>2011-12-18T12:09:36Z</time>
      </trkpt>
      <trkpt lat="45.84763" lon="4.8221">
        <ele>305</ele>
        <time>2011-12-18T12:09:40Z</time>
      </trkpt>
      <trkpt lat="45.84756" lon="4.82194">
        <ele>303</ele>
        <time>2011-12-18T12:09:49Z</time>
      </trkpt>
      <trkpt lat="45.84746" lon="4.82178">
        <ele>288</ele>
        <time>2011-12-18T12:09:59Z</time>
      </trkpt>
      <trkpt lat="45.84743" lon="4.82173">
        <ele>289</ele>
        <time>2011-12-18T12:10:01Z</time>
      </trkpt>
      <trkpt lat="45.84736" lon="4.82162">
        <ele>291</ele>
        <time>2011-12-18T12:10:05Z</time>
      </trkpt>
      <trkpt lat="45.8473" lon="4.82153">
        <ele>290</ele>
        <time>2011-12-18T12:10:08Z</time>
      </trkpt>
      <trkpt lat="45.84724" lon="4.82143">
        <ele>289</ele>
        <time>2011-12-18T12:10:11Z</time>
      </trkpt>
      <trkpt lat="45.84718" lon="4.82134">
        <ele>289</ele>
        <time>2011-12-18T12:10:14Z</time>
      </trkpt>
      <trkpt lat="45.84712" lon="4.82125">
        <ele>289</ele>
        <time>2011-12-18T12:10:17Z</time>
      </trkpt>
      <trkpt lat="45.84705" lon="4.82114">
        <ele>289</ele>
        <time>2011-12-18T12:10:23Z</time>
      </trkpt>
      <trkpt lat="45.84704" lon="4.82111">
        <ele>289</ele>
        <time>2011-12-18T12:10:29Z</time>
      </trkpt>
      <trkpt lat="45.84705" lon="4.82107">
        <ele>289</ele>
        <time>2011-12-18T12:10:53Z</time>
      </trkpt>
      <trkpt lat="45.84708" lon="4.82098">
        <ele>290</ele>
        <time>2011-12-18T12:10:57Z</time>
      </trkpt>
      <trkpt lat="45.8471" lon="4.82092">
        <ele>291</ele>
        <time>2011-12-18T12:11:00Z</time>
      </trkpt>
      <trkpt lat="45.84715" lon="4.82078">
        <ele>298</ele>
        <time>2011-12-18T12:11:08Z</time>
      </trkpt>
      <trkpt lat="45.84719" lon="4.8207">
        <ele>298</ele>
        <time>2011-12-18T12:11:13Z</time>
      </trkpt>
      <trkpt lat="45.84721" lon="4.82065">
        <ele>298</ele>
        <time>2011-12-18T12:11:16Z</time>
      </trkpt>
      <trkpt lat="45.84727" lon="4.82056">
        <ele>299</ele>
        <time>2011-12-18T12:11:24Z</time>
      </trkpt>
      <trkpt lat="45.8473" lon="4.8205">
        <ele>300</ele>
        <time>2011-12-18T12:11:30Z</time>
      </trkpt>
      <trkpt lat="45.84731" lon="4.82048">
        <ele>300</ele>
        <time>2011-12-18T12:11:32Z</time>
      </trkpt>
      <trkpt lat="45.84734" lon="4.82038">
        <ele>300</ele>
        <time>2011-12-18T12:11:38Z</time>
      </trkpt>
      <trkpt lat="45.84734" lon="4.82036">
        <ele>301</ele>
        <time>2011-12-18T12:11:39Z</time>
      </trkpt>
      <trkpt lat="45.84736" lon="4.82029">
        <ele>301</ele>
        <time>2011-12-18T12:11:45Z</time>
      </trkpt>
      <trkpt lat="45.84738" lon="4.82025">
        <ele>302</ele>
        <time>2011-12-18T12:11:48Z</time>
      </trkpt>
      <trkpt lat="45.84741" lon="4.8202">
        <ele>303</ele>
        <time>2011-12-18T12:11:52Z</time>
      </trkpt>
      <trkpt lat="45.84741" lon="4.82016">
        <ele>303</ele>
        <time>2011-12-18T12:11:55Z</time>
      </trkpt>
      <trkpt lat="45.84742" lon="4.8201">
        <ele>304</ele>
        <time>2011-12-18T12:12:00Z</time>
      </trkpt>
      <trkpt lat="45.84743" lon="4.82007">
        <ele>305</ele>
        <time>2011-12-18T12:12:03Z</time>
      </trkpt>
      <trkpt lat="45.84746" lon="4.82003">
        <ele>306</ele>
        <time>2011-12-18T12:12:07Z</time>
      </trkpt>
      <trkpt lat="45.84746" lon="4.82003">
        <ele>306</ele>
        <time>2011-12-18T12:12:37Z</time>
      </trkpt>
      <trkpt lat="45.84749" lon="4.81998">
        <ele>308</ele>
        <time>2011-12-18T12:12:40Z</time>
      </trkpt>
      <trkpt lat="45.84748" lon="4.81997">
        <ele>308</ele>
        <time>2011-12-18T12:12:47Z</time>
      </trkpt>
      <trkpt lat="45.84745" lon="4.82003">
        <ele>306</ele>
        <time>2011-12-18T12:13:08Z</time>
      </trkpt>
      <trkpt lat="45.84741" lon="4.82012">
        <ele>304</ele>
        <time>2011-12-18T12:13:13Z</time>
      </trkpt>
      <trkpt lat="45.8474" lon="4.82017">
        <ele>303</ele>
        <time>2011-12-18T12:13:15Z</time>
      </trkpt>
      <trkpt lat="45.84737" lon="4.82027">
        <ele>302</ele>
        <time>2011-12-18T12:13:19Z</time>
      </trkpt>
      <trkpt lat="45.84735" lon="4.82029">
        <ele>301</ele>
        <time>2011-12-18T12:13:20Z</time>
      </trkpt>
      <trkpt lat="45.84734" lon="4.82035">
        <ele>301</ele>
        <time>2011-12-18T12:13:22Z</time>
      </trkpt>
      <trkpt lat="45.84732" lon="4.82043">
        <ele>300</ele>
        <time>2011-12-18T12:13:24Z</time>
      </trkpt>
      <trkpt lat="45.84724" lon="4.82055">
        <ele>299</ele>
        <time>2011-12-18T12:13:29Z</time>
      </trkpt>
      <trkpt lat="45.84723" lon="4.82057">
        <ele>299</ele>
        <time>2011-12-18T12:13:30Z</time>
      </trkpt>
      <trkpt lat="45.84719" lon="4.82069">
        <ele>298</ele>
        <time>2011-12-18T12:13:34Z</time>
      </trkpt>
      <trkpt lat="45.84715" lon="4.82082">
        <ele>297</ele>
        <time>2011-12-18T12:13:38Z</time>
      </trkpt>
      <trkpt lat="45.84713" lon="4.8209">
        <ele>291</ele>
        <time>2011-12-18T12:13:40Z</time>
      </trkpt>
      <trkpt lat="45.84708" lon="4.82107">
        <ele>290</ele>
        <time>2011-12-18T12:13:45Z</time>
      </trkpt>
      <trkpt lat="45.84706" lon="4.8211">
        <ele>289</ele>
        <time>2011-12-18T12:13:46Z</time>
      </trkpt>
      <trkpt lat="45.84696" lon="4.82117">
        <ele>288</ele>
        <time>2011-12-18T12:13:50Z</time>
      </trkpt>
      <trkpt lat="45.8469" lon="4.82119">
        <ele>288</ele>
        <time>2011-12-18T12:13:52Z</time>
      </trkpt>
      <trkpt lat="45.84681" lon="4.8212">
        <ele>287</ele>
        <time>2011-12-18T12:13:55Z</time>
      </trkpt>
      <trkpt lat="45.84669" lon="4.82119">
        <ele>286</ele>
        <time>2011-12-18T12:13:59Z</time>
      </trkpt>
      <trkpt lat="45.8466" lon="4.82118">
        <ele>274</ele>
        <time>2011-12-18T12:14:02Z</time>
      </trkpt>
      <trkpt lat="45.84649" lon="4.82114">
        <ele>273</ele>
        <time>2011-12-18T12:14:06Z</time>
      </trkpt>
      <trkpt lat="45.84644" lon="4.82109">
        <ele>273</ele>
        <time>2011-12-18T12:14:08Z</time>
      </trkpt>
      <trkpt lat="45.84636" lon="4.82096">
        <ele>273</ele>
        <time>2011-12-18T12:14:12Z</time>
      </trkpt>
      <trkpt lat="45.84634" lon="4.82091">
        <ele>272</ele>
        <time>2011-12-18T12:14:13Z</time>
      </trkpt>
      <trkpt lat="45.84628" lon="4.82072">
        <ele>277</ele>
        <time>2011-12-18T12:14:18Z</time>
      </trkpt>
      <trkpt lat="45.84625" lon="4.82064">
        <ele>277</ele>
        <time>2011-12-18T12:14:20Z</time>
      </trkpt>
      <trkpt lat="45.84618" lon="4.82046">
        <ele>277</ele>
        <time>2011-12-18T12:14:25Z</time>
      </trkpt>
      <trkpt lat="45.84612" lon="4.82025">
        <ele>277</ele>
        <time>2011-12-18T12:14:31Z</time>
      </trkpt>
      <trkpt lat="45.84611" lon="4.82021">
        <ele>276</ele>
        <time>2011-12-18T12:14:32Z</time>
      </trkpt>
      <trkpt lat="45.84605" lon="4.82004">
        <ele>275</ele>
        <time>2011-12-18T12:14:37Z</time>
      </trkpt>
      <trkpt lat="45.84602" lon="4.81997">
        <ele>279</ele>
        <time>2011-12-18T12:14:39Z</time>
      </trkpt>
      <trkpt lat="45.84597" lon="4.81982">
        <ele>281</ele>
        <time>2011-12-18T12:14:43Z</time>
      </trkpt>
      <trkpt lat="45.84593" lon="4.81971">
        <ele>282</ele>
        <time>2011-12-18T12:14:46Z</time>
      </trkpt>
      <trkpt lat="45.84588" lon="4.81956">
        <ele>284</ele>
        <time>2011-12-18T12:14:50Z</time>
      </trkpt>
      <trkpt lat="45.84585" lon="4.81945">
        <ele>285</ele>
        <time>2011-12-18T12:14:53Z</time>
      </trkpt>
      <trkpt lat="45.84582" lon="4.81935">
        <ele>272</ele>
        <time>2011-12-18T12:14:56Z</time>
      </trkpt>
      <trkpt lat="45.84577" lon="4.8192">
        <ele>276</ele>
        <time>2011-12-18T12:15:00Z</time>
      </trkpt>
      <trkpt lat="45.84575" lon="4.81913">
        <ele>278</ele>
        <time>2011-12-18T12:15:02Z</time>
      </trkpt>
      <trkpt lat="45.84568" lon="4.81896">
        <ele>277</ele>
        <time>2011-12-18T12:15:07Z</time>
      </trkpt>
      <trkpt lat="45.84567" lon="4.81893">
        <ele>277</ele>
        <time>2011-12-18T12:15:08Z</time>
      </trkpt>
      <trkpt lat="45.84559" lon="4.81873">
        <ele>278</ele>
        <time>2011-12-18T12:15:14Z</time>
      </trkpt>
      <trkpt lat="45.84556" lon="4.81867">
        <ele>278</ele>
        <time>2011-12-18T12:15:16Z</time>
      </trkpt>
      <trkpt lat="45.84547" lon="4.81851">
        <ele>278</ele>
        <time>2011-12-18T12:15:21Z</time>
      </trkpt>
      <trkpt lat="45.84545" lon="4.81848">
        <ele>278</ele>
        <time>2011-12-18T12:15:22Z</time>
      </trkpt>
      <trkpt lat="45.84534" lon="4.8183">
        <ele>282</ele>
        <time>2011-12-18T12:15:28Z</time>
      </trkpt>
      <trkpt lat="45.84527" lon="4.81814">
        <ele>282</ele>
        <time>2011-12-18T12:15:33Z</time>
      </trkpt>
      <trkpt lat="45.84523" lon="4.81808">
        <ele>282</ele>
        <time>2011-12-18T12:15:35Z</time>
      </trkpt>
      <trkpt lat="45.84516" lon="4.81803">
        <ele>281</ele>
        <time>2011-12-18T12:15:38Z</time>
      </trkpt>
      <trkpt lat="45.84507" lon="4.81797">
        <ele>281</ele>
        <time>2011-12-18T12:15:44Z</time>
      </trkpt>
      <trkpt lat="45.84508" lon="4.81798">
        <ele>281</ele>
        <time>2011-12-18T12:15:55Z</time>
      </trkpt>
      <trkpt lat="45.84507" lon="4.81798">
        <ele>281</ele>
        <time>2011-12-18T12:16:21Z</time>
      </trkpt>
      <trkpt lat="45.84501" lon="4.81801">
        <ele>280</ele>
        <time>2011-12-18T12:16:39Z</time>
      </trkpt>
      <trkpt lat="45.84492" lon="4.81809">
        <ele>274</ele>
        <time>2011-12-18T12:16:47Z</time>
      </trkpt>
      <trkpt lat="45.84483" lon="4.81819">
        <ele>273</ele>
        <time>2011-12-18T12:16:55Z</time>
      </trkpt>
      <trkpt lat="45.84478" lon="4.81827">
        <ele>273</ele>
        <time>2011-12-18T12:17:01Z</time>
      </trkpt>
      <trkpt lat="45.84474" lon="4.81834">
        <ele>267</ele>
        <time>2011-12-18T12:17:06Z</time>
      </trkpt>
      <trkpt lat="45.84465" lon="4.81848">
        <ele>267</ele>
        <time>2011-12-18T12:17:16Z</time>
      </trkpt>
      <trkpt lat="45.84457" lon="4.81859">
        <ele>267</ele>
        <time>2011-12-18T12:17:24Z</time>
      </trkpt>
      <trkpt lat="45.84452" lon="4.81868">
        <ele>267</ele>
        <time>2011-12-18T12:17:30Z</time>
      </trkpt>
      <trkpt lat="45.84448" lon="4.81875">
        <ele>267</ele>
        <time>2011-12-18T12:17:34Z</time>
      </trkpt>
      <trkpt lat="45.84441" lon="4.81888">
        <ele>267</ele>
        <time>2011-12-18T12:17:42Z</time>
      </trkpt>
      <trkpt lat="45.84433" lon="4.81907">
        <ele>267</ele>
        <time>2011-12-18T12:17:51Z</time>
      </trkpt>
      <trkpt lat="45.84431" lon="4.8191">
        <ele>267</ele>
        <time>2011-12-18T12:17:52Z</time>
      </trkpt>
      <trkpt lat="45.84427" lon="4.81925">
        <ele>263</ele>
        <time>2011-12-18T12:17:56Z</time>
      </trkpt>
      <trkpt lat="45.84423" lon="4.81936">
        <ele>262</ele>
        <time>2011-12-18T12:17:59Z</time>
      </trkpt>
      <trkpt lat="45.84419" lon="4.81947">
        <ele>261</ele>
        <time>2011-12-18T12:18:02Z</time>
      </trkpt>
      <trkpt lat="45.84415" lon="4.81961">
        <ele>272</ele>
        <time>2011-12-18T12:18:06Z</time>
      </trkpt>
      <trkpt lat="45.84413" lon="4.81968">
        <ele>272</ele>
        <time>2011-12-18T12:18:08Z</time>
      </trkpt>
      <trkpt lat="45.8441" lon="4.81986">
        <ele>268</ele>
        <time>2011-12-18T12:18:13Z</time>
      </trkpt>
      <trkpt lat="45.84408" lon="4.82008">
        <ele>263</ele>
        <time>2011-12-18T12:18:18Z</time>
      </trkpt>
      <trkpt lat="45.84408" lon="4.82012">
        <ele>264</ele>
        <time>2011-12-18T12:18:19Z</time>
      </trkpt>
      <trkpt lat="45.84407" lon="4.82036">
        <ele>265</ele>
        <time>2011-12-18T12:18:25Z</time>
      </trkpt>
      <trkpt lat="45.84407" lon="4.8204">
        <ele>265</ele>
        <time>2011-12-18T12:18:26Z</time>
      </trkpt>
      <trkpt lat="45.84406" lon="4.8206">
        <ele>263</ele>
        <time>2011-12-18T12:18:31Z</time>
      </trkpt>
      <trkpt lat="45.84405" lon="4.82068">
        <ele>262</ele>
        <time>2011-12-18T12:18:33Z</time>
      </trkpt>
      <trkpt lat="45.84403" lon="4.82083">
        <ele>256</ele>
        <time>2011-12-18T12:18:37Z</time>
      </trkpt>
      <trkpt lat="45.84401" lon="4.82095">
        <ele>257</ele>
        <time>2011-12-18T12:18:40Z</time>
      </trkpt>
      <trkpt lat="45.84397" lon="4.8211">
        <ele>257</ele>
        <time>2011-12-18T12:18:44Z</time>
      </trkpt>
      <trkpt lat="45.84393" lon="4.82121">
        <ele>257</ele>
        <time>2011-12-18T12:18:47Z</time>
      </trkpt>
      <trkpt lat="45.84387" lon="4.82136">
        <ele>256</ele>
        <time>2011-12-18T12:18:51Z</time>
      </trkpt>
      <trkpt lat="45.84383" lon="4.82147">
        <ele>256</ele>
        <time>2011-12-18T12:18:54Z</time>
      </trkpt>
      <trkpt lat="45.84377" lon="4.82161">
        <ele>256</ele>
        <time>2011-12-18T12:18:58Z</time>
      </trkpt>
      <trkpt lat="45.84373" lon="4.82172">
        <ele>251</ele>
        <time>2011-12-18T12:19:01Z</time>
      </trkpt>
      <trkpt lat="45.84369" lon="4.82186">
        <ele>251</ele>
        <time>2011-12-18T12:19:05Z</time>
      </trkpt>
      <trkpt lat="45.84366" lon="4.82196">
        <ele>251</ele>
        <time>2011-12-18T12:19:08Z</time>
      </trkpt>
      <trkpt lat="45.84361" lon="4.8221">
        <ele>251</ele>
        <time>2011-12-18T12:19:12Z</time>
      </trkpt>
      <trkpt lat="45.84359" lon="4.8222">
        <ele>251</ele>
        <time>2011-12-18T12:19:15Z</time>
      </trkpt>
      <trkpt lat="45.84357" lon="4.82227">
        <ele>251</ele>
        <time>2011-12-18T12:19:18Z</time>
      </trkpt>
      <trkpt lat="45.84356" lon="4.82233">
        <ele>252</ele>
        <time>2011-12-18T12:19:21Z</time>
      </trkpt>
      <trkpt lat="45.84355" lon="4.82237">
        <ele>252</ele>
        <time>2011-12-18T12:19:23Z</time>
      </trkpt>
      <trkpt lat="45.84354" lon="4.82247">
        <ele>252</ele>
        <time>2011-12-18T12:19:28Z</time>
      </trkpt>
      <trkpt lat="45.84353" lon="4.82249">
        <ele>252</ele>
        <time>2011-12-18T12:19:29Z</time>
      </trkpt>
      <trkpt lat="45.84351" lon="4.82266">
        <ele>249</ele>
        <time>2011-12-18T12:19:38Z</time>
      </trkpt>
      <trkpt lat="45.84352" lon="4.82273">
        <ele>248</ele>
        <time>2011-12-18T12:19:41Z</time>
      </trkpt>
      <trkpt lat="45.84352" lon="4.8228">
        <ele>247</ele>
        <time>2011-12-18T12:19:44Z</time>
      </trkpt>
      <trkpt lat="45.84349" lon="4.82299">
        <ele>247</ele>
        <time>2011-12-18T12:19:54Z</time>
      </trkpt>
      <trkpt lat="45.84346" lon="4.82314">
        <ele>247</ele>
        <time>2011-12-18T12:20:02Z</time>
      </trkpt>
      <trkpt lat="45.84346" lon="4.82316">
        <ele>247</ele>
        <time>2011-12-18T12:20:03Z</time>
      </trkpt>
      <trkpt lat="45.84344" lon="4.82324">
        <ele>248</ele>
        <time>2011-12-18T12:20:07Z</time>
      </trkpt>
      <trkpt lat="45.84344" lon="4.82325">
        <ele>248</ele>
        <time>2011-12-18T12:20:08Z</time>
      </trkpt>
      <trkpt lat="45.84344" lon="4.8233">
        <ele>249</ele>
        <time>2011-12-18T12:20:13Z</time>
      </trkpt>
      <trkpt lat="45.8434" lon="4.82341">
        <ele>247</ele>
        <time>2011-12-18T12:20:21Z</time>
      </trkpt>
      <trkpt lat="45.84336" lon="4.82349">
        <ele>245</ele>
        <time>2011-12-18T12:20:26Z</time>
      </trkpt>
      <trkpt lat="45.84333" lon="4.82354">
        <ele>244</ele>
        <time>2011-12-18T12:20:29Z</time>
      </trkpt>
      <trkpt lat="45.84323" lon="4.82365">
        <ele>246</ele>
        <time>2011-12-18T12:20:37Z</time>
      </trkpt>
      <trkpt lat="45.84322" lon="4.82366">
        <ele>246</ele>
        <time>2011-12-18T12:20:38Z</time>
      </trkpt>
      <trkpt lat="45.84313" lon="4.82369">
        <ele>246</ele>
        <time>2011-12-18T12:20:45Z</time>
      </trkpt>
      <trkpt lat="45.84304" lon="4.82373">
        <ele>245</ele>
        <time>2011-12-18T12:20:51Z</time>
      </trkpt>
      <trkpt lat="45.84303" lon="4.82373">
        <ele>245</ele>
        <time>2011-12-18T12:20:52Z</time>
      </trkpt>
      <trkpt lat="45.84291" lon="4.8238">
        <ele>245</ele>
        <time>2011-12-18T12:21:01Z</time>
      </trkpt>
      <trkpt lat="45.84287" lon="4.82382">
        <ele>244</ele>
        <time>2011-12-18T12:21:04Z</time>
      </trkpt>
      <trkpt lat="45.84279" lon="4.82388">
        <ele>244</ele>
        <time>2011-12-18T12:21:10Z</time>
      </trkpt>
      <trkpt lat="45.84269" lon="4.82392">
        <ele>243</ele>
        <time>2011-12-18T12:21:17Z</time>
      </trkpt>
      <trkpt lat="45.84266" lon="4.82394">
        <ele>242</ele>
        <time>2011-12-18T12:21:19Z</time>
      </trkpt>
      <trkpt lat="45.84254" lon="4.82399">
        <ele>241</ele>
        <time>2011-12-18T12:21:28Z</time>
      </trkpt>
      <trkpt lat="45.84251" lon="4.824">
        <ele>241</ele>
        <time>2011-12-18T12:21:30Z</time>
      </trkpt>
      <trkpt lat="45.84244" lon="4.82402">
        <ele>241</ele>
        <time>2011-12-18T12:21:35Z</time>
      </trkpt>
      <trkpt lat="45.84233" lon="4.82404">
        <ele>241</ele>
        <time>2011-12-18T12:21:42Z</time>
      </trkpt>
      <trkpt lat="45.84231" lon="4.82405">
        <ele>241</ele>
        <time>2011-12-18T12:21:43Z</time>
      </trkpt>
      <trkpt lat="45.8422" lon="4.82407">
        <ele>242</ele>
        <time>2011-12-18T12:21:50Z</time>
      </trkpt>
      <trkpt lat="45.84214" lon="4.82408">
        <ele>243</ele>
        <time>2011-12-18T12:21:54Z</time>
      </trkpt>
      <trkpt lat="45.84207" lon="4.8241">
        <ele>243</ele>
        <time>2011-12-18T12:21:58Z</time>
      </trkpt>
      <trkpt lat="45.84196" lon="4.82414">
        <ele>243</ele>
        <time>2011-12-18T12:22:05Z</time>
      </trkpt>
      <trkpt lat="45.84183" lon="4.82418">
        <ele>235</ele>
        <time>2011-12-18T12:22:13Z</time>
      </trkpt>
      <trkpt lat="45.84177" lon="4.82421">
        <ele>236</ele>
        <time>2011-12-18T12:22:17Z</time>
      </trkpt>
      <trkpt lat="45.84169" lon="4.82421">
        <ele>237</ele>
        <time>2011-12-18T12:22:23Z</time>
      </trkpt>
      <trkpt lat="45.84159" lon="4.82424">
        <ele>237</ele>
        <time>2011-12-18T12:22:30Z</time>
      </trkpt>
      <trkpt lat="45.84156" lon="4.82425">
        <ele>236</ele>
        <time>2011-12-18T12:22:32Z</time>
      </trkpt>
      <trkpt lat="45.84142" lon="4.82431">
        <ele>235</ele>
        <time>2011-12-18T12:22:41Z</time>
      </trkpt>
      <trkpt lat="45.8414" lon="4.82431">
        <ele>235</ele>
        <time>2011-12-18T12:22:42Z</time>
      </trkpt>
      <trkpt lat="45.84131" lon="4.82435">
        <ele>235</ele>
        <time>2011-12-18T12:22:49Z</time>
      </trkpt>
      <trkpt lat="45.84123" lon="4.82438">
        <ele>234</ele>
        <time>2011-12-18T12:22:55Z</time>
      </trkpt>
      <trkpt lat="45.84121" lon="4.82439">
        <ele>234</ele>
        <time>2011-12-18T12:22:57Z</time>
      </trkpt>
      <trkpt lat="45.84111" lon="4.82442">
        <ele>235</ele>
        <time>2011-12-18T12:23:04Z</time>
      </trkpt>
      <trkpt lat="45.84105" lon="4.82446">
        <ele>234</ele>
        <time>2011-12-18T12:23:08Z</time>
      </trkpt>
      <trkpt lat="45.841" lon="4.82447">
        <ele>234</ele>
        <time>2011-12-18T12:23:12Z</time>
      </trkpt>
      <trkpt lat="45.84088" lon="4.82453">
        <ele>234</ele>
        <time>2011-12-18T12:23:19Z</time>
      </trkpt>
      <trkpt lat="45.84086" lon="4.82454">
        <ele>234</ele>
        <time>2011-12-18T12:23:20Z</time>
      </trkpt>
      <trkpt lat="45.84075" lon="4.82459">
        <ele>234</ele>
        <time>2011-12-18T12:23:27Z</time>
      </trkpt>
      <trkpt lat="45.84069" lon="4.8246">
        <ele>234</ele>
        <time>2011-12-18T12:23:31Z</time>
      </trkpt>
      <trkpt lat="45.84063" lon="4.82463">
        <ele>234</ele>
        <time>2011-12-18T12:23:35Z</time>
      </trkpt>
      <trkpt lat="45.84051" lon="4.82468">
        <ele>233</ele>
        <time>2011-12-18T12:23:43Z</time>
      </trkpt>
      <trkpt lat="45.84049" lon="4.82468">
        <ele>233</ele>
        <time>2011-12-18T12:23:44Z</time>
      </trkpt>
      <trkpt lat="45.84041" lon="4.82468">
        <ele>233</ele>
        <time>2011-12-18T12:23:50Z</time>
      </trkpt>
      <trkpt lat="45.84033" lon="4.82471">
        <ele>233</ele>
        <time>2011-12-18T12:23:56Z</time>
      </trkpt>
      <trkpt lat="45.84032" lon="4.82472">
        <ele>233</ele>
        <time>2011-12-18T12:23:57Z</time>
      </trkpt>
      <trkpt lat="45.84026" lon="4.82474">
        <ele>233</ele>
        <time>2011-12-18T12:24:01Z</time>
      </trkpt>
      <trkpt lat="45.84017" lon="4.8248">
        <ele>232</ele>
        <time>2011-12-18T12:24:08Z</time>
      </trkpt>
      <trkpt lat="45.84014" lon="4.82481">
        <ele>232</ele>
        <time>2011-12-18T12:24:10Z</time>
      </trkpt>
      <trkpt lat="45.84012" lon="4.82483">
        <ele>232</ele>
        <time>2011-12-18T12:24:12Z</time>
      </trkpt>
      <trkpt lat="45.84009" lon="4.82485">
        <ele>231</ele>
        <time>2011-12-18T12:24:14Z</time>
      </trkpt>
      <trkpt lat="45.84001" lon="4.82492">
        <ele>230</ele>
        <time>2011-12-18T12:24:20Z</time>
      </trkpt>
      <trkpt lat="45.83998" lon="4.82494">
        <ele>228</ele>
        <time>2011-12-18T12:24:22Z</time>
      </trkpt>
      <trkpt lat="45.83994" lon="4.82498">
        <ele>228</ele>
        <time>2011-12-18T12:24:26Z</time>
      </trkpt>
      <trkpt lat="45.83988" lon="4.82509">
        <ele>223</ele>
        <time>2011-12-18T12:24:34Z</time>
      </trkpt>
      <trkpt lat="45.83986" lon="4.82513">
        <ele>222</ele>
        <time>2011-12-18T12:24:37Z</time>
      </trkpt>
      <trkpt lat="45.83984" lon="4.82518">
        <ele>221</ele>
        <time>2011-12-18T12:24:40Z</time>
      </trkpt>
      <trkpt lat="45.83984" lon="4.82521">
        <ele>221</ele>
        <time>2011-12-18T12:24:46Z</time>
      </trkpt>
      <trkpt lat="45.83982" lon="4.82523">
        <ele>220</ele>
        <time>2011-12-18T12:24:58Z</time>
      </trkpt>
      <trkpt lat="45.83982" lon="4.82518">
        <ele>221</ele>
        <time>2011-12-18T12:25:02Z</time>
      </trkpt>
      <trkpt lat="45.83983" lon="4.82512">
        <ele>222</ele>
        <time>2011-12-18T12:25:18Z</time>
      </trkpt>
      <trkpt lat="45.83984" lon="4.82507">
        <ele>223</ele>
        <time>2011-12-18T12:25:21Z</time>
      </trkpt>
      <trkpt lat="45.83986" lon="4.825">
        <ele>227</ele>
        <time>2011-12-18T12:25:25Z</time>
      </trkpt>
      <trkpt lat="45.83987" lon="4.82491">
        <ele>227</ele>
        <time>2011-12-18T12:25:30Z</time>
      </trkpt>
      <trkpt lat="45.83988" lon="4.82483">
        <ele>227</ele>
        <time>2011-12-18T12:25:36Z</time>
      </trkpt>
      <trkpt lat="45.83989" lon="4.8248">
        <ele>227</ele>
        <time>2011-12-18T12:25:38Z</time>
      </trkpt>
      <trkpt lat="45.83991" lon="4.82474">
        <ele>227</ele>
        <time>2011-12-18T12:25:43Z</time>
      </trkpt>
      <trkpt lat="45.83991" lon="4.82473">
        <ele>227</ele>
        <time>2011-12-18T12:25:44Z</time>
      </trkpt>
      <trkpt lat="45.83992" lon="4.82469">
        <ele>227</ele>
        <time>2011-12-18T12:25:47Z</time>
      </trkpt>
      <trkpt lat="45.83992" lon="4.82466">
        <ele>227</ele>
        <time>2011-12-18T12:25:49Z</time>
      </trkpt>
      <trkpt lat="45.83994" lon="4.82464">
        <ele>227</ele>
        <time>2011-12-18T12:25:51Z</time>
      </trkpt>
      <trkpt lat="45.83995" lon="4.82463">
        <ele>227</ele>
        <time>2011-12-18T12:25:52Z</time>
      </trkpt>
      <trkpt lat="45.84" lon="4.82459">
        <ele>228</ele>
        <time>2011-12-18T12:25:56Z</time>
      </trkpt>
      <trkpt lat="45.84005" lon="4.8245">
        <ele>234</ele>
        <time>2011-12-18T12:26:01Z</time>
      </trkpt>
      <trkpt lat="45.84005" lon="4.82449">
        <ele>235</ele>
        <time>2011-12-18T12:26:02Z</time>
      </trkpt>
      <trkpt lat="45.84008" lon="4.82434">
        <ele>236</ele>
        <time>2011-12-18T12:26:09Z</time>
      </trkpt>
      <trkpt lat="45.8401" lon="4.82421">
        <ele>237</ele>
        <time>2011-12-18T12:26:16Z</time>
      </trkpt>
      <trkpt lat="45.84011" lon="4.82409">
        <ele>241</ele>
        <time>2011-12-18T12:26:22Z</time>
      </trkpt>
      <trkpt lat="45.84011" lon="4.82407">
        <ele>241</ele>
        <time>2011-12-18T12:26:23Z</time>
      </trkpt>
      <trkpt lat="45.84013" lon="4.82395">
        <ele>242</ele>
        <time>2011-12-18T12:26:30Z</time>
      </trkpt>
      <trkpt lat="45.84016" lon="4.82384">
        <ele>243</ele>
        <time>2011-12-18T12:26:37Z</time>
      </trkpt>
      <trkpt lat="45.84021" lon="4.82371">
        <ele>244</ele>
        <time>2011-12-18T12:26:45Z</time>
      </trkpt>
      <trkpt lat="45.84024" lon="4.82362">
        <ele>245</ele>
        <time>2011-12-18T12:26:50Z</time>
      </trkpt>
      <trkpt lat="45.84025" lon="4.82361">
        <ele>245</ele>
        <time>2011-12-18T12:26:51Z</time>
      </trkpt>
      <trkpt lat="45.84025" lon="4.82359">
        <ele>245</ele>
        <time>2011-12-18T12:26:52Z</time>
      </trkpt>
      <trkpt lat="45.84027" lon="4.82351">
        <ele>245</ele>
        <time>2011-12-18T12:26:57Z</time>
      </trkpt>
      <trkpt lat="45.84027" lon="4.8235">
        <ele>245</ele>
        <time>2011-12-18T12:26:58Z</time>
      </trkpt>
      <trkpt lat="45.84028" lon="4.82344">
        <ele>246</ele>
        <time>2011-12-18T12:27:02Z</time>
      </trkpt>
      <trkpt lat="45.84029" lon="4.82343">
        <ele>246</ele>
        <time>2011-12-18T12:27:04Z</time>
      </trkpt>
      <trkpt lat="45.8403" lon="4.82342">
        <ele>246</ele>
        <time>2011-12-18T12:27:05Z</time>
      </trkpt>
      <trkpt lat="45.84031" lon="4.82336">
        <ele>246</ele>
        <time>2011-12-18T12:27:09Z</time>
      </trkpt>
      <trkpt lat="45.84032" lon="4.82332">
        <ele>252</ele>
        <time>2011-12-18T12:27:12Z</time>
      </trkpt>
      <trkpt lat="45.84033" lon="4.82322">
        <ele>253</ele>
        <time>2011-12-18T12:27:17Z</time>
      </trkpt>
      <trkpt lat="45.84034" lon="4.8232">
        <ele>253</ele>
        <time>2011-12-18T12:27:19Z</time>
      </trkpt>
      <trkpt lat="45.84033" lon="4.82318">
        <ele>253</ele>
        <time>2011-12-18T12:27:21Z</time>
      </trkpt>
      <trkpt lat="45.84031" lon="4.82316">
        <ele>253</ele>
        <time>2011-12-18T12:27:24Z</time>
      </trkpt>
      <trkpt lat="45.84031" lon="4.82315">
        <ele>253</ele>
        <time>2011-12-18T12:27:34Z</time>
      </trkpt>
      <trkpt lat="45.8403" lon="4.82314">
        <ele>253</ele>
        <time>2011-12-18T12:27:40Z</time>
      </trkpt>
      <trkpt lat="45.84027" lon="4.82313">
        <ele>253</ele>
        <time>2011-12-18T12:27:43Z</time>
      </trkpt>
      <trkpt lat="45.8402" lon="4.82305">
        <ele>253</ele>
        <time>2011-12-18T12:27:48Z</time>
      </trkpt>
      <trkpt lat="45.84014" lon="4.82304">
        <ele>252</ele>
        <time>2011-12-18T12:27:53Z</time>
      </trkpt>
      <trkpt lat="45.84011" lon="4.82298">
        <ele>253</ele>
        <time>2011-12-18T12:27:57Z</time>
      </trkpt>
      <trkpt lat="45.8401" lon="4.82297">
        <ele>253</ele>
        <time>2011-12-18T12:27:58Z</time>
      </trkpt>
      <trkpt lat="45.84009" lon="4.82294">
        <ele>253</ele>
        <time>2011-12-18T12:28:00Z</time>
      </trkpt>
      <trkpt lat="45.84009" lon="4.82293">
        <ele>253</ele>
        <time>2011-12-18T12:28:04Z</time>
      </trkpt>
      <trkpt lat="45.84009" lon="4.82291">
        <ele>253</ele>
        <time>2011-12-18T12:28:08Z</time>
      </trkpt>
      <trkpt lat="45.84008" lon="4.82286">
        <ele>253</ele>
        <time>2011-12-18T12:28:11Z</time>
      </trkpt>
      <trkpt lat="45.84007" lon="4.82283">
        <ele>253</ele>
        <time>2011-12-18T12:28:13Z</time>
      </trkpt>
      <trkpt lat="45.84006" lon="4.8228">
        <ele>253</ele>
        <time>2011-12-18T12:28:14Z</time>
      </trkpt>
      <trkpt lat="45.84004" lon="4.82275">
        <ele>253</ele>
        <time>2011-12-18T12:28:18Z</time>
      </trkpt>
      <trkpt lat="45.84" lon="4.82269">
        <ele>253</ele>
        <time>2011-12-18T12:28:33Z</time>
      </trkpt>
      <trkpt lat="45.84" lon="4.82269">
        <ele>241</ele>
        <time>2011-12-18T12:28:34Z</time>
      </trkpt>
      <trkpt lat="45.83999" lon="4.82268">
        <ele>242</ele>
        <time>2011-12-18T12:28:39Z</time>
      </trkpt>
      <trkpt lat="45.83995" lon="4.8226">
        <ele>243</ele>
        <time>2011-12-18T12:28:43Z</time>
      </trkpt>
      <trkpt lat="45.83984" lon="4.82239">
        <ele>242</ele>
        <time>2011-12-18T12:28:51Z</time>
      </trkpt>
      <trkpt lat="45.8398" lon="4.82229">
        <ele>240</ele>
        <time>2011-12-18T12:28:56Z</time>
      </trkpt>
      <trkpt lat="45.83977" lon="4.82221">
        <ele>239</ele>
        <time>2011-12-18T12:29:01Z</time>
      </trkpt>
      <trkpt lat="45.83975" lon="4.82217">
        <ele>238</ele>
        <time>2011-12-18T12:29:06Z</time>
      </trkpt>
      <trkpt lat="45.83975" lon="4.82215">
        <ele>238</ele>
        <time>2011-12-18T12:29:08Z</time>
      </trkpt>
      <trkpt lat="45.83974" lon="4.82213">
        <ele>238</ele>
        <time>2011-12-18T12:29:10Z</time>
      </trkpt>
      <trkpt lat="45.83972" lon="4.8221">
        <ele>238</ele>
        <time>2011-12-18T12:29:12Z</time>
      </trkpt>
      <trkpt lat="45.83971" lon="4.82209">
        <ele>238</ele>
        <time>2011-12-18T12:29:14Z</time>
      </trkpt>
      <trkpt lat="45.83972" lon="4.82209">
        <ele>238</ele>
        <time>2011-12-18T12:29:21Z</time>
      </trkpt>
      <trkpt lat="45.83973" lon="4.82216">
        <ele>238</ele>
        <time>2011-12-18T12:29:26Z</time>
      </trkpt>
      <trkpt lat="45.83974" lon="4.82217">
        <ele>238</ele>
        <time>2011-12-18T12:29:27Z</time>
      </trkpt>
      <trkpt lat="45.83976" lon="4.8222">
        <ele>239</ele>
        <time>2011-12-18T12:29:29Z</time>
      </trkpt>
      <trkpt lat="45.83977" lon="4.82222">
        <ele>239</ele>
        <time>2011-12-18T12:29:31Z</time>
      </trkpt>
      <trkpt lat="45.83977" lon="4.82224">
        <ele>239</ele>
        <time>2011-12-18T12:29:33Z</time>
      </trkpt>
      <trkpt lat="45.83979" lon="4.82233">
        <ele>240</ele>
        <time>2011-12-18T12:29:38Z</time>
      </trkpt>
      <trkpt lat="45.83981" lon="4.82235">
        <ele>241</ele>
        <time>2011-12-18T12:29:41Z</time>
      </trkpt>
      <trkpt lat="45.83981" lon="4.82236">
        <ele>241</ele>
        <time>2011-12-18T12:29:43Z</time>
      </trkpt>
      <trkpt lat="45.83983" lon="4.82241">
        <ele>242</ele>
        <time>2011-12-18T12:29:51Z</time>
      </trkpt>
      <trkpt lat="45.83984" lon="4.82243">
        <ele>242</ele>
        <time>2011-12-18T12:29:53Z</time>
      </trkpt>
      <trkpt lat="45.83988" lon="4.8225">
        <ele>243</ele>
        <time>2011-12-18T12:29:59Z</time>
      </trkpt>
      <trkpt lat="45.83993" lon="4.82262">
        <ele>243</ele>
        <time>2011-12-18T12:30:09Z</time>
      </trkpt>
      <trkpt lat="45.83995" lon="4.82264">
        <ele>242</ele>
        <time>2011-12-18T12:30:11Z</time>
      </trkpt>
      <trkpt lat="45.83999" lon="4.82269">
        <ele>241</ele>
        <time>2011-12-18T12:30:15Z</time>
      </trkpt>
      <trkpt lat="45.84002" lon="4.82278">
        <ele>253</ele>
        <time>2011-12-18T12:30:22Z</time>
      </trkpt>
      <trkpt lat="45.84005" lon="4.82279">
        <ele>253</ele>
        <time>2011-12-18T12:30:29Z</time>
      </trkpt>
      <trkpt lat="45.84007" lon="4.82286">
        <ele>253</ele>
        <time>2011-12-18T12:30:34Z</time>
      </trkpt>
      <trkpt lat="45.84007" lon="4.82289">
        <ele>253</ele>
        <time>2011-12-18T12:30:36Z</time>
      </trkpt>
      <trkpt lat="45.84008" lon="4.82295">
        <ele>253</ele>
        <time>2011-12-18T12:30:40Z</time>
      </trkpt>
      <trkpt lat="45.84011" lon="4.82299">
        <ele>253</ele>
        <time>2011-12-18T12:30:43Z</time>
      </trkpt>
      <trkpt lat="45.84014" lon="4.82304">
        <ele>252</ele>
        <time>2011-12-18T12:30:48Z</time>
      </trkpt>
      <trkpt lat="45.84015" lon="4.82304">
        <ele>252</ele>
        <time>2011-12-18T12:30:49Z</time>
      </trkpt>
      <trkpt lat="45.84017" lon="4.82305">
        <ele>253</ele>
        <time>2011-12-18T12:30:50Z</time>
      </trkpt>
      <trkpt lat="45.8402" lon="4.82307">
        <ele>253</ele>
        <time>2011-12-18T12:30:53Z</time>
      </trkpt>
      <trkpt lat="45.84021" lon="4.82309">
        <ele>253</ele>
        <time>2011-12-18T12:30:55Z</time>
      </trkpt>
      <trkpt lat="45.84027" lon="4.82311">
        <ele>253</ele>
        <time>2011-12-18T12:31:01Z</time>
      </trkpt>
      <trkpt lat="45.84033" lon="4.82313">
        <ele>254</ele>
        <time>2011-12-18T12:31:07Z</time>
      </trkpt>
      <trkpt lat="45.84034" lon="4.82312">
        <ele>254</ele>
        <time>2011-12-18T12:31:08Z</time>
      </trkpt>
      <trkpt lat="45.84037" lon="4.82307">
        <ele>254</ele>
        <time>2011-12-18T12:31:12Z</time>
      </trkpt>
      <trkpt lat="45.84038" lon="4.82306">
        <ele>254</ele>
        <time>2011-12-18T12:31:13Z</time>
      </trkpt>
      <trkpt lat="45.84038" lon="4.82305">
        <ele>255</ele>
        <time>2011-12-18T12:31:14Z</time>
      </trkpt>
      <trkpt lat="45.84041" lon="4.82297">
        <ele>255</ele>
        <time>2011-12-18T12:31:21Z</time>
      </trkpt>
      <trkpt lat="45.84041" lon="4.82295">
        <ele>255</ele>
        <time>2011-12-18T12:31:22Z</time>
      </trkpt>
      <trkpt lat="45.84043" lon="4.82291">
        <ele>256</ele>
        <time>2011-12-18T12:31:25Z</time>
      </trkpt>
      <trkpt lat="45.84046" lon="4.82285">
        <ele>257</ele>
        <time>2011-12-18T12:31:30Z</time>
      </trkpt>
      <trkpt lat="45.84047" lon="4.82278">
        <ele>257</ele>
        <time>2011-12-18T12:31:35Z</time>
      </trkpt>
      <trkpt lat="45.84046" lon="4.82277">
        <ele>257</ele>
        <time>2011-12-18T12:31:36Z</time>
      </trkpt>
      <trkpt lat="45.8405" lon="4.82268">
        <ele>259</ele>
        <time>2011-12-18T12:31:44Z</time>
      </trkpt>
      <trkpt lat="45.84051" lon="4.82265">
        <ele>259</ele>
        <time>2011-12-18T12:31:45Z</time>
      </trkpt>
      <trkpt lat="45.84053" lon="4.82263">
        <ele>260</ele>
        <time>2011-12-18T12:31:47Z</time>
      </trkpt>
      <trkpt lat="45.84053" lon="4.8226">
        <ele>260</ele>
        <time>2011-12-18T12:31:52Z</time>
      </trkpt>
      <trkpt lat="45.84054" lon="4.82257">
        <ele>260</ele>
        <time>2011-12-18T12:31:54Z</time>
      </trkpt>
      <trkpt lat="45.84055" lon="4.82254">
        <ele>261</ele>
        <time>2011-12-18T12:31:57Z</time>
      </trkpt>
      <trkpt lat="45.84056" lon="4.82251">
        <ele>261</ele>
        <time>2011-12-18T12:31:59Z</time>
      </trkpt>
      <trkpt lat="45.84059" lon="4.82244">
        <ele>267</ele>
        <time>2011-12-18T12:32:05Z</time>
      </trkpt>
      <trkpt lat="45.8406" lon="4.82241">
        <ele>267</ele>
        <time>2011-12-18T12:32:07Z</time>
      </trkpt>
      <trkpt lat="45.84063" lon="4.82232">
        <ele>267</ele>
        <time>2011-12-18T12:32:13Z</time>
      </trkpt>
      <trkpt lat="45.84066" lon="4.82223">
        <ele>268</ele>
        <time>2011-12-18T12:32:19Z</time>
      </trkpt>
      <trkpt lat="45.84067" lon="4.82221">
        <ele>268</ele>
        <time>2011-12-18T12:32:20Z</time>
      </trkpt>
      <trkpt lat="45.84068" lon="4.82219">
        <ele>268</ele>
        <time>2011-12-18T12:32:22Z</time>
      </trkpt>
      <trkpt lat="45.84069" lon="4.82218">
        <ele>268</ele>
        <time>2011-12-18T12:32:23Z</time>
      </trkpt>
      <trkpt lat="45.8407" lon="4.82217">
        <ele>268</ele>
        <time>2011-12-18T12:32:25Z</time>
      </trkpt>
      <trkpt lat="45.84071" lon="4.82214">
        <ele>268</ele>
        <time>2011-12-18T12:32:27Z</time>
      </trkpt>
      <trkpt lat="45.84074" lon="4.82209">
        <ele>269</ele>
        <time>2011-12-18T12:32:32Z</time>
      </trkpt>
      <trkpt lat="45.84076" lon="4.82207">
        <ele>269</ele>
        <time>2011-12-18T12:32:35Z</time>
      </trkpt>
      <trkpt lat="45.84076" lon="4.82199">
        <ele>270</ele>
        <time>2011-12-18T12:32:39Z</time>
      </trkpt>
      <trkpt lat="45.84076" lon="4.82198">
        <ele>270</ele>
        <time>2011-12-18T12:32:40Z</time>
      </trkpt>
      <trkpt lat="45.84077" lon="4.82196">
        <ele>271</ele>
        <time>2011-12-18T12:32:41Z</time>
      </trkpt>
      <trkpt lat="45.84078" lon="4.82189">
        <ele>272</ele>
        <time>2011-12-18T12:32:45Z</time>
      </trkpt>
      <trkpt lat="45.8408" lon="4.82178">
        <ele>275</ele>
        <time>2011-12-18T12:32:52Z</time>
      </trkpt>
      <trkpt lat="45.84081" lon="4.82177">
        <ele>276</ele>
        <time>2011-12-18T12:32:53Z</time>
      </trkpt>
      <trkpt lat="45.84083" lon="4.82174">
        <ele>281</ele>
        <time>2011-12-18T12:32:57Z</time>
      </trkpt>
      <trkpt lat="45.84084" lon="4.82172">
        <ele>281</ele>
        <time>2011-12-18T12:32:58Z</time>
      </trkpt>
      <trkpt lat="45.84085" lon="4.82159">
        <ele>284</ele>
        <time>2011-12-18T12:33:04Z</time>
      </trkpt>
      <trkpt lat="45.84086" lon="4.82149">
        <ele>286</ele>
        <time>2011-12-18T12:33:10Z</time>
      </trkpt>
      <trkpt lat="45.84086" lon="4.82147">
        <ele>286</ele>
        <time>2011-12-18T12:33:11Z</time>
      </trkpt>
      <trkpt lat="45.84086" lon="4.82139">
        <ele>287</ele>
        <time>2011-12-18T12:33:17Z</time>
      </trkpt>
      <trkpt lat="45.84087" lon="4.82134">
        <ele>288</ele>
        <time>2011-12-18T12:33:22Z</time>
      </trkpt>
      <trkpt lat="45.84087" lon="4.82132">
        <ele>288</ele>
        <time>2011-12-18T12:33:24Z</time>
      </trkpt>
      <trkpt lat="45.84087" lon="4.8213">
        <ele>288</ele>
        <time>2011-12-18T12:33:26Z</time>
      </trkpt>
      <trkpt lat="45.84088" lon="4.82129">
        <ele>288</ele>
        <time>2011-12-18T12:33:27Z</time>
      </trkpt>
      <trkpt lat="45.84089" lon="4.82128">
        <ele>288</ele>
        <time>2011-12-18T12:33:29Z</time>
      </trkpt>
      <trkpt lat="45.8409" lon="4.82125">
        <ele>289</ele>
        <time>2011-12-18T12:33:32Z</time>
      </trkpt>
      <trkpt lat="45.8409" lon="4.82123">
        <ele>289</ele>
        <time>2011-12-18T12:33:34Z</time>
      </trkpt>
      <trkpt lat="45.84091" lon="4.82125">
        <ele>289</ele>
        <time>2011-12-18T12:33:39Z</time>
      </trkpt>
      <trkpt lat="45.84093" lon="4.82133">
        <ele>288</ele>
        <time>2011-12-18T12:33:43Z</time>
      </trkpt>
      <trkpt lat="45.84093" lon="4.82134">
        <ele>288</ele>
        <time>2011-12-18T12:33:44Z</time>
      </trkpt>
      <trkpt lat="45.84095" lon="4.82137">
        <ele>288</ele>
        <time>2011-12-18T12:33:50Z</time>
      </trkpt>
      <trkpt lat="45.84093" lon="4.82133">
        <ele>288</ele>
        <time>2011-12-18T12:33:55Z</time>
      </trkpt>
      <trkpt lat="45.84092" lon="4.82132">
        <ele>288</ele>
        <time>2011-12-18T12:33:56Z</time>
      </trkpt>
      <trkpt lat="45.84092" lon="4.82126">
        <ele>289</ele>
        <time>2011-12-18T12:34:00Z</time>
      </trkpt>
      <trkpt lat="45.84093" lon="4.82124">
        <ele>289</ele>
        <time>2011-12-18T12:34:02Z</time>
      </trkpt>
      <trkpt lat="45.84095" lon="4.8212">
        <ele>289</ele>
        <time>2011-12-18T12:34:06Z</time>
      </trkpt>
      <trkpt lat="45.84095" lon="4.82118">
        <ele>289</ele>
        <time>2011-12-18T12:34:08Z</time>
      </trkpt>
      <trkpt lat="45.84094" lon="4.82111">
        <ele>290</ele>
        <time>2011-12-18T12:34:15Z</time>
      </trkpt>
      <trkpt lat="45.84094" lon="4.82107">
        <ele>290</ele>
        <time>2011-12-18T12:34:19Z</time>
      </trkpt>
      <trkpt lat="45.84094" lon="4.82106">
        <ele>290</ele>
        <time>2011-12-18T12:34:20Z</time>
      </trkpt>
      <trkpt lat="45.84096" lon="4.821">
        <ele>290</ele>
        <time>2011-12-18T12:34:26Z</time>
      </trkpt>
      <trkpt lat="45.84097" lon="4.82095">
        <ele>290</ele>
        <time>2011-12-18T12:34:32Z</time>
      </trkpt>
      <trkpt lat="45.84098" lon="4.82091">
        <ele>291</ele>
        <time>2011-12-18T12:34:35Z</time>
      </trkpt>
      <trkpt lat="45.841" lon="4.82089">
        <ele>291</ele>
        <time>2011-12-18T12:34:38Z</time>
      </trkpt>
      <trkpt lat="45.841" lon="4.82083">
        <ele>291</ele>
        <time>2011-12-18T12:34:42Z</time>
      </trkpt>
      <trkpt lat="45.841" lon="4.82082">
        <ele>296</ele>
        <time>2011-12-18T12:34:43Z</time>
      </trkpt>
      <trkpt lat="45.841" lon="4.8208">
        <ele>296</ele>
        <time>2011-12-18T12:34:45Z</time>
      </trkpt>
      <trkpt lat="45.84101" lon="4.82075">
        <ele>296</ele>
        <time>2011-12-18T12:34:49Z</time>
      </trkpt>
      <trkpt lat="45.84101" lon="4.82072">
        <ele>297</ele>
        <time>2011-12-18T12:34:51Z</time>
      </trkpt>
      <trkpt lat="45.84102" lon="4.82069">
        <ele>297</ele>
        <time>2011-12-18T12:34:53Z</time>
      </trkpt>
      <trkpt lat="45.84101" lon="4.82066">
        <ele>297</ele>
        <time>2011-12-18T12:34:56Z</time>
      </trkpt>
      <trkpt lat="45.841" lon="4.82064">
        <ele>297</ele>
        <time>2011-12-18T12:34:58Z</time>
      </trkpt>
      <trkpt lat="45.841" lon="4.82061">
        <ele>298</ele>
        <time>2011-12-18T12:35:01Z</time>
      </trkpt>
      <trkpt lat="45.841" lon="4.8206">
        <ele>298</ele>
        <time>2011-12-18T12:35:04Z</time>
      </trkpt>
      <trkpt lat="45.84099" lon="4.82056">
        <ele>298</ele>
        <time>2011-12-18T12:35:11Z</time>
      </trkpt>
      <trkpt lat="45.84099" lon="4.82052">
        <ele>299</ele>
        <time>2011-12-18T12:35:14Z</time>
      </trkpt>
      <trkpt lat="45.84099" lon="4.8205">
        <ele>299</ele>
        <time>2011-12-18T12:35:15Z</time>
      </trkpt>
      <trkpt lat="45.84102" lon="4.82046">
        <ele>299</ele>
        <time>2011-12-18T12:35:20Z</time>
      </trkpt>
      <trkpt lat="45.84102" lon="4.82044">
        <ele>299</ele>
        <time>2011-12-18T12:35:22Z</time>
      </trkpt>
      <trkpt lat="45.84103" lon="4.82042">
        <ele>300</ele>
        <time>2011-12-18T12:35:25Z</time>
      </trkpt>
      <trkpt lat="45.84103" lon="4.82036">
        <ele>300</ele>
        <time>2011-12-18T12:35:31Z</time>
      </trkpt>
      <trkpt lat="45.84102" lon="4.82031">
        <ele>300</ele>
        <time>2011-12-18T12:35:33Z</time>
      </trkpt>
      <trkpt lat="45.841" lon="4.82022">
        <ele>301</ele>
        <time>2011-12-18T12:35:37Z</time>
      </trkpt>
      <trkpt lat="45.84097" lon="4.82006">
        <ele>301</ele>
        <time>2011-12-18T12:35:46Z</time>
      </trkpt>
      <trkpt lat="45.84097" lon="4.82003">
        <ele>301</ele>
        <time>2011-12-18T12:35:48Z</time>
      </trkpt>
      <trkpt lat="45.84097" lon="4.81995">
        <ele>306</ele>
        <time>2011-12-18T12:35:54Z</time>
      </trkpt>
      <trkpt lat="45.84097" lon="4.81992">
        <ele>306</ele>
        <time>2011-12-18T12:35:56Z</time>
      </trkpt>
      <trkpt lat="45.841" lon="4.81985">
        <ele>308</ele>
        <time>2011-12-18T12:36:03Z</time>
      </trkpt>
      <trkpt lat="45.84101" lon="4.81984">
        <ele>308</ele>
        <time>2011-12-18T12:36:04Z</time>
      </trkpt>
      <trkpt lat="45.84101" lon="4.81983">
        <ele>308</ele>
        <time>2011-12-18T12:36:05Z</time>
      </trkpt>
      <trkpt lat="45.841" lon="4.81981">
        <ele>309</ele>
        <time>2011-12-18T12:36:07Z</time>
      </trkpt>
      <trkpt lat="45.84099" lon="4.81977">
        <ele>309</ele>
        <time>2011-12-18T12:36:10Z</time>
      </trkpt>
      <trkpt lat="45.84102" lon="4.8197">
        <ele>310</ele>
        <time>2011-12-18T12:36:17Z</time>
      </trkpt>
      <trkpt lat="45.84105" lon="4.81961">
        <ele>311</ele>
        <time>2011-12-18T12:36:25Z</time>
      </trkpt>
      <trkpt lat="45.84106" lon="4.81958">
        <ele>312</ele>
        <time>2011-12-18T12:36:31Z</time>
      </trkpt>
      <trkpt lat="45.84106" lon="4.81957">
        <ele>312</ele>
        <time>2011-12-18T12:36:32Z</time>
      </trkpt>
      <trkpt lat="45.84107" lon="4.81946">
        <ele>313</ele>
        <time>2011-12-18T12:36:55Z</time>
      </trkpt>
      <trkpt lat="45.84107" lon="4.81945">
        <ele>313</ele>
        <time>2011-12-18T12:36:56Z</time>
      </trkpt>
      <trkpt lat="45.84108" lon="4.81945">
        <ele>313</ele>
        <time>2011-12-18T12:36:57Z</time>
      </trkpt>
      <trkpt lat="45.84109" lon="4.81943">
        <ele>313</ele>
        <time>2011-12-18T12:37:00Z</time>
      </trkpt>
      <trkpt lat="45.84109" lon="4.81942">
        <ele>313</ele>
        <time>2011-12-18T12:37:01Z</time>
      </trkpt>
      <trkpt lat="45.84111" lon="4.81938">
        <ele>313</ele>
        <time>2011-12-18T12:37:08Z</time>
      </trkpt>
      <trkpt lat="45.84111" lon="4.81934">
        <ele>313</ele>
        <time>2011-12-18T12:37:17Z</time>
      </trkpt>
      <trkpt lat="45.84112" lon="4.81933">
        <ele>314</ele>
        <time>2011-12-18T12:37:22Z</time>
      </trkpt>
      <trkpt lat="45.84112" lon="4.81933">
        <ele>314</ele>
        <time>2011-12-18T12:37:23Z</time>
      </trkpt>
      <trkpt lat="45.84113" lon="4.81931">
        <ele>314</ele>
        <time>2011-12-18T12:37:29Z</time>
      </trkpt>
      <trkpt lat="45.84113" lon="4.81927">
        <ele>314</ele>
        <time>2011-12-18T12:37:35Z</time>
      </trkpt>
      <trkpt lat="45.84117" lon="4.81921">
        <ele>315</ele>
        <time>2011-12-18T12:37:43Z</time>
      </trkpt>
      <trkpt lat="45.84119" lon="4.81918">
        <ele>315</ele>
        <time>2011-12-18T12:37:47Z</time>
      </trkpt>
      <trkpt lat="45.8412" lon="4.81914">
        <ele>321</ele>
        <time>2011-12-18T12:37:50Z</time>
      </trkpt>
      <trkpt lat="45.8412" lon="4.81913">
        <ele>321</ele>
        <time>2011-12-18T12:37:52Z</time>
      </trkpt>
      <trkpt lat="45.84121" lon="4.8191">
        <ele>322</ele>
        <time>2011-12-18T12:37:55Z</time>
      </trkpt>
      <trkpt lat="45.84122" lon="4.81908">
        <ele>322</ele>
        <time>2011-12-18T12:37:57Z</time>
      </trkpt>
      <trkpt lat="45.84124" lon="4.81906">
        <ele>322</ele>
        <time>2011-12-18T12:37:59Z</time>
      </trkpt>
      <trkpt lat="45.84126" lon="4.81903">
        <ele>323</ele>
        <time>2011-12-18T12:38:02Z</time>
      </trkpt>
      <trkpt lat="45.84127" lon="4.81903">
        <ele>323</ele>
        <time>2011-12-18T12:38:04Z</time>
      </trkpt>
      <trkpt lat="45.8413" lon="4.81902">
        <ele>324</ele>
        <time>2011-12-18T12:38:07Z</time>
      </trkpt>
      <trkpt lat="45.84133" lon="4.819">
        <ele>324</ele>
        <time>2011-12-18T12:38:12Z</time>
      </trkpt>
      <trkpt lat="45.84134" lon="4.81901">
        <ele>324</ele>
        <time>2011-12-18T12:38:15Z</time>
      </trkpt>
      <trkpt lat="45.84136" lon="4.81904">
        <ele>325</ele>
        <time>2011-12-18T12:38:22Z</time>
      </trkpt>
      <trkpt lat="45.84136" lon="4.81905">
        <ele>325</ele>
        <time>2011-12-18T12:38:31Z</time>
      </trkpt>
      <trkpt lat="45.84135" lon="4.819">
        <ele>324</ele>
        <time>2011-12-18T12:38:48Z</time>
      </trkpt>
      <trkpt lat="45.84135" lon="4.81899">
        <ele>325</ele>
        <time>2011-12-18T12:38:49Z</time>
      </trkpt>
      <trkpt lat="45.84137" lon="4.81895">
        <ele>325</ele>
        <time>2011-12-18T12:38:53Z</time>
      </trkpt>
      <trkpt lat="45.84138" lon="4.81891">
        <ele>325</ele>
        <time>2011-12-18T12:38:56Z</time>
      </trkpt>
      <trkpt lat="45.84139" lon="4.81886">
        <ele>325</ele>
        <time>2011-12-18T12:38:59Z</time>
      </trkpt>
      <trkpt lat="45.8414" lon="4.81886">
        <ele>325</ele>
        <time>2011-12-18T12:39:00Z</time>
      </trkpt>
      <trkpt lat="45.84142" lon="4.81878">
        <ele>326</ele>
        <time>2011-12-18T12:39:06Z</time>
      </trkpt>
      <trkpt lat="45.84146" lon="4.81869">
        <ele>327</ele>
        <time>2011-12-18T12:39:12Z</time>
      </trkpt>
      <trkpt lat="45.84148" lon="4.81867">
        <ele>327</ele>
        <time>2011-12-18T12:39:14Z</time>
      </trkpt>
      <trkpt lat="45.8415" lon="4.81863">
        <ele>328</ele>
        <time>2011-12-18T12:39:17Z</time>
      </trkpt>
      <trkpt lat="45.84156" lon="4.81856">
        <ele>330</ele>
        <time>2011-12-18T12:39:23Z</time>
      </trkpt>
      <trkpt lat="45.84157" lon="4.81845">
        <ele>333</ele>
        <time>2011-12-18T12:39:30Z</time>
      </trkpt>
      <trkpt lat="45.84158" lon="4.81841">
        <ele>334</ele>
        <time>2011-12-18T12:39:32Z</time>
      </trkpt>
      <trkpt lat="45.84159" lon="4.81833">
        <ele>336</ele>
        <time>2011-12-18T12:39:37Z</time>
      </trkpt>
      <trkpt lat="45.84159" lon="4.81833">
        <ele>338</ele>
        <time>2011-12-18T12:39:38Z</time>
      </trkpt>
      <trkpt lat="45.84162" lon="4.81826">
        <ele>338</ele>
        <time>2011-12-18T12:39:43Z</time>
      </trkpt>
      <trkpt lat="45.84162" lon="4.81825">
        <ele>338</ele>
        <time>2011-12-18T12:39:44Z</time>
      </trkpt>
      <trkpt lat="45.84163" lon="4.81819">
        <ele>337</ele>
        <time>2011-12-18T12:39:48Z</time>
      </trkpt>
      <trkpt lat="45.84163" lon="4.81817">
        <ele>337</ele>
        <time>2011-12-18T12:39:49Z</time>
      </trkpt>
      <trkpt lat="45.84163" lon="4.81815">
        <ele>337</ele>
        <time>2011-12-18T12:39:50Z</time>
      </trkpt>
      <trkpt lat="45.84165" lon="4.81809">
        <ele>336</ele>
        <time>2011-12-18T12:39:55Z</time>
      </trkpt>
      <trkpt lat="45.84168" lon="4.81802">
        <ele>346</ele>
        <time>2011-12-18T12:40:01Z</time>
      </trkpt>
      <trkpt lat="45.8417" lon="4.81799">
        <ele>346</ele>
        <time>2011-12-18T12:40:04Z</time>
      </trkpt>
      <trkpt lat="45.8417" lon="4.81798">
        <ele>346</ele>
        <time>2011-12-18T12:40:05Z</time>
      </trkpt>
      <trkpt lat="45.84171" lon="4.81797">
        <ele>346</ele>
        <time>2011-12-18T12:40:06Z</time>
      </trkpt>
      <trkpt lat="45.84172" lon="4.81796">
        <ele>347</ele>
        <time>2011-12-18T12:40:07Z</time>
      </trkpt>
      <trkpt lat="45.84176" lon="4.81791">
        <ele>347</ele>
        <time>2011-12-18T12:40:12Z</time>
      </trkpt>
      <trkpt lat="45.84181" lon="4.8179">
        <ele>347</ele>
        <time>2011-12-18T12:40:17Z</time>
      </trkpt>
      <trkpt lat="45.84183" lon="4.81788">
        <ele>347</ele>
        <time>2011-12-18T12:40:20Z</time>
      </trkpt>
      <trkpt lat="45.84184" lon="4.81783">
        <ele>348</ele>
        <time>2011-12-18T12:40:23Z</time>
      </trkpt>
      <trkpt lat="45.84185" lon="4.81781">
        <ele>348</ele>
        <time>2011-12-18T12:40:24Z</time>
      </trkpt>
      <trkpt lat="45.84189" lon="4.81773">
        <ele>349</ele>
        <time>2011-12-18T12:40:29Z</time>
      </trkpt>
      <trkpt lat="45.84189" lon="4.81772">
        <ele>349</ele>
        <time>2011-12-18T12:40:30Z</time>
      </trkpt>
      <trkpt lat="45.84192" lon="4.81764">
        <ele>350</ele>
        <time>2011-12-18T12:40:34Z</time>
      </trkpt>
      <trkpt lat="45.84195" lon="4.8176">
        <ele>350</ele>
        <time>2011-12-18T12:40:37Z</time>
      </trkpt>
      <trkpt lat="45.84198" lon="4.81756">
        <ele>350</ele>
        <time>2011-12-18T12:40:40Z</time>
      </trkpt>
      <trkpt lat="45.84202" lon="4.8175">
        <ele>349</ele>
        <time>2011-12-18T12:40:45Z</time>
      </trkpt>
      <trkpt lat="45.84203" lon="4.81748">
        <ele>361</ele>
        <time>2011-12-18T12:40:47Z</time>
      </trkpt>
      <trkpt lat="45.84204" lon="4.81745">
        <ele>361</ele>
        <time>2011-12-18T12:40:49Z</time>
      </trkpt>
      <trkpt lat="45.84204" lon="4.8174">
        <ele>361</ele>
        <time>2011-12-18T12:40:52Z</time>
      </trkpt>
      <trkpt lat="45.84204" lon="4.81738">
        <ele>361</ele>
        <time>2011-12-18T12:40:53Z</time>
      </trkpt>
      <trkpt lat="45.84206" lon="4.81732">
        <ele>362</ele>
        <time>2011-12-18T12:40:58Z</time>
      </trkpt>
      <trkpt lat="45.84206" lon="4.8173">
        <ele>362</ele>
        <time>2011-12-18T12:40:59Z</time>
      </trkpt>
      <trkpt lat="45.84208" lon="4.81723">
        <ele>363</ele>
        <time>2011-12-18T12:41:04Z</time>
      </trkpt>
      <trkpt lat="45.8421" lon="4.81717">
        <ele>363</ele>
        <time>2011-12-18T12:41:08Z</time>
      </trkpt>
      <trkpt lat="45.84211" lon="4.81714">
        <ele>364</ele>
        <time>2011-12-18T12:41:10Z</time>
      </trkpt>
      <trkpt lat="45.84211" lon="4.81713">
        <ele>364</ele>
        <time>2011-12-18T12:41:11Z</time>
      </trkpt>
      <trkpt lat="45.84211" lon="4.8171">
        <ele>364</ele>
        <time>2011-12-18T12:41:13Z</time>
      </trkpt>
      <trkpt lat="45.84212" lon="4.81705">
        <ele>365</ele>
        <time>2011-12-18T12:41:16Z</time>
      </trkpt>
      <trkpt lat="45.84213" lon="4.81704">
        <ele>365</ele>
        <time>2011-12-18T12:41:17Z</time>
      </trkpt>
      <trkpt lat="45.84214" lon="4.817">
        <ele>366</ele>
        <time>2011-12-18T12:41:20Z</time>
      </trkpt>
      <trkpt lat="45.84214" lon="4.81699">
        <ele>366</ele>
        <time>2011-12-18T12:41:21Z</time>
      </trkpt>
      <trkpt lat="45.84218" lon="4.81689">
        <ele>367</ele>
        <time>2011-12-18T12:41:28Z</time>
      </trkpt>
      <trkpt lat="45.84218" lon="4.81682">
        <ele>368</ele>
        <time>2011-12-18T12:41:32Z</time>
      </trkpt>
      <trkpt lat="45.84218" lon="4.81682">
        <ele>368</ele>
        <time>2011-12-18T12:41:33Z</time>
      </trkpt>
      <trkpt lat="45.8422" lon="4.81676">
        <ele>369</ele>
        <time>2011-12-18T12:41:38Z</time>
      </trkpt>
      <trkpt lat="45.8422" lon="4.81674">
        <ele>369</ele>
        <time>2011-12-18T12:41:39Z</time>
      </trkpt>
      <trkpt lat="45.84219" lon="4.81665">
        <ele>379</ele>
        <time>2011-12-18T12:41:45Z</time>
      </trkpt>
      <trkpt lat="45.8422" lon="4.81663">
        <ele>379</ele>
        <time>2011-12-18T12:41:48Z</time>
      </trkpt>
      <trkpt lat="45.84221" lon="4.81659">
        <ele>379</ele>
        <time>2011-12-18T12:41:56Z</time>
      </trkpt>
      <trkpt lat="45.8422" lon="4.81658">
        <ele>379</ele>
        <time>2011-12-18T12:41:58Z</time>
      </trkpt>
      <trkpt lat="45.84219" lon="4.81654">
        <ele>379</ele>
        <time>2011-12-18T12:42:03Z</time>
      </trkpt>
      <trkpt lat="45.8422" lon="4.81651">
        <ele>379</ele>
        <time>2011-12-18T12:42:06Z</time>
      </trkpt>
      <trkpt lat="45.84221" lon="4.81648">
        <ele>379</ele>
        <time>2011-12-18T12:42:09Z</time>
      </trkpt>
      <trkpt lat="45.8422" lon="4.81647">
        <ele>379</ele>
        <time>2011-12-18T12:42:13Z</time>
      </trkpt>
      <trkpt lat="45.8422" lon="4.81639">
        <ele>380</ele>
        <time>2011-12-18T12:42:27Z</time>
      </trkpt>
      <trkpt lat="45.84219" lon="4.81638">
        <ele>380</ele>
        <time>2011-12-18T12:42:28Z</time>
      </trkpt>
      <trkpt lat="45.84219" lon="4.81628">
        <ele>381</ele>
        <time>2011-12-18T12:42:34Z</time>
      </trkpt>
      <trkpt lat="45.84218" lon="4.81623">
        <ele>381</ele>
        <time>2011-12-18T12:42:38Z</time>
      </trkpt>
      <trkpt lat="45.84217" lon="4.81622">
        <ele>381</ele>
        <time>2011-12-18T12:42:40Z</time>
      </trkpt>
      <trkpt lat="45.84214" lon="4.81617">
        <ele>381</ele>
        <time>2011-12-18T12:42:46Z</time>
      </trkpt>
      <trkpt lat="45.84214" lon="4.81612">
        <ele>381</ele>
        <time>2011-12-18T12:42:49Z</time>
      </trkpt>
      <trkpt lat="45.84216" lon="4.81612">
        <ele>382</ele>
        <time>2011-12-18T12:42:52Z</time>
      </trkpt>
      <trkpt lat="45.84216" lon="4.8161">
        <ele>382</ele>
        <time>2011-12-18T12:42:54Z</time>
      </trkpt>
      <trkpt lat="45.84218" lon="4.81608">
        <ele>382</ele>
        <time>2011-12-18T12:42:57Z</time>
      </trkpt>
      <trkpt lat="45.84218" lon="4.816">
        <ele>383</ele>
        <time>2011-12-18T12:43:01Z</time>
      </trkpt>
      <trkpt lat="45.84217" lon="4.81597">
        <ele>383</ele>
        <time>2011-12-18T12:43:03Z</time>
      </trkpt>
      <trkpt lat="45.84217" lon="4.81595">
        <ele>383</ele>
        <time>2011-12-18T12:43:04Z</time>
      </trkpt>
      <trkpt lat="45.84217" lon="4.81589">
        <ele>383</ele>
        <time>2011-12-18T12:43:07Z</time>
      </trkpt>
      <trkpt lat="45.84216" lon="4.81584">
        <ele>383</ele>
        <time>2011-12-18T12:43:10Z</time>
      </trkpt>
      <trkpt lat="45.84215" lon="4.8158">
        <ele>390</ele>
        <time>2011-12-18T12:43:13Z</time>
      </trkpt>
      <trkpt lat="45.84217" lon="4.81574">
        <ele>390</ele>
        <time>2011-12-18T12:43:18Z</time>
      </trkpt>
      <trkpt lat="45.84218" lon="4.8157">
        <ele>390</ele>
        <time>2011-12-18T12:43:21Z</time>
      </trkpt>
      <trkpt lat="45.84219" lon="4.81569">
        <ele>390</ele>
        <time>2011-12-18T12:43:22Z</time>
      </trkpt>
      <trkpt lat="45.84221" lon="4.81563">
        <ele>391</ele>
        <time>2011-12-18T12:43:27Z</time>
      </trkpt>
      <trkpt lat="45.84221" lon="4.8156">
        <ele>391</ele>
        <time>2011-12-18T12:43:28Z</time>
      </trkpt>
      <trkpt lat="45.84221" lon="4.81556">
        <ele>391</ele>
        <time>2011-12-18T12:43:30Z</time>
      </trkpt>
      <trkpt lat="45.84217" lon="4.81547">
        <ele>391</ele>
        <time>2011-12-18T12:43:37Z</time>
      </trkpt>
      <trkpt lat="45.84215" lon="4.81538">
        <ele>391</ele>
        <time>2011-12-18T12:43:44Z</time>
      </trkpt>
      <trkpt lat="45.84215" lon="4.81537">
        <ele>392</ele>
        <time>2011-12-18T12:43:45Z</time>
      </trkpt>
      <trkpt lat="45.84213" lon="4.81533">
        <ele>392</ele>
        <time>2011-12-18T12:43:49Z</time>
      </trkpt>
      <trkpt lat="45.84213" lon="4.81525">
        <ele>392</ele>
        <time>2011-12-18T12:43:55Z</time>
      </trkpt>
      <trkpt lat="45.84213" lon="4.81515">
        <ele>393</ele>
        <time>2011-12-18T12:44:01Z</time>
      </trkpt>
      <trkpt lat="45.84214" lon="4.81513">
        <ele>393</ele>
        <time>2011-12-18T12:44:02Z</time>
      </trkpt>
      <trkpt lat="45.84217" lon="4.81504">
        <ele>394</ele>
        <time>2011-12-18T12:44:08Z</time>
      </trkpt>
      <trkpt lat="45.84218" lon="4.81498">
        <ele>401</ele>
        <time>2011-12-18T12:44:12Z</time>
      </trkpt>
      <trkpt lat="45.84219" lon="4.81492">
        <ele>401</ele>
        <time>2011-12-18T12:44:17Z</time>
      </trkpt>
      <trkpt lat="45.84218" lon="4.8149">
        <ele>401</ele>
        <time>2011-12-18T12:44:19Z</time>
      </trkpt>
      <trkpt lat="45.84219" lon="4.81487">
        <ele>401</ele>
        <time>2011-12-18T12:44:22Z</time>
      </trkpt>
      <trkpt lat="45.8422" lon="4.81486">
        <ele>401</ele>
        <time>2011-12-18T12:44:23Z</time>
      </trkpt>
      <trkpt lat="45.8422" lon="4.81483">
        <ele>401</ele>
        <time>2011-12-18T12:44:25Z</time>
      </trkpt>
      <trkpt lat="45.84217" lon="4.81475">
        <ele>401</ele>
        <time>2011-12-18T12:44:29Z</time>
      </trkpt>
      <trkpt lat="45.84215" lon="4.81472">
        <ele>401</ele>
        <time>2011-12-18T12:44:31Z</time>
      </trkpt>
      <trkpt lat="45.8421" lon="4.81473">
        <ele>401</ele>
        <time>2011-12-18T12:45:20Z</time>
      </trkpt>
      <trkpt lat="45.84207" lon="4.81465">
        <ele>401</ele>
        <time>2011-12-18T12:45:26Z</time>
      </trkpt>
      <trkpt lat="45.84204" lon="4.81457">
        <ele>402</ele>
        <time>2011-12-18T12:45:30Z</time>
      </trkpt>
      <trkpt lat="45.84201" lon="4.81452">
        <ele>402</ele>
        <time>2011-12-18T12:45:33Z</time>
      </trkpt>
      <trkpt lat="45.842" lon="4.8145">
        <ele>402</ele>
        <time>2011-12-18T12:45:34Z</time>
      </trkpt>
      <trkpt lat="45.84194" lon="4.81443">
        <ele>402</ele>
        <time>2011-12-18T12:45:40Z</time>
      </trkpt>
      <trkpt lat="45.84188" lon="4.81436">
        <ele>403</ele>
        <time>2011-12-18T12:45:46Z</time>
      </trkpt>
      <trkpt lat="45.84186" lon="4.81435">
        <ele>403</ele>
        <time>2011-12-18T12:45:47Z</time>
      </trkpt>
      <trkpt lat="45.8418" lon="4.81428">
        <ele>403</ele>
        <time>2011-12-18T12:45:53Z</time>
      </trkpt>
      <trkpt lat="45.8418" lon="4.81427">
        <ele>403</ele>
        <time>2011-12-18T12:45:55Z</time>
      </trkpt>
      <trkpt lat="45.84178" lon="4.81425">
        <ele>403</ele>
        <time>2011-12-18T12:45:58Z</time>
      </trkpt>
      <trkpt lat="45.84174" lon="4.8142">
        <ele>404</ele>
        <time>2011-12-18T12:46:05Z</time>
      </trkpt>
      <trkpt lat="45.84172" lon="4.81416">
        <ele>407</ele>
        <time>2011-12-18T12:46:08Z</time>
      </trkpt>
      <trkpt lat="45.84169" lon="4.81412">
        <ele>407</ele>
        <time>2011-12-18T12:46:13Z</time>
      </trkpt>
      <trkpt lat="45.84169" lon="4.81411">
        <ele>407</ele>
        <time>2011-12-18T12:46:14Z</time>
      </trkpt>
      <trkpt lat="45.84161" lon="4.81401">
        <ele>405</ele>
        <time>2011-12-18T12:46:19Z</time>
      </trkpt>
      <trkpt lat="45.84159" lon="4.81399">
        <ele>405</ele>
        <time>2011-12-18T12:46:20Z</time>
      </trkpt>
      <trkpt lat="45.84152" lon="4.81389">
        <ele>405</ele>
        <time>2011-12-18T12:46:24Z</time>
      </trkpt>
      <trkpt lat="45.84146" lon="4.81379">
        <ele>406</ele>
        <time>2011-12-18T12:46:29Z</time>
      </trkpt>
      <trkpt lat="45.84142" lon="4.8137">
        <ele>406</ele>
        <time>2011-12-18T12:46:34Z</time>
      </trkpt>
      <trkpt lat="45.84136" lon="4.81361">
        <ele>407</ele>
        <time>2011-12-18T12:46:39Z</time>
      </trkpt>
      <trkpt lat="45.84135" lon="4.81359">
        <ele>407</ele>
        <time>2011-12-18T12:46:40Z</time>
      </trkpt>
      <trkpt lat="45.84131" lon="4.81354">
        <ele>408</ele>
        <time>2011-12-18T12:46:43Z</time>
      </trkpt>
      <trkpt lat="45.8413" lon="4.81353">
        <ele>408</ele>
        <time>2011-12-18T12:46:44Z</time>
      </trkpt>
      <trkpt lat="45.84128" lon="4.8135">
        <ele>408</ele>
        <time>2011-12-18T12:46:47Z</time>
      </trkpt>
      <trkpt lat="45.84127" lon="4.81347">
        <ele>408</ele>
        <time>2011-12-18T12:46:50Z</time>
      </trkpt>
      <trkpt lat="45.8412" lon="4.8134">
        <ele>409</ele>
        <time>2011-12-18T12:46:56Z</time>
      </trkpt>
      <trkpt lat="45.84119" lon="4.81339">
        <ele>409</ele>
        <time>2011-12-18T12:46:57Z</time>
      </trkpt>
      <trkpt lat="45.84118" lon="4.81338">
        <ele>409</ele>
        <time>2011-12-18T12:46:58Z</time>
      </trkpt>
      <trkpt lat="45.84114" lon="4.81335">
        <ele>409</ele>
        <time>2011-12-18T12:47:03Z</time>
      </trkpt>
      <trkpt lat="45.84111" lon="4.81331">
        <ele>420</ele>
        <time>2011-12-18T12:47:11Z</time>
      </trkpt>
      <trkpt lat="45.84105" lon="4.81324">
        <ele>420</ele>
        <time>2011-12-18T12:47:17Z</time>
      </trkpt>
      <trkpt lat="45.84103" lon="4.81323">
        <ele>420</ele>
        <time>2011-12-18T12:47:18Z</time>
      </trkpt>
      <trkpt lat="45.84102" lon="4.81321">
        <ele>420</ele>
        <time>2011-12-18T12:47:19Z</time>
      </trkpt>
      <trkpt lat="45.84097" lon="4.81314">
        <ele>420</ele>
        <time>2011-12-18T12:47:24Z</time>
      </trkpt>
      <trkpt lat="45.84096" lon="4.81314">
        <ele>420</ele>
        <time>2011-12-18T12:47:25Z</time>
      </trkpt>
      <trkpt lat="45.84093" lon="4.81311">
        <ele>421</ele>
        <time>2011-12-18T12:47:29Z</time>
      </trkpt>
      <trkpt lat="45.84091" lon="4.81308">
        <ele>421</ele>
        <time>2011-12-18T12:47:31Z</time>
      </trkpt>
      <trkpt lat="45.84086" lon="4.81299">
        <ele>422</ele>
        <time>2011-12-18T12:47:37Z</time>
      </trkpt>
      <trkpt lat="45.84082" lon="4.8129">
        <ele>420</ele>
        <time>2011-12-18T12:47:44Z</time>
      </trkpt>
      <trkpt lat="45.84082" lon="4.81288">
        <ele>420</ele>
        <time>2011-12-18T12:47:45Z</time>
      </trkpt>
      <trkpt lat="45.84081" lon="4.81286">
        <ele>420</ele>
        <time>2011-12-18T12:47:47Z</time>
      </trkpt>
      <trkpt lat="45.84081" lon="4.81284">
        <ele>421</ele>
        <time>2011-12-18T12:47:49Z</time>
      </trkpt>
      <trkpt lat="45.84081" lon="4.81283">
        <ele>421</ele>
        <time>2011-12-18T12:47:50Z</time>
      </trkpt>
      <trkpt lat="45.84078" lon="4.81274">
        <ele>423</ele>
        <time>2011-12-18T12:47:57Z</time>
      </trkpt>
      <trkpt lat="45.84076" lon="4.81264">
        <ele>425</ele>
        <time>2011-12-18T12:48:03Z</time>
      </trkpt>
      <trkpt lat="45.84075" lon="4.81263">
        <ele>425</ele>
        <time>2011-12-18T12:48:04Z</time>
      </trkpt>
      <trkpt lat="45.84075" lon="4.81261">
        <ele>426</ele>
        <time>2011-12-18T12:48:08Z</time>
      </trkpt>
      <trkpt lat="45.84075" lon="4.8126">
        <ele>426</ele>
        <time>2011-12-18T12:48:09Z</time>
      </trkpt>
      <trkpt lat="45.84076" lon="4.81257">
        <ele>427</ele>
        <time>2011-12-18T12:48:13Z</time>
      </trkpt>
      <trkpt lat="45.84076" lon="4.81249">
        <ele>432</ele>
        <time>2011-12-18T12:48:19Z</time>
      </trkpt>
      <trkpt lat="45.84072" lon="4.81244">
        <ele>433</ele>
        <time>2011-12-18T12:48:50Z</time>
      </trkpt>
      <trkpt lat="45.84071" lon="4.81244">
        <ele>433</ele>
        <time>2011-12-18T12:48:52Z</time>
      </trkpt>
      <trkpt lat="45.84067" lon="4.81245">
        <ele>433</ele>
        <time>2011-12-18T12:48:55Z</time>
      </trkpt>
      <trkpt lat="45.84063" lon="4.81246">
        <ele>433</ele>
        <time>2011-12-18T12:49:00Z</time>
      </trkpt>
      <trkpt lat="45.84058" lon="4.81246">
        <ele>433</ele>
        <time>2011-12-18T12:49:05Z</time>
      </trkpt>
      <trkpt lat="45.84052" lon="4.81246">
        <ele>433</ele>
        <time>2011-12-18T12:49:10Z</time>
      </trkpt>
      <trkpt lat="45.84051" lon="4.81245">
        <ele>432</ele>
        <time>2011-12-18T12:49:11Z</time>
      </trkpt>
      <trkpt lat="45.84046" lon="4.81244">
        <ele>432</ele>
        <time>2011-12-18T12:49:15Z</time>
      </trkpt>
      <trkpt lat="45.84042" lon="4.81244">
        <ele>432</ele>
        <time>2011-12-18T12:49:17Z</time>
      </trkpt>
      <trkpt lat="45.84035" lon="4.81243">
        <ele>432</ele>
        <time>2011-12-18T12:49:20Z</time>
      </trkpt>
      <trkpt lat="45.84033" lon="4.81242">
        <ele>431</ele>
        <time>2011-12-18T12:49:21Z</time>
      </trkpt>
      <trkpt lat="45.84019" lon="4.81233">
        <ele>431</ele>
        <time>2011-12-18T12:49:27Z</time>
      </trkpt>
      <trkpt lat="45.84017" lon="4.81231">
        <ele>431</ele>
        <time>2011-12-18T12:49:28Z</time>
      </trkpt>
      <trkpt lat="45.8401" lon="4.81226">
        <ele>431</ele>
        <time>2011-12-18T12:49:31Z</time>
      </trkpt>
      <trkpt lat="45.84002" lon="4.81217">
        <ele>432</ele>
        <time>2011-12-18T12:49:35Z</time>
      </trkpt>
      <trkpt lat="45.84001" lon="4.81215">
        <ele>432</ele>
        <time>2011-12-18T12:49:36Z</time>
      </trkpt>
      <trkpt lat="45.83993" lon="4.81202">
        <ele>422</ele>
        <time>2011-12-18T12:49:41Z</time>
      </trkpt>
      <trkpt lat="45.83991" lon="4.81196">
        <ele>422</ele>
        <time>2011-12-18T12:49:43Z</time>
      </trkpt>
      <trkpt lat="45.83987" lon="4.81184">
        <ele>424</ele>
        <time>2011-12-18T12:49:47Z</time>
      </trkpt>
      <trkpt lat="45.83982" lon="4.81171">
        <ele>425</ele>
        <time>2011-12-18T12:49:52Z</time>
      </trkpt>
      <trkpt lat="45.8398" lon="4.81165">
        <ele>429</ele>
        <time>2011-12-18T12:49:54Z</time>
      </trkpt>
      <trkpt lat="45.8397" lon="4.81145">
        <ele>427</ele>
        <time>2011-12-18T12:50:00Z</time>
      </trkpt>
      <trkpt lat="45.83964" lon="4.81127">
        <ele>426</ele>
        <time>2011-12-18T12:50:06Z</time>
      </trkpt>
      <trkpt lat="45.83962" lon="4.81121">
        <ele>426</ele>
        <time>2011-12-18T12:50:08Z</time>
      </trkpt>
      <trkpt lat="45.83959" lon="4.8111">
        <ele>426</ele>
        <time>2011-12-18T12:50:12Z</time>
      </trkpt>
      <trkpt lat="45.83955" lon="4.81096">
        <ele>426</ele>
        <time>2011-12-18T12:50:17Z</time>
      </trkpt>
      <trkpt lat="45.83952" lon="4.81081">
        <ele>428</ele>
        <time>2011-12-18T12:50:22Z</time>
      </trkpt>
      <trkpt lat="45.83949" lon="4.81068">
        <ele>428</ele>
        <time>2011-12-18T12:50:26Z</time>
      </trkpt>
      <trkpt lat="45.83947" lon="4.81062">
        <ele>428</ele>
        <time>2011-12-18T12:50:27Z</time>
      </trkpt>
      <trkpt lat="45.83944" lon="4.81046">
        <ele>428</ele>
        <time>2011-12-18T12:50:32Z</time>
      </trkpt>
      <trkpt lat="45.83944" lon="4.81043">
        <ele>428</ele>
        <time>2011-12-18T12:50:33Z</time>
      </trkpt>
      <trkpt lat="45.83943" lon="4.81032">
        <ele>428</ele>
        <time>2011-12-18T12:50:36Z</time>
      </trkpt>
      <trkpt lat="45.83944" lon="4.81029">
        <ele>428</ele>
        <time>2011-12-18T12:50:37Z</time>
      </trkpt>
      <trkpt lat="45.83944" lon="4.81019">
        <ele>428</ele>
        <time>2011-12-18T12:50:40Z</time>
      </trkpt>
      <trkpt lat="45.83945" lon="4.81016">
        <ele>428</ele>
        <time>2011-12-18T12:50:41Z</time>
      </trkpt>
      <trkpt lat="45.83945" lon="4.80998">
        <ele>428</ele>
        <time>2011-12-18T12:50:46Z</time>
      </trkpt>
      <trkpt lat="45.83946" lon="4.80987">
        <ele>429</ele>
        <time>2011-12-18T12:50:49Z</time>
      </trkpt>
      <trkpt lat="45.83948" lon="4.80978">
        <ele>429</ele>
        <time>2011-12-18T12:50:52Z</time>
      </trkpt>
      <trkpt lat="45.8395" lon="4.80963">
        <ele>430</ele>
        <time>2011-12-18T12:50:56Z</time>
      </trkpt>
      <trkpt lat="45.83951" lon="4.8096">
        <ele>430</ele>
        <time>2011-12-18T12:50:57Z</time>
      </trkpt>
      <trkpt lat="45.83955" lon="4.8094">
        <ele>430</ele>
        <time>2011-12-18T12:51:03Z</time>
      </trkpt>
      <trkpt lat="45.83957" lon="4.80933">
        <ele>431</ele>
        <time>2011-12-18T12:51:05Z</time>
      </trkpt>
      <trkpt lat="45.83957" lon="4.80929">
        <ele>431</ele>
        <time>2011-12-18T12:51:06Z</time>
      </trkpt>
      <trkpt lat="45.83958" lon="4.8092">
        <ele>431</ele>
        <time>2011-12-18T12:51:08Z</time>
      </trkpt>
      <trkpt lat="45.83961" lon="4.80905">
        <ele>434</ele>
        <time>2011-12-18T12:51:12Z</time>
      </trkpt>
      <trkpt lat="45.83963" lon="4.80895">
        <ele>434</ele>
        <time>2011-12-18T12:51:15Z</time>
      </trkpt>
      <trkpt lat="45.83968" lon="4.80877">
        <ele>435</ele>
        <time>2011-12-18T12:51:19Z</time>
      </trkpt>
      <trkpt lat="45.8397" lon="4.80874">
        <ele>436</ele>
        <time>2011-12-18T12:51:20Z</time>
      </trkpt>
      <trkpt lat="45.83971" lon="4.80867">
        <ele>436</ele>
        <time>2011-12-18T12:51:22Z</time>
      </trkpt>
      <trkpt lat="45.83968" lon="4.80864">
        <ele>436</ele>
        <time>2011-12-18T12:51:24Z</time>
      </trkpt>
      <trkpt lat="45.83962" lon="4.8086">
        <ele>435</ele>
        <time>2011-12-18T12:51:26Z</time>
      </trkpt>
      <trkpt lat="45.83949" lon="4.8085">
        <ele>435</ele>
        <time>2011-12-18T12:51:29Z</time>
      </trkpt>
      <trkpt lat="45.83943" lon="4.80847">
        <ele>435</ele>
        <time>2011-12-18T12:51:31Z</time>
      </trkpt>
      <trkpt lat="45.83931" lon="4.80846">
        <ele>434</ele>
        <time>2011-12-18T12:51:35Z</time>
      </trkpt>
      <trkpt lat="45.83928" lon="4.80846">
        <ele>434</ele>
        <time>2011-12-18T12:51:36Z</time>
      </trkpt>
      <trkpt lat="45.83923" lon="4.80846">
        <ele>434</ele>
        <time>2011-12-18T12:51:38Z</time>
      </trkpt>
      <trkpt lat="45.8392" lon="4.80846">
        <ele>434</ele>
        <time>2011-12-18T12:51:39Z</time>
      </trkpt>
      <trkpt lat="45.83908" lon="4.80845">
        <ele>428</ele>
        <time>2011-12-18T12:51:44Z</time>
      </trkpt>
      <trkpt lat="45.83902" lon="4.80845">
        <ele>427</ele>
        <time>2011-12-18T12:51:46Z</time>
      </trkpt>
      <trkpt lat="45.83891" lon="4.80846">
        <ele>425</ele>
        <time>2011-12-18T12:51:50Z</time>
      </trkpt>
      <trkpt lat="45.83882" lon="4.80849">
        <ele>424</ele>
        <time>2011-12-18T12:51:53Z</time>
      </trkpt>
      <trkpt lat="45.83872" lon="4.80848">
        <ele>423</ele>
        <time>2011-12-18T12:51:57Z</time>
      </trkpt>
      <trkpt lat="45.83864" lon="4.80849">
        <ele>422</ele>
        <time>2011-12-18T12:52:00Z</time>
      </trkpt>
      <trkpt lat="45.83858" lon="4.80849">
        <ele>422</ele>
        <time>2011-12-18T12:52:02Z</time>
      </trkpt>
      <trkpt lat="45.83844" lon="4.80849">
        <ele>421</ele>
        <time>2011-12-18T12:52:07Z</time>
      </trkpt>
      <trkpt lat="45.83829" lon="4.80844">
        <ele>418</ele>
        <time>2011-12-18T12:52:12Z</time>
      </trkpt>
      <trkpt lat="45.83826" lon="4.8084">
        <ele>418</ele>
        <time>2011-12-18T12:52:13Z</time>
      </trkpt>
      <trkpt lat="45.83818" lon="4.80826">
        <ele>422</ele>
        <time>2011-12-18T12:52:17Z</time>
      </trkpt>
      <trkpt lat="45.83815" lon="4.80818">
        <ele>422</ele>
        <time>2011-12-18T12:52:19Z</time>
      </trkpt>
      <trkpt lat="45.83813" lon="4.80811">
        <ele>423</ele>
        <time>2011-12-18T12:52:21Z</time>
      </trkpt>
      <trkpt lat="45.83808" lon="4.80793">
        <ele>424</ele>
        <time>2011-12-18T12:52:26Z</time>
      </trkpt>
      <trkpt lat="45.83798" lon="4.80776">
        <ele>424</ele>
        <time>2011-12-18T12:52:32Z</time>
      </trkpt>
      <trkpt lat="45.83795" lon="4.80773">
        <ele>424</ele>
        <time>2011-12-18T12:52:33Z</time>
      </trkpt>
      <trkpt lat="45.83784" lon="4.80757">
        <ele>423</ele>
        <time>2011-12-18T12:52:38Z</time>
      </trkpt>
      <trkpt lat="45.83781" lon="4.80754">
        <ele>422</ele>
        <time>2011-12-18T12:52:39Z</time>
      </trkpt>
      <trkpt lat="45.83773" lon="4.80742">
        <ele>426</ele>
        <time>2011-12-18T12:52:43Z</time>
      </trkpt>
      <trkpt lat="45.83767" lon="4.80736">
        <ele>426</ele>
        <time>2011-12-18T12:52:45Z</time>
      </trkpt>
      <trkpt lat="45.8376" lon="4.80728">
        <ele>426</ele>
        <time>2011-12-18T12:52:48Z</time>
      </trkpt>
      <trkpt lat="45.8375" lon="4.80716">
        <ele>427</ele>
        <time>2011-12-18T12:52:52Z</time>
      </trkpt>
      <trkpt lat="45.83738" lon="4.80705">
        <ele>422</ele>
        <time>2011-12-18T12:52:57Z</time>
      </trkpt>
      <trkpt lat="45.83734" lon="4.80705">
        <ele>422</ele>
        <time>2011-12-18T12:52:59Z</time>
      </trkpt>
      <trkpt lat="45.83727" lon="4.80705">
        <ele>422</ele>
        <time>2011-12-18T12:53:02Z</time>
      </trkpt>
      <trkpt lat="45.83724" lon="4.80703">
        <ele>422</ele>
        <time>2011-12-18T12:53:04Z</time>
      </trkpt>
      <trkpt lat="45.83723" lon="4.807">
        <ele>422</ele>
        <time>2011-12-18T12:53:06Z</time>
      </trkpt>
      <trkpt lat="45.83723" lon="4.80691">
        <ele>422</ele>
        <time>2011-12-18T12:53:11Z</time>
      </trkpt>
      <trkpt lat="45.83723" lon="4.80685">
        <ele>423</ele>
        <time>2011-12-18T12:53:14Z</time>
      </trkpt>
      <trkpt lat="45.83721" lon="4.80668">
        <ele>423</ele>
        <time>2011-12-18T12:53:23Z</time>
      </trkpt>
      <trkpt lat="45.8372" lon="4.80665">
        <ele>430</ele>
        <time>2011-12-18T12:53:25Z</time>
      </trkpt>
      <trkpt lat="45.83719" lon="4.80656">
        <ele>431</ele>
        <time>2011-12-18T12:53:31Z</time>
      </trkpt>
      <trkpt lat="45.83717" lon="4.80642">
        <ele>432</ele>
        <time>2011-12-18T12:53:39Z</time>
      </trkpt>
      <trkpt lat="45.83717" lon="4.8064">
        <ele>432</ele>
        <time>2011-12-18T12:53:41Z</time>
      </trkpt>
      <trkpt lat="45.83716" lon="4.80628">
        <ele>433</ele>
        <time>2011-12-18T12:53:49Z</time>
      </trkpt>
      <trkpt lat="45.83715" lon="4.80617">
        <ele>434</ele>
        <time>2011-12-18T12:53:56Z</time>
      </trkpt>
      <trkpt lat="45.83714" lon="4.80614">
        <ele>434</ele>
        <time>2011-12-18T12:53:58Z</time>
      </trkpt>
      <trkpt lat="45.83714" lon="4.80604">
        <ele>435</ele>
        <time>2011-12-18T12:54:04Z</time>
      </trkpt>
      <trkpt lat="45.83712" lon="4.80592">
        <ele>436</ele>
        <time>2011-12-18T12:54:12Z</time>
      </trkpt>
      <trkpt lat="45.83712" lon="4.80588">
        <ele>436</ele>
        <time>2011-12-18T12:54:14Z</time>
      </trkpt>
      <trkpt lat="45.8371" lon="4.80576">
        <ele>445</ele>
        <time>2011-12-18T12:54:21Z</time>
      </trkpt>
      <trkpt lat="45.83705" lon="4.80563">
        <ele>446</ele>
        <time>2011-12-18T12:54:29Z</time>
      </trkpt>
      <trkpt lat="45.83703" lon="4.80562">
        <ele>446</ele>
        <time>2011-12-18T12:54:31Z</time>
      </trkpt>
      <trkpt lat="45.83697" lon="4.80563">
        <ele>446</ele>
        <time>2011-12-18T12:54:35Z</time>
      </trkpt>
      <trkpt lat="45.83687" lon="4.80566">
        <ele>446</ele>
        <time>2011-12-18T12:54:41Z</time>
      </trkpt>
      <trkpt lat="45.83684" lon="4.80567">
        <ele>445</ele>
        <time>2011-12-18T12:54:43Z</time>
      </trkpt>
      <trkpt lat="45.83674" lon="4.80575">
        <ele>444</ele>
        <time>2011-12-18T12:54:51Z</time>
      </trkpt>
      <trkpt lat="45.8367" lon="4.80577">
        <ele>443</ele>
        <time>2011-12-18T12:54:54Z</time>
      </trkpt>
      <trkpt lat="45.83664" lon="4.8058">
        <ele>444</ele>
        <time>2011-12-18T12:54:58Z</time>
      </trkpt>
      <trkpt lat="45.83653" lon="4.80585">
        <ele>441</ele>
        <time>2011-12-18T12:55:05Z</time>
      </trkpt>
      <trkpt lat="45.83651" lon="4.80585">
        <ele>441</ele>
        <time>2011-12-18T12:55:06Z</time>
      </trkpt>
      <trkpt lat="45.83642" lon="4.80591">
        <ele>440</ele>
        <time>2011-12-18T12:55:10Z</time>
      </trkpt>
      <trkpt lat="45.83634" lon="4.80596">
        <ele>440</ele>
        <time>2011-12-18T12:55:13Z</time>
      </trkpt>
      <trkpt lat="45.83625" lon="4.80603">
        <ele>440</ele>
        <time>2011-12-18T12:55:16Z</time>
      </trkpt>
      <trkpt lat="45.83617" lon="4.80609">
        <ele>440</ele>
        <time>2011-12-18T12:55:19Z</time>
      </trkpt>
      <trkpt lat="45.83611" lon="4.80613">
        <ele>440</ele>
        <time>2011-12-18T12:55:21Z</time>
      </trkpt>
      <trkpt lat="45.836" lon="4.8062">
        <ele>440</ele>
        <time>2011-12-18T12:55:25Z</time>
      </trkpt>
      <trkpt lat="45.83595" lon="4.80623">
        <ele>440</ele>
        <time>2011-12-18T12:55:27Z</time>
      </trkpt>
      <trkpt lat="45.83582" lon="4.80631">
        <ele>443</ele>
        <time>2011-12-18T12:55:32Z</time>
      </trkpt>
      <trkpt lat="45.8358" lon="4.80633">
        <ele>443</ele>
        <time>2011-12-18T12:55:33Z</time>
      </trkpt>
      <trkpt lat="45.83565" lon="4.80641">
        <ele>442</ele>
        <time>2011-12-18T12:55:39Z</time>
      </trkpt>
      <trkpt lat="45.83554" lon="4.8065">
        <ele>442</ele>
        <time>2011-12-18T12:55:44Z</time>
      </trkpt>
      <trkpt lat="45.83548" lon="4.80653">
        <ele>442</ele>
        <time>2011-12-18T12:55:46Z</time>
      </trkpt>
      <trkpt lat="45.83541" lon="4.80659">
        <ele>442</ele>
        <time>2011-12-18T12:55:49Z</time>
      </trkpt>
      <trkpt lat="45.8353" lon="4.80667">
        <ele>433</ele>
        <time>2011-12-18T12:55:53Z</time>
      </trkpt>
      <trkpt lat="45.83525" lon="4.80671">
        <ele>433</ele>
        <time>2011-12-18T12:55:55Z</time>
      </trkpt>
      <trkpt lat="45.83513" lon="4.80678">
        <ele>435</ele>
        <time>2011-12-18T12:56:00Z</time>
      </trkpt>
      <trkpt lat="45.83511" lon="4.8068">
        <ele>435</ele>
        <time>2011-12-18T12:56:01Z</time>
      </trkpt>
      <trkpt lat="45.83497" lon="4.80689">
        <ele>435</ele>
        <time>2011-12-18T12:56:07Z</time>
      </trkpt>
      <trkpt lat="45.83482" lon="4.80698">
        <ele>433</ele>
        <time>2011-12-18T12:56:13Z</time>
      </trkpt>
      <trkpt lat="45.8348" lon="4.80699">
        <ele>433</ele>
        <time>2011-12-18T12:56:14Z</time>
      </trkpt>
      <trkpt lat="45.83466" lon="4.80707">
        <ele>432</ele>
        <time>2011-12-18T12:56:20Z</time>
      </trkpt>
      <trkpt lat="45.83461" lon="4.8071">
        <ele>432</ele>
        <time>2011-12-18T12:56:22Z</time>
      </trkpt>
      <trkpt lat="45.83451" lon="4.80716">
        <ele>431</ele>
        <time>2011-12-18T12:56:26Z</time>
      </trkpt>
      <trkpt lat="45.83442" lon="4.80721">
        <ele>431</ele>
        <time>2011-12-18T12:56:30Z</time>
      </trkpt>
      <trkpt lat="45.83437" lon="4.80723">
        <ele>431</ele>
        <time>2011-12-18T12:56:32Z</time>
      </trkpt>
      <trkpt lat="45.83424" lon="4.80728">
        <ele>430</ele>
        <time>2011-12-18T12:56:38Z</time>
      </trkpt>
      <trkpt lat="45.83411" lon="4.80723">
        <ele>430</ele>
        <time>2011-12-18T12:56:44Z</time>
      </trkpt>
      <trkpt lat="45.83407" lon="4.80716">
        <ele>430</ele>
        <time>2011-12-18T12:56:47Z</time>
      </trkpt>
      <trkpt lat="45.83402" lon="4.80706">
        <ele>431</ele>
        <time>2011-12-18T12:56:51Z</time>
      </trkpt>
      <trkpt lat="45.83398" lon="4.80694">
        <ele>432</ele>
        <time>2011-12-18T12:56:56Z</time>
      </trkpt>
      <trkpt lat="45.83396" lon="4.80689">
        <ele>432</ele>
        <time>2011-12-18T12:56:58Z</time>
      </trkpt>
      <trkpt lat="45.83388" lon="4.80671">
        <ele>432</ele>
        <time>2011-12-18T12:57:05Z</time>
      </trkpt>
      <trkpt lat="45.83383" lon="4.80663">
        <ele>435</ele>
        <time>2011-12-18T12:57:09Z</time>
      </trkpt>
      <trkpt lat="45.83381" lon="4.80664">
        <ele>435</ele>
        <time>2011-12-18T12:57:11Z</time>
      </trkpt>
      <trkpt lat="45.83372" lon="4.80669">
        <ele>431</ele>
        <time>2011-12-18T12:57:16Z</time>
      </trkpt>
      <trkpt lat="45.83368" lon="4.80669">
        <ele>430</ele>
        <time>2011-12-18T12:57:18Z</time>
      </trkpt>
      <trkpt lat="45.8336" lon="4.80667">
        <ele>430</ele>
        <time>2011-12-18T12:57:23Z</time>
      </trkpt>
      <trkpt lat="45.83357" lon="4.80666">
        <ele>432</ele>
        <time>2011-12-18T12:57:26Z</time>
      </trkpt>
      <trkpt lat="45.83355" lon="4.80667">
        <ele>429</ele>
        <time>2011-12-18T12:57:28Z</time>
      </trkpt>
      <trkpt lat="45.83353" lon="4.80668">
        <ele>429</ele>
        <time>2011-12-18T12:57:29Z</time>
      </trkpt>
      <trkpt lat="45.83352" lon="4.80669">
        <ele>429</ele>
        <time>2011-12-18T12:57:30Z</time>
      </trkpt>
      <trkpt lat="45.83347" lon="4.80673">
        <ele>429</ele>
        <time>2011-12-18T12:57:33Z</time>
      </trkpt>
      <trkpt lat="45.83345" lon="4.80677">
        <ele>429</ele>
        <time>2011-12-18T12:57:35Z</time>
      </trkpt>
      <trkpt lat="45.83342" lon="4.80686">
        <ele>429</ele>
        <time>2011-12-18T12:57:38Z</time>
      </trkpt>
      <trkpt lat="45.8334" lon="4.80691">
        <ele>429</ele>
        <time>2011-12-18T12:57:40Z</time>
      </trkpt>
      <trkpt lat="45.83327" lon="4.80705">
        <ele>424</ele>
        <time>2011-12-18T12:57:47Z</time>
      </trkpt>
      <trkpt lat="45.83324" lon="4.80706">
        <ele>424</ele>
        <time>2011-12-18T12:57:48Z</time>
      </trkpt>
      <trkpt lat="45.83317" lon="4.80707">
        <ele>424</ele>
        <time>2011-12-18T12:57:51Z</time>
      </trkpt>
      <trkpt lat="45.83309" lon="4.80712">
        <ele>424</ele>
        <time>2011-12-18T12:57:55Z</time>
      </trkpt>
      <trkpt lat="45.83299" lon="4.80717">
        <ele>423</ele>
        <time>2011-12-18T12:58:00Z</time>
      </trkpt>
      <trkpt lat="45.83292" lon="4.80712">
        <ele>423</ele>
        <time>2011-12-18T12:58:04Z</time>
      </trkpt>
      <trkpt lat="45.8329" lon="4.80711">
        <ele>423</ele>
        <time>2011-12-18T12:58:05Z</time>
      </trkpt>
      <trkpt lat="45.83289" lon="4.80712">
        <ele>423</ele>
        <time>2011-12-18T12:58:06Z</time>
      </trkpt>
      <trkpt lat="45.83286" lon="4.80718">
        <ele>423</ele>
        <time>2011-12-18T12:58:09Z</time>
      </trkpt>
      <trkpt lat="45.83284" lon="4.80726">
        <ele>423</ele>
        <time>2011-12-18T12:58:14Z</time>
      </trkpt>
      <trkpt lat="45.83282" lon="4.80731">
        <ele>422</ele>
        <time>2011-12-18T12:58:16Z</time>
      </trkpt>
      <trkpt lat="45.83279" lon="4.80736">
        <ele>422</ele>
        <time>2011-12-18T12:58:18Z</time>
      </trkpt>
      <trkpt lat="45.83279" lon="4.80747">
        <ele>422</ele>
        <time>2011-12-18T12:58:22Z</time>
      </trkpt>
      <trkpt lat="45.83276" lon="4.80754">
        <ele>421</ele>
        <time>2011-12-18T12:58:25Z</time>
      </trkpt>
      <trkpt lat="45.83275" lon="4.80758">
        <ele>421</ele>
        <time>2011-12-18T12:58:26Z</time>
      </trkpt>
      <trkpt lat="45.83273" lon="4.8076">
        <ele>421</ele>
        <time>2011-12-18T12:58:27Z</time>
      </trkpt>
      <trkpt lat="45.83268" lon="4.80767">
        <ele>420</ele>
        <time>2011-12-18T12:58:30Z</time>
      </trkpt>
      <trkpt lat="45.83263" lon="4.80769">
        <ele>420</ele>
        <time>2011-12-18T12:58:32Z</time>
      </trkpt>
      <trkpt lat="45.83255" lon="4.8077">
        <ele>420</ele>
        <time>2011-12-18T12:58:35Z</time>
      </trkpt>
      <trkpt lat="45.8325" lon="4.80773">
        <ele>419</ele>
        <time>2011-12-18T12:58:38Z</time>
      </trkpt>
      <trkpt lat="45.83248" lon="4.80776">
        <ele>419</ele>
        <time>2011-12-18T12:58:39Z</time>
      </trkpt>
      <trkpt lat="45.83246" lon="4.80779">
        <ele>419</ele>
        <time>2011-12-18T12:58:40Z</time>
      </trkpt>
      <trkpt lat="45.8324" lon="4.80784">
        <ele>419</ele>
        <time>2011-12-18T12:58:43Z</time>
      </trkpt>
      <trkpt lat="45.83233" lon="4.80796">
        <ele>419</ele>
        <time>2011-12-18T12:58:47Z</time>
      </trkpt>
      <trkpt lat="45.83226" lon="4.80809">
        <ele>418</ele>
        <time>2011-12-18T12:58:51Z</time>
      </trkpt>
      <trkpt lat="45.83225" lon="4.80812">
        <ele>418</ele>
        <time>2011-12-18T12:58:52Z</time>
      </trkpt>
      <trkpt lat="45.83221" lon="4.80818">
        <ele>418</ele>
        <time>2011-12-18T12:58:54Z</time>
      </trkpt>
      <trkpt lat="45.83217" lon="4.80826">
        <ele>418</ele>
        <time>2011-12-18T12:58:57Z</time>
      </trkpt>
      <trkpt lat="45.83212" lon="4.8083">
        <ele>418</ele>
        <time>2011-12-18T12:58:59Z</time>
      </trkpt>
      <trkpt lat="45.83208" lon="4.80831">
        <ele>418</ele>
        <time>2011-12-18T12:59:01Z</time>
      </trkpt>
      <trkpt lat="45.83206" lon="4.80832">
        <ele>418</ele>
        <time>2011-12-18T12:59:02Z</time>
      </trkpt>
      <trkpt lat="45.83202" lon="4.80831">
        <ele>418</ele>
        <time>2011-12-18T12:59:04Z</time>
      </trkpt>
      <trkpt lat="45.83194" lon="4.80829">
        <ele>418</ele>
        <time>2011-12-18T12:59:07Z</time>
      </trkpt>
      <trkpt lat="45.83191" lon="4.80827">
        <ele>418</ele>
        <time>2011-12-18T12:59:08Z</time>
      </trkpt>
      <trkpt lat="45.83189" lon="4.80826">
        <ele>418</ele>
        <time>2011-12-18T12:59:09Z</time>
      </trkpt>
      <trkpt lat="45.83187" lon="4.80825">
        <ele>418</ele>
        <time>2011-12-18T12:59:10Z</time>
      </trkpt>
      <trkpt lat="45.83181" lon="4.80823">
        <ele>418</ele>
        <time>2011-12-18T12:59:13Z</time>
      </trkpt>
      <trkpt lat="45.83177" lon="4.80823">
        <ele>418</ele>
        <time>2011-12-18T12:59:15Z</time>
      </trkpt>
      <trkpt lat="45.83171" lon="4.8082">
        <ele>418</ele>
        <time>2011-12-18T12:59:18Z</time>
      </trkpt>
      <trkpt lat="45.83166" lon="4.80819">
        <ele>420</ele>
        <time>2011-12-18T12:59:20Z</time>
      </trkpt>
      <trkpt lat="45.83156" lon="4.8082">
        <ele>420</ele>
        <time>2011-12-18T12:59:25Z</time>
      </trkpt>
      <trkpt lat="45.83152" lon="4.80821">
        <ele>420</ele>
        <time>2011-12-18T12:59:28Z</time>
      </trkpt>
      <trkpt lat="45.83149" lon="4.80824">
        <ele>420</ele>
        <time>2011-12-18T12:59:30Z</time>
      </trkpt>
      <trkpt lat="45.83147" lon="4.80828">
        <ele>420</ele>
        <time>2011-12-18T12:59:32Z</time>
      </trkpt>
      <trkpt lat="45.83144" lon="4.80831">
        <ele>420</ele>
        <time>2011-12-18T12:59:35Z</time>
      </trkpt>
      <trkpt lat="45.83136" lon="4.80835">
        <ele>418</ele>
        <time>2011-12-18T12:59:42Z</time>
      </trkpt>
      <trkpt lat="45.83135" lon="4.80835">
        <ele>418</ele>
        <time>2011-12-18T12:59:43Z</time>
      </trkpt>
      <trkpt lat="45.83132" lon="4.80838">
        <ele>418</ele>
        <time>2011-12-18T12:59:46Z</time>
      </trkpt>
      <trkpt lat="45.83129" lon="4.80841">
        <ele>418</ele>
        <time>2011-12-18T12:59:50Z</time>
      </trkpt>
      <trkpt lat="45.83122" lon="4.80844">
        <ele>418</ele>
        <time>2011-12-18T12:59:58Z</time>
      </trkpt>
      <trkpt lat="45.83119" lon="4.80845">
        <ele>418</ele>
        <time>2011-12-18T13:00:01Z</time>
      </trkpt>
      <trkpt lat="45.83118" lon="4.80844">
        <ele>418</ele>
        <time>2011-12-18T13:00:03Z</time>
      </trkpt>
      <trkpt lat="45.83116" lon="4.80843">
        <ele>418</ele>
        <time>2011-12-18T13:00:05Z</time>
      </trkpt>
      <trkpt lat="45.8311" lon="4.80846">
        <ele>419</ele>
        <time>2011-12-18T13:00:19Z</time>
      </trkpt>
      <trkpt lat="45.83106" lon="4.80854">
        <ele>419</ele>
        <time>2011-12-18T13:00:22Z</time>
      </trkpt>
      <trkpt lat="45.83101" lon="4.80861">
        <ele>418</ele>
        <time>2011-12-18T13:00:25Z</time>
      </trkpt>
      <trkpt lat="45.83091" lon="4.80874">
        <ele>418</ele>
        <time>2011-12-18T13:00:30Z</time>
      </trkpt>
      <trkpt lat="45.83079" lon="4.80888">
        <ele>419</ele>
        <time>2011-12-18T13:00:36Z</time>
      </trkpt>
      <trkpt lat="45.83075" lon="4.80893">
        <ele>419</ele>
        <time>2011-12-18T13:00:38Z</time>
      </trkpt>
      <trkpt lat="45.83065" lon="4.80904">
        <ele>418</ele>
        <time>2011-12-18T13:00:43Z</time>
      </trkpt>
      <trkpt lat="45.83059" lon="4.8091">
        <ele>418</ele>
        <time>2011-12-18T13:00:46Z</time>
      </trkpt>
      <trkpt lat="45.83056" lon="4.80915">
        <ele>418</ele>
        <time>2011-12-18T13:00:48Z</time>
      </trkpt>
      <trkpt lat="45.83046" lon="4.80927">
        <ele>415</ele>
        <time>2011-12-18T13:00:53Z</time>
      </trkpt>
      <trkpt lat="45.83044" lon="4.80929">
        <ele>415</ele>
        <time>2011-12-18T13:00:54Z</time>
      </trkpt>
      <trkpt lat="45.83031" lon="4.80944">
        <ele>414</ele>
        <time>2011-12-18T13:01:00Z</time>
      </trkpt>
      <trkpt lat="45.83018" lon="4.80956">
        <ele>414</ele>
        <time>2011-12-18T13:01:06Z</time>
      </trkpt>
      <trkpt lat="45.83016" lon="4.80958">
        <ele>414</ele>
        <time>2011-12-18T13:01:07Z</time>
      </trkpt>
      <trkpt lat="45.83004" lon="4.80968">
        <ele>414</ele>
        <time>2011-12-18T13:01:12Z</time>
      </trkpt>
      <trkpt lat="45.83" lon="4.80974">
        <ele>414</ele>
        <time>2011-12-18T13:01:14Z</time>
      </trkpt>
      <trkpt lat="45.82991" lon="4.80983">
        <ele>414</ele>
        <time>2011-12-18T13:01:18Z</time>
      </trkpt>
      <trkpt lat="45.82985" lon="4.8099">
        <ele>414</ele>
        <time>2011-12-18T13:01:21Z</time>
      </trkpt>
      <trkpt lat="45.82978" lon="4.80997">
        <ele>413</ele>
        <time>2011-12-18T13:01:24Z</time>
      </trkpt>
      <trkpt lat="45.82969" lon="4.81005">
        <ele>411</ele>
        <time>2011-12-18T13:01:28Z</time>
      </trkpt>
      <trkpt lat="45.8296" lon="4.81015">
        <ele>410</ele>
        <time>2011-12-18T13:01:32Z</time>
      </trkpt>
      <trkpt lat="45.82954" lon="4.81022">
        <ele>410</ele>
        <time>2011-12-18T13:01:35Z</time>
      </trkpt>
      <trkpt lat="45.82949" lon="4.81026">
        <ele>410</ele>
        <time>2011-12-18T13:01:37Z</time>
      </trkpt>
      <trkpt lat="45.82939" lon="4.81037">
        <ele>409</ele>
        <time>2011-12-18T13:01:41Z</time>
      </trkpt>
      <trkpt lat="45.82935" lon="4.81042">
        <ele>409</ele>
        <time>2011-12-18T13:01:43Z</time>
      </trkpt>
      <trkpt lat="45.82923" lon="4.81053">
        <ele>409</ele>
        <time>2011-12-18T13:01:48Z</time>
      </trkpt>
      <trkpt lat="45.82909" lon="4.81067">
        <ele>408</ele>
        <time>2011-12-18T13:01:53Z</time>
      </trkpt>
      <trkpt lat="45.82907" lon="4.81069">
        <ele>408</ele>
        <time>2011-12-18T13:01:54Z</time>
      </trkpt>
      <trkpt lat="45.82895" lon="4.81083">
        <ele>407</ele>
        <time>2011-12-18T13:01:59Z</time>
      </trkpt>
      <trkpt lat="45.82892" lon="4.81086">
        <ele>408</ele>
        <time>2011-12-18T13:02:00Z</time>
      </trkpt>
      <trkpt lat="45.82878" lon="4.81101">
        <ele>408</ele>
        <time>2011-12-18T13:02:06Z</time>
      </trkpt>
      <trkpt lat="45.82875" lon="4.81103">
        <ele>408</ele>
        <time>2011-12-18T13:02:07Z</time>
      </trkpt>
      <trkpt lat="45.82862" lon="4.81115">
        <ele>407</ele>
        <time>2011-12-18T13:02:12Z</time>
      </trkpt>
      <trkpt lat="45.82859" lon="4.81118">
        <ele>407</ele>
        <time>2011-12-18T13:02:13Z</time>
      </trkpt>
      <trkpt lat="45.82844" lon="4.81132">
        <ele>408</ele>
        <time>2011-12-18T13:02:19Z</time>
      </trkpt>
      <trkpt lat="45.82843" lon="4.81135">
        <ele>408</ele>
        <time>2011-12-18T13:02:20Z</time>
      </trkpt>
      <trkpt lat="45.82842" lon="4.81147">
        <ele>408</ele>
        <time>2011-12-18T13:02:23Z</time>
      </trkpt>
      <trkpt lat="45.82838" lon="4.81163">
        <ele>409</ele>
        <time>2011-12-18T13:02:27Z</time>
      </trkpt>
      <trkpt lat="45.82831" lon="4.81185">
        <ele>410</ele>
        <time>2011-12-18T13:02:33Z</time>
      </trkpt>
      <trkpt lat="45.82831" lon="4.81188">
        <ele>410</ele>
        <time>2011-12-18T13:02:34Z</time>
      </trkpt>
      <trkpt lat="45.82824" lon="4.81209">
        <ele>411</ele>
        <time>2011-12-18T13:02:40Z</time>
      </trkpt>
      <trkpt lat="45.82823" lon="4.81213">
        <ele>411</ele>
        <time>2011-12-18T13:02:41Z</time>
      </trkpt>
      <trkpt lat="45.82818" lon="4.8123">
        <ele>411</ele>
        <time>2011-12-18T13:02:46Z</time>
      </trkpt>
      <trkpt lat="45.82815" lon="4.81239">
        <ele>411</ele>
        <time>2011-12-18T13:02:49Z</time>
      </trkpt>
      <trkpt lat="45.82811" lon="4.81248">
        <ele>411</ele>
        <time>2011-12-18T13:02:52Z</time>
      </trkpt>
      <trkpt lat="45.82806" lon="4.81262">
        <ele>413</ele>
        <time>2011-12-18T13:02:57Z</time>
      </trkpt>
      <trkpt lat="45.82804" lon="4.81265">
        <ele>413</ele>
        <time>2011-12-18T13:02:58Z</time>
      </trkpt>
      <trkpt lat="45.82798" lon="4.81281">
        <ele>413</ele>
        <time>2011-12-18T13:03:03Z</time>
      </trkpt>
      <trkpt lat="45.82796" lon="4.81285">
        <ele>413</ele>
        <time>2011-12-18T13:03:04Z</time>
      </trkpt>
    </trkseg>
  </trk>
</gpx>